<?xml version="1.0" encoding="UTF-8" standalone="no" ?>
<gpx xmlns="http://www.topografix.com/GPX/1/1" xmlns:xsi="http://www.w3.org/2001/XMLSchema-instance" xsi:schemaLocation="http://www.topografix.com/GPX/1/1 http://www.topografix.com/GPX/1/1/gpx.xsd" version="1.1" creator="VisuGPX - https://www.visugpx.com">
  <metadata>
    <name>Vesion Courte (Explo) in progress</name>
  </metadata>
  <wpt lat="44.03563" lon="5.62832">
    <ele>766.1</ele>
    <name><![CDATA[Essence]]></name>
    <type><![CDATA[essence]]></type>
  </wpt>
  <wpt lat="43.85745" lon="5.59421">
    <ele>370.6</ele>
    <name><![CDATA[Essence]]></name>
    <type><![CDATA[essence]]></type>
  </wpt>
  <wpt lat="44.19605" lon="5.53755">
    <ele>819</ele>
    <name><![CDATA[Essence]]></name>
    <type><![CDATA[essence]]></type>
  </wpt>
  <trk>
    <name><![CDATA[Vesion Courte (Explo)]]></name>
    <extensions>
      <line xmlns="http://www.topografix.com/GPX/gpx_style/0/2">
        <color>ff3300</color>
        <width>4</width>
      </line>
    </extensions>
    <trkseg>
      <trkpt lat="44.09172" lon="5.69126">
        <ele>874.4</ele>
        <time>2021-09-01T10:27:41Z</time>
      </trkpt>
      <trkpt lat="44.09172" lon="5.69126">
        <ele>874.4</ele>
        <time>2021-09-01T10:27:41Z</time>
      </trkpt>
      <trkpt lat="44.09172" lon="5.69126">
        <ele>874.4</ele>
        <time>2021-09-01T10:27:41Z</time>
      </trkpt>
      <trkpt lat="44.09172" lon="5.69126">
        <ele>874.4</ele>
        <time>2021-09-01T10:27:41Z</time>
      </trkpt>
      <trkpt lat="44.09175" lon="5.69155">
        <ele>873.6</ele>
        <time>2021-09-01T10:27:47Z</time>
      </trkpt>
      <trkpt lat="44.09177" lon="5.69185">
        <ele>874.7</ele>
        <time>2021-09-01T10:27:53Z</time>
      </trkpt>
      <trkpt lat="44.0917" lon="5.69217">
        <ele>876</ele>
        <time>2021-09-01T10:28:00Z</time>
      </trkpt>
      <trkpt lat="44.09158" lon="5.69247">
        <ele>876.7</ele>
        <time>2021-09-01T10:28:07Z</time>
      </trkpt>
      <trkpt lat="44.09149" lon="5.69274">
        <ele>877.8</ele>
        <time>2021-09-01T10:28:13Z</time>
      </trkpt>
      <trkpt lat="44.09147" lon="5.69297">
        <ele>879.6</ele>
        <time>2021-09-01T10:28:18Z</time>
      </trkpt>
      <trkpt lat="44.09146" lon="5.69319">
        <ele>881.5</ele>
        <time>2021-09-01T10:28:23Z</time>
      </trkpt>
      <trkpt lat="44.0915" lon="5.69349">
        <ele>882.6</ele>
        <time>2021-09-01T10:28:29Z</time>
      </trkpt>
      <trkpt lat="44.09158" lon="5.69396">
        <ele>881.7</ele>
        <time>2021-09-01T10:28:37Z</time>
      </trkpt>
      <trkpt lat="44.09168" lon="5.6944">
        <ele>879.6</ele>
        <time>2021-09-01T10:28:45Z</time>
      </trkpt>
      <trkpt lat="44.09188" lon="5.69483">
        <ele>877.7</ele>
        <time>2021-09-01T10:28:54Z</time>
      </trkpt>
      <trkpt lat="44.09207" lon="5.69512">
        <ele>876.9</ele>
        <time>2021-09-01T10:29:01Z</time>
      </trkpt>
      <trkpt lat="44.09214" lon="5.69519">
        <ele>876.9</ele>
        <time>2021-09-01T10:29:03Z</time>
      </trkpt>
      <trkpt lat="44.09225" lon="5.69527">
        <ele>877.3</ele>
        <time>2021-09-01T10:29:06Z</time>
      </trkpt>
      <trkpt lat="44.09236" lon="5.69536">
        <ele>877.7</ele>
        <time>2021-09-01T10:29:09Z</time>
      </trkpt>
      <trkpt lat="44.09251" lon="5.69545">
        <ele>878.7</ele>
        <time>2021-09-01T10:29:13Z</time>
      </trkpt>
      <trkpt lat="44.09263" lon="5.69552">
        <ele>879.6</ele>
        <time>2021-09-01T10:29:16Z</time>
      </trkpt>
      <trkpt lat="44.09279" lon="5.69558">
        <ele>881.4</ele>
        <time>2021-09-01T10:29:20Z</time>
      </trkpt>
      <trkpt lat="44.09283" lon="5.6956">
        <ele>881.8</ele>
        <time>2021-09-01T10:29:21Z</time>
      </trkpt>
      <trkpt lat="44.09309" lon="5.69569">
        <ele>884.9</ele>
        <time>2021-09-01T10:29:27Z</time>
      </trkpt>
      <trkpt lat="44.09339" lon="5.69583">
        <ele>887.9</ele>
        <time>2021-09-01T10:29:34Z</time>
      </trkpt>
      <trkpt lat="44.09353" lon="5.69597">
        <ele>888.7</ele>
        <time>2021-09-01T10:29:39Z</time>
      </trkpt>
      <trkpt lat="44.09354" lon="5.69597">
        <ele>888.9</ele>
        <time>2021-09-01T10:29:43Z</time>
      </trkpt>
      <trkpt lat="44.09354" lon="5.69597">
        <ele>888.9</ele>
        <time>2021-09-01T10:29:58Z</time>
      </trkpt>
      <trkpt lat="44.09354" lon="5.69597">
        <ele>888.9</ele>
        <time>2021-09-01T10:30:18Z</time>
      </trkpt>
      <trkpt lat="44.09354" lon="5.69597">
        <ele>888.9</ele>
        <time>2021-09-01T10:30:39Z</time>
      </trkpt>
      <trkpt lat="44.09354" lon="5.69597">
        <ele>888.9</ele>
        <time>2021-09-01T10:30:59Z</time>
      </trkpt>
      <trkpt lat="44.09357" lon="5.69599">
        <ele>889.1</ele>
        <time>2021-09-01T10:31:13Z</time>
      </trkpt>
      <trkpt lat="44.0937" lon="5.6961">
        <ele>889.8</ele>
        <time>2021-09-01T10:31:18Z</time>
      </trkpt>
      <trkpt lat="44.09399" lon="5.69637">
        <ele>890.2</ele>
        <time>2021-09-01T10:31:26Z</time>
      </trkpt>
      <trkpt lat="44.09428" lon="5.69665">
        <ele>890.1</ele>
        <time>2021-09-01T10:31:34Z</time>
      </trkpt>
      <trkpt lat="44.09446" lon="5.69684">
        <ele>892.5</ele>
        <time>2021-09-01T10:31:39Z</time>
      </trkpt>
      <trkpt lat="44.0945" lon="5.69688">
        <ele>893</ele>
        <time>2021-09-01T10:31:40Z</time>
      </trkpt>
      <trkpt lat="44.09475" lon="5.69724">
        <ele>895.7</ele>
        <time>2021-09-01T10:31:48Z</time>
      </trkpt>
      <trkpt lat="44.095" lon="5.69758">
        <ele>897.3</ele>
        <time>2021-09-01T10:31:56Z</time>
      </trkpt>
      <trkpt lat="44.09528" lon="5.69789">
        <ele>898.4</ele>
        <time>2021-09-01T10:32:04Z</time>
      </trkpt>
      <trkpt lat="44.09557" lon="5.6982">
        <ele>899.6</ele>
        <time>2021-09-01T10:32:12Z</time>
      </trkpt>
      <trkpt lat="44.09587" lon="5.69848">
        <ele>900.3</ele>
        <time>2021-09-01T10:32:20Z</time>
      </trkpt>
      <trkpt lat="44.09595" lon="5.69854">
        <ele>900.4</ele>
        <time>2021-09-01T10:32:22Z</time>
      </trkpt>
      <trkpt lat="44.09612" lon="5.6986">
        <ele>901.6</ele>
        <time>2021-09-01T10:32:26Z</time>
      </trkpt>
      <trkpt lat="44.09643" lon="5.69868">
        <ele>904.3</ele>
        <time>2021-09-01T10:32:33Z</time>
      </trkpt>
      <trkpt lat="44.09673" lon="5.69875">
        <ele>907.2</ele>
        <time>2021-09-01T10:32:40Z</time>
      </trkpt>
      <trkpt lat="44.09708" lon="5.69882">
        <ele>910.4</ele>
        <time>2021-09-01T10:32:48Z</time>
      </trkpt>
      <trkpt lat="44.09723" lon="5.69885">
        <ele>911.8</ele>
        <time>2021-09-01T10:32:53Z</time>
      </trkpt>
      <trkpt lat="44.09736" lon="5.69888">
        <ele>912.9</ele>
        <time>2021-09-01T10:32:58Z</time>
      </trkpt>
      <trkpt lat="44.0976" lon="5.69895">
        <ele>914.5</ele>
        <time>2021-09-01T10:33:04Z</time>
      </trkpt>
      <trkpt lat="44.09769" lon="5.69898">
        <ele>915</ele>
        <time>2021-09-01T10:33:06Z</time>
      </trkpt>
      <trkpt lat="44.09781" lon="5.69907">
        <ele>915</ele>
        <time>2021-09-01T10:33:09Z</time>
      </trkpt>
      <trkpt lat="44.09797" lon="5.69924">
        <ele>914.6</ele>
        <time>2021-09-01T10:33:13Z</time>
      </trkpt>
      <trkpt lat="44.09803" lon="5.69934">
        <ele>914</ele>
        <time>2021-09-01T10:33:15Z</time>
      </trkpt>
      <trkpt lat="44.09806" lon="5.6994">
        <ele>913.6</ele>
        <time>2021-09-01T10:33:16Z</time>
      </trkpt>
      <trkpt lat="44.09815" lon="5.69965">
        <ele>911.6</ele>
        <time>2021-09-01T10:33:20Z</time>
      </trkpt>
      <trkpt lat="44.09834" lon="5.70001">
        <ele>910</ele>
        <time>2021-09-01T10:33:26Z</time>
      </trkpt>
      <trkpt lat="44.09841" lon="5.70012">
        <ele>909.6</ele>
        <time>2021-09-01T10:33:28Z</time>
      </trkpt>
      <trkpt lat="44.09851" lon="5.70027">
        <ele>909.2</ele>
        <time>2021-09-01T10:33:31Z</time>
      </trkpt>
      <trkpt lat="44.09868" lon="5.70059">
        <ele>908.3</ele>
        <time>2021-09-01T10:33:37Z</time>
      </trkpt>
      <trkpt lat="44.09871" lon="5.70064">
        <ele>908.2</ele>
        <time>2021-09-01T10:33:38Z</time>
      </trkpt>
      <trkpt lat="44.09881" lon="5.70087">
        <ele>907.5</ele>
        <time>2021-09-01T10:33:42Z</time>
      </trkpt>
      <trkpt lat="44.09888" lon="5.70099">
        <ele>907.2</ele>
        <time>2021-09-01T10:33:44Z</time>
      </trkpt>
      <trkpt lat="44.09902" lon="5.70115">
        <ele>907.5</ele>
        <time>2021-09-01T10:33:47Z</time>
      </trkpt>
      <trkpt lat="44.09919" lon="5.70128">
        <ele>908.3</ele>
        <time>2021-09-01T10:33:50Z</time>
      </trkpt>
      <trkpt lat="44.09932" lon="5.70132">
        <ele>908.8</ele>
        <time>2021-09-01T10:33:52Z</time>
      </trkpt>
      <trkpt lat="44.09966" lon="5.70135">
        <ele>910.7</ele>
        <time>2021-09-01T10:33:57Z</time>
      </trkpt>
      <trkpt lat="44.09995" lon="5.70145">
        <ele>911.1</ele>
        <time>2021-09-01T10:34:01Z</time>
      </trkpt>
      <trkpt lat="44.1001" lon="5.70151">
        <ele>911</ele>
        <time>2021-09-01T10:34:03Z</time>
      </trkpt>
      <trkpt lat="44.10049" lon="5.70163">
        <ele>911</ele>
        <time>2021-09-01T10:34:08Z</time>
      </trkpt>
      <trkpt lat="44.10056" lon="5.70167">
        <ele>910.6</ele>
        <time>2021-09-01T10:34:09Z</time>
      </trkpt>
      <trkpt lat="44.10067" lon="5.7018">
        <ele>909.5</ele>
        <time>2021-09-01T10:34:11Z</time>
      </trkpt>
      <trkpt lat="44.10071" lon="5.70197">
        <ele>907.4</ele>
        <time>2021-09-01T10:34:13Z</time>
      </trkpt>
      <trkpt lat="44.10072" lon="5.70205">
        <ele>906.4</ele>
        <time>2021-09-01T10:34:14Z</time>
      </trkpt>
      <trkpt lat="44.10079" lon="5.70251">
        <ele>900.8</ele>
        <time>2021-09-01T10:34:19Z</time>
      </trkpt>
      <trkpt lat="44.10082" lon="5.7026">
        <ele>900.8</ele>
        <time>2021-09-01T10:34:20Z</time>
      </trkpt>
      <trkpt lat="44.1009" lon="5.70277">
        <ele>901.5</ele>
        <time>2021-09-01T10:34:22Z</time>
      </trkpt>
      <trkpt lat="44.101" lon="5.70289">
        <ele>902.4</ele>
        <time>2021-09-01T10:34:24Z</time>
      </trkpt>
      <trkpt lat="44.10105" lon="5.70293">
        <ele>902.8</ele>
        <time>2021-09-01T10:34:25Z</time>
      </trkpt>
      <trkpt lat="44.10118" lon="5.703">
        <ele>903.8</ele>
        <time>2021-09-01T10:34:27Z</time>
      </trkpt>
      <trkpt lat="44.10133" lon="5.70304">
        <ele>905</ele>
        <time>2021-09-01T10:34:29Z</time>
      </trkpt>
      <trkpt lat="44.10149" lon="5.70302">
        <ele>906.7</ele>
        <time>2021-09-01T10:34:31Z</time>
      </trkpt>
      <trkpt lat="44.10181" lon="5.70298">
        <ele>909.4</ele>
        <time>2021-09-01T10:34:35Z</time>
      </trkpt>
      <trkpt lat="44.10192" lon="5.70298">
        <ele>909.9</ele>
        <time>2021-09-01T10:34:37Z</time>
      </trkpt>
      <trkpt lat="44.10203" lon="5.70302">
        <ele>909.8</ele>
        <time>2021-09-01T10:34:39Z</time>
      </trkpt>
      <trkpt lat="44.10228" lon="5.70304">
        <ele>910.5</ele>
        <time>2021-09-01T10:34:44Z</time>
      </trkpt>
      <trkpt lat="44.10232" lon="5.70304">
        <ele>910.6</ele>
        <time>2021-09-01T10:34:45Z</time>
      </trkpt>
      <trkpt lat="44.1026" lon="5.7031">
        <ele>910.2</ele>
        <time>2021-09-01T10:34:52Z</time>
      </trkpt>
      <trkpt lat="44.1028" lon="5.70315">
        <ele>909.6</ele>
        <time>2021-09-01T10:34:57Z</time>
      </trkpt>
      <trkpt lat="44.10306" lon="5.70322">
        <ele>909.1</ele>
        <time>2021-09-01T10:35:04Z</time>
      </trkpt>
      <trkpt lat="44.10339" lon="5.70333">
        <ele>909.5</ele>
        <time>2021-09-01T10:35:13Z</time>
      </trkpt>
      <trkpt lat="44.1036" lon="5.70353">
        <ele>913.7</ele>
        <time>2021-09-01T10:35:20Z</time>
      </trkpt>
      <trkpt lat="44.10358" lon="5.70349">
        <ele>913</ele>
        <time>2021-09-01T10:39:30Z</time>
      </trkpt>
      <trkpt lat="44.10366" lon="5.70344">
        <ele>913.1</ele>
        <time>2021-09-01T10:39:33Z</time>
      </trkpt>
      <trkpt lat="44.10371" lon="5.70341">
        <ele>913.1</ele>
        <time>2021-09-01T10:39:34Z</time>
      </trkpt>
      <trkpt lat="44.10376" lon="5.7034">
        <ele>913.4</ele>
        <time>2021-09-01T10:39:35Z</time>
      </trkpt>
      <trkpt lat="44.10387" lon="5.70342">
        <ele>914.6</ele>
        <time>2021-09-01T10:39:37Z</time>
      </trkpt>
      <trkpt lat="44.10395" lon="5.70347">
        <ele>915.9</ele>
        <time>2021-09-01T10:39:39Z</time>
      </trkpt>
      <trkpt lat="44.10406" lon="5.70349">
        <ele>917.1</ele>
        <time>2021-09-01T10:39:42Z</time>
      </trkpt>
      <trkpt lat="44.10424" lon="5.70339">
        <ele>917.5</ele>
        <time>2021-09-01T10:39:47Z</time>
      </trkpt>
      <trkpt lat="44.10431" lon="5.70324">
        <ele>917.2</ele>
        <time>2021-09-01T10:39:51Z</time>
      </trkpt>
      <trkpt lat="44.1044" lon="5.70301">
        <ele>917.4</ele>
        <time>2021-09-01T10:39:57Z</time>
      </trkpt>
      <trkpt lat="44.10451" lon="5.70282">
        <ele>917.9</ele>
        <time>2021-09-01T10:40:03Z</time>
      </trkpt>
      <trkpt lat="44.10467" lon="5.7026">
        <ele>918.8</ele>
        <time>2021-09-01T10:40:10Z</time>
      </trkpt>
      <trkpt lat="44.10484" lon="5.70239">
        <ele>919.9</ele>
        <time>2021-09-01T10:40:17Z</time>
      </trkpt>
      <trkpt lat="44.10499" lon="5.70215">
        <ele>920.2</ele>
        <time>2021-09-01T10:40:24Z</time>
      </trkpt>
      <trkpt lat="44.10509" lon="5.70198">
        <ele>921.5</ele>
        <time>2021-09-01T10:40:29Z</time>
      </trkpt>
      <trkpt lat="44.10521" lon="5.70185">
        <ele>923.3</ele>
        <time>2021-09-01T10:40:34Z</time>
      </trkpt>
      <trkpt lat="44.10535" lon="5.70185">
        <ele>926.3</ele>
        <time>2021-09-01T10:40:39Z</time>
      </trkpt>
      <trkpt lat="44.10538" lon="5.70185">
        <ele>926.9</ele>
        <time>2021-09-01T10:40:42Z</time>
      </trkpt>
      <trkpt lat="44.10539" lon="5.70184">
        <ele>927.1</ele>
        <time>2021-09-01T10:40:47Z</time>
      </trkpt>
      <trkpt lat="44.10542" lon="5.7018">
        <ele>927.4</ele>
        <time>2021-09-01T10:40:49Z</time>
      </trkpt>
      <trkpt lat="44.10556" lon="5.70165">
        <ele>929.3</ele>
        <time>2021-09-01T10:40:54Z</time>
      </trkpt>
      <trkpt lat="44.1058" lon="5.70134">
        <ele>932.1</ele>
        <time>2021-09-01T10:41:00Z</time>
      </trkpt>
      <trkpt lat="44.106" lon="5.701">
        <ele>933.2</ele>
        <time>2021-09-01T10:41:05Z</time>
      </trkpt>
      <trkpt lat="44.10624" lon="5.70051">
        <ele>935.5</ele>
        <time>2021-09-01T10:41:11Z</time>
      </trkpt>
      <trkpt lat="44.10635" lon="5.70044">
        <ele>936.6</ele>
        <time>2021-09-01T10:41:13Z</time>
      </trkpt>
      <trkpt lat="44.10641" lon="5.70042">
        <ele>937.2</ele>
        <time>2021-09-01T10:41:14Z</time>
      </trkpt>
      <trkpt lat="44.10649" lon="5.70039">
        <ele>938</ele>
        <time>2021-09-01T10:41:15Z</time>
      </trkpt>
      <trkpt lat="44.10671" lon="5.70026">
        <ele>939.3</ele>
        <time>2021-09-01T10:41:18Z</time>
      </trkpt>
      <trkpt lat="44.10697" lon="5.70012">
        <ele>940.6</ele>
        <time>2021-09-01T10:41:22Z</time>
      </trkpt>
      <trkpt lat="44.107" lon="5.70009">
        <ele>940.5</ele>
        <time>2021-09-01T10:41:23Z</time>
      </trkpt>
      <trkpt lat="44.10702" lon="5.70003">
        <ele>939.9</ele>
        <time>2021-09-01T10:41:25Z</time>
      </trkpt>
      <trkpt lat="44.10701" lon="5.69986">
        <ele>942.5</ele>
        <time>2021-09-01T10:41:29Z</time>
      </trkpt>
      <trkpt lat="44.10703" lon="5.69977">
        <ele>944.6</ele>
        <time>2021-09-01T10:41:31Z</time>
      </trkpt>
      <trkpt lat="44.10707" lon="5.69969">
        <ele>946.5</ele>
        <time>2021-09-01T10:41:33Z</time>
      </trkpt>
      <trkpt lat="44.1072" lon="5.69959">
        <ele>949</ele>
        <time>2021-09-01T10:41:37Z</time>
      </trkpt>
      <trkpt lat="44.10746" lon="5.69946">
        <ele>952</ele>
        <time>2021-09-01T10:41:45Z</time>
      </trkpt>
      <trkpt lat="44.10773" lon="5.69938">
        <ele>953</ele>
        <time>2021-09-01T10:41:53Z</time>
      </trkpt>
      <trkpt lat="44.10795" lon="5.69933">
        <ele>952.8</ele>
        <time>2021-09-01T10:41:59Z</time>
      </trkpt>
      <trkpt lat="44.10818" lon="5.69932">
        <ele>952.1</ele>
        <time>2021-09-01T10:42:05Z</time>
      </trkpt>
      <trkpt lat="44.1084" lon="5.69929">
        <ele>951.7</ele>
        <time>2021-09-01T10:42:11Z</time>
      </trkpt>
      <trkpt lat="44.10866" lon="5.69927">
        <ele>952.3</ele>
        <time>2021-09-01T10:42:18Z</time>
      </trkpt>
      <trkpt lat="44.10887" lon="5.69931">
        <ele>953.4</ele>
        <time>2021-09-01T10:42:24Z</time>
      </trkpt>
      <trkpt lat="44.10907" lon="5.69937">
        <ele>955</ele>
        <time>2021-09-01T10:42:30Z</time>
      </trkpt>
      <trkpt lat="44.1093" lon="5.69949">
        <ele>958.4</ele>
        <time>2021-09-01T10:42:37Z</time>
      </trkpt>
      <trkpt lat="44.10959" lon="5.69952">
        <ele>960.9</ele>
        <time>2021-09-01T10:42:45Z</time>
      </trkpt>
      <trkpt lat="44.10979" lon="5.6995">
        <ele>962.1</ele>
        <time>2021-09-01T10:42:51Z</time>
      </trkpt>
      <trkpt lat="44.10996" lon="5.69945">
        <ele>962.8</ele>
        <time>2021-09-01T10:42:56Z</time>
      </trkpt>
      <trkpt lat="44.11017" lon="5.69949">
        <ele>964.6</ele>
        <time>2021-09-01T10:43:02Z</time>
      </trkpt>
      <trkpt lat="44.11037" lon="5.69955">
        <ele>966.6</ele>
        <time>2021-09-01T10:43:08Z</time>
      </trkpt>
      <trkpt lat="44.11063" lon="5.69958">
        <ele>968.6</ele>
        <time>2021-09-01T10:43:15Z</time>
      </trkpt>
      <trkpt lat="44.11085" lon="5.69958">
        <ele>970.1</ele>
        <time>2021-09-01T10:43:21Z</time>
      </trkpt>
      <trkpt lat="44.11107" lon="5.69959">
        <ele>971.9</ele>
        <time>2021-09-01T10:43:27Z</time>
      </trkpt>
      <trkpt lat="44.11132" lon="5.69964">
        <ele>974.5</ele>
        <time>2021-09-01T10:43:34Z</time>
      </trkpt>
      <trkpt lat="44.11158" lon="5.69973">
        <ele>977.7</ele>
        <time>2021-09-01T10:43:41Z</time>
      </trkpt>
      <trkpt lat="44.11171" lon="5.69981">
        <ele>979.7</ele>
        <time>2021-09-01T10:43:45Z</time>
      </trkpt>
      <trkpt lat="44.11192" lon="5.6999">
        <ele>981.4</ele>
        <time>2021-09-01T10:43:51Z</time>
      </trkpt>
      <trkpt lat="44.11216" lon="5.69993">
        <ele>982.2</ele>
        <time>2021-09-01T10:43:58Z</time>
      </trkpt>
      <trkpt lat="44.11235" lon="5.69992">
        <ele>982.6</ele>
        <time>2021-09-01T10:44:03Z</time>
      </trkpt>
      <trkpt lat="44.11263" lon="5.7">
        <ele>983.3</ele>
        <time>2021-09-01T10:44:11Z</time>
      </trkpt>
      <trkpt lat="44.11288" lon="5.70003">
        <ele>984.9</ele>
        <time>2021-09-01T10:44:18Z</time>
      </trkpt>
      <trkpt lat="44.1131" lon="5.70004">
        <ele>985.7</ele>
        <time>2021-09-01T10:44:24Z</time>
      </trkpt>
      <trkpt lat="44.11336" lon="5.70001">
        <ele>985.6</ele>
        <time>2021-09-01T10:44:31Z</time>
      </trkpt>
      <trkpt lat="44.11354" lon="5.70002">
        <ele>987.8</ele>
        <time>2021-09-01T10:44:36Z</time>
      </trkpt>
      <trkpt lat="44.11372" lon="5.7001">
        <ele>991.6</ele>
        <time>2021-09-01T10:44:41Z</time>
      </trkpt>
      <trkpt lat="44.1139" lon="5.70013">
        <ele>993.9</ele>
        <time>2021-09-01T10:44:46Z</time>
      </trkpt>
      <trkpt lat="44.11416" lon="5.70015">
        <ele>996.5</ele>
        <time>2021-09-01T10:44:53Z</time>
      </trkpt>
      <trkpt lat="44.11427" lon="5.70015">
        <ele>997</ele>
        <time>2021-09-01T10:44:56Z</time>
      </trkpt>
      <trkpt lat="44.11435" lon="5.70015">
        <ele>997.3</ele>
        <time>2021-09-01T10:44:58Z</time>
      </trkpt>
      <trkpt lat="44.11459" lon="5.70021">
        <ele>999</ele>
        <time>2021-09-01T10:45:05Z</time>
      </trkpt>
      <trkpt lat="44.11481" lon="5.70023">
        <ele>1000</ele>
        <time>2021-09-01T10:45:11Z</time>
      </trkpt>
      <trkpt lat="44.11506" lon="5.70025">
        <ele>1001.3</ele>
        <time>2021-09-01T10:45:18Z</time>
      </trkpt>
      <trkpt lat="44.11519" lon="5.70027">
        <ele>1002.7</ele>
        <time>2021-09-01T10:45:22Z</time>
      </trkpt>
      <trkpt lat="44.11544" lon="5.70029">
        <ele>1005.2</ele>
        <time>2021-09-01T10:45:29Z</time>
      </trkpt>
      <trkpt lat="44.11568" lon="5.70038">
        <ele>1008.2</ele>
        <time>2021-09-01T10:45:36Z</time>
      </trkpt>
      <trkpt lat="44.11593" lon="5.70056">
        <ele>1012.3</ele>
        <time>2021-09-01T10:45:44Z</time>
      </trkpt>
      <trkpt lat="44.11617" lon="5.70073">
        <ele>1014.7</ele>
        <time>2021-09-01T10:45:51Z</time>
      </trkpt>
      <trkpt lat="44.11627" lon="5.70093">
        <ele>1017.3</ele>
        <time>2021-09-01T10:45:56Z</time>
      </trkpt>
      <trkpt lat="44.1164" lon="5.70111">
        <ele>1021.2</ele>
        <time>2021-09-01T10:46:01Z</time>
      </trkpt>
      <trkpt lat="44.11652" lon="5.70135">
        <ele>1025.2</ele>
        <time>2021-09-01T10:46:07Z</time>
      </trkpt>
      <trkpt lat="44.11655" lon="5.70155">
        <ele>1028.6</ele>
        <time>2021-09-01T10:46:11Z</time>
      </trkpt>
      <trkpt lat="44.11661" lon="5.70184">
        <ele>1030.6</ele>
        <time>2021-09-01T10:46:17Z</time>
      </trkpt>
      <trkpt lat="44.1167" lon="5.70203">
        <ele>1029.8</ele>
        <time>2021-09-01T10:46:22Z</time>
      </trkpt>
      <trkpt lat="44.11685" lon="5.70225">
        <ele>1030</ele>
        <time>2021-09-01T10:46:28Z</time>
      </trkpt>
      <trkpt lat="44.11698" lon="5.70242">
        <ele>1030.3</ele>
        <time>2021-09-01T10:46:33Z</time>
      </trkpt>
      <trkpt lat="44.11726" lon="5.7026">
        <ele>1033</ele>
        <time>2021-09-01T10:46:41Z</time>
      </trkpt>
      <trkpt lat="44.11734" lon="5.70262">
        <ele>1033.7</ele>
        <time>2021-09-01T10:46:43Z</time>
      </trkpt>
      <trkpt lat="44.11746" lon="5.70265">
        <ele>1034.9</ele>
        <time>2021-09-01T10:46:46Z</time>
      </trkpt>
      <trkpt lat="44.1175" lon="5.70266">
        <ele>1035.4</ele>
        <time>2021-09-01T10:46:47Z</time>
      </trkpt>
      <trkpt lat="44.11765" lon="5.70269">
        <ele>1037.3</ele>
        <time>2021-09-01T10:46:51Z</time>
      </trkpt>
      <trkpt lat="44.11769" lon="5.70269">
        <ele>1037.6</ele>
        <time>2021-09-01T10:46:52Z</time>
      </trkpt>
      <trkpt lat="44.11784" lon="5.7027">
        <ele>1038.8</ele>
        <time>2021-09-01T10:46:56Z</time>
      </trkpt>
      <trkpt lat="44.11802" lon="5.7028">
        <ele>1042.4</ele>
        <time>2021-09-01T10:47:01Z</time>
      </trkpt>
      <trkpt lat="44.11823" lon="5.70293">
        <ele>1046</ele>
        <time>2021-09-01T10:47:07Z</time>
      </trkpt>
      <trkpt lat="44.11846" lon="5.70294">
        <ele>1047.6</ele>
        <time>2021-09-01T10:47:13Z</time>
      </trkpt>
      <trkpt lat="44.11868" lon="5.70291">
        <ele>1049.2</ele>
        <time>2021-09-01T10:47:19Z</time>
      </trkpt>
      <trkpt lat="44.11894" lon="5.7028">
        <ele>1051</ele>
        <time>2021-09-01T10:47:26Z</time>
      </trkpt>
      <trkpt lat="44.11912" lon="5.70273">
        <ele>1052.9</ele>
        <time>2021-09-01T10:47:31Z</time>
      </trkpt>
      <trkpt lat="44.11939" lon="5.70266">
        <ele>1054</ele>
        <time>2021-09-01T10:47:38Z</time>
      </trkpt>
      <trkpt lat="44.11953" lon="5.70266">
        <ele>1054.3</ele>
        <time>2021-09-01T10:47:42Z</time>
      </trkpt>
      <trkpt lat="44.11959" lon="5.70265">
        <ele>1054.4</ele>
        <time>2021-09-01T10:47:44Z</time>
      </trkpt>
      <trkpt lat="44.1198" lon="5.70255">
        <ele>1053.6</ele>
        <time>2021-09-01T10:47:50Z</time>
      </trkpt>
      <trkpt lat="44.11996" lon="5.70256">
        <ele>1053.9</ele>
        <time>2021-09-01T10:47:55Z</time>
      </trkpt>
      <trkpt lat="44.12001" lon="5.70259">
        <ele>1054.5</ele>
        <time>2021-09-01T10:47:59Z</time>
      </trkpt>
      <trkpt lat="44.12001" lon="5.70259">
        <ele>1054.5</ele>
        <time>2021-09-01T10:48:11Z</time>
      </trkpt>
      <trkpt lat="44.12001" lon="5.70259">
        <ele>1054.5</ele>
        <time>2021-09-01T10:48:28Z</time>
      </trkpt>
      <trkpt lat="44.12003" lon="5.7026">
        <ele>1054.7</ele>
        <time>2021-09-01T10:48:36Z</time>
      </trkpt>
      <trkpt lat="44.12004" lon="5.70261">
        <ele>1054.9</ele>
        <time>2021-09-01T10:48:37Z</time>
      </trkpt>
      <trkpt lat="44.12009" lon="5.70273">
        <ele>1057.2</ele>
        <time>2021-09-01T10:48:41Z</time>
      </trkpt>
      <trkpt lat="44.12017" lon="5.7027">
        <ele>1057.2</ele>
        <time>2021-09-01T10:48:44Z</time>
      </trkpt>
      <trkpt lat="44.12038" lon="5.70263">
        <ele>1057.1</ele>
        <time>2021-09-01T10:48:50Z</time>
      </trkpt>
      <trkpt lat="44.12051" lon="5.70263">
        <ele>1057.8</ele>
        <time>2021-09-01T10:48:54Z</time>
      </trkpt>
      <trkpt lat="44.12072" lon="5.70269">
        <ele>1060.5</ele>
        <time>2021-09-01T10:49:00Z</time>
      </trkpt>
      <trkpt lat="44.12086" lon="5.70277">
        <ele>1063.6</ele>
        <time>2021-09-01T10:49:05Z</time>
      </trkpt>
      <trkpt lat="44.12101" lon="5.70287">
        <ele>1067.3</ele>
        <time>2021-09-01T10:49:10Z</time>
      </trkpt>
      <trkpt lat="44.1212" lon="5.70298">
        <ele>1071.4</ele>
        <time>2021-09-01T10:49:16Z</time>
      </trkpt>
      <trkpt lat="44.12133" lon="5.70303">
        <ele>1073.6</ele>
        <time>2021-09-01T10:49:21Z</time>
      </trkpt>
      <trkpt lat="44.12146" lon="5.70307">
        <ele>1075.5</ele>
        <time>2021-09-01T10:49:26Z</time>
      </trkpt>
      <trkpt lat="44.12159" lon="5.70307">
        <ele>1076.3</ele>
        <time>2021-09-01T10:49:31Z</time>
      </trkpt>
      <trkpt lat="44.12165" lon="5.70307">
        <ele>1076.6</ele>
        <time>2021-09-01T10:49:33Z</time>
      </trkpt>
      <trkpt lat="44.12171" lon="5.70307">
        <ele>1077.2</ele>
        <time>2021-09-01T10:49:35Z</time>
      </trkpt>
      <trkpt lat="44.12188" lon="5.70305">
        <ele>1078.7</ele>
        <time>2021-09-01T10:49:40Z</time>
      </trkpt>
      <trkpt lat="44.12205" lon="5.70306">
        <ele>1080.9</ele>
        <time>2021-09-01T10:49:45Z</time>
      </trkpt>
      <trkpt lat="44.1222" lon="5.70313">
        <ele>1083.6</ele>
        <time>2021-09-01T10:49:50Z</time>
      </trkpt>
      <trkpt lat="44.12229" lon="5.70316">
        <ele>1084.9</ele>
        <time>2021-09-01T10:49:53Z</time>
      </trkpt>
      <trkpt lat="44.12232" lon="5.70317">
        <ele>1085.2</ele>
        <time>2021-09-01T10:49:54Z</time>
      </trkpt>
      <trkpt lat="44.12247" lon="5.70314">
        <ele>1086.3</ele>
        <time>2021-09-01T10:49:59Z</time>
      </trkpt>
      <trkpt lat="44.12257" lon="5.70307">
        <ele>1087.6</ele>
        <time>2021-09-01T10:50:02Z</time>
      </trkpt>
      <trkpt lat="44.12278" lon="5.70304">
        <ele>1092.2</ele>
        <time>2021-09-01T10:50:08Z</time>
      </trkpt>
      <trkpt lat="44.12299" lon="5.70308">
        <ele>1096.6</ele>
        <time>2021-09-01T10:50:14Z</time>
      </trkpt>
      <trkpt lat="44.12316" lon="5.70313">
        <ele>1099.7</ele>
        <time>2021-09-01T10:50:19Z</time>
      </trkpt>
      <trkpt lat="44.12323" lon="5.70314">
        <ele>1101</ele>
        <time>2021-09-01T10:50:21Z</time>
      </trkpt>
      <trkpt lat="44.1233" lon="5.70314">
        <ele>1102.4</ele>
        <time>2021-09-01T10:50:23Z</time>
      </trkpt>
      <trkpt lat="44.12345" lon="5.70313">
        <ele>1105.4</ele>
        <time>2021-09-01T10:50:28Z</time>
      </trkpt>
      <trkpt lat="44.12362" lon="5.70311">
        <ele>1109.1</ele>
        <time>2021-09-01T10:50:34Z</time>
      </trkpt>
      <trkpt lat="44.12373" lon="5.70318">
        <ele>1109.6</ele>
        <time>2021-09-01T10:50:38Z</time>
      </trkpt>
      <trkpt lat="44.12389" lon="5.70328">
        <ele>1110</ele>
        <time>2021-09-01T10:50:43Z</time>
      </trkpt>
      <trkpt lat="44.12401" lon="5.70329">
        <ele>1111.7</ele>
        <time>2021-09-01T10:50:47Z</time>
      </trkpt>
      <trkpt lat="44.12413" lon="5.7033">
        <ele>1113.4</ele>
        <time>2021-09-01T10:50:51Z</time>
      </trkpt>
      <trkpt lat="44.12431" lon="5.70337">
        <ele>1116.9</ele>
        <time>2021-09-01T10:50:57Z</time>
      </trkpt>
      <trkpt lat="44.12433" lon="5.70338">
        <ele>1117.7</ele>
        <time>2021-09-01T10:50:58Z</time>
      </trkpt>
      <trkpt lat="44.12437" lon="5.70342">
        <ele>1119.9</ele>
        <time>2021-09-01T10:51:00Z</time>
      </trkpt>
      <trkpt lat="44.1244" lon="5.70344">
        <ele>1121.2</ele>
        <time>2021-09-01T10:51:01Z</time>
      </trkpt>
      <trkpt lat="44.12453" lon="5.70349">
        <ele>1125.1</ele>
        <time>2021-09-01T10:51:06Z</time>
      </trkpt>
      <trkpt lat="44.12467" lon="5.70345">
        <ele>1125.7</ele>
        <time>2021-09-01T10:51:11Z</time>
      </trkpt>
      <trkpt lat="44.1248" lon="5.70344">
        <ele>1127.3</ele>
        <time>2021-09-01T10:51:16Z</time>
      </trkpt>
      <trkpt lat="44.12495" lon="5.70345">
        <ele>1129.9</ele>
        <time>2021-09-01T10:51:21Z</time>
      </trkpt>
      <trkpt lat="44.12509" lon="5.70342">
        <ele>1130.2</ele>
        <time>2021-09-01T10:51:26Z</time>
      </trkpt>
      <trkpt lat="44.12521" lon="5.70338">
        <ele>1129.7</ele>
        <time>2021-09-01T10:51:30Z</time>
      </trkpt>
      <trkpt lat="44.12545" lon="5.70332">
        <ele>1130.2</ele>
        <time>2021-09-01T10:51:38Z</time>
      </trkpt>
      <trkpt lat="44.1256" lon="5.7033">
        <ele>1131.8</ele>
        <time>2021-09-01T10:51:43Z</time>
      </trkpt>
      <trkpt lat="44.1257" lon="5.70329">
        <ele>1132.8</ele>
        <time>2021-09-01T10:51:48Z</time>
      </trkpt>
      <trkpt lat="44.12569" lon="5.70329">
        <ele>1132.7</ele>
        <time>2021-09-01T10:51:56Z</time>
      </trkpt>
      <trkpt lat="44.12571" lon="5.70329">
        <ele>1132.8</ele>
        <time>2021-09-01T10:52:05Z</time>
      </trkpt>
      <trkpt lat="44.12578" lon="5.70331">
        <ele>1132.5</ele>
        <time>2021-09-01T10:52:09Z</time>
      </trkpt>
      <trkpt lat="44.12594" lon="5.70329">
        <ele>1134.9</ele>
        <time>2021-09-01T10:52:15Z</time>
      </trkpt>
      <trkpt lat="44.12606" lon="5.7032">
        <ele>1139.5</ele>
        <time>2021-09-01T10:52:20Z</time>
      </trkpt>
      <trkpt lat="44.12623" lon="5.70325">
        <ele>1139.7</ele>
        <time>2021-09-01T10:52:26Z</time>
      </trkpt>
      <trkpt lat="44.12628" lon="5.70325">
        <ele>1140.2</ele>
        <time>2021-09-01T10:52:28Z</time>
      </trkpt>
      <trkpt lat="44.1263" lon="5.70325">
        <ele>1140.5</ele>
        <time>2021-09-01T10:52:29Z</time>
      </trkpt>
      <trkpt lat="44.12643" lon="5.70331">
        <ele>1139.9</ele>
        <time>2021-09-01T10:52:34Z</time>
      </trkpt>
      <trkpt lat="44.12656" lon="5.70336">
        <ele>1141.3</ele>
        <time>2021-09-01T10:52:39Z</time>
      </trkpt>
      <trkpt lat="44.12673" lon="5.70343">
        <ele>1144.6</ele>
        <time>2021-09-01T10:52:45Z</time>
      </trkpt>
      <trkpt lat="44.12685" lon="5.70346">
        <ele>1146.5</ele>
        <time>2021-09-01T10:52:50Z</time>
      </trkpt>
      <trkpt lat="44.12702" lon="5.70352">
        <ele>1149.3</ele>
        <time>2021-09-01T10:52:56Z</time>
      </trkpt>
      <trkpt lat="44.12715" lon="5.70352">
        <ele>1150.6</ele>
        <time>2021-09-01T10:53:01Z</time>
      </trkpt>
      <trkpt lat="44.12722" lon="5.70356">
        <ele>1152.1</ele>
        <time>2021-09-01T10:53:05Z</time>
      </trkpt>
      <trkpt lat="44.12729" lon="5.70362">
        <ele>1153.8</ele>
        <time>2021-09-01T10:53:08Z</time>
      </trkpt>
      <trkpt lat="44.12735" lon="5.70365">
        <ele>1154.9</ele>
        <time>2021-09-01T10:53:10Z</time>
      </trkpt>
      <trkpt lat="44.12748" lon="5.70377">
        <ele>1158.2</ele>
        <time>2021-09-01T10:53:16Z</time>
      </trkpt>
      <trkpt lat="44.12755" lon="5.70385">
        <ele>1159.9</ele>
        <time>2021-09-01T10:53:19Z</time>
      </trkpt>
      <trkpt lat="44.12758" lon="5.70386">
        <ele>1160.2</ele>
        <time>2021-09-01T10:53:20Z</time>
      </trkpt>
      <trkpt lat="44.12762" lon="5.70388">
        <ele>1160.6</ele>
        <time>2021-09-01T10:53:22Z</time>
      </trkpt>
      <trkpt lat="44.12764" lon="5.70388">
        <ele>1160.7</ele>
        <time>2021-09-01T10:53:23Z</time>
      </trkpt>
      <trkpt lat="44.12766" lon="5.70388">
        <ele>1160.7</ele>
        <time>2021-09-01T10:53:24Z</time>
      </trkpt>
      <trkpt lat="44.12777" lon="5.7039">
        <ele>1161.3</ele>
        <time>2021-09-01T10:53:28Z</time>
      </trkpt>
      <trkpt lat="44.12782" lon="5.70391">
        <ele>1161.5</ele>
        <time>2021-09-01T10:53:30Z</time>
      </trkpt>
      <trkpt lat="44.12787" lon="5.70394">
        <ele>1161.8</ele>
        <time>2021-09-01T10:53:32Z</time>
      </trkpt>
      <trkpt lat="44.12798" lon="5.704">
        <ele>1162.2</ele>
        <time>2021-09-01T10:53:37Z</time>
      </trkpt>
      <trkpt lat="44.12814" lon="5.70404">
        <ele>1162.1</ele>
        <time>2021-09-01T10:53:43Z</time>
      </trkpt>
      <trkpt lat="44.12831" lon="5.70407">
        <ele>1161.7</ele>
        <time>2021-09-01T10:53:50Z</time>
      </trkpt>
      <trkpt lat="44.12837" lon="5.70409">
        <ele>1162</ele>
        <time>2021-09-01T10:53:52Z</time>
      </trkpt>
      <trkpt lat="44.12839" lon="5.70409">
        <ele>1162.3</ele>
        <time>2021-09-01T10:53:53Z</time>
      </trkpt>
      <trkpt lat="44.12842" lon="5.70409">
        <ele>1162.6</ele>
        <time>2021-09-01T10:53:54Z</time>
      </trkpt>
      <trkpt lat="44.12846" lon="5.70409">
        <ele>1163.1</ele>
        <time>2021-09-01T10:53:56Z</time>
      </trkpt>
      <trkpt lat="44.12851" lon="5.70411">
        <ele>1163.5</ele>
        <time>2021-09-01T10:53:58Z</time>
      </trkpt>
      <trkpt lat="44.12856" lon="5.70414">
        <ele>1163.8</ele>
        <time>2021-09-01T10:54:00Z</time>
      </trkpt>
      <trkpt lat="44.12859" lon="5.70415">
        <ele>1164</ele>
        <time>2021-09-01T10:54:01Z</time>
      </trkpt>
      <trkpt lat="44.12864" lon="5.70415">
        <ele>1164.5</ele>
        <time>2021-09-01T10:54:03Z</time>
      </trkpt>
      <trkpt lat="44.12867" lon="5.70415">
        <ele>1164.9</ele>
        <time>2021-09-01T10:54:04Z</time>
      </trkpt>
      <trkpt lat="44.12878" lon="5.70419">
        <ele>1166.5</ele>
        <time>2021-09-01T10:54:08Z</time>
      </trkpt>
      <trkpt lat="44.1289" lon="5.70418">
        <ele>1167.5</ele>
        <time>2021-09-01T10:54:12Z</time>
      </trkpt>
      <trkpt lat="44.12902" lon="5.70425">
        <ele>1170.9</ele>
        <time>2021-09-01T10:54:17Z</time>
      </trkpt>
      <trkpt lat="44.12912" lon="5.70431">
        <ele>1173.7</ele>
        <time>2021-09-01T10:54:21Z</time>
      </trkpt>
      <trkpt lat="44.12915" lon="5.70433">
        <ele>1174.5</ele>
        <time>2021-09-01T10:54:22Z</time>
      </trkpt>
      <trkpt lat="44.12919" lon="5.70435">
        <ele>1175.5</ele>
        <time>2021-09-01T10:54:24Z</time>
      </trkpt>
      <trkpt lat="44.12924" lon="5.70436">
        <ele>1176.4</ele>
        <time>2021-09-01T10:54:26Z</time>
      </trkpt>
      <trkpt lat="44.1293" lon="5.70437">
        <ele>1177.3</ele>
        <time>2021-09-01T10:54:29Z</time>
      </trkpt>
      <trkpt lat="44.12934" lon="5.70439">
        <ele>1178.3</ele>
        <time>2021-09-01T10:54:31Z</time>
      </trkpt>
      <trkpt lat="44.1294" lon="5.70442">
        <ele>1179.8</ele>
        <time>2021-09-01T10:54:35Z</time>
      </trkpt>
      <trkpt lat="44.12949" lon="5.70445">
        <ele>1181.5</ele>
        <time>2021-09-01T10:54:39Z</time>
      </trkpt>
      <trkpt lat="44.12966" lon="5.70446">
        <ele>1183.5</ele>
        <time>2021-09-01T10:54:45Z</time>
      </trkpt>
      <trkpt lat="44.12978" lon="5.70445">
        <ele>1184.5</ele>
        <time>2021-09-01T10:54:49Z</time>
      </trkpt>
      <trkpt lat="44.12992" lon="5.70443">
        <ele>1185.5</ele>
        <time>2021-09-01T10:54:54Z</time>
      </trkpt>
      <trkpt lat="44.13003" lon="5.70443">
        <ele>1186.9</ele>
        <time>2021-09-01T10:54:58Z</time>
      </trkpt>
      <trkpt lat="44.13016" lon="5.70441">
        <ele>1188.7</ele>
        <time>2021-09-01T10:55:03Z</time>
      </trkpt>
      <trkpt lat="44.13029" lon="5.70438">
        <ele>1190.4</ele>
        <time>2021-09-01T10:55:08Z</time>
      </trkpt>
      <trkpt lat="44.13043" lon="5.70437">
        <ele>1192.7</ele>
        <time>2021-09-01T10:55:13Z</time>
      </trkpt>
      <trkpt lat="44.13045" lon="5.70437">
        <ele>1193</ele>
        <time>2021-09-01T10:55:14Z</time>
      </trkpt>
      <trkpt lat="44.13052" lon="5.70438">
        <ele>1194.4</ele>
        <time>2021-09-01T10:55:17Z</time>
      </trkpt>
      <trkpt lat="44.13063" lon="5.70442">
        <ele>1196.7</ele>
        <time>2021-09-01T10:55:21Z</time>
      </trkpt>
      <trkpt lat="44.13065" lon="5.70443">
        <ele>1197.2</ele>
        <time>2021-09-01T10:55:22Z</time>
      </trkpt>
      <trkpt lat="44.13072" lon="5.70445">
        <ele>1198.5</ele>
        <time>2021-09-01T10:55:26Z</time>
      </trkpt>
      <trkpt lat="44.1308" lon="5.70451">
        <ele>1200.4</ele>
        <time>2021-09-01T10:55:30Z</time>
      </trkpt>
      <trkpt lat="44.13093" lon="5.70458">
        <ele>1202.9</ele>
        <time>2021-09-01T10:55:35Z</time>
      </trkpt>
      <trkpt lat="44.13103" lon="5.70464">
        <ele>1204.8</ele>
        <time>2021-09-01T10:55:39Z</time>
      </trkpt>
      <trkpt lat="44.13111" lon="5.70467">
        <ele>1206.1</ele>
        <time>2021-09-01T10:55:42Z</time>
      </trkpt>
      <trkpt lat="44.13116" lon="5.70471">
        <ele>1207</ele>
        <time>2021-09-01T10:55:44Z</time>
      </trkpt>
      <trkpt lat="44.13119" lon="5.70473">
        <ele>1207.6</ele>
        <time>2021-09-01T10:55:45Z</time>
      </trkpt>
      <trkpt lat="44.13126" lon="5.70478">
        <ele>1208.7</ele>
        <time>2021-09-01T10:55:48Z</time>
      </trkpt>
      <trkpt lat="44.13138" lon="5.70481">
        <ele>1210.4</ele>
        <time>2021-09-01T10:55:53Z</time>
      </trkpt>
      <trkpt lat="44.13153" lon="5.70484">
        <ele>1212.3</ele>
        <time>2021-09-01T10:55:59Z</time>
      </trkpt>
      <trkpt lat="44.13163" lon="5.70486">
        <ele>1213.6</ele>
        <time>2021-09-01T10:56:03Z</time>
      </trkpt>
      <trkpt lat="44.13172" lon="5.70487">
        <ele>1214.6</ele>
        <time>2021-09-01T10:56:07Z</time>
      </trkpt>
      <trkpt lat="44.13187" lon="5.70489">
        <ele>1216.4</ele>
        <time>2021-09-01T10:56:12Z</time>
      </trkpt>
      <trkpt lat="44.13197" lon="5.70486">
        <ele>1217.7</ele>
        <time>2021-09-01T10:56:16Z</time>
      </trkpt>
      <trkpt lat="44.13207" lon="5.70486">
        <ele>1218.9</ele>
        <time>2021-09-01T10:56:20Z</time>
      </trkpt>
      <trkpt lat="44.13213" lon="5.70487">
        <ele>1219.6</ele>
        <time>2021-09-01T10:56:22Z</time>
      </trkpt>
      <trkpt lat="44.13221" lon="5.70487">
        <ele>1220.6</ele>
        <time>2021-09-01T10:56:25Z</time>
      </trkpt>
      <trkpt lat="44.13233" lon="5.70488">
        <ele>1222</ele>
        <time>2021-09-01T10:56:29Z</time>
      </trkpt>
      <trkpt lat="44.13235" lon="5.70489">
        <ele>1222.1</ele>
        <time>2021-09-01T10:56:30Z</time>
      </trkpt>
      <trkpt lat="44.1324" lon="5.70492">
        <ele>1222.5</ele>
        <time>2021-09-01T10:56:32Z</time>
      </trkpt>
      <trkpt lat="44.13255" lon="5.70496">
        <ele>1224.1</ele>
        <time>2021-09-01T10:56:37Z</time>
      </trkpt>
      <trkpt lat="44.13267" lon="5.70498">
        <ele>1225.9</ele>
        <time>2021-09-01T10:56:41Z</time>
      </trkpt>
      <trkpt lat="44.13269" lon="5.70498">
        <ele>1226.2</ele>
        <time>2021-09-01T10:56:42Z</time>
      </trkpt>
      <trkpt lat="44.13285" lon="5.70502">
        <ele>1229.1</ele>
        <time>2021-09-01T10:56:47Z</time>
      </trkpt>
      <trkpt lat="44.133" lon="5.70506">
        <ele>1232.8</ele>
        <time>2021-09-01T10:56:52Z</time>
      </trkpt>
      <trkpt lat="44.13313" lon="5.7051">
        <ele>1236</ele>
        <time>2021-09-01T10:56:57Z</time>
      </trkpt>
      <trkpt lat="44.13321" lon="5.70514">
        <ele>1238.4</ele>
        <time>2021-09-01T10:57:01Z</time>
      </trkpt>
      <trkpt lat="44.13323" lon="5.70514">
        <ele>1238.7</ele>
        <time>2021-09-01T10:57:02Z</time>
      </trkpt>
      <trkpt lat="44.13326" lon="5.70515">
        <ele>1239.5</ele>
        <time>2021-09-01T10:57:03Z</time>
      </trkpt>
      <trkpt lat="44.13333" lon="5.70516">
        <ele>1240.8</ele>
        <time>2021-09-01T10:57:06Z</time>
      </trkpt>
      <trkpt lat="44.13343" lon="5.70519">
        <ele>1242.9</ele>
        <time>2021-09-01T10:57:10Z</time>
      </trkpt>
      <trkpt lat="44.13359" lon="5.70521">
        <ele>1245.5</ele>
        <time>2021-09-01T10:57:16Z</time>
      </trkpt>
      <trkpt lat="44.13366" lon="5.70523">
        <ele>1246.8</ele>
        <time>2021-09-01T10:57:20Z</time>
      </trkpt>
      <trkpt lat="44.13374" lon="5.70524">
        <ele>1248</ele>
        <time>2021-09-01T10:57:24Z</time>
      </trkpt>
      <trkpt lat="44.13379" lon="5.70525">
        <ele>1248.8</ele>
        <time>2021-09-01T10:57:26Z</time>
      </trkpt>
      <trkpt lat="44.13383" lon="5.70527">
        <ele>1249.7</ele>
        <time>2021-09-01T10:57:28Z</time>
      </trkpt>
      <trkpt lat="44.13396" lon="5.70525">
        <ele>1250.8</ele>
        <time>2021-09-01T10:57:33Z</time>
      </trkpt>
      <trkpt lat="44.13409" lon="5.70525">
        <ele>1252.3</ele>
        <time>2021-09-01T10:57:37Z</time>
      </trkpt>
      <trkpt lat="44.13418" lon="5.70528">
        <ele>1253.9</ele>
        <time>2021-09-01T10:57:41Z</time>
      </trkpt>
      <trkpt lat="44.13421" lon="5.70528">
        <ele>1254.3</ele>
        <time>2021-09-01T10:57:42Z</time>
      </trkpt>
      <trkpt lat="44.13443" lon="5.7053">
        <ele>1257.8</ele>
        <time>2021-09-01T10:57:49Z</time>
      </trkpt>
      <trkpt lat="44.13453" lon="5.70533">
        <ele>1259.6</ele>
        <time>2021-09-01T10:57:52Z</time>
      </trkpt>
      <trkpt lat="44.13459" lon="5.70534">
        <ele>1260.6</ele>
        <time>2021-09-01T10:57:54Z</time>
      </trkpt>
      <trkpt lat="44.13465" lon="5.70535">
        <ele>1261.5</ele>
        <time>2021-09-01T10:57:56Z</time>
      </trkpt>
      <trkpt lat="44.1347" lon="5.70533">
        <ele>1262</ele>
        <time>2021-09-01T10:57:58Z</time>
      </trkpt>
      <trkpt lat="44.13474" lon="5.70533">
        <ele>1262.5</ele>
        <time>2021-09-01T10:57:59Z</time>
      </trkpt>
      <trkpt lat="44.13477" lon="5.70535">
        <ele>1263.2</ele>
        <time>2021-09-01T10:58:01Z</time>
      </trkpt>
      <trkpt lat="44.13485" lon="5.70537">
        <ele>1264.5</ele>
        <time>2021-09-01T10:58:05Z</time>
      </trkpt>
      <trkpt lat="44.13496" lon="5.70541">
        <ele>1266.4</ele>
        <time>2021-09-01T10:58:10Z</time>
      </trkpt>
      <trkpt lat="44.13507" lon="5.70543">
        <ele>1268.3</ele>
        <time>2021-09-01T10:58:14Z</time>
      </trkpt>
      <trkpt lat="44.13516" lon="5.70545">
        <ele>1270.1</ele>
        <time>2021-09-01T10:58:18Z</time>
      </trkpt>
      <trkpt lat="44.1352" lon="5.70546">
        <ele>1270.8</ele>
        <time>2021-09-01T10:58:20Z</time>
      </trkpt>
      <trkpt lat="44.13522" lon="5.70548">
        <ele>1271.3</ele>
        <time>2021-09-01T10:58:22Z</time>
      </trkpt>
      <trkpt lat="44.13527" lon="5.70555">
        <ele>1272.6</ele>
        <time>2021-09-01T10:58:27Z</time>
      </trkpt>
      <trkpt lat="44.13529" lon="5.70557">
        <ele>1273.1</ele>
        <time>2021-09-01T10:58:28Z</time>
      </trkpt>
      <trkpt lat="44.13535" lon="5.70558">
        <ele>1274.1</ele>
        <time>2021-09-01T10:58:32Z</time>
      </trkpt>
      <trkpt lat="44.13542" lon="5.70558">
        <ele>1275.2</ele>
        <time>2021-09-01T10:58:37Z</time>
      </trkpt>
      <trkpt lat="44.13547" lon="5.70558">
        <ele>1276</ele>
        <time>2021-09-01T10:58:40Z</time>
      </trkpt>
      <trkpt lat="44.13549" lon="5.70557">
        <ele>1276.2</ele>
        <time>2021-09-01T10:58:41Z</time>
      </trkpt>
      <trkpt lat="44.1356" lon="5.70552">
        <ele>1277.8</ele>
        <time>2021-09-01T10:58:47Z</time>
      </trkpt>
      <trkpt lat="44.13563" lon="5.7055">
        <ele>1278.2</ele>
        <time>2021-09-01T10:58:49Z</time>
      </trkpt>
      <trkpt lat="44.1357" lon="5.70548">
        <ele>1279.3</ele>
        <time>2021-09-01T10:58:52Z</time>
      </trkpt>
      <trkpt lat="44.13582" lon="5.70544">
        <ele>1281.3</ele>
        <time>2021-09-01T10:58:57Z</time>
      </trkpt>
      <trkpt lat="44.13595" lon="5.70544">
        <ele>1283.1</ele>
        <time>2021-09-01T10:59:02Z</time>
      </trkpt>
      <trkpt lat="44.13609" lon="5.70542">
        <ele>1285</ele>
        <time>2021-09-01T10:59:07Z</time>
      </trkpt>
      <trkpt lat="44.13623" lon="5.70543">
        <ele>1287</ele>
        <time>2021-09-01T10:59:13Z</time>
      </trkpt>
      <trkpt lat="44.13637" lon="5.70544">
        <ele>1289</ele>
        <time>2021-09-01T10:59:18Z</time>
      </trkpt>
      <trkpt lat="44.13646" lon="5.70545">
        <ele>1290.2</ele>
        <time>2021-09-01T10:59:22Z</time>
      </trkpt>
      <trkpt lat="44.13659" lon="5.7055">
        <ele>1292.1</ele>
        <time>2021-09-01T10:59:27Z</time>
      </trkpt>
      <trkpt lat="44.13663" lon="5.70552">
        <ele>1292.7</ele>
        <time>2021-09-01T10:59:28Z</time>
      </trkpt>
      <trkpt lat="44.13667" lon="5.70554">
        <ele>1293.3</ele>
        <time>2021-09-01T10:59:30Z</time>
      </trkpt>
      <trkpt lat="44.13678" lon="5.70556">
        <ele>1293.8</ele>
        <time>2021-09-01T10:59:34Z</time>
      </trkpt>
      <trkpt lat="44.13692" lon="5.70562">
        <ele>1294.4</ele>
        <time>2021-09-01T10:59:39Z</time>
      </trkpt>
      <trkpt lat="44.13702" lon="5.70564">
        <ele>1294.8</ele>
        <time>2021-09-01T10:59:44Z</time>
      </trkpt>
      <trkpt lat="44.13702" lon="5.70564">
        <ele>1294.8</ele>
        <time>2021-09-01T10:59:54Z</time>
      </trkpt>
      <trkpt lat="44.13702" lon="5.70564">
        <ele>1294.8</ele>
        <time>2021-09-01T11:00:10Z</time>
      </trkpt>
      <trkpt lat="44.13702" lon="5.70564">
        <ele>1294.8</ele>
        <time>2021-09-01T11:00:31Z</time>
      </trkpt>
      <trkpt lat="44.13702" lon="5.70564">
        <ele>1294.8</ele>
        <time>2021-09-01T11:00:45Z</time>
      </trkpt>
      <trkpt lat="44.13702" lon="5.70564">
        <ele>1294.8</ele>
        <time>2021-09-01T11:01:10Z</time>
      </trkpt>
      <trkpt lat="44.13702" lon="5.70564">
        <ele>1294.8</ele>
        <time>2021-09-01T11:01:32Z</time>
      </trkpt>
      <trkpt lat="44.13702" lon="5.70564">
        <ele>1294.8</ele>
        <time>2021-09-01T11:01:51Z</time>
      </trkpt>
      <trkpt lat="44.13702" lon="5.70564">
        <ele>1294.8</ele>
        <time>2021-09-01T11:02:05Z</time>
      </trkpt>
      <trkpt lat="44.13702" lon="5.70563">
        <ele>1294.8</ele>
        <time>2021-09-01T11:02:26Z</time>
      </trkpt>
      <trkpt lat="44.13702" lon="5.70563">
        <ele>1294.8</ele>
        <time>2021-09-01T11:02:52Z</time>
      </trkpt>
      <trkpt lat="44.13701" lon="5.70564">
        <ele>1294.8</ele>
        <time>2021-09-01T11:03:15Z</time>
      </trkpt>
      <trkpt lat="44.13701" lon="5.70564">
        <ele>1294.8</ele>
        <time>2021-09-01T11:03:40Z</time>
      </trkpt>
      <trkpt lat="44.13704" lon="5.7056">
        <ele>1294.8</ele>
        <time>2021-09-01T11:03:45Z</time>
      </trkpt>
      <trkpt lat="44.13706" lon="5.7056">
        <ele>1294.9</ele>
        <time>2021-09-01T11:03:46Z</time>
      </trkpt>
      <trkpt lat="44.13718" lon="5.70555">
        <ele>1295.2</ele>
        <time>2021-09-01T11:03:51Z</time>
      </trkpt>
      <trkpt lat="44.13723" lon="5.70553">
        <ele>1295.3</ele>
        <time>2021-09-01T11:03:53Z</time>
      </trkpt>
      <trkpt lat="44.13725" lon="5.7055">
        <ele>1295.3</ele>
        <time>2021-09-01T11:03:55Z</time>
      </trkpt>
      <trkpt lat="44.13725" lon="5.7055">
        <ele>1295.3</ele>
        <time>2021-09-01T11:04:05Z</time>
      </trkpt>
      <trkpt lat="44.13725" lon="5.7055">
        <ele>1295.3</ele>
        <time>2021-09-01T11:04:17Z</time>
      </trkpt>
      <trkpt lat="44.13731" lon="5.70544">
        <ele>1295.4</ele>
        <time>2021-09-01T11:04:20Z</time>
      </trkpt>
      <trkpt lat="44.13733" lon="5.70543">
        <ele>1295.4</ele>
        <time>2021-09-01T11:04:21Z</time>
      </trkpt>
      <trkpt lat="44.13747" lon="5.70538">
        <ele>1295.8</ele>
        <time>2021-09-01T11:04:25Z</time>
      </trkpt>
      <trkpt lat="44.13752" lon="5.70537">
        <ele>1295.8</ele>
        <time>2021-09-01T11:04:30Z</time>
      </trkpt>
      <trkpt lat="44.13758" lon="5.70536">
        <ele>1295.6</ele>
        <time>2021-09-01T11:04:33Z</time>
      </trkpt>
      <trkpt lat="44.13773" lon="5.7053">
        <ele>1295.1</ele>
        <time>2021-09-01T11:04:38Z</time>
      </trkpt>
      <trkpt lat="44.13789" lon="5.70527">
        <ele>1294.8</ele>
        <time>2021-09-01T11:04:43Z</time>
      </trkpt>
      <trkpt lat="44.13802" lon="5.70522">
        <ele>1294.8</ele>
        <time>2021-09-01T11:04:47Z</time>
      </trkpt>
      <trkpt lat="44.13807" lon="5.70517">
        <ele>1295.1</ele>
        <time>2021-09-01T11:04:50Z</time>
      </trkpt>
      <trkpt lat="44.13816" lon="5.70513">
        <ele>1295.4</ele>
        <time>2021-09-01T11:04:53Z</time>
      </trkpt>
      <trkpt lat="44.13819" lon="5.70513">
        <ele>1295.4</ele>
        <time>2021-09-01T11:04:54Z</time>
      </trkpt>
      <trkpt lat="44.13825" lon="5.70509">
        <ele>1295.8</ele>
        <time>2021-09-01T11:04:56Z</time>
      </trkpt>
      <trkpt lat="44.1383" lon="5.70504">
        <ele>1296.5</ele>
        <time>2021-09-01T11:04:58Z</time>
      </trkpt>
      <trkpt lat="44.13852" lon="5.70492">
        <ele>1298.8</ele>
        <time>2021-09-01T11:05:05Z</time>
      </trkpt>
      <trkpt lat="44.13865" lon="5.70486">
        <ele>1300.4</ele>
        <time>2021-09-01T11:05:10Z</time>
      </trkpt>
      <trkpt lat="44.13875" lon="5.70479">
        <ele>1302.2</ele>
        <time>2021-09-01T11:05:14Z</time>
      </trkpt>
      <trkpt lat="44.13879" lon="5.70475">
        <ele>1303.1</ele>
        <time>2021-09-01T11:05:16Z</time>
      </trkpt>
      <trkpt lat="44.13883" lon="5.70472">
        <ele>1304</ele>
        <time>2021-09-01T11:05:18Z</time>
      </trkpt>
      <trkpt lat="44.13892" lon="5.70466">
        <ele>1305.7</ele>
        <time>2021-09-01T11:05:21Z</time>
      </trkpt>
      <trkpt lat="44.13895" lon="5.70465">
        <ele>1306.1</ele>
        <time>2021-09-01T11:05:22Z</time>
      </trkpt>
      <trkpt lat="44.13898" lon="5.70464">
        <ele>1306.5</ele>
        <time>2021-09-01T11:05:23Z</time>
      </trkpt>
      <trkpt lat="44.13902" lon="5.7046">
        <ele>1307.7</ele>
        <time>2021-09-01T11:05:25Z</time>
      </trkpt>
      <trkpt lat="44.13904" lon="5.70458">
        <ele>1308.2</ele>
        <time>2021-09-01T11:05:27Z</time>
      </trkpt>
      <trkpt lat="44.13906" lon="5.70456">
        <ele>1308.8</ele>
        <time>2021-09-01T11:05:28Z</time>
      </trkpt>
      <trkpt lat="44.13912" lon="5.70452">
        <ele>1310.2</ele>
        <time>2021-09-01T11:05:32Z</time>
      </trkpt>
      <trkpt lat="44.13924" lon="5.70443">
        <ele>1311.8</ele>
        <time>2021-09-01T11:05:36Z</time>
      </trkpt>
      <trkpt lat="44.13935" lon="5.70436">
        <ele>1312.4</ele>
        <time>2021-09-01T11:05:40Z</time>
      </trkpt>
      <trkpt lat="44.13937" lon="5.70434">
        <ele>1312.8</ele>
        <time>2021-09-01T11:05:41Z</time>
      </trkpt>
      <trkpt lat="44.13939" lon="5.70431">
        <ele>1313.5</ele>
        <time>2021-09-01T11:05:42Z</time>
      </trkpt>
      <trkpt lat="44.13947" lon="5.70423">
        <ele>1315.2</ele>
        <time>2021-09-01T11:05:45Z</time>
      </trkpt>
      <trkpt lat="44.13959" lon="5.7041">
        <ele>1317.3</ele>
        <time>2021-09-01T11:05:50Z</time>
      </trkpt>
      <trkpt lat="44.13967" lon="5.70401">
        <ele>1318.3</ele>
        <time>2021-09-01T11:05:53Z</time>
      </trkpt>
      <trkpt lat="44.13971" lon="5.70398">
        <ele>1318.7</ele>
        <time>2021-09-01T11:05:54Z</time>
      </trkpt>
      <trkpt lat="44.13987" lon="5.70383">
        <ele>1321.2</ele>
        <time>2021-09-01T11:05:59Z</time>
      </trkpt>
      <trkpt lat="44.13993" lon="5.70377">
        <ele>1322.4</ele>
        <time>2021-09-01T11:06:01Z</time>
      </trkpt>
      <trkpt lat="44.13995" lon="5.70371">
        <ele>1323.7</ele>
        <time>2021-09-01T11:06:03Z</time>
      </trkpt>
      <trkpt lat="44.14003" lon="5.70359">
        <ele>1326.1</ele>
        <time>2021-09-01T11:06:07Z</time>
      </trkpt>
      <trkpt lat="44.14017" lon="5.70344">
        <ele>1328.1</ele>
        <time>2021-09-01T11:06:12Z</time>
      </trkpt>
      <trkpt lat="44.14025" lon="5.70333">
        <ele>1330.2</ele>
        <time>2021-09-01T11:06:16Z</time>
      </trkpt>
      <trkpt lat="44.14031" lon="5.70328">
        <ele>1329.9</ele>
        <time>2021-09-01T11:06:18Z</time>
      </trkpt>
      <trkpt lat="44.14034" lon="5.70325">
        <ele>1329.9</ele>
        <time>2021-09-01T11:06:19Z</time>
      </trkpt>
      <trkpt lat="44.14039" lon="5.70316">
        <ele>1330.2</ele>
        <time>2021-09-01T11:06:23Z</time>
      </trkpt>
      <trkpt lat="44.14048" lon="5.70307">
        <ele>1330.8</ele>
        <time>2021-09-01T11:06:27Z</time>
      </trkpt>
      <trkpt lat="44.1406" lon="5.70301">
        <ele>1331.6</ele>
        <time>2021-09-01T11:06:31Z</time>
      </trkpt>
      <trkpt lat="44.14069" lon="5.70296">
        <ele>1332.6</ele>
        <time>2021-09-01T11:06:34Z</time>
      </trkpt>
      <trkpt lat="44.14076" lon="5.7029">
        <ele>1333.9</ele>
        <time>2021-09-01T11:06:36Z</time>
      </trkpt>
      <trkpt lat="44.14084" lon="5.70284">
        <ele>1335.3</ele>
        <time>2021-09-01T11:06:38Z</time>
      </trkpt>
      <trkpt lat="44.14097" lon="5.70269">
        <ele>1335.8</ele>
        <time>2021-09-01T11:06:42Z</time>
      </trkpt>
      <trkpt lat="44.141" lon="5.7026">
        <ele>1337.4</ele>
        <time>2021-09-01T11:06:45Z</time>
      </trkpt>
      <trkpt lat="44.14101" lon="5.70256">
        <ele>1338.2</ele>
        <time>2021-09-01T11:06:47Z</time>
      </trkpt>
      <trkpt lat="44.14106" lon="5.70242">
        <ele>1339.5</ele>
        <time>2021-09-01T11:06:52Z</time>
      </trkpt>
      <trkpt lat="44.14112" lon="5.70226">
        <ele>1340.2</ele>
        <time>2021-09-01T11:06:56Z</time>
      </trkpt>
      <trkpt lat="44.14117" lon="5.70215">
        <ele>1340.9</ele>
        <time>2021-09-01T11:06:59Z</time>
      </trkpt>
      <trkpt lat="44.14125" lon="5.70198">
        <ele>1342.7</ele>
        <time>2021-09-01T11:07:03Z</time>
      </trkpt>
      <trkpt lat="44.14135" lon="5.70181">
        <ele>1345.4</ele>
        <time>2021-09-01T11:07:08Z</time>
      </trkpt>
      <trkpt lat="44.14142" lon="5.70169">
        <ele>1347.9</ele>
        <time>2021-09-01T11:07:12Z</time>
      </trkpt>
      <trkpt lat="44.14144" lon="5.70166">
        <ele>1348.5</ele>
        <time>2021-09-01T11:07:13Z</time>
      </trkpt>
      <trkpt lat="44.1415" lon="5.70158">
        <ele>1348.8</ele>
        <time>2021-09-01T11:07:16Z</time>
      </trkpt>
      <trkpt lat="44.14161" lon="5.70149">
        <ele>1349.7</ele>
        <time>2021-09-01T11:07:20Z</time>
      </trkpt>
      <trkpt lat="44.1417" lon="5.70137">
        <ele>1349.1</ele>
        <time>2021-09-01T11:07:25Z</time>
      </trkpt>
      <trkpt lat="44.14182" lon="5.70127">
        <ele>1346.4</ele>
        <time>2021-09-01T11:07:30Z</time>
      </trkpt>
      <trkpt lat="44.14196" lon="5.70118">
        <ele>1343.9</ele>
        <time>2021-09-01T11:07:35Z</time>
      </trkpt>
      <trkpt lat="44.14198" lon="5.70116">
        <ele>1343.6</ele>
        <time>2021-09-01T11:07:36Z</time>
      </trkpt>
      <trkpt lat="44.14206" lon="5.70109">
        <ele>1342.7</ele>
        <time>2021-09-01T11:07:38Z</time>
      </trkpt>
      <trkpt lat="44.14218" lon="5.70094">
        <ele>1342.5</ele>
        <time>2021-09-01T11:07:43Z</time>
      </trkpt>
      <trkpt lat="44.14229" lon="5.70075">
        <ele>1341.3</ele>
        <time>2021-09-01T11:07:48Z</time>
      </trkpt>
      <trkpt lat="44.14237" lon="5.70064">
        <ele>1339.1</ele>
        <time>2021-09-01T11:07:54Z</time>
      </trkpt>
      <trkpt lat="44.14237" lon="5.70065">
        <ele>1339.2</ele>
        <time>2021-09-01T11:08:00Z</time>
      </trkpt>
      <trkpt lat="44.14238" lon="5.70062">
        <ele>1338.7</ele>
        <time>2021-09-01T11:08:04Z</time>
      </trkpt>
      <trkpt lat="44.14242" lon="5.70056">
        <ele>1337.7</ele>
        <time>2021-09-01T11:08:07Z</time>
      </trkpt>
      <trkpt lat="44.14245" lon="5.7005">
        <ele>1336.7</ele>
        <time>2021-09-01T11:08:09Z</time>
      </trkpt>
      <trkpt lat="44.1425" lon="5.70048">
        <ele>1336.3</ele>
        <time>2021-09-01T11:08:11Z</time>
      </trkpt>
      <trkpt lat="44.14257" lon="5.70046">
        <ele>1336.1</ele>
        <time>2021-09-01T11:08:14Z</time>
      </trkpt>
      <trkpt lat="44.1426" lon="5.70045">
        <ele>1336</ele>
        <time>2021-09-01T11:08:15Z</time>
      </trkpt>
      <trkpt lat="44.14262" lon="5.70043">
        <ele>1335.9</ele>
        <time>2021-09-01T11:08:16Z</time>
      </trkpt>
      <trkpt lat="44.14266" lon="5.70039">
        <ele>1335.5</ele>
        <time>2021-09-01T11:08:18Z</time>
      </trkpt>
      <trkpt lat="44.14277" lon="5.70032">
        <ele>1335.3</ele>
        <time>2021-09-01T11:08:23Z</time>
      </trkpt>
      <trkpt lat="44.14288" lon="5.70028">
        <ele>1335.5</ele>
        <time>2021-09-01T11:08:27Z</time>
      </trkpt>
      <trkpt lat="44.14299" lon="5.70024">
        <ele>1335.9</ele>
        <time>2021-09-01T11:08:31Z</time>
      </trkpt>
      <trkpt lat="44.14303" lon="5.70027">
        <ele>1336.2</ele>
        <time>2021-09-01T11:08:33Z</time>
      </trkpt>
      <trkpt lat="44.14305" lon="5.7003">
        <ele>1336.3</ele>
        <time>2021-09-01T11:08:35Z</time>
      </trkpt>
      <trkpt lat="44.14314" lon="5.70029">
        <ele>1336.7</ele>
        <time>2021-09-01T11:08:39Z</time>
      </trkpt>
      <trkpt lat="44.14323" lon="5.70024">
        <ele>1337.3</ele>
        <time>2021-09-01T11:08:43Z</time>
      </trkpt>
      <trkpt lat="44.14325" lon="5.70024">
        <ele>1337.4</ele>
        <time>2021-09-01T11:08:44Z</time>
      </trkpt>
      <trkpt lat="44.14339" lon="5.70025">
        <ele>1338.6</ele>
        <time>2021-09-01T11:08:50Z</time>
      </trkpt>
      <trkpt lat="44.14353" lon="5.70019">
        <ele>1341.2</ele>
        <time>2021-09-01T11:08:56Z</time>
      </trkpt>
      <trkpt lat="44.14356" lon="5.70018">
        <ele>1341.8</ele>
        <time>2021-09-01T11:08:58Z</time>
      </trkpt>
      <trkpt lat="44.14358" lon="5.70013">
        <ele>1342.7</ele>
        <time>2021-09-01T11:09:00Z</time>
      </trkpt>
      <trkpt lat="44.1436" lon="5.7001">
        <ele>1343.3</ele>
        <time>2021-09-01T11:09:01Z</time>
      </trkpt>
      <trkpt lat="44.14363" lon="5.70006">
        <ele>1344.4</ele>
        <time>2021-09-01T11:09:03Z</time>
      </trkpt>
      <trkpt lat="44.14364" lon="5.70004">
        <ele>1344.8</ele>
        <time>2021-09-01T11:09:04Z</time>
      </trkpt>
      <trkpt lat="44.14367" lon="5.69997">
        <ele>1346.1</ele>
        <time>2021-09-01T11:09:07Z</time>
      </trkpt>
      <trkpt lat="44.14369" lon="5.69991">
        <ele>1347.1</ele>
        <time>2021-09-01T11:09:09Z</time>
      </trkpt>
      <trkpt lat="44.1437" lon="5.69988">
        <ele>1347.5</ele>
        <time>2021-09-01T11:09:10Z</time>
      </trkpt>
      <trkpt lat="44.14372" lon="5.69982">
        <ele>1348.5</ele>
        <time>2021-09-01T11:09:13Z</time>
      </trkpt>
      <trkpt lat="44.14374" lon="5.69979">
        <ele>1349.2</ele>
        <time>2021-09-01T11:09:14Z</time>
      </trkpt>
      <trkpt lat="44.14379" lon="5.6997">
        <ele>1351.1</ele>
        <time>2021-09-01T11:09:17Z</time>
      </trkpt>
      <trkpt lat="44.14379" lon="5.69964">
        <ele>1351.6</ele>
        <time>2021-09-01T11:09:19Z</time>
      </trkpt>
      <trkpt lat="44.14379" lon="5.6996">
        <ele>1352</ele>
        <time>2021-09-01T11:09:20Z</time>
      </trkpt>
      <trkpt lat="44.14383" lon="5.69958">
        <ele>1353.1</ele>
        <time>2021-09-01T11:09:22Z</time>
      </trkpt>
      <trkpt lat="44.14385" lon="5.69958">
        <ele>1353.5</ele>
        <time>2021-09-01T11:09:23Z</time>
      </trkpt>
      <trkpt lat="44.14386" lon="5.69956">
        <ele>1353.9</ele>
        <time>2021-09-01T11:09:24Z</time>
      </trkpt>
      <trkpt lat="44.14387" lon="5.69951">
        <ele>1354.6</ele>
        <time>2021-09-01T11:09:26Z</time>
      </trkpt>
      <trkpt lat="44.14388" lon="5.69948">
        <ele>1355.1</ele>
        <time>2021-09-01T11:09:27Z</time>
      </trkpt>
      <trkpt lat="44.14392" lon="5.69938">
        <ele>1357</ele>
        <time>2021-09-01T11:09:32Z</time>
      </trkpt>
      <trkpt lat="44.14394" lon="5.69938">
        <ele>1357.5</ele>
        <time>2021-09-01T11:09:33Z</time>
      </trkpt>
      <trkpt lat="44.14397" lon="5.69936">
        <ele>1358.4</ele>
        <time>2021-09-01T11:09:35Z</time>
      </trkpt>
      <trkpt lat="44.14399" lon="5.69936">
        <ele>1358.8</ele>
        <time>2021-09-01T11:09:40Z</time>
      </trkpt>
      <trkpt lat="44.14399" lon="5.69936">
        <ele>1358.8</ele>
        <time>2021-09-01T11:09:49Z</time>
      </trkpt>
      <trkpt lat="44.14399" lon="5.69936">
        <ele>1358.8</ele>
        <time>2021-09-01T11:09:59Z</time>
      </trkpt>
      <trkpt lat="44.14398" lon="5.69936">
        <ele>1358.6</ele>
        <time>2021-09-01T11:10:09Z</time>
      </trkpt>
      <trkpt lat="44.14403" lon="5.69933">
        <ele>1360.1</ele>
        <time>2021-09-01T11:10:14Z</time>
      </trkpt>
      <trkpt lat="44.14406" lon="5.69932">
        <ele>1360.9</ele>
        <time>2021-09-01T11:10:20Z</time>
      </trkpt>
      <trkpt lat="44.14411" lon="5.69923">
        <ele>1363</ele>
        <time>2021-09-01T11:10:27Z</time>
      </trkpt>
      <trkpt lat="44.14411" lon="5.69922">
        <ele>1363.1</ele>
        <time>2021-09-01T11:10:32Z</time>
      </trkpt>
      <trkpt lat="44.14411" lon="5.69922">
        <ele>1363.1</ele>
        <time>2021-09-01T11:10:45Z</time>
      </trkpt>
      <trkpt lat="44.14411" lon="5.69922">
        <ele>1363.1</ele>
        <time>2021-09-01T11:11:03Z</time>
      </trkpt>
      <trkpt lat="44.14413" lon="5.6992">
        <ele>1363.8</ele>
        <time>2021-09-01T11:11:15Z</time>
      </trkpt>
      <trkpt lat="44.14418" lon="5.6992">
        <ele>1364.9</ele>
        <time>2021-09-01T11:11:21Z</time>
      </trkpt>
      <trkpt lat="44.1442" lon="5.69921">
        <ele>1365.2</ele>
        <time>2021-09-01T11:11:27Z</time>
      </trkpt>
      <trkpt lat="44.14424" lon="5.69919">
        <ele>1366.2</ele>
        <time>2021-09-01T11:11:33Z</time>
      </trkpt>
      <trkpt lat="44.14427" lon="5.69909">
        <ele>1367.7</ele>
        <time>2021-09-01T11:11:40Z</time>
      </trkpt>
      <trkpt lat="44.14427" lon="5.69905">
        <ele>1368</ele>
        <time>2021-09-01T11:11:45Z</time>
      </trkpt>
      <trkpt lat="44.14427" lon="5.69905">
        <ele>1368</ele>
        <time>2021-09-01T11:12:00Z</time>
      </trkpt>
      <trkpt lat="44.14425" lon="5.69902">
        <ele>1367.8</ele>
        <time>2021-09-01T11:12:07Z</time>
      </trkpt>
      <trkpt lat="44.14422" lon="5.69884">
        <ele>1368.8</ele>
        <time>2021-09-01T11:12:11Z</time>
      </trkpt>
      <trkpt lat="44.1442" lon="5.6988">
        <ele>1368.9</ele>
        <time>2021-09-01T11:12:12Z</time>
      </trkpt>
      <trkpt lat="44.14417" lon="5.69875">
        <ele>1369</ele>
        <time>2021-09-01T11:12:14Z</time>
      </trkpt>
      <trkpt lat="44.14417" lon="5.69863">
        <ele>1370.2</ele>
        <time>2021-09-01T11:12:17Z</time>
      </trkpt>
      <trkpt lat="44.14409" lon="5.6985">
        <ele>1369.7</ele>
        <time>2021-09-01T11:12:21Z</time>
      </trkpt>
      <trkpt lat="44.14404" lon="5.69842">
        <ele>1369.4</ele>
        <time>2021-09-01T11:12:25Z</time>
      </trkpt>
      <trkpt lat="44.14399" lon="5.69831">
        <ele>1369.3</ele>
        <time>2021-09-01T11:12:30Z</time>
      </trkpt>
      <trkpt lat="44.14398" lon="5.69827">
        <ele>1369.3</ele>
        <time>2021-09-01T11:12:31Z</time>
      </trkpt>
      <trkpt lat="44.14397" lon="5.69824">
        <ele>1369.2</ele>
        <time>2021-09-01T11:12:32Z</time>
      </trkpt>
      <trkpt lat="44.14395" lon="5.69814">
        <ele>1369.3</ele>
        <time>2021-09-01T11:12:35Z</time>
      </trkpt>
      <trkpt lat="44.14393" lon="5.69802">
        <ele>1369.5</ele>
        <time>2021-09-01T11:12:39Z</time>
      </trkpt>
      <trkpt lat="44.14391" lon="5.69799">
        <ele>1369.2</ele>
        <time>2021-09-01T11:12:40Z</time>
      </trkpt>
      <trkpt lat="44.14382" lon="5.69785">
        <ele>1368.1</ele>
        <time>2021-09-01T11:12:45Z</time>
      </trkpt>
      <trkpt lat="44.14378" lon="5.69766">
        <ele>1368.3</ele>
        <time>2021-09-01T11:12:50Z</time>
      </trkpt>
      <trkpt lat="44.14377" lon="5.69761">
        <ele>1368.3</ele>
        <time>2021-09-01T11:12:51Z</time>
      </trkpt>
      <trkpt lat="44.14378" lon="5.69749">
        <ele>1369.2</ele>
        <time>2021-09-01T11:12:54Z</time>
      </trkpt>
      <trkpt lat="44.14379" lon="5.69743">
        <ele>1369.6</ele>
        <time>2021-09-01T11:12:56Z</time>
      </trkpt>
      <trkpt lat="44.14381" lon="5.69737">
        <ele>1370.3</ele>
        <time>2021-09-01T11:12:58Z</time>
      </trkpt>
      <trkpt lat="44.14385" lon="5.69729">
        <ele>1371.4</ele>
        <time>2021-09-01T11:13:01Z</time>
      </trkpt>
      <trkpt lat="44.14385" lon="5.69722">
        <ele>1371.6</ele>
        <time>2021-09-01T11:13:03Z</time>
      </trkpt>
      <trkpt lat="44.14385" lon="5.69707">
        <ele>1372.2</ele>
        <time>2021-09-01T11:13:07Z</time>
      </trkpt>
      <trkpt lat="44.14385" lon="5.69691">
        <ele>1372.9</ele>
        <time>2021-09-01T11:13:12Z</time>
      </trkpt>
      <trkpt lat="44.14385" lon="5.69687">
        <ele>1373</ele>
        <time>2021-09-01T11:13:14Z</time>
      </trkpt>
      <trkpt lat="44.14381" lon="5.69682">
        <ele>1372.6</ele>
        <time>2021-09-01T11:13:16Z</time>
      </trkpt>
      <trkpt lat="44.1438" lon="5.69679">
        <ele>1372.6</ele>
        <time>2021-09-01T11:13:20Z</time>
      </trkpt>
      <trkpt lat="44.1438" lon="5.69679">
        <ele>1372.6</ele>
        <time>2021-09-01T11:13:44Z</time>
      </trkpt>
      <trkpt lat="44.14381" lon="5.69678">
        <ele>1372.8</ele>
        <time>2021-09-01T11:14:03Z</time>
      </trkpt>
      <trkpt lat="44.14381" lon="5.69678">
        <ele>1372.8</ele>
        <time>2021-09-01T11:14:18Z</time>
      </trkpt>
      <trkpt lat="44.14381" lon="5.69678">
        <ele>1372.8</ele>
        <time>2021-09-01T11:14:33Z</time>
      </trkpt>
      <trkpt lat="44.1438" lon="5.69679">
        <ele>1372.6</ele>
        <time>2021-09-01T11:14:49Z</time>
      </trkpt>
      <trkpt lat="44.1438" lon="5.69679">
        <ele>1372.6</ele>
        <time>2021-09-01T11:15:02Z</time>
      </trkpt>
      <trkpt lat="44.1438" lon="5.69679">
        <ele>1372.6</ele>
        <time>2021-09-01T11:15:17Z</time>
      </trkpt>
      <trkpt lat="44.14381" lon="5.69679">
        <ele>1372.8</ele>
        <time>2021-09-01T11:15:33Z</time>
      </trkpt>
      <trkpt lat="44.14381" lon="5.69679">
        <ele>1372.8</ele>
        <time>2021-09-01T11:15:48Z</time>
      </trkpt>
      <trkpt lat="44.14381" lon="5.69679">
        <ele>1372.8</ele>
        <time>2021-09-01T11:16:06Z</time>
      </trkpt>
      <trkpt lat="44.14381" lon="5.69679">
        <ele>1372.8</ele>
        <time>2021-09-01T11:16:24Z</time>
      </trkpt>
      <trkpt lat="44.14381" lon="5.69679">
        <ele>1372.8</ele>
        <time>2021-09-01T11:16:43Z</time>
      </trkpt>
      <trkpt lat="44.14381" lon="5.69679">
        <ele>1372.8</ele>
        <time>2021-09-01T11:16:59Z</time>
      </trkpt>
      <trkpt lat="44.14381" lon="5.69679">
        <ele>1372.8</ele>
        <time>2021-09-01T11:17:15Z</time>
      </trkpt>
      <trkpt lat="44.14382" lon="5.69679">
        <ele>1372.9</ele>
        <time>2021-09-01T11:17:33Z</time>
      </trkpt>
      <trkpt lat="44.14382" lon="5.69679">
        <ele>1372.9</ele>
        <time>2021-09-01T11:17:51Z</time>
      </trkpt>
      <trkpt lat="44.1438" lon="5.69679">
        <ele>1372.6</ele>
        <time>2021-09-01T11:18:08Z</time>
      </trkpt>
      <trkpt lat="44.14378" lon="5.69678">
        <ele>1372.4</ele>
        <time>2021-09-01T11:18:09Z</time>
      </trkpt>
      <trkpt lat="44.14373" lon="5.69672">
        <ele>1372</ele>
        <time>2021-09-01T11:18:11Z</time>
      </trkpt>
      <trkpt lat="44.14371" lon="5.69667">
        <ele>1372</ele>
        <time>2021-09-01T11:18:12Z</time>
      </trkpt>
      <trkpt lat="44.14366" lon="5.69653">
        <ele>1371.8</ele>
        <time>2021-09-01T11:18:15Z</time>
      </trkpt>
      <trkpt lat="44.14363" lon="5.69649">
        <ele>1371.6</ele>
        <time>2021-09-01T11:18:16Z</time>
      </trkpt>
      <trkpt lat="44.14356" lon="5.69639">
        <ele>1371.4</ele>
        <time>2021-09-01T11:18:19Z</time>
      </trkpt>
      <trkpt lat="44.14351" lon="5.69627">
        <ele>1371.7</ele>
        <time>2021-09-01T11:18:22Z</time>
      </trkpt>
      <trkpt lat="44.14348" lon="5.69622">
        <ele>1371.7</ele>
        <time>2021-09-01T11:18:23Z</time>
      </trkpt>
      <trkpt lat="44.14345" lon="5.69612">
        <ele>1372.2</ele>
        <time>2021-09-01T11:18:25Z</time>
      </trkpt>
      <trkpt lat="44.14346" lon="5.69608">
        <ele>1372.5</ele>
        <time>2021-09-01T11:18:26Z</time>
      </trkpt>
      <trkpt lat="44.14346" lon="5.69605">
        <ele>1372.7</ele>
        <time>2021-09-01T11:18:27Z</time>
      </trkpt>
      <trkpt lat="44.14344" lon="5.69602">
        <ele>1372.8</ele>
        <time>2021-09-01T11:18:29Z</time>
      </trkpt>
      <trkpt lat="44.14334" lon="5.69594">
        <ele>1373.1</ele>
        <time>2021-09-01T11:18:34Z</time>
      </trkpt>
      <trkpt lat="44.14333" lon="5.69587">
        <ele>1373.7</ele>
        <time>2021-09-01T11:18:38Z</time>
      </trkpt>
      <trkpt lat="44.14333" lon="5.69581">
        <ele>1374.1</ele>
        <time>2021-09-01T11:18:42Z</time>
      </trkpt>
      <trkpt lat="44.14331" lon="5.6958">
        <ele>1373.9</ele>
        <time>2021-09-01T11:18:46Z</time>
      </trkpt>
      <trkpt lat="44.14331" lon="5.6958">
        <ele>1373.9</ele>
        <time>2021-09-01T11:19:02Z</time>
      </trkpt>
      <trkpt lat="44.14331" lon="5.6958">
        <ele>1373.9</ele>
        <time>2021-09-01T11:19:18Z</time>
      </trkpt>
      <trkpt lat="44.14331" lon="5.69577">
        <ele>1374</ele>
        <time>2021-09-01T11:19:23Z</time>
      </trkpt>
      <trkpt lat="44.14332" lon="5.69573">
        <ele>1374.3</ele>
        <time>2021-09-01T11:19:25Z</time>
      </trkpt>
      <trkpt lat="44.14336" lon="5.69568">
        <ele>1374.6</ele>
        <time>2021-09-01T11:19:28Z</time>
      </trkpt>
      <trkpt lat="44.14337" lon="5.69567">
        <ele>1374.6</ele>
        <time>2021-09-01T11:19:29Z</time>
      </trkpt>
      <trkpt lat="44.1434" lon="5.69563">
        <ele>1374.6</ele>
        <time>2021-09-01T11:19:31Z</time>
      </trkpt>
      <trkpt lat="44.14342" lon="5.69553">
        <ele>1374.7</ele>
        <time>2021-09-01T11:19:35Z</time>
      </trkpt>
      <trkpt lat="44.1434" lon="5.69548">
        <ele>1375</ele>
        <time>2021-09-01T11:19:37Z</time>
      </trkpt>
      <trkpt lat="44.14336" lon="5.69538">
        <ele>1375.8</ele>
        <time>2021-09-01T11:19:41Z</time>
      </trkpt>
      <trkpt lat="44.14336" lon="5.69532">
        <ele>1376</ele>
        <time>2021-09-01T11:19:46Z</time>
      </trkpt>
      <trkpt lat="44.14336" lon="5.69532">
        <ele>1376</ele>
        <time>2021-09-01T11:20:03Z</time>
      </trkpt>
      <trkpt lat="44.14336" lon="5.69532">
        <ele>1376</ele>
        <time>2021-09-01T11:20:20Z</time>
      </trkpt>
      <trkpt lat="44.14336" lon="5.69533">
        <ele>1376</ele>
        <time>2021-09-01T11:20:35Z</time>
      </trkpt>
      <trkpt lat="44.14336" lon="5.69533">
        <ele>1376</ele>
        <time>2021-09-01T11:20:53Z</time>
      </trkpt>
      <trkpt lat="44.14336" lon="5.69533">
        <ele>1376</ele>
        <time>2021-09-01T11:21:11Z</time>
      </trkpt>
      <trkpt lat="44.14336" lon="5.69533">
        <ele>1376</ele>
        <time>2021-09-01T11:21:18Z</time>
      </trkpt>
      <trkpt lat="44.14332" lon="5.69531">
        <ele>1376.3</ele>
        <time>2021-09-01T11:21:23Z</time>
      </trkpt>
      <trkpt lat="44.14329" lon="5.6953">
        <ele>1376</ele>
        <time>2021-09-01T11:21:24Z</time>
      </trkpt>
      <trkpt lat="44.14324" lon="5.69527">
        <ele>1375.4</ele>
        <time>2021-09-01T11:21:26Z</time>
      </trkpt>
      <trkpt lat="44.1432" lon="5.69528">
        <ele>1374.8</ele>
        <time>2021-09-01T11:21:28Z</time>
      </trkpt>
      <trkpt lat="44.14313" lon="5.69526">
        <ele>1374</ele>
        <time>2021-09-01T11:21:31Z</time>
      </trkpt>
      <trkpt lat="44.14312" lon="5.69525">
        <ele>1373.9</ele>
        <time>2021-09-01T11:21:32Z</time>
      </trkpt>
      <trkpt lat="44.14307" lon="5.6952">
        <ele>1373.4</ele>
        <time>2021-09-01T11:21:36Z</time>
      </trkpt>
      <trkpt lat="44.14307" lon="5.69518">
        <ele>1373.5</ele>
        <time>2021-09-01T11:21:37Z</time>
      </trkpt>
      <trkpt lat="44.14303" lon="5.69506">
        <ele>1373.4</ele>
        <time>2021-09-01T11:21:42Z</time>
      </trkpt>
      <trkpt lat="44.143" lon="5.69493">
        <ele>1373</ele>
        <time>2021-09-01T11:21:46Z</time>
      </trkpt>
      <trkpt lat="44.14299" lon="5.69482">
        <ele>1372.6</ele>
        <time>2021-09-01T11:21:49Z</time>
      </trkpt>
      <trkpt lat="44.14298" lon="5.69478">
        <ele>1372.4</ele>
        <time>2021-09-01T11:21:50Z</time>
      </trkpt>
      <trkpt lat="44.14291" lon="5.6946">
        <ele>1370.9</ele>
        <time>2021-09-01T11:21:55Z</time>
      </trkpt>
      <trkpt lat="44.14288" lon="5.69433">
        <ele>1369.9</ele>
        <time>2021-09-01T11:22:00Z</time>
      </trkpt>
      <trkpt lat="44.14288" lon="5.69429">
        <ele>1369.8</ele>
        <time>2021-09-01T11:22:01Z</time>
      </trkpt>
      <trkpt lat="44.14284" lon="5.69423">
        <ele>1369</ele>
        <time>2021-09-01T11:22:03Z</time>
      </trkpt>
      <trkpt lat="44.14282" lon="5.6942">
        <ele>1368.7</ele>
        <time>2021-09-01T11:22:04Z</time>
      </trkpt>
      <trkpt lat="44.14278" lon="5.69412">
        <ele>1367.7</ele>
        <time>2021-09-01T11:22:06Z</time>
      </trkpt>
      <trkpt lat="44.14278" lon="5.69406">
        <ele>1367.3</ele>
        <time>2021-09-01T11:22:07Z</time>
      </trkpt>
      <trkpt lat="44.14279" lon="5.69396">
        <ele>1366.8</ele>
        <time>2021-09-01T11:22:09Z</time>
      </trkpt>
      <trkpt lat="44.14278" lon="5.69368">
        <ele>1364.7</ele>
        <time>2021-09-01T11:22:15Z</time>
      </trkpt>
      <trkpt lat="44.1428" lon="5.69343">
        <ele>1363.4</ele>
        <time>2021-09-01T11:22:21Z</time>
      </trkpt>
      <trkpt lat="44.14277" lon="5.69321">
        <ele>1362.3</ele>
        <time>2021-09-01T11:22:26Z</time>
      </trkpt>
      <trkpt lat="44.14272" lon="5.69298">
        <ele>1361.4</ele>
        <time>2021-09-01T11:22:30Z</time>
      </trkpt>
      <trkpt lat="44.14272" lon="5.69283">
        <ele>1361.4</ele>
        <time>2021-09-01T11:22:33Z</time>
      </trkpt>
      <trkpt lat="44.14274" lon="5.69279">
        <ele>1361.9</ele>
        <time>2021-09-01T11:22:34Z</time>
      </trkpt>
      <trkpt lat="44.14285" lon="5.69266">
        <ele>1364.6</ele>
        <time>2021-09-01T11:22:39Z</time>
      </trkpt>
      <trkpt lat="44.14286" lon="5.69263">
        <ele>1364.9</ele>
        <time>2021-09-01T11:22:40Z</time>
      </trkpt>
      <trkpt lat="44.14291" lon="5.69259">
        <ele>1366.2</ele>
        <time>2021-09-01T11:22:42Z</time>
      </trkpt>
      <trkpt lat="44.14305" lon="5.69256">
        <ele>1369.7</ele>
        <time>2021-09-01T11:22:47Z</time>
      </trkpt>
      <trkpt lat="44.14317" lon="5.69248">
        <ele>1373.2</ele>
        <time>2021-09-01T11:22:52Z</time>
      </trkpt>
      <trkpt lat="44.14324" lon="5.6924">
        <ele>1376.1</ele>
        <time>2021-09-01T11:22:56Z</time>
      </trkpt>
      <trkpt lat="44.1433" lon="5.69231">
        <ele>1378.7</ele>
        <time>2021-09-01T11:23:00Z</time>
      </trkpt>
      <trkpt lat="44.14332" lon="5.69228">
        <ele>1379.6</ele>
        <time>2021-09-01T11:23:01Z</time>
      </trkpt>
      <trkpt lat="44.14333" lon="5.69226">
        <ele>1380.1</ele>
        <time>2021-09-01T11:23:02Z</time>
      </trkpt>
      <trkpt lat="44.14334" lon="5.69223">
        <ele>1380.7</ele>
        <time>2021-09-01T11:23:04Z</time>
      </trkpt>
      <trkpt lat="44.14338" lon="5.69218">
        <ele>1382</ele>
        <time>2021-09-01T11:23:08Z</time>
      </trkpt>
      <trkpt lat="44.14339" lon="5.69217">
        <ele>1382.3</ele>
        <time>2021-09-01T11:23:09Z</time>
      </trkpt>
      <trkpt lat="44.1434" lon="5.69211">
        <ele>1383.3</ele>
        <time>2021-09-01T11:23:11Z</time>
      </trkpt>
      <trkpt lat="44.14342" lon="5.69206">
        <ele>1384.3</ele>
        <time>2021-09-01T11:23:13Z</time>
      </trkpt>
      <trkpt lat="44.14346" lon="5.69206">
        <ele>1385</ele>
        <time>2021-09-01T11:23:15Z</time>
      </trkpt>
      <trkpt lat="44.14354" lon="5.69206">
        <ele>1386.3</ele>
        <time>2021-09-01T11:23:19Z</time>
      </trkpt>
      <trkpt lat="44.14358" lon="5.69207">
        <ele>1386.8</ele>
        <time>2021-09-01T11:23:21Z</time>
      </trkpt>
      <trkpt lat="44.14362" lon="5.69205">
        <ele>1387.8</ele>
        <time>2021-09-01T11:23:23Z</time>
      </trkpt>
      <trkpt lat="44.14368" lon="5.69201">
        <ele>1389.4</ele>
        <time>2021-09-01T11:23:26Z</time>
      </trkpt>
      <trkpt lat="44.14369" lon="5.69198">
        <ele>1390.1</ele>
        <time>2021-09-01T11:23:28Z</time>
      </trkpt>
      <trkpt lat="44.14369" lon="5.69198">
        <ele>1390.1</ele>
        <time>2021-09-01T11:23:34Z</time>
      </trkpt>
      <trkpt lat="44.14369" lon="5.69198">
        <ele>1390.1</ele>
        <time>2021-09-01T11:23:46Z</time>
      </trkpt>
      <trkpt lat="44.14369" lon="5.69199">
        <ele>1389.9</ele>
        <time>2021-09-01T11:23:51Z</time>
      </trkpt>
      <trkpt lat="44.14369" lon="5.69199">
        <ele>1389.9</ele>
        <time>2021-09-01T11:24:12Z</time>
      </trkpt>
      <trkpt lat="44.14369" lon="5.692">
        <ele>1389.8</ele>
        <time>2021-09-01T11:24:33Z</time>
      </trkpt>
      <trkpt lat="44.14369" lon="5.692">
        <ele>1389.8</ele>
        <time>2021-09-01T11:25:03Z</time>
      </trkpt>
      <trkpt lat="44.14369" lon="5.69199">
        <ele>1389.9</ele>
        <time>2021-09-01T11:25:10Z</time>
      </trkpt>
      <trkpt lat="44.14371" lon="5.69195">
        <ele>1390.9</ele>
        <time>2021-09-01T11:25:13Z</time>
      </trkpt>
      <trkpt lat="44.14372" lon="5.69192">
        <ele>1391.5</ele>
        <time>2021-09-01T11:25:14Z</time>
      </trkpt>
      <trkpt lat="44.14373" lon="5.6919">
        <ele>1392</ele>
        <time>2021-09-01T11:25:15Z</time>
      </trkpt>
      <trkpt lat="44.14377" lon="5.69187">
        <ele>1393.2</ele>
        <time>2021-09-01T11:25:17Z</time>
      </trkpt>
      <trkpt lat="44.14378" lon="5.69184">
        <ele>1393.8</ele>
        <time>2021-09-01T11:25:18Z</time>
      </trkpt>
      <trkpt lat="44.1438" lon="5.69182">
        <ele>1394.5</ele>
        <time>2021-09-01T11:25:19Z</time>
      </trkpt>
      <trkpt lat="44.14381" lon="5.69174">
        <ele>1396</ele>
        <time>2021-09-01T11:25:22Z</time>
      </trkpt>
      <trkpt lat="44.14381" lon="5.69172">
        <ele>1396.3</ele>
        <time>2021-09-01T11:25:23Z</time>
      </trkpt>
      <trkpt lat="44.14382" lon="5.69167">
        <ele>1397.3</ele>
        <time>2021-09-01T11:25:25Z</time>
      </trkpt>
      <trkpt lat="44.14383" lon="5.69157">
        <ele>1399.2</ele>
        <time>2021-09-01T11:25:29Z</time>
      </trkpt>
      <trkpt lat="44.14386" lon="5.69153">
        <ele>1400.4</ele>
        <time>2021-09-01T11:25:31Z</time>
      </trkpt>
      <trkpt lat="44.14387" lon="5.69149">
        <ele>1401.3</ele>
        <time>2021-09-01T11:25:33Z</time>
      </trkpt>
      <trkpt lat="44.14388" lon="5.69146">
        <ele>1402</ele>
        <time>2021-09-01T11:25:34Z</time>
      </trkpt>
      <trkpt lat="44.14391" lon="5.69136">
        <ele>1404.2</ele>
        <time>2021-09-01T11:25:37Z</time>
      </trkpt>
      <trkpt lat="44.14391" lon="5.69132">
        <ele>1404.9</ele>
        <time>2021-09-01T11:25:38Z</time>
      </trkpt>
      <trkpt lat="44.14398" lon="5.69115">
        <ele>1408.9</ele>
        <time>2021-09-01T11:25:43Z</time>
      </trkpt>
      <trkpt lat="44.14403" lon="5.69104">
        <ele>1411.5</ele>
        <time>2021-09-01T11:25:48Z</time>
      </trkpt>
      <trkpt lat="44.14409" lon="5.69098">
        <ele>1413.5</ele>
        <time>2021-09-01T11:25:52Z</time>
      </trkpt>
      <trkpt lat="44.14416" lon="5.69093">
        <ele>1415.4</ele>
        <time>2021-09-01T11:25:56Z</time>
      </trkpt>
      <trkpt lat="44.1442" lon="5.69083">
        <ele>1417.2</ele>
        <time>2021-09-01T11:26:00Z</time>
      </trkpt>
      <trkpt lat="44.14421" lon="5.69081">
        <ele>1417.6</ele>
        <time>2021-09-01T11:26:01Z</time>
      </trkpt>
      <trkpt lat="44.14421" lon="5.69078">
        <ele>1418</ele>
        <time>2021-09-01T11:26:02Z</time>
      </trkpt>
      <trkpt lat="44.14423" lon="5.69072">
        <ele>1418.9</ele>
        <time>2021-09-01T11:26:05Z</time>
      </trkpt>
      <trkpt lat="44.14425" lon="5.69068">
        <ele>1419.6</ele>
        <time>2021-09-01T11:26:07Z</time>
      </trkpt>
      <trkpt lat="44.14427" lon="5.69064">
        <ele>1420.3</ele>
        <time>2021-09-01T11:26:09Z</time>
      </trkpt>
      <trkpt lat="44.14428" lon="5.69061">
        <ele>1420.8</ele>
        <time>2021-09-01T11:26:10Z</time>
      </trkpt>
      <trkpt lat="44.14427" lon="5.69055">
        <ele>1421.5</ele>
        <time>2021-09-01T11:26:13Z</time>
      </trkpt>
      <trkpt lat="44.14422" lon="5.69048">
        <ele>1422.1</ele>
        <time>2021-09-01T11:26:16Z</time>
      </trkpt>
      <trkpt lat="44.14423" lon="5.69032">
        <ele>1424.3</ele>
        <time>2021-09-01T11:26:21Z</time>
      </trkpt>
      <trkpt lat="44.14427" lon="5.6902">
        <ele>1426.4</ele>
        <time>2021-09-01T11:26:25Z</time>
      </trkpt>
      <trkpt lat="44.14431" lon="5.69016">
        <ele>1427.3</ele>
        <time>2021-09-01T11:26:27Z</time>
      </trkpt>
      <trkpt lat="44.14433" lon="5.6901">
        <ele>1428.3</ele>
        <time>2021-09-01T11:26:29Z</time>
      </trkpt>
      <trkpt lat="44.14436" lon="5.69004">
        <ele>1429.5</ele>
        <time>2021-09-01T11:26:31Z</time>
      </trkpt>
      <trkpt lat="44.14441" lon="5.68994">
        <ele>1431.4</ele>
        <time>2021-09-01T11:26:34Z</time>
      </trkpt>
      <trkpt lat="44.14442" lon="5.68991">
        <ele>1431.9</ele>
        <time>2021-09-01T11:26:35Z</time>
      </trkpt>
      <trkpt lat="44.14443" lon="5.68984">
        <ele>1432.9</ele>
        <time>2021-09-01T11:26:37Z</time>
      </trkpt>
      <trkpt lat="44.14445" lon="5.68977">
        <ele>1434</ele>
        <time>2021-09-01T11:26:39Z</time>
      </trkpt>
      <trkpt lat="44.14446" lon="5.6896">
        <ele>1436.3</ele>
        <time>2021-09-01T11:26:43Z</time>
      </trkpt>
      <trkpt lat="44.14446" lon="5.68937">
        <ele>1439.2</ele>
        <time>2021-09-01T11:26:48Z</time>
      </trkpt>
      <trkpt lat="44.14446" lon="5.68932">
        <ele>1439.8</ele>
        <time>2021-09-01T11:26:49Z</time>
      </trkpt>
      <trkpt lat="44.14446" lon="5.68925">
        <ele>1440.7</ele>
        <time>2021-09-01T11:26:51Z</time>
      </trkpt>
      <trkpt lat="44.14447" lon="5.68921">
        <ele>1441.3</ele>
        <time>2021-09-01T11:26:52Z</time>
      </trkpt>
      <trkpt lat="44.14448" lon="5.68913">
        <ele>1442.2</ele>
        <time>2021-09-01T11:26:54Z</time>
      </trkpt>
      <trkpt lat="44.1445" lon="5.68891">
        <ele>1444.5</ele>
        <time>2021-09-01T11:26:59Z</time>
      </trkpt>
      <trkpt lat="44.14453" lon="5.68878">
        <ele>1446</ele>
        <time>2021-09-01T11:27:03Z</time>
      </trkpt>
      <trkpt lat="44.14453" lon="5.68875">
        <ele>1446.2</ele>
        <time>2021-09-01T11:27:04Z</time>
      </trkpt>
      <trkpt lat="44.14455" lon="5.68867">
        <ele>1447.1</ele>
        <time>2021-09-01T11:27:07Z</time>
      </trkpt>
      <trkpt lat="44.14459" lon="5.68854">
        <ele>1448.5</ele>
        <time>2021-09-01T11:27:11Z</time>
      </trkpt>
      <trkpt lat="44.1446" lon="5.68849">
        <ele>1449.1</ele>
        <time>2021-09-01T11:27:12Z</time>
      </trkpt>
      <trkpt lat="44.1446" lon="5.68833">
        <ele>1450.6</ele>
        <time>2021-09-01T11:27:16Z</time>
      </trkpt>
      <trkpt lat="44.14462" lon="5.68823">
        <ele>1451.2</ele>
        <time>2021-09-01T11:27:19Z</time>
      </trkpt>
      <trkpt lat="44.14462" lon="5.6882">
        <ele>1451.4</ele>
        <time>2021-09-01T11:27:20Z</time>
      </trkpt>
      <trkpt lat="44.14461" lon="5.68813">
        <ele>1451.7</ele>
        <time>2021-09-01T11:27:22Z</time>
      </trkpt>
      <trkpt lat="44.14458" lon="5.68805">
        <ele>1452</ele>
        <time>2021-09-01T11:27:24Z</time>
      </trkpt>
      <trkpt lat="44.14454" lon="5.68793">
        <ele>1452.4</ele>
        <time>2021-09-01T11:27:28Z</time>
      </trkpt>
      <trkpt lat="44.1445" lon="5.68778">
        <ele>1452.9</ele>
        <time>2021-09-01T11:27:32Z</time>
      </trkpt>
      <trkpt lat="44.14449" lon="5.68759">
        <ele>1453.7</ele>
        <time>2021-09-01T11:27:37Z</time>
      </trkpt>
      <trkpt lat="44.1445" lon="5.68753">
        <ele>1454.1</ele>
        <time>2021-09-01T11:27:39Z</time>
      </trkpt>
      <trkpt lat="44.14454" lon="5.68745">
        <ele>1454.5</ele>
        <time>2021-09-01T11:27:42Z</time>
      </trkpt>
      <trkpt lat="44.14456" lon="5.68736">
        <ele>1454.6</ele>
        <time>2021-09-01T11:27:45Z</time>
      </trkpt>
      <trkpt lat="44.14457" lon="5.68733">
        <ele>1454.6</ele>
        <time>2021-09-01T11:27:46Z</time>
      </trkpt>
      <trkpt lat="44.14458" lon="5.68717">
        <ele>1454.6</ele>
        <time>2021-09-01T11:27:51Z</time>
      </trkpt>
      <trkpt lat="44.14462" lon="5.68696">
        <ele>1454.9</ele>
        <time>2021-09-01T11:27:57Z</time>
      </trkpt>
      <trkpt lat="44.14463" lon="5.68693">
        <ele>1455</ele>
        <time>2021-09-01T11:27:58Z</time>
      </trkpt>
      <trkpt lat="44.14463" lon="5.68686">
        <ele>1454.9</ele>
        <time>2021-09-01T11:28:00Z</time>
      </trkpt>
      <trkpt lat="44.14463" lon="5.68681">
        <ele>1454.9</ele>
        <time>2021-09-01T11:28:02Z</time>
      </trkpt>
      <trkpt lat="44.14464" lon="5.68675">
        <ele>1455</ele>
        <time>2021-09-01T11:28:04Z</time>
      </trkpt>
      <trkpt lat="44.14466" lon="5.68664">
        <ele>1455.2</ele>
        <time>2021-09-01T11:28:07Z</time>
      </trkpt>
      <trkpt lat="44.14468" lon="5.68661">
        <ele>1455.4</ele>
        <time>2021-09-01T11:28:08Z</time>
      </trkpt>
      <trkpt lat="44.1447" lon="5.68658">
        <ele>1455.6</ele>
        <time>2021-09-01T11:28:09Z</time>
      </trkpt>
      <trkpt lat="44.14474" lon="5.68647">
        <ele>1455.8</ele>
        <time>2021-09-01T11:28:12Z</time>
      </trkpt>
      <trkpt lat="44.14479" lon="5.68633">
        <ele>1456.2</ele>
        <time>2021-09-01T11:28:16Z</time>
      </trkpt>
      <trkpt lat="44.1448" lon="5.6863">
        <ele>1456.2</ele>
        <time>2021-09-01T11:28:17Z</time>
      </trkpt>
      <trkpt lat="44.14481" lon="5.68621">
        <ele>1456.1</ele>
        <time>2021-09-01T11:28:20Z</time>
      </trkpt>
      <trkpt lat="44.14482" lon="5.68614">
        <ele>1456</ele>
        <time>2021-09-01T11:28:22Z</time>
      </trkpt>
      <trkpt lat="44.14483" lon="5.68612">
        <ele>1456.2</ele>
        <time>2021-09-01T11:28:23Z</time>
      </trkpt>
      <trkpt lat="44.14485" lon="5.68605">
        <ele>1456.3</ele>
        <time>2021-09-01T11:28:25Z</time>
      </trkpt>
      <trkpt lat="44.14489" lon="5.68593">
        <ele>1456.8</ele>
        <time>2021-09-01T11:28:29Z</time>
      </trkpt>
      <trkpt lat="44.1449" lon="5.6859">
        <ele>1456.9</ele>
        <time>2021-09-01T11:28:30Z</time>
      </trkpt>
      <trkpt lat="44.1449" lon="5.68586">
        <ele>1456.8</ele>
        <time>2021-09-01T11:28:31Z</time>
      </trkpt>
      <trkpt lat="44.14488" lon="5.68578">
        <ele>1456.2</ele>
        <time>2021-09-01T11:28:33Z</time>
      </trkpt>
      <trkpt lat="44.14485" lon="5.68556">
        <ele>1455.3</ele>
        <time>2021-09-01T11:28:38Z</time>
      </trkpt>
      <trkpt lat="44.14481" lon="5.68545">
        <ele>1454.1</ele>
        <time>2021-09-01T11:28:40Z</time>
      </trkpt>
      <trkpt lat="44.14473" lon="5.6853">
        <ele>1451.8</ele>
        <time>2021-09-01T11:28:43Z</time>
      </trkpt>
      <trkpt lat="44.1447" lon="5.68515">
        <ele>1450.7</ele>
        <time>2021-09-01T11:28:46Z</time>
      </trkpt>
      <trkpt lat="44.14471" lon="5.68511">
        <ele>1450.9</ele>
        <time>2021-09-01T11:28:47Z</time>
      </trkpt>
      <trkpt lat="44.14473" lon="5.68496">
        <ele>1451.3</ele>
        <time>2021-09-01T11:28:51Z</time>
      </trkpt>
      <trkpt lat="44.14473" lon="5.68482">
        <ele>1451.4</ele>
        <time>2021-09-01T11:28:54Z</time>
      </trkpt>
      <trkpt lat="44.14474" lon="5.68477">
        <ele>1451.8</ele>
        <time>2021-09-01T11:28:55Z</time>
      </trkpt>
      <trkpt lat="44.14475" lon="5.68457">
        <ele>1452.3</ele>
        <time>2021-09-01T11:28:59Z</time>
      </trkpt>
      <trkpt lat="44.14476" lon="5.68451">
        <ele>1452.7</ele>
        <time>2021-09-01T11:29:01Z</time>
      </trkpt>
      <trkpt lat="44.14475" lon="5.68446">
        <ele>1452.4</ele>
        <time>2021-09-01T11:29:03Z</time>
      </trkpt>
      <trkpt lat="44.14471" lon="5.68429">
        <ele>1451.5</ele>
        <time>2021-09-01T11:29:07Z</time>
      </trkpt>
      <trkpt lat="44.14466" lon="5.68408">
        <ele>1450.6</ele>
        <time>2021-09-01T11:29:12Z</time>
      </trkpt>
      <trkpt lat="44.14466" lon="5.68403">
        <ele>1450.9</ele>
        <time>2021-09-01T11:29:13Z</time>
      </trkpt>
      <trkpt lat="44.14469" lon="5.68394">
        <ele>1452.2</ele>
        <time>2021-09-01T11:29:15Z</time>
      </trkpt>
      <trkpt lat="44.1447" lon="5.68378">
        <ele>1453.3</ele>
        <time>2021-09-01T11:29:19Z</time>
      </trkpt>
      <trkpt lat="44.14468" lon="5.68371">
        <ele>1453.1</ele>
        <time>2021-09-01T11:29:21Z</time>
      </trkpt>
      <trkpt lat="44.14471" lon="5.68365">
        <ele>1454.3</ele>
        <time>2021-09-01T11:29:23Z</time>
      </trkpt>
      <trkpt lat="44.1448" lon="5.68348">
        <ele>1458</ele>
        <time>2021-09-01T11:29:28Z</time>
      </trkpt>
      <trkpt lat="44.14483" lon="5.68331">
        <ele>1459.8</ele>
        <time>2021-09-01T11:29:32Z</time>
      </trkpt>
      <trkpt lat="44.14485" lon="5.68314">
        <ele>1461.5</ele>
        <time>2021-09-01T11:29:36Z</time>
      </trkpt>
      <trkpt lat="44.14485" lon="5.68295">
        <ele>1462.6</ele>
        <time>2021-09-01T11:29:40Z</time>
      </trkpt>
      <trkpt lat="44.14484" lon="5.68274">
        <ele>1463.6</ele>
        <time>2021-09-01T11:29:45Z</time>
      </trkpt>
      <trkpt lat="44.14486" lon="5.68254">
        <ele>1465.4</ele>
        <time>2021-09-01T11:29:50Z</time>
      </trkpt>
      <trkpt lat="44.14486" lon="5.68236">
        <ele>1467.1</ele>
        <time>2021-09-01T11:29:54Z</time>
      </trkpt>
      <trkpt lat="44.14487" lon="5.68233">
        <ele>1467.7</ele>
        <time>2021-09-01T11:29:55Z</time>
      </trkpt>
      <trkpt lat="44.14489" lon="5.68229">
        <ele>1468.8</ele>
        <time>2021-09-01T11:29:56Z</time>
      </trkpt>
      <trkpt lat="44.14488" lon="5.6822">
        <ele>1469.4</ele>
        <time>2021-09-01T11:29:58Z</time>
      </trkpt>
      <trkpt lat="44.14488" lon="5.68205">
        <ele>1471</ele>
        <time>2021-09-01T11:30:02Z</time>
      </trkpt>
      <trkpt lat="44.14488" lon="5.68201">
        <ele>1471.4</ele>
        <time>2021-09-01T11:30:03Z</time>
      </trkpt>
      <trkpt lat="44.14491" lon="5.68185">
        <ele>1474</ele>
        <time>2021-09-01T11:30:08Z</time>
      </trkpt>
      <trkpt lat="44.14495" lon="5.68169">
        <ele>1477.1</ele>
        <time>2021-09-01T11:30:14Z</time>
      </trkpt>
      <trkpt lat="44.14506" lon="5.68163">
        <ele>1480.2</ele>
        <time>2021-09-01T11:30:20Z</time>
      </trkpt>
      <trkpt lat="44.1451" lon="5.68161">
        <ele>1481</ele>
        <time>2021-09-01T11:30:23Z</time>
      </trkpt>
      <trkpt lat="44.14512" lon="5.6816">
        <ele>1481.4</ele>
        <time>2021-09-01T11:30:24Z</time>
      </trkpt>
      <trkpt lat="44.14514" lon="5.68156">
        <ele>1482.3</ele>
        <time>2021-09-01T11:30:26Z</time>
      </trkpt>
      <trkpt lat="44.14516" lon="5.68154">
        <ele>1482.9</ele>
        <time>2021-09-01T11:30:28Z</time>
      </trkpt>
      <trkpt lat="44.14517" lon="5.68152">
        <ele>1483.3</ele>
        <time>2021-09-01T11:30:29Z</time>
      </trkpt>
      <trkpt lat="44.14519" lon="5.68146">
        <ele>1484.5</ele>
        <time>2021-09-01T11:30:32Z</time>
      </trkpt>
      <trkpt lat="44.14529" lon="5.68143">
        <ele>1486.5</ele>
        <time>2021-09-01T11:30:37Z</time>
      </trkpt>
      <trkpt lat="44.14535" lon="5.68139">
        <ele>1488.1</ele>
        <time>2021-09-01T11:30:40Z</time>
      </trkpt>
      <trkpt lat="44.14536" lon="5.68134">
        <ele>1489.2</ele>
        <time>2021-09-01T11:30:42Z</time>
      </trkpt>
      <trkpt lat="44.14536" lon="5.68128">
        <ele>1490.2</ele>
        <time>2021-09-01T11:30:44Z</time>
      </trkpt>
      <trkpt lat="44.14538" lon="5.6812">
        <ele>1492</ele>
        <time>2021-09-01T11:30:47Z</time>
      </trkpt>
      <trkpt lat="44.14542" lon="5.68106">
        <ele>1495.4</ele>
        <time>2021-09-01T11:30:53Z</time>
      </trkpt>
      <trkpt lat="44.14541" lon="5.681">
        <ele>1496.3</ele>
        <time>2021-09-01T11:30:55Z</time>
      </trkpt>
      <trkpt lat="44.14539" lon="5.68092">
        <ele>1497.3</ele>
        <time>2021-09-01T11:30:58Z</time>
      </trkpt>
      <trkpt lat="44.14538" lon="5.68074">
        <ele>1499.8</ele>
        <time>2021-09-01T11:31:05Z</time>
      </trkpt>
      <trkpt lat="44.14534" lon="5.68065">
        <ele>1500</ele>
        <time>2021-09-01T11:31:09Z</time>
      </trkpt>
      <trkpt lat="44.14534" lon="5.68059">
        <ele>1500.7</ele>
        <time>2021-09-01T11:31:12Z</time>
      </trkpt>
      <trkpt lat="44.14534" lon="5.68057">
        <ele>1500.9</ele>
        <time>2021-09-01T11:31:13Z</time>
      </trkpt>
      <trkpt lat="44.14536" lon="5.68049">
        <ele>1502.3</ele>
        <time>2021-09-01T11:31:16Z</time>
      </trkpt>
      <trkpt lat="44.14539" lon="5.68045">
        <ele>1503.5</ele>
        <time>2021-09-01T11:31:18Z</time>
      </trkpt>
      <trkpt lat="44.14548" lon="5.68034">
        <ele>1506.9</ele>
        <time>2021-09-01T11:31:24Z</time>
      </trkpt>
      <trkpt lat="44.14552" lon="5.68026">
        <ele>1508.7</ele>
        <time>2021-09-01T11:31:28Z</time>
      </trkpt>
      <trkpt lat="44.14553" lon="5.68024">
        <ele>1509.2</ele>
        <time>2021-09-01T11:31:29Z</time>
      </trkpt>
      <trkpt lat="44.1456" lon="5.68012">
        <ele>1512.2</ele>
        <time>2021-09-01T11:31:35Z</time>
      </trkpt>
      <trkpt lat="44.14568" lon="5.68">
        <ele>1515.5</ele>
        <time>2021-09-01T11:31:41Z</time>
      </trkpt>
      <trkpt lat="44.14571" lon="5.67988">
        <ele>1516.5</ele>
        <time>2021-09-01T11:31:46Z</time>
      </trkpt>
      <trkpt lat="44.14572" lon="5.67972">
        <ele>1517.2</ele>
        <time>2021-09-01T11:31:52Z</time>
      </trkpt>
      <trkpt lat="44.14573" lon="5.67959">
        <ele>1517.8</ele>
        <time>2021-09-01T11:31:56Z</time>
      </trkpt>
      <trkpt lat="44.14574" lon="5.67957">
        <ele>1518.1</ele>
        <time>2021-09-01T11:31:57Z</time>
      </trkpt>
      <trkpt lat="44.14577" lon="5.67951">
        <ele>1518.9</ele>
        <time>2021-09-01T11:31:59Z</time>
      </trkpt>
      <trkpt lat="44.1458" lon="5.67944">
        <ele>1519.7</ele>
        <time>2021-09-01T11:32:01Z</time>
      </trkpt>
      <trkpt lat="44.1458" lon="5.6794">
        <ele>1519.8</ele>
        <time>2021-09-01T11:32:02Z</time>
      </trkpt>
      <trkpt lat="44.14582" lon="5.67928">
        <ele>1520.5</ele>
        <time>2021-09-01T11:32:05Z</time>
      </trkpt>
      <trkpt lat="44.14582" lon="5.67909">
        <ele>1520.4</ele>
        <time>2021-09-01T11:32:09Z</time>
      </trkpt>
      <trkpt lat="44.14587" lon="5.67895">
        <ele>1520.3</ele>
        <time>2021-09-01T11:32:12Z</time>
      </trkpt>
      <trkpt lat="44.14591" lon="5.6789">
        <ele>1520.4</ele>
        <time>2021-09-01T11:32:13Z</time>
      </trkpt>
      <trkpt lat="44.14602" lon="5.67877">
        <ele>1520.9</ele>
        <time>2021-09-01T11:32:17Z</time>
      </trkpt>
      <trkpt lat="44.14617" lon="5.67876">
        <ele>1522.3</ele>
        <time>2021-09-01T11:32:22Z</time>
      </trkpt>
      <trkpt lat="44.14621" lon="5.67878">
        <ele>1522.7</ele>
        <time>2021-09-01T11:32:26Z</time>
      </trkpt>
      <trkpt lat="44.14621" lon="5.67875">
        <ele>1522.6</ele>
        <time>2021-09-01T11:32:33Z</time>
      </trkpt>
      <trkpt lat="44.14621" lon="5.67873">
        <ele>1522.5</ele>
        <time>2021-09-01T11:32:34Z</time>
      </trkpt>
      <trkpt lat="44.14614" lon="5.67869">
        <ele>1521.7</ele>
        <time>2021-09-01T11:32:38Z</time>
      </trkpt>
      <trkpt lat="44.14613" lon="5.67867">
        <ele>1521.5</ele>
        <time>2021-09-01T11:32:39Z</time>
      </trkpt>
      <trkpt lat="44.14612" lon="5.67854">
        <ele>1520.9</ele>
        <time>2021-09-01T11:32:42Z</time>
      </trkpt>
      <trkpt lat="44.14614" lon="5.6784">
        <ele>1520.6</ele>
        <time>2021-09-01T11:32:46Z</time>
      </trkpt>
      <trkpt lat="44.14613" lon="5.67834">
        <ele>1520.2</ele>
        <time>2021-09-01T11:32:47Z</time>
      </trkpt>
      <trkpt lat="44.14609" lon="5.67822">
        <ele>1518.5</ele>
        <time>2021-09-01T11:32:49Z</time>
      </trkpt>
      <trkpt lat="44.14607" lon="5.6781">
        <ele>1516.9</ele>
        <time>2021-09-01T11:32:51Z</time>
      </trkpt>
      <trkpt lat="44.14608" lon="5.67798">
        <ele>1515.6</ele>
        <time>2021-09-01T11:32:53Z</time>
      </trkpt>
      <trkpt lat="44.14611" lon="5.67786">
        <ele>1514.5</ele>
        <time>2021-09-01T11:32:55Z</time>
      </trkpt>
      <trkpt lat="44.14619" lon="5.67775">
        <ele>1514</ele>
        <time>2021-09-01T11:32:57Z</time>
      </trkpt>
      <trkpt lat="44.14623" lon="5.67771">
        <ele>1513.8</ele>
        <time>2021-09-01T11:32:58Z</time>
      </trkpt>
      <trkpt lat="44.1463" lon="5.6776">
        <ele>1513.1</ele>
        <time>2021-09-01T11:33:00Z</time>
      </trkpt>
      <trkpt lat="44.14633" lon="5.67754">
        <ele>1512.7</ele>
        <time>2021-09-01T11:33:01Z</time>
      </trkpt>
      <trkpt lat="44.14641" lon="5.67736">
        <ele>1510.7</ele>
        <time>2021-09-01T11:33:04Z</time>
      </trkpt>
      <trkpt lat="44.1465" lon="5.67725">
        <ele>1509.8</ele>
        <time>2021-09-01T11:33:06Z</time>
      </trkpt>
      <trkpt lat="44.14655" lon="5.67718">
        <ele>1509.1</ele>
        <time>2021-09-01T11:33:07Z</time>
      </trkpt>
      <trkpt lat="44.14661" lon="5.67707">
        <ele>1507.9</ele>
        <time>2021-09-01T11:33:09Z</time>
      </trkpt>
      <trkpt lat="44.14664" lon="5.67701">
        <ele>1507.2</ele>
        <time>2021-09-01T11:33:10Z</time>
      </trkpt>
      <trkpt lat="44.14669" lon="5.67684">
        <ele>1504.9</ele>
        <time>2021-09-01T11:33:13Z</time>
      </trkpt>
      <trkpt lat="44.1467" lon="5.67678">
        <ele>1504</ele>
        <time>2021-09-01T11:33:14Z</time>
      </trkpt>
      <trkpt lat="44.1467" lon="5.67672">
        <ele>1503.1</ele>
        <time>2021-09-01T11:33:15Z</time>
      </trkpt>
      <trkpt lat="44.14668" lon="5.67653">
        <ele>1499.1</ele>
        <time>2021-09-01T11:33:18Z</time>
      </trkpt>
      <trkpt lat="44.14669" lon="5.67643">
        <ele>1497.1</ele>
        <time>2021-09-01T11:33:20Z</time>
      </trkpt>
      <trkpt lat="44.1467" lon="5.67637">
        <ele>1495.8</ele>
        <time>2021-09-01T11:33:21Z</time>
      </trkpt>
      <trkpt lat="44.14672" lon="5.67631">
        <ele>1494.7</ele>
        <time>2021-09-01T11:33:22Z</time>
      </trkpt>
      <trkpt lat="44.14676" lon="5.67618">
        <ele>1492.2</ele>
        <time>2021-09-01T11:33:24Z</time>
      </trkpt>
      <trkpt lat="44.14679" lon="5.67614">
        <ele>1491.6</ele>
        <time>2021-09-01T11:33:25Z</time>
      </trkpt>
      <trkpt lat="44.14683" lon="5.67605">
        <ele>1490</ele>
        <time>2021-09-01T11:33:27Z</time>
      </trkpt>
      <trkpt lat="44.14682" lon="5.67602">
        <ele>1489.3</ele>
        <time>2021-09-01T11:33:28Z</time>
      </trkpt>
      <trkpt lat="44.14675" lon="5.67589">
        <ele>1485.9</ele>
        <time>2021-09-01T11:33:32Z</time>
      </trkpt>
      <trkpt lat="44.14675" lon="5.67587">
        <ele>1485.5</ele>
        <time>2021-09-01T11:33:33Z</time>
      </trkpt>
      <trkpt lat="44.14675" lon="5.67584">
        <ele>1484.8</ele>
        <time>2021-09-01T11:33:34Z</time>
      </trkpt>
      <trkpt lat="44.14681" lon="5.67574">
        <ele>1483.1</ele>
        <time>2021-09-01T11:33:37Z</time>
      </trkpt>
      <trkpt lat="44.14688" lon="5.67564">
        <ele>1481.3</ele>
        <time>2021-09-01T11:33:39Z</time>
      </trkpt>
      <trkpt lat="44.14696" lon="5.67557">
        <ele>1480.3</ele>
        <time>2021-09-01T11:33:41Z</time>
      </trkpt>
      <trkpt lat="44.14704" lon="5.67551">
        <ele>1479.6</ele>
        <time>2021-09-01T11:33:43Z</time>
      </trkpt>
      <trkpt lat="44.14709" lon="5.67546">
        <ele>1478.8</ele>
        <time>2021-09-01T11:33:45Z</time>
      </trkpt>
      <trkpt lat="44.1471" lon="5.67523">
        <ele>1473.5</ele>
        <time>2021-09-01T11:33:49Z</time>
      </trkpt>
      <trkpt lat="44.14708" lon="5.67517">
        <ele>1472</ele>
        <time>2021-09-01T11:33:50Z</time>
      </trkpt>
      <trkpt lat="44.14705" lon="5.67504">
        <ele>1468.7</ele>
        <time>2021-09-01T11:33:52Z</time>
      </trkpt>
      <trkpt lat="44.14703" lon="5.67494">
        <ele>1466.1</ele>
        <time>2021-09-01T11:33:54Z</time>
      </trkpt>
      <trkpt lat="44.14705" lon="5.67486">
        <ele>1464.1</ele>
        <time>2021-09-01T11:33:55Z</time>
      </trkpt>
      <trkpt lat="44.14707" lon="5.67473">
        <ele>1460.8</ele>
        <time>2021-09-01T11:33:57Z</time>
      </trkpt>
      <trkpt lat="44.14706" lon="5.67462">
        <ele>1457.9</ele>
        <time>2021-09-01T11:33:59Z</time>
      </trkpt>
      <trkpt lat="44.14705" lon="5.67457">
        <ele>1456.5</ele>
        <time>2021-09-01T11:34:00Z</time>
      </trkpt>
      <trkpt lat="44.14698" lon="5.67452">
        <ele>1454.9</ele>
        <time>2021-09-01T11:34:02Z</time>
      </trkpt>
      <trkpt lat="44.14695" lon="5.67447">
        <ele>1453.5</ele>
        <time>2021-09-01T11:34:04Z</time>
      </trkpt>
      <trkpt lat="44.14696" lon="5.67445">
        <ele>1453</ele>
        <time>2021-09-01T11:34:05Z</time>
      </trkpt>
      <trkpt lat="44.14697" lon="5.67443">
        <ele>1452.5</ele>
        <time>2021-09-01T11:34:06Z</time>
      </trkpt>
      <trkpt lat="44.14699" lon="5.67435">
        <ele>1450.5</ele>
        <time>2021-09-01T11:34:09Z</time>
      </trkpt>
      <trkpt lat="44.14703" lon="5.67425">
        <ele>1448</ele>
        <time>2021-09-01T11:34:11Z</time>
      </trkpt>
      <trkpt lat="44.14706" lon="5.67413">
        <ele>1445</ele>
        <time>2021-09-01T11:34:13Z</time>
      </trkpt>
      <trkpt lat="44.14707" lon="5.67401">
        <ele>1441.7</ele>
        <time>2021-09-01T11:34:15Z</time>
      </trkpt>
      <trkpt lat="44.14707" lon="5.67394">
        <ele>1439.9</ele>
        <time>2021-09-01T11:34:16Z</time>
      </trkpt>
      <trkpt lat="44.14709" lon="5.67381">
        <ele>1436.4</ele>
        <time>2021-09-01T11:34:18Z</time>
      </trkpt>
      <trkpt lat="44.14712" lon="5.67368">
        <ele>1432.9</ele>
        <time>2021-09-01T11:34:20Z</time>
      </trkpt>
      <trkpt lat="44.14713" lon="5.67352">
        <ele>1428.6</ele>
        <time>2021-09-01T11:34:22Z</time>
      </trkpt>
      <trkpt lat="44.14717" lon="5.67334">
        <ele>1423.8</ele>
        <time>2021-09-01T11:34:25Z</time>
      </trkpt>
      <trkpt lat="44.14721" lon="5.67323">
        <ele>1421.1</ele>
        <time>2021-09-01T11:34:27Z</time>
      </trkpt>
      <trkpt lat="44.14728" lon="5.6731">
        <ele>1417.9</ele>
        <time>2021-09-01T11:34:29Z</time>
      </trkpt>
      <trkpt lat="44.14736" lon="5.67296">
        <ele>1414.5</ele>
        <time>2021-09-01T11:34:31Z</time>
      </trkpt>
      <trkpt lat="44.14744" lon="5.67282">
        <ele>1411</ele>
        <time>2021-09-01T11:34:33Z</time>
      </trkpt>
      <trkpt lat="44.14747" lon="5.67276">
        <ele>1409.5</ele>
        <time>2021-09-01T11:34:34Z</time>
      </trkpt>
      <trkpt lat="44.14752" lon="5.67262">
        <ele>1406</ele>
        <time>2021-09-01T11:34:36Z</time>
      </trkpt>
      <trkpt lat="44.14756" lon="5.67254">
        <ele>1403.9</ele>
        <time>2021-09-01T11:34:37Z</time>
      </trkpt>
      <trkpt lat="44.14764" lon="5.67237">
        <ele>1400.2</ele>
        <time>2021-09-01T11:34:39Z</time>
      </trkpt>
      <trkpt lat="44.14769" lon="5.67229">
        <ele>1398.6</ele>
        <time>2021-09-01T11:34:40Z</time>
      </trkpt>
      <trkpt lat="44.14775" lon="5.67222">
        <ele>1397.4</ele>
        <time>2021-09-01T11:34:41Z</time>
      </trkpt>
      <trkpt lat="44.14786" lon="5.67208">
        <ele>1395</ele>
        <time>2021-09-01T11:34:43Z</time>
      </trkpt>
      <trkpt lat="44.14792" lon="5.67198">
        <ele>1393.5</ele>
        <time>2021-09-01T11:34:45Z</time>
      </trkpt>
      <trkpt lat="44.14792" lon="5.67196">
        <ele>1393.1</ele>
        <time>2021-09-01T11:34:48Z</time>
      </trkpt>
      <trkpt lat="44.14792" lon="5.67196">
        <ele>1393.1</ele>
        <time>2021-09-01T11:35:03Z</time>
      </trkpt>
      <trkpt lat="44.14792" lon="5.67196">
        <ele>1393.1</ele>
        <time>2021-09-01T11:35:19Z</time>
      </trkpt>
      <trkpt lat="44.14793" lon="5.67188">
        <ele>1391.8</ele>
        <time>2021-09-01T11:35:23Z</time>
      </trkpt>
      <trkpt lat="44.14797" lon="5.67166">
        <ele>1388.3</ele>
        <time>2021-09-01T11:35:27Z</time>
      </trkpt>
      <trkpt lat="44.148" lon="5.67154">
        <ele>1387.1</ele>
        <time>2021-09-01T11:35:29Z</time>
      </trkpt>
      <trkpt lat="44.14804" lon="5.67146">
        <ele>1386.5</ele>
        <time>2021-09-01T11:35:31Z</time>
      </trkpt>
      <trkpt lat="44.14808" lon="5.67132">
        <ele>1385.4</ele>
        <time>2021-09-01T11:35:34Z</time>
      </trkpt>
      <trkpt lat="44.14808" lon="5.67128">
        <ele>1384.9</ele>
        <time>2021-09-01T11:35:35Z</time>
      </trkpt>
      <trkpt lat="44.14807" lon="5.67117">
        <ele>1383.6</ele>
        <time>2021-09-01T11:35:38Z</time>
      </trkpt>
      <trkpt lat="44.14802" lon="5.67103">
        <ele>1381.4</ele>
        <time>2021-09-01T11:35:41Z</time>
      </trkpt>
      <trkpt lat="44.148" lon="5.67097">
        <ele>1380.4</ele>
        <time>2021-09-01T11:35:42Z</time>
      </trkpt>
      <trkpt lat="44.14796" lon="5.67083">
        <ele>1378.2</ele>
        <time>2021-09-01T11:35:44Z</time>
      </trkpt>
      <trkpt lat="44.14794" lon="5.67068">
        <ele>1377</ele>
        <time>2021-09-01T11:35:46Z</time>
      </trkpt>
      <trkpt lat="44.1479" lon="5.67045">
        <ele>1374.9</ele>
        <time>2021-09-01T11:35:49Z</time>
      </trkpt>
      <trkpt lat="44.14789" lon="5.6703">
        <ele>1373.8</ele>
        <time>2021-09-01T11:35:51Z</time>
      </trkpt>
      <trkpt lat="44.14789" lon="5.67023">
        <ele>1373.4</ele>
        <time>2021-09-01T11:35:52Z</time>
      </trkpt>
      <trkpt lat="44.14792" lon="5.67012">
        <ele>1373.3</ele>
        <time>2021-09-01T11:35:54Z</time>
      </trkpt>
      <trkpt lat="44.14798" lon="5.6699">
        <ele>1373</ele>
        <time>2021-09-01T11:35:59Z</time>
      </trkpt>
      <trkpt lat="44.14798" lon="5.66985">
        <ele>1372.6</ele>
        <time>2021-09-01T11:36:00Z</time>
      </trkpt>
      <trkpt lat="44.14801" lon="5.66974">
        <ele>1372.3</ele>
        <time>2021-09-01T11:36:02Z</time>
      </trkpt>
      <trkpt lat="44.14806" lon="5.66957">
        <ele>1371.8</ele>
        <time>2021-09-01T11:36:05Z</time>
      </trkpt>
      <trkpt lat="44.14811" lon="5.66939">
        <ele>1371.2</ele>
        <time>2021-09-01T11:36:08Z</time>
      </trkpt>
      <trkpt lat="44.14816" lon="5.66926">
        <ele>1370.9</ele>
        <time>2021-09-01T11:36:10Z</time>
      </trkpt>
      <trkpt lat="44.14821" lon="5.66913">
        <ele>1370.4</ele>
        <time>2021-09-01T11:36:12Z</time>
      </trkpt>
      <trkpt lat="44.14826" lon="5.66888">
        <ele>1367.6</ele>
        <time>2021-09-01T11:36:15Z</time>
      </trkpt>
      <trkpt lat="44.14829" lon="5.6688">
        <ele>1367</ele>
        <time>2021-09-01T11:36:16Z</time>
      </trkpt>
      <trkpt lat="44.14836" lon="5.66866">
        <ele>1366.1</ele>
        <time>2021-09-01T11:36:18Z</time>
      </trkpt>
      <trkpt lat="44.1484" lon="5.66858">
        <ele>1365.5</ele>
        <time>2021-09-01T11:36:19Z</time>
      </trkpt>
      <trkpt lat="44.14846" lon="5.66838">
        <ele>1363.5</ele>
        <time>2021-09-01T11:36:21Z</time>
      </trkpt>
      <trkpt lat="44.14855" lon="5.66814">
        <ele>1361.2</ele>
        <time>2021-09-01T11:36:24Z</time>
      </trkpt>
      <trkpt lat="44.1486" lon="5.66783">
        <ele>1357.4</ele>
        <time>2021-09-01T11:36:28Z</time>
      </trkpt>
      <trkpt lat="44.14859" lon="5.66749">
        <ele>1352.2</ele>
        <time>2021-09-01T11:36:31Z</time>
      </trkpt>
      <trkpt lat="44.1486" lon="5.66721">
        <ele>1349.5</ele>
        <time>2021-09-01T11:36:33Z</time>
      </trkpt>
      <trkpt lat="44.1486" lon="5.66709">
        <ele>1348.2</ele>
        <time>2021-09-01T11:36:34Z</time>
      </trkpt>
      <trkpt lat="44.1486" lon="5.66697">
        <ele>1347</ele>
        <time>2021-09-01T11:36:35Z</time>
      </trkpt>
      <trkpt lat="44.14857" lon="5.66677">
        <ele>1344.5</ele>
        <time>2021-09-01T11:36:37Z</time>
      </trkpt>
      <trkpt lat="44.14851" lon="5.66656">
        <ele>1342</ele>
        <time>2021-09-01T11:36:39Z</time>
      </trkpt>
      <trkpt lat="44.14843" lon="5.66637">
        <ele>1340</ele>
        <time>2021-09-01T11:36:41Z</time>
      </trkpt>
      <trkpt lat="44.1484" lon="5.66626">
        <ele>1339</ele>
        <time>2021-09-01T11:36:42Z</time>
      </trkpt>
      <trkpt lat="44.14833" lon="5.66602">
        <ele>1336.8</ele>
        <time>2021-09-01T11:36:44Z</time>
      </trkpt>
      <trkpt lat="44.14828" lon="5.66589">
        <ele>1335.3</ele>
        <time>2021-09-01T11:36:45Z</time>
      </trkpt>
      <trkpt lat="44.14821" lon="5.66566">
        <ele>1332.9</ele>
        <time>2021-09-01T11:36:47Z</time>
      </trkpt>
      <trkpt lat="44.14817" lon="5.66542">
        <ele>1331.1</ele>
        <time>2021-09-01T11:36:49Z</time>
      </trkpt>
      <trkpt lat="44.1481" lon="5.66497">
        <ele>1327.6</ele>
        <time>2021-09-01T11:36:53Z</time>
      </trkpt>
      <trkpt lat="44.1481" lon="5.66487">
        <ele>1326.7</ele>
        <time>2021-09-01T11:36:54Z</time>
      </trkpt>
      <trkpt lat="44.14809" lon="5.66453">
        <ele>1323.8</ele>
        <time>2021-09-01T11:36:57Z</time>
      </trkpt>
      <trkpt lat="44.14807" lon="5.66392">
        <ele>1318.1</ele>
        <time>2021-09-01T11:37:02Z</time>
      </trkpt>
      <trkpt lat="44.1481" lon="5.66341">
        <ele>1313.4</ele>
        <time>2021-09-01T11:37:06Z</time>
      </trkpt>
      <trkpt lat="44.14812" lon="5.66309">
        <ele>1310.5</ele>
        <time>2021-09-01T11:37:09Z</time>
      </trkpt>
      <trkpt lat="44.14809" lon="5.66291">
        <ele>1308.4</ele>
        <time>2021-09-01T11:37:11Z</time>
      </trkpt>
      <trkpt lat="44.14806" lon="5.66281">
        <ele>1307</ele>
        <time>2021-09-01T11:37:12Z</time>
      </trkpt>
      <trkpt lat="44.14803" lon="5.66271">
        <ele>1305.7</ele>
        <time>2021-09-01T11:37:13Z</time>
      </trkpt>
      <trkpt lat="44.148" lon="5.66249">
        <ele>1303.4</ele>
        <time>2021-09-01T11:37:15Z</time>
      </trkpt>
      <trkpt lat="44.14799" lon="5.66238">
        <ele>1303.5</ele>
        <time>2021-09-01T11:37:16Z</time>
      </trkpt>
      <trkpt lat="44.14799" lon="5.66218">
        <ele>1303.9</ele>
        <time>2021-09-01T11:37:18Z</time>
      </trkpt>
      <trkpt lat="44.14802" lon="5.66198">
        <ele>1304.6</ele>
        <time>2021-09-01T11:37:20Z</time>
      </trkpt>
      <trkpt lat="44.14803" lon="5.66189">
        <ele>1304.8</ele>
        <time>2021-09-01T11:37:21Z</time>
      </trkpt>
      <trkpt lat="44.14802" lon="5.66174">
        <ele>1305</ele>
        <time>2021-09-01T11:37:23Z</time>
      </trkpt>
      <trkpt lat="44.14801" lon="5.66179">
        <ele>1304.8</ele>
      </trkpt>
      <trkpt lat="44.14781" lon="5.66103">
        <ele>1312.2</ele>
      </trkpt>
      <trkpt lat="44.14768" lon="5.6603">
        <ele>1327.9</ele>
      </trkpt>
      <trkpt lat="44.14751" lon="5.65966">
        <ele>1344.4</ele>
      </trkpt>
      <trkpt lat="44.14715" lon="5.65927">
        <ele>1353</ele>
      </trkpt>
      <trkpt lat="44.1468" lon="5.65896">
        <ele>1360</ele>
      </trkpt>
      <trkpt lat="44.14658" lon="5.65867">
        <ele>1367.8</ele>
      </trkpt>
      <trkpt lat="44.14635" lon="5.65814">
        <ele>1383.7</ele>
      </trkpt>
      <trkpt lat="44.1462" lon="5.65782">
        <ele>1393.5</ele>
      </trkpt>
      <trkpt lat="44.1461" lon="5.65765">
        <ele>1398.6</ele>
      </trkpt>
      <trkpt lat="44.14579" lon="5.65734">
        <ele>1406.4</ele>
      </trkpt>
      <trkpt lat="44.14572" lon="5.65719">
        <ele>1409.7</ele>
      </trkpt>
      <trkpt lat="44.14576" lon="5.65703">
        <ele>1412.9</ele>
      </trkpt>
      <trkpt lat="44.14585" lon="5.65692">
        <ele>1414.9</ele>
      </trkpt>
      <trkpt lat="44.14594" lon="5.65665">
        <ele>1420.2</ele>
      </trkpt>
      <trkpt lat="44.14602" lon="5.65618">
        <ele>1423.3</ele>
      </trkpt>
      <trkpt lat="44.14657" lon="5.65609">
        <ele>1423.2</ele>
      </trkpt>
      <trkpt lat="44.14717" lon="5.65575">
        <ele>1423.3</ele>
      </trkpt>
      <trkpt lat="44.14751" lon="5.65535">
        <ele>1418.8</ele>
      </trkpt>
      <trkpt lat="44.14763" lon="5.65506">
        <ele>1416.1</ele>
      </trkpt>
      <trkpt lat="44.14826" lon="5.65301">
        <ele>1390.6</ele>
      </trkpt>
      <trkpt lat="44.14833" lon="5.65157">
        <ele>1383.6</ele>
      </trkpt>
      <trkpt lat="44.14836" lon="5.65056">
        <ele>1380.8</ele>
      </trkpt>
      <trkpt lat="44.14829" lon="5.64929">
        <ele>1384.6</ele>
      </trkpt>
      <trkpt lat="44.14822" lon="5.64779">
        <ele>1402.6</ele>
      </trkpt>
      <trkpt lat="44.1482" lon="5.64738">
        <ele>1408.3</ele>
      </trkpt>
      <trkpt lat="44.14817" lon="5.64651">
        <ele>1416.7</ele>
      </trkpt>
      <trkpt lat="44.14847" lon="5.64559">
        <ele>1421.1</ele>
      </trkpt>
      <trkpt lat="44.14863" lon="5.64512">
        <ele>1418.7</ele>
      </trkpt>
      <trkpt lat="44.1487" lon="5.6449">
        <ele>1416.8</ele>
      </trkpt>
      <trkpt lat="44.149" lon="5.64413">
        <ele>1407.5</ele>
      </trkpt>
      <trkpt lat="44.14914" lon="5.64359">
        <ele>1402.2</ele>
      </trkpt>
      <trkpt lat="44.14917" lon="5.64306">
        <ele>1399</ele>
      </trkpt>
      <trkpt lat="44.14916" lon="5.64248">
        <ele>1396.9</ele>
      </trkpt>
      <trkpt lat="44.14922" lon="5.64183">
        <ele>1396.6</ele>
      </trkpt>
      <trkpt lat="44.14934" lon="5.64154">
        <ele>1396.2</ele>
      </trkpt>
      <trkpt lat="44.14941" lon="5.64118">
        <ele>1393.8</ele>
      </trkpt>
      <trkpt lat="44.1494" lon="5.64055">
        <ele>1387.8</ele>
      </trkpt>
      <trkpt lat="44.14945" lon="5.63991">
        <ele>1381</ele>
      </trkpt>
      <trkpt lat="44.14961" lon="5.63903">
        <ele>1371.7</ele>
      </trkpt>
      <trkpt lat="44.14967" lon="5.63876">
        <ele>1369.3</ele>
      </trkpt>
      <trkpt lat="44.15002" lon="5.63724">
        <ele>1363.5</ele>
      </trkpt>
      <trkpt lat="44.15057" lon="5.63376">
        <ele>1363.2</ele>
      </trkpt>
      <trkpt lat="44.15059" lon="5.63328">
        <ele>1360.8</ele>
      </trkpt>
      <trkpt lat="44.15046" lon="5.63269">
        <ele>1359.1</ele>
      </trkpt>
      <trkpt lat="44.15039" lon="5.63222">
        <ele>1358.2</ele>
      </trkpt>
      <trkpt lat="44.15042" lon="5.63181">
        <ele>1358.5</ele>
      </trkpt>
      <trkpt lat="44.15047" lon="5.63157">
        <ele>1359.4</ele>
      </trkpt>
      <trkpt lat="44.15045" lon="5.63134">
        <ele>1360.2</ele>
      </trkpt>
      <trkpt lat="44.15038" lon="5.63098">
        <ele>1361.8</ele>
      </trkpt>
      <trkpt lat="44.15031" lon="5.63074">
        <ele>1362.8</ele>
      </trkpt>
      <trkpt lat="44.15004" lon="5.63014">
        <ele>1365.3</ele>
      </trkpt>
      <trkpt lat="44.15" lon="5.62999">
        <ele>1366</ele>
      </trkpt>
      <trkpt lat="44.15009" lon="5.62996">
        <ele>1365.3</ele>
      </trkpt>
      <trkpt lat="44.15035" lon="5.62979">
        <ele>1363.2</ele>
      </trkpt>
      <trkpt lat="44.15053" lon="5.62958">
        <ele>1361.8</ele>
      </trkpt>
      <trkpt lat="44.15063" lon="5.62928">
        <ele>1360.7</ele>
      </trkpt>
      <trkpt lat="44.15072" lon="5.62878">
        <ele>1358</ele>
      </trkpt>
      <trkpt lat="44.15069" lon="5.62836">
        <ele>1355.3</ele>
      </trkpt>
      <trkpt lat="44.15068" lon="5.62756">
        <ele>1350.9</ele>
      </trkpt>
      <trkpt lat="44.15056" lon="5.62518">
        <ele>1344.5</ele>
      </trkpt>
      <trkpt lat="44.15058" lon="5.62495">
        <ele>1344.7</ele>
      </trkpt>
      <trkpt lat="44.15062" lon="5.62481">
        <ele>1345.1</ele>
      </trkpt>
      <trkpt lat="44.15062" lon="5.62466">
        <ele>1344.9</ele>
      </trkpt>
      <trkpt lat="44.15059" lon="5.62436">
        <ele>1343.9</ele>
      </trkpt>
      <trkpt lat="44.15057" lon="5.62429">
        <ele>1343.5</ele>
      </trkpt>
      <trkpt lat="44.15051" lon="5.62391">
        <ele>1341.6</ele>
      </trkpt>
      <trkpt lat="44.1505" lon="5.62331">
        <ele>1340.2</ele>
      </trkpt>
      <trkpt lat="44.15047" lon="5.62291">
        <ele>1339.1</ele>
      </trkpt>
      <trkpt lat="44.15049" lon="5.62268">
        <ele>1339.3</ele>
      </trkpt>
      <trkpt lat="44.15059" lon="5.62209">
        <ele>1340.5</ele>
      </trkpt>
      <trkpt lat="44.15064" lon="5.62188">
        <ele>1341.1</ele>
      </trkpt>
      <trkpt lat="44.15064" lon="5.62156">
        <ele>1339.8</ele>
      </trkpt>
      <trkpt lat="44.15069" lon="5.62127">
        <ele>1338.7</ele>
      </trkpt>
      <trkpt lat="44.15066" lon="5.62087">
        <ele>1335.2</ele>
      </trkpt>
      <trkpt lat="44.15068" lon="5.62079">
        <ele>1334.9</ele>
      </trkpt>
      <trkpt lat="44.15088" lon="5.62022">
        <ele>1331.8</ele>
      </trkpt>
      <trkpt lat="44.15086" lon="5.61985">
        <ele>1327.5</ele>
      </trkpt>
      <trkpt lat="44.15105" lon="5.61924">
        <ele>1316.8</ele>
      </trkpt>
      <trkpt lat="44.15119" lon="5.619">
        <ele>1312</ele>
      </trkpt>
      <trkpt lat="44.15123" lon="5.61884">
        <ele>1309.1</ele>
      </trkpt>
      <trkpt lat="44.15123" lon="5.61863">
        <ele>1305.6</ele>
      </trkpt>
      <trkpt lat="44.1513" lon="5.61781">
        <ele>1289.4</ele>
      </trkpt>
      <trkpt lat="44.15133" lon="5.61767">
        <ele>1286.4</ele>
      </trkpt>
      <trkpt lat="44.15138" lon="5.61754">
        <ele>1283.5</ele>
      </trkpt>
      <trkpt lat="44.15152" lon="5.61741">
        <ele>1280.5</ele>
      </trkpt>
      <trkpt lat="44.15159" lon="5.6173">
        <ele>1278.1</ele>
      </trkpt>
      <trkpt lat="44.15165" lon="5.61717">
        <ele>1275.3</ele>
      </trkpt>
      <trkpt lat="44.15169" lon="5.61704">
        <ele>1272.3</ele>
      </trkpt>
      <trkpt lat="44.15167" lon="5.61674">
        <ele>1266.5</ele>
      </trkpt>
      <trkpt lat="44.15169" lon="5.61636">
        <ele>1260.9</ele>
      </trkpt>
      <trkpt lat="44.15162" lon="5.61564">
        <ele>1252.8</ele>
      </trkpt>
      <trkpt lat="44.15163" lon="5.61531">
        <ele>1251.2</ele>
      </trkpt>
      <trkpt lat="44.15172" lon="5.6148">
        <ele>1249</ele>
      </trkpt>
      <trkpt lat="44.15172" lon="5.61458">
        <ele>1247.8</ele>
      </trkpt>
      <trkpt lat="44.15196" lon="5.61346">
        <ele>1241.9</ele>
      </trkpt>
      <trkpt lat="44.15211" lon="5.61293">
        <ele>1240.2</ele>
      </trkpt>
      <trkpt lat="44.1522" lon="5.61275">
        <ele>1240.3</ele>
      </trkpt>
      <trkpt lat="44.1523" lon="5.61223">
        <ele>1238.7</ele>
      </trkpt>
      <trkpt lat="44.15232" lon="5.61183">
        <ele>1236.7</ele>
      </trkpt>
      <trkpt lat="44.15222" lon="5.6114">
        <ele>1234.4</ele>
      </trkpt>
      <trkpt lat="44.15234" lon="5.61139">
        <ele>1236</ele>
      </trkpt>
      <trkpt lat="44.15249" lon="5.61137">
        <ele>1237.9</ele>
      </trkpt>
      <trkpt lat="44.15272" lon="5.61109">
        <ele>1239.5</ele>
      </trkpt>
      <trkpt lat="44.15312" lon="5.61069">
        <ele>1244.3</ele>
      </trkpt>
      <trkpt lat="44.15364" lon="5.61028">
        <ele>1245.1</ele>
      </trkpt>
      <trkpt lat="44.15405" lon="5.6099">
        <ele>1250.4</ele>
      </trkpt>
      <trkpt lat="44.1543" lon="5.60964">
        <ele>1248.2</ele>
      </trkpt>
      <trkpt lat="44.15447" lon="5.60924">
        <ele>1248.4</ele>
      </trkpt>
      <trkpt lat="44.15452" lon="5.60918">
        <ele>1248.2</ele>
      </trkpt>
      <trkpt lat="44.15456" lon="5.60919">
        <ele>1247.1</ele>
      </trkpt>
      <trkpt lat="44.15458" lon="5.60923">
        <ele>1246</ele>
      </trkpt>
      <trkpt lat="44.15457" lon="5.6093">
        <ele>1245</ele>
      </trkpt>
      <trkpt lat="44.15425" lon="5.61001">
        <ele>1246.1</ele>
      </trkpt>
      <trkpt lat="44.15337" lon="5.61128">
        <ele>1240.1</ele>
      </trkpt>
      <trkpt lat="44.15324" lon="5.61154">
        <ele>1239.1</ele>
      </trkpt>
      <trkpt lat="44.15322" lon="5.61168">
        <ele>1238</ele>
      </trkpt>
      <trkpt lat="44.15319" lon="5.6121">
        <ele>1237.6</ele>
      </trkpt>
      <trkpt lat="44.15315" lon="5.61238">
        <ele>1237.6</ele>
      </trkpt>
      <trkpt lat="44.15309" lon="5.61257">
        <ele>1237.4</ele>
      </trkpt>
      <trkpt lat="44.15307" lon="5.61271">
        <ele>1236.4</ele>
      </trkpt>
      <trkpt lat="44.1531" lon="5.61273">
        <ele>1235.8</ele>
      </trkpt>
      <trkpt lat="44.15316" lon="5.61271">
        <ele>1235.1</ele>
      </trkpt>
      <trkpt lat="44.15321" lon="5.61257">
        <ele>1236.2</ele>
      </trkpt>
      <trkpt lat="44.15342" lon="5.61185">
        <ele>1232.2</ele>
      </trkpt>
      <trkpt lat="44.15354" lon="5.61162">
        <ele>1226.9</ele>
      </trkpt>
      <trkpt lat="44.15486" lon="5.61049">
        <ele>1199.4</ele>
      </trkpt>
      <trkpt lat="44.15501" lon="5.61026">
        <ele>1202.5</ele>
      </trkpt>
      <trkpt lat="44.15507" lon="5.61023">
        <ele>1200.3</ele>
      </trkpt>
      <trkpt lat="44.1551" lon="5.61027">
        <ele>1196.7</ele>
      </trkpt>
      <trkpt lat="44.15509" lon="5.61034">
        <ele>1194.2</ele>
      </trkpt>
      <trkpt lat="44.15453" lon="5.61123">
        <ele>1186.4</ele>
      </trkpt>
      <trkpt lat="44.15402" lon="5.61196">
        <ele>1193.7</ele>
      </trkpt>
      <trkpt lat="44.15392" lon="5.61216">
        <ele>1197.2</ele>
      </trkpt>
      <trkpt lat="44.1539" lon="5.61227">
        <ele>1197</ele>
      </trkpt>
      <trkpt lat="44.15395" lon="5.61231">
        <ele>1192.9</ele>
      </trkpt>
      <trkpt lat="44.15399" lon="5.61229">
        <ele>1190.4</ele>
      </trkpt>
      <trkpt lat="44.15408" lon="5.61215">
        <ele>1186.6</ele>
      </trkpt>
      <trkpt lat="44.15434" lon="5.61188">
        <ele>1175.6</ele>
      </trkpt>
      <trkpt lat="44.15478" lon="5.61147">
        <ele>1163.2</ele>
      </trkpt>
      <trkpt lat="44.15507" lon="5.6113">
        <ele>1154.4</ele>
      </trkpt>
      <trkpt lat="44.15509" lon="5.61129">
        <ele>1153.8</ele>
      </trkpt>
      <trkpt lat="44.15536" lon="5.61111">
        <ele>1147.3</ele>
      </trkpt>
      <trkpt lat="44.15555" lon="5.61082">
        <ele>1149.1</ele>
      </trkpt>
      <trkpt lat="44.15578" lon="5.61043">
        <ele>1150.6</ele>
      </trkpt>
      <trkpt lat="44.15594" lon="5.61003">
        <ele>1153.6</ele>
      </trkpt>
      <trkpt lat="44.15599" lon="5.60978">
        <ele>1154.5</ele>
      </trkpt>
      <trkpt lat="44.15599" lon="5.60954">
        <ele>1158.2</ele>
      </trkpt>
      <trkpt lat="44.15596" lon="5.60934">
        <ele>1163.7</ele>
      </trkpt>
      <trkpt lat="44.15604" lon="5.60893">
        <ele>1160.5</ele>
      </trkpt>
      <trkpt lat="44.15626" lon="5.6082">
        <ele>1145</ele>
      </trkpt>
      <trkpt lat="44.15631" lon="5.60767">
        <ele>1142.3</ele>
      </trkpt>
      <trkpt lat="44.15638" lon="5.6075">
        <ele>1137.6</ele>
      </trkpt>
      <trkpt lat="44.15654" lon="5.60731">
        <ele>1128.6</ele>
      </trkpt>
      <trkpt lat="44.15666" lon="5.60709">
        <ele>1122.9</ele>
      </trkpt>
      <trkpt lat="44.15678" lon="5.60671">
        <ele>1121.2</ele>
      </trkpt>
      <trkpt lat="44.15694" lon="5.60635">
        <ele>1118.2</ele>
      </trkpt>
      <trkpt lat="44.15706" lon="5.60602">
        <ele>1116.5</ele>
      </trkpt>
      <trkpt lat="44.15712" lon="5.60561">
        <ele>1117</ele>
      </trkpt>
      <trkpt lat="44.15715" lon="5.60551">
        <ele>1115.6</ele>
      </trkpt>
      <trkpt lat="44.1572" lon="5.60549">
        <ele>1112.4</ele>
      </trkpt>
      <trkpt lat="44.15723" lon="5.60552">
        <ele>1110.3</ele>
      </trkpt>
      <trkpt lat="44.15723" lon="5.60564">
        <ele>1109.8</ele>
      </trkpt>
      <trkpt lat="44.15717" lon="5.60632">
        <ele>1105.4</ele>
      </trkpt>
      <trkpt lat="44.15701" lon="5.6076">
        <ele>1097</ele>
      </trkpt>
      <trkpt lat="44.15707" lon="5.60794">
        <ele>1091.4</ele>
      </trkpt>
      <trkpt lat="44.15725" lon="5.60815">
        <ele>1079.3</ele>
      </trkpt>
      <trkpt lat="44.15748" lon="5.60831">
        <ele>1064.4</ele>
      </trkpt>
      <trkpt lat="44.1576" lon="5.60851">
        <ele>1057.4</ele>
      </trkpt>
      <trkpt lat="44.1577" lon="5.60871">
        <ele>1051.6</ele>
      </trkpt>
      <trkpt lat="44.15788" lon="5.60892">
        <ele>1042.2</ele>
      </trkpt>
      <trkpt lat="44.15798" lon="5.60898">
        <ele>1037.5</ele>
      </trkpt>
      <trkpt lat="44.15808" lon="5.60896">
        <ele>1033.5</ele>
      </trkpt>
      <trkpt lat="44.15814" lon="5.60888">
        <ele>1031.8</ele>
      </trkpt>
      <trkpt lat="44.15812" lon="5.60872">
        <ele>1034.1</ele>
      </trkpt>
      <trkpt lat="44.15796" lon="5.60845">
        <ele>1043.2</ele>
      </trkpt>
      <trkpt lat="44.15792" lon="5.60824">
        <ele>1046.2</ele>
      </trkpt>
      <trkpt lat="44.15791" lon="5.60811">
        <ele>1047.1</ele>
      </trkpt>
      <trkpt lat="44.15779" lon="5.60799">
        <ele>1052.9</ele>
      </trkpt>
      <trkpt lat="44.15771" lon="5.60788">
        <ele>1057.1</ele>
      </trkpt>
      <trkpt lat="44.1577" lon="5.60768">
        <ele>1058.8</ele>
      </trkpt>
      <trkpt lat="44.15779" lon="5.60737">
        <ele>1057</ele>
      </trkpt>
      <trkpt lat="44.15802" lon="5.60669">
        <ele>1053</ele>
      </trkpt>
      <trkpt lat="44.15814" lon="5.6065">
        <ele>1048.2</ele>
      </trkpt>
      <trkpt lat="44.15831" lon="5.60645">
        <ele>1039.1</ele>
      </trkpt>
      <trkpt lat="44.15855" lon="5.60648">
        <ele>1027.9</ele>
      </trkpt>
      <trkpt lat="44.15897" lon="5.60665">
        <ele>1007.9</ele>
      </trkpt>
      <trkpt lat="44.15911" lon="5.60658">
        <ele>1002.2</ele>
      </trkpt>
      <trkpt lat="44.15922" lon="5.60648">
        <ele>999</ele>
      </trkpt>
      <trkpt lat="44.15923" lon="5.60635">
        <ele>999.7</ele>
      </trkpt>
      <trkpt lat="44.15902" lon="5.60604">
        <ele>1010.8</ele>
      </trkpt>
      <trkpt lat="44.15897" lon="5.60592">
        <ele>1014</ele>
      </trkpt>
      <trkpt lat="44.15896" lon="5.60585">
        <ele>1015</ele>
      </trkpt>
      <trkpt lat="44.15901" lon="5.6058">
        <ele>1013</ele>
      </trkpt>
      <trkpt lat="44.15908" lon="5.60581">
        <ele>1009.9</ele>
      </trkpt>
      <trkpt lat="44.15921" lon="5.60593">
        <ele>1003.8</ele>
      </trkpt>
      <trkpt lat="44.1595" lon="5.60635">
        <ele>991.5</ele>
      </trkpt>
      <trkpt lat="44.15951" lon="5.60644">
        <ele>990.6</ele>
      </trkpt>
      <trkpt lat="44.15946" lon="5.60658">
        <ele>991.1</ele>
      </trkpt>
      <trkpt lat="44.15933" lon="5.60682">
        <ele>994</ele>
      </trkpt>
      <trkpt lat="44.15912" lon="5.60712">
        <ele>999.8</ele>
      </trkpt>
      <trkpt lat="44.15911" lon="5.60724">
        <ele>999.9</ele>
      </trkpt>
      <trkpt lat="44.15913" lon="5.60733">
        <ele>998.8</ele>
      </trkpt>
      <trkpt lat="44.1592" lon="5.60738">
        <ele>996.4</ele>
      </trkpt>
      <trkpt lat="44.15933" lon="5.60741">
        <ele>992.7</ele>
      </trkpt>
      <trkpt lat="44.15971" lon="5.60744">
        <ele>982.1</ele>
      </trkpt>
      <trkpt lat="44.16075" lon="5.60725">
        <ele>960.6</ele>
      </trkpt>
      <trkpt lat="44.16116" lon="5.60731">
        <ele>955.9</ele>
      </trkpt>
      <trkpt lat="44.16149" lon="5.60751">
        <ele>956.2</ele>
      </trkpt>
      <trkpt lat="44.1618" lon="5.60762">
        <ele>955</ele>
      </trkpt>
      <trkpt lat="44.16226" lon="5.60766">
        <ele>945.5</ele>
      </trkpt>
      <trkpt lat="44.16277" lon="5.60774">
        <ele>935.4</ele>
      </trkpt>
      <trkpt lat="44.16309" lon="5.60776">
        <ele>928.2</ele>
      </trkpt>
      <trkpt lat="44.16351" lon="5.608">
        <ele>922.7</ele>
      </trkpt>
      <trkpt lat="44.16379" lon="5.60811">
        <ele>918.8</ele>
      </trkpt>
      <trkpt lat="44.16395" lon="5.60813">
        <ele>915.8</ele>
      </trkpt>
      <trkpt lat="44.16407" lon="5.60818">
        <ele>914.2</ele>
      </trkpt>
      <trkpt lat="44.16414" lon="5.60824">
        <ele>913.9</ele>
      </trkpt>
      <trkpt lat="44.16416" lon="5.60842">
        <ele>914.5</ele>
      </trkpt>
      <trkpt lat="44.16412" lon="5.60856">
        <ele>914.5</ele>
      </trkpt>
      <trkpt lat="44.16405" lon="5.60864">
        <ele>915.7</ele>
      </trkpt>
      <trkpt lat="44.16402" lon="5.60873">
        <ele>916</ele>
      </trkpt>
      <trkpt lat="44.16404" lon="5.60879">
        <ele>915.1</ele>
      </trkpt>
      <trkpt lat="44.1641" lon="5.6088">
        <ele>913.4</ele>
      </trkpt>
      <trkpt lat="44.16421" lon="5.60878">
        <ele>910.6</ele>
      </trkpt>
      <trkpt lat="44.16437" lon="5.60866">
        <ele>907.1</ele>
      </trkpt>
      <trkpt lat="44.16444" lon="5.6085">
        <ele>906.5</ele>
      </trkpt>
      <trkpt lat="44.16447" lon="5.60832">
        <ele>906.8</ele>
      </trkpt>
      <trkpt lat="44.16446" lon="5.60818">
        <ele>904.7</ele>
      </trkpt>
      <trkpt lat="44.16437" lon="5.60809">
        <ele>905.5</ele>
      </trkpt>
      <trkpt lat="44.16421" lon="5.608">
        <ele>907.9</ele>
      </trkpt>
      <trkpt lat="44.16379" lon="5.60768">
        <ele>911.3</ele>
      </trkpt>
      <trkpt lat="44.16366" lon="5.60756">
        <ele>912</ele>
      </trkpt>
      <trkpt lat="44.16358" lon="5.6074">
        <ele>911.4</ele>
      </trkpt>
      <trkpt lat="44.16354" lon="5.6073">
        <ele>911</ele>
      </trkpt>
      <trkpt lat="44.16354" lon="5.60722">
        <ele>909.9</ele>
      </trkpt>
      <trkpt lat="44.16355" lon="5.6072">
        <ele>909.5</ele>
      </trkpt>
      <trkpt lat="44.16358" lon="5.60715">
        <ele>908.3</ele>
      </trkpt>
      <trkpt lat="44.16462" lon="5.60707">
        <ele>888.6</ele>
      </trkpt>
      <trkpt lat="44.16469" lon="5.60698">
        <ele>887.2</ele>
      </trkpt>
      <trkpt lat="44.16487" lon="5.60727">
        <ele>884.1</ele>
      </trkpt>
      <trkpt lat="44.16483" lon="5.60745">
        <ele>884.9</ele>
      </trkpt>
      <trkpt lat="44.1648" lon="5.60756">
        <ele>886.5</ele>
      </trkpt>
      <trkpt lat="44.16482" lon="5.60777">
        <ele>889.2</ele>
      </trkpt>
      <trkpt lat="44.16499" lon="5.60846">
        <ele>892.1</ele>
      </trkpt>
      <trkpt lat="44.16503" lon="5.60882">
        <ele>887.7</ele>
      </trkpt>
      <trkpt lat="44.16502" lon="5.60909">
        <ele>885.4</ele>
      </trkpt>
      <trkpt lat="44.16499" lon="5.60929">
        <ele>883.8</ele>
      </trkpt>
      <trkpt lat="44.16489" lon="5.6096">
        <ele>883.9</ele>
      </trkpt>
      <trkpt lat="44.16479" lon="5.60983">
        <ele>885.9</ele>
      </trkpt>
      <trkpt lat="44.16477" lon="5.61003">
        <ele>885.2</ele>
      </trkpt>
      <trkpt lat="44.16488" lon="5.61087">
        <ele>873.4</ele>
      </trkpt>
      <trkpt lat="44.16486" lon="5.61134">
        <ele>869.5</ele>
      </trkpt>
      <trkpt lat="44.16487" lon="5.61163">
        <ele>866.3</ele>
      </trkpt>
      <trkpt lat="44.16509" lon="5.61233">
        <ele>859.4</ele>
      </trkpt>
      <trkpt lat="44.16523" lon="5.61303">
        <ele>854.1</ele>
      </trkpt>
      <trkpt lat="44.16526" lon="5.61339">
        <ele>851.7</ele>
      </trkpt>
      <trkpt lat="44.16528" lon="5.61456">
        <ele>853.1</ele>
      </trkpt>
      <trkpt lat="44.1653" lon="5.61467">
        <ele>853.6</ele>
      </trkpt>
      <trkpt lat="44.1654" lon="5.61475">
        <ele>852.1</ele>
      </trkpt>
      <trkpt lat="44.16545" lon="5.61484">
        <ele>851.5</ele>
      </trkpt>
      <trkpt lat="44.16568" lon="5.61559">
        <ele>847.3</ele>
      </trkpt>
      <trkpt lat="44.16588" lon="5.61597">
        <ele>842.4</ele>
      </trkpt>
      <trkpt lat="44.16595" lon="5.61636">
        <ele>841.2</ele>
      </trkpt>
      <trkpt lat="44.16597" lon="5.6168">
        <ele>840.2</ele>
      </trkpt>
      <trkpt lat="44.16607" lon="5.6177">
        <ele>835</ele>
      </trkpt>
      <trkpt lat="44.16609" lon="5.61817">
        <ele>831.6</ele>
      </trkpt>
      <trkpt lat="44.1661" lon="5.61842">
        <ele>830</ele>
      </trkpt>
      <trkpt lat="44.16607" lon="5.61872">
        <ele>828.9</ele>
      </trkpt>
      <trkpt lat="44.166" lon="5.61918">
        <ele>827.2</ele>
      </trkpt>
      <trkpt lat="44.16605" lon="5.61978">
        <ele>827.5</ele>
      </trkpt>
      <trkpt lat="44.16605" lon="5.62002">
        <ele>827.6</ele>
      </trkpt>
      <trkpt lat="44.16601" lon="5.62042">
        <ele>826.1</ele>
      </trkpt>
      <trkpt lat="44.16612" lon="5.62156">
        <ele>820.8</ele>
      </trkpt>
      <trkpt lat="44.16614" lon="5.62164">
        <ele>820.3</ele>
      </trkpt>
      <trkpt lat="44.16633" lon="5.62183">
        <ele>818.5</ele>
      </trkpt>
      <trkpt lat="44.16649" lon="5.62197">
        <ele>817</ele>
      </trkpt>
      <trkpt lat="44.16668" lon="5.62203">
        <ele>815.7</ele>
      </trkpt>
      <trkpt lat="44.16684" lon="5.62203">
        <ele>815.3</ele>
      </trkpt>
      <trkpt lat="44.16697" lon="5.62195">
        <ele>815.3</ele>
      </trkpt>
      <trkpt lat="44.16718" lon="5.62191">
        <ele>814.9</ele>
      </trkpt>
      <trkpt lat="44.16753" lon="5.62189">
        <ele>814.1</ele>
      </trkpt>
      <trkpt lat="44.16763" lon="5.62183">
        <ele>814.1</ele>
      </trkpt>
      <trkpt lat="44.16775" lon="5.62172">
        <ele>814.2</ele>
      </trkpt>
      <trkpt lat="44.1679" lon="5.62166">
        <ele>814.1</ele>
      </trkpt>
      <trkpt lat="44.16811" lon="5.62166">
        <ele>813.6</ele>
      </trkpt>
      <trkpt lat="44.1683" lon="5.62156">
        <ele>813.5</ele>
      </trkpt>
      <trkpt lat="44.16856" lon="5.62124">
        <ele>813.4</ele>
      </trkpt>
      <trkpt lat="44.16873" lon="5.62119">
        <ele>812.7</ele>
      </trkpt>
      <trkpt lat="44.16889" lon="5.62109">
        <ele>812.1</ele>
      </trkpt>
      <trkpt lat="44.16903" lon="5.62095">
        <ele>811.6</ele>
      </trkpt>
      <trkpt lat="44.16919" lon="5.6207">
        <ele>811</ele>
      </trkpt>
      <trkpt lat="44.16933" lon="5.62058">
        <ele>810.3</ele>
      </trkpt>
      <trkpt lat="44.16949" lon="5.62056">
        <ele>809.4</ele>
      </trkpt>
      <trkpt lat="44.16962" lon="5.62055">
        <ele>808.6</ele>
      </trkpt>
      <trkpt lat="44.16958" lon="5.62068">
        <ele>808.7</ele>
      </trkpt>
      <trkpt lat="44.16955" lon="5.62082">
        <ele>808.7</ele>
      </trkpt>
      <trkpt lat="44.16959" lon="5.62146">
        <ele>808.9</ele>
      </trkpt>
      <trkpt lat="44.16933" lon="5.62248">
        <ele>807.3</ele>
      </trkpt>
      <trkpt lat="44.16922" lon="5.623">
        <ele>805.9</ele>
      </trkpt>
      <trkpt lat="44.16917" lon="5.62345">
        <ele>804.4</ele>
      </trkpt>
      <trkpt lat="44.16918" lon="5.62366">
        <ele>803.5</ele>
      </trkpt>
      <trkpt lat="44.16926" lon="5.62427">
        <ele>801.1</ele>
      </trkpt>
      <trkpt lat="44.16925" lon="5.6247">
        <ele>799.9</ele>
      </trkpt>
      <trkpt lat="44.16915" lon="5.62514">
        <ele>799</ele>
      </trkpt>
      <trkpt lat="44.16899" lon="5.62546">
        <ele>800</ele>
      </trkpt>
      <trkpt lat="44.16879" lon="5.62572">
        <ele>801.6</ele>
      </trkpt>
      <trkpt lat="44.16856" lon="5.62589">
        <ele>804</ele>
      </trkpt>
      <trkpt lat="44.16782" lon="5.62632">
        <ele>814.2</ele>
      </trkpt>
      <trkpt lat="44.16782" lon="5.62661">
        <ele>815</ele>
      </trkpt>
      <trkpt lat="44.16778" lon="5.62687">
        <ele>814.9</ele>
      </trkpt>
      <trkpt lat="44.16769" lon="5.62718">
        <ele>814.7</ele>
      </trkpt>
      <trkpt lat="44.16762" lon="5.62737">
        <ele>814.5</ele>
      </trkpt>
      <trkpt lat="44.16758" lon="5.6277">
        <ele>814.5</ele>
      </trkpt>
      <trkpt lat="44.16753" lon="5.62794">
        <ele>815.3</ele>
      </trkpt>
      <trkpt lat="44.16745" lon="5.6281">
        <ele>816.1</ele>
      </trkpt>
      <trkpt lat="44.16733" lon="5.6282">
        <ele>817</ele>
      </trkpt>
      <trkpt lat="44.16719" lon="5.62837">
        <ele>817.8</ele>
      </trkpt>
      <trkpt lat="44.1671" lon="5.62857">
        <ele>818.2</ele>
      </trkpt>
      <trkpt lat="44.16703" lon="5.62897">
        <ele>818.7</ele>
      </trkpt>
      <trkpt lat="44.16698" lon="5.62944">
        <ele>818.8</ele>
      </trkpt>
      <trkpt lat="44.16678" lon="5.62997">
        <ele>820.5</ele>
      </trkpt>
      <trkpt lat="44.16674" lon="5.6303">
        <ele>817.9</ele>
      </trkpt>
      <trkpt lat="44.16669" lon="5.63049">
        <ele>816.5</ele>
      </trkpt>
      <trkpt lat="44.16633" lon="5.63133">
        <ele>810.6</ele>
      </trkpt>
      <trkpt lat="44.1661" lon="5.63181">
        <ele>808.7</ele>
      </trkpt>
      <trkpt lat="44.16594" lon="5.6322">
        <ele>808.3</ele>
      </trkpt>
      <trkpt lat="44.16577" lon="5.63245">
        <ele>808.6</ele>
      </trkpt>
      <trkpt lat="44.1657" lon="5.63268">
        <ele>809.5</ele>
      </trkpt>
      <trkpt lat="44.16547" lon="5.6343">
        <ele>814.5</ele>
      </trkpt>
      <trkpt lat="44.16541" lon="5.63462">
        <ele>813.6</ele>
      </trkpt>
      <trkpt lat="44.16535" lon="5.63485">
        <ele>813</ele>
      </trkpt>
      <trkpt lat="44.16527" lon="5.63499">
        <ele>812.8</ele>
      </trkpt>
      <trkpt lat="44.16522" lon="5.63542">
        <ele>812.5</ele>
      </trkpt>
      <trkpt lat="44.1651" lon="5.63601">
        <ele>814</ele>
      </trkpt>
      <trkpt lat="44.16487" lon="5.63685">
        <ele>822.9</ele>
      </trkpt>
      <trkpt lat="44.16473" lon="5.63744">
        <ele>829.1</ele>
      </trkpt>
      <trkpt lat="44.16466" lon="5.63797">
        <ele>827.8</ele>
      </trkpt>
      <trkpt lat="44.16464" lon="5.63852">
        <ele>823.6</ele>
      </trkpt>
      <trkpt lat="44.16453" lon="5.63893">
        <ele>818.3</ele>
      </trkpt>
      <trkpt lat="44.16438" lon="5.63903">
        <ele>816.3</ele>
      </trkpt>
      <trkpt lat="44.16429" lon="5.63932">
        <ele>811.5</ele>
      </trkpt>
      <trkpt lat="44.16417" lon="5.63946">
        <ele>808.8</ele>
      </trkpt>
      <trkpt lat="44.16403" lon="5.6395">
        <ele>808</ele>
      </trkpt>
      <trkpt lat="44.16369" lon="5.63941">
        <ele>808.3</ele>
      </trkpt>
      <trkpt lat="44.16357" lon="5.63941">
        <ele>808</ele>
      </trkpt>
      <trkpt lat="44.16347" lon="5.63958">
        <ele>807</ele>
      </trkpt>
      <trkpt lat="44.16339" lon="5.63984">
        <ele>806.2</ele>
      </trkpt>
      <trkpt lat="44.16327" lon="5.63999">
        <ele>807.5</ele>
      </trkpt>
      <trkpt lat="44.16309" lon="5.64012">
        <ele>811.6</ele>
      </trkpt>
      <trkpt lat="44.16291" lon="5.64006">
        <ele>815.7</ele>
      </trkpt>
      <trkpt lat="44.16279" lon="5.64062">
        <ele>818.2</ele>
      </trkpt>
      <trkpt lat="44.16268" lon="5.64102">
        <ele>818.9</ele>
      </trkpt>
      <trkpt lat="44.16265" lon="5.64121">
        <ele>817.9</ele>
      </trkpt>
      <trkpt lat="44.1628" lon="5.64135">
        <ele>814.5</ele>
      </trkpt>
      <trkpt lat="44.16292" lon="5.64152">
        <ele>811.7</ele>
      </trkpt>
      <trkpt lat="44.16297" lon="5.64176">
        <ele>809.8</ele>
      </trkpt>
      <trkpt lat="44.1629" lon="5.6421">
        <ele>808.3</ele>
      </trkpt>
      <trkpt lat="44.16278" lon="5.64245">
        <ele>807</ele>
      </trkpt>
      <trkpt lat="44.1628" lon="5.64258">
        <ele>806.9</ele>
      </trkpt>
      <trkpt lat="44.16299" lon="5.64271">
        <ele>806.1</ele>
      </trkpt>
      <trkpt lat="44.16303" lon="5.64278">
        <ele>806.2</ele>
      </trkpt>
      <trkpt lat="44.16295" lon="5.64289">
        <ele>807.4</ele>
      </trkpt>
      <trkpt lat="44.1629" lon="5.64302">
        <ele>808.4</ele>
      </trkpt>
      <trkpt lat="44.163" lon="5.64316">
        <ele>808.6</ele>
      </trkpt>
      <trkpt lat="44.1631" lon="5.6434">
        <ele>809.8</ele>
      </trkpt>
      <trkpt lat="44.16312" lon="5.64346">
        <ele>810.4</ele>
      </trkpt>
      <trkpt lat="44.16308" lon="5.64351">
        <ele>811.1</ele>
      </trkpt>
      <trkpt lat="44.16313" lon="5.64361">
        <ele>812</ele>
      </trkpt>
      <trkpt lat="44.16343" lon="5.64377">
        <ele>813.2</ele>
      </trkpt>
      <trkpt lat="44.16361" lon="5.64373">
        <ele>813.6</ele>
      </trkpt>
      <trkpt lat="44.16369" lon="5.64379">
        <ele>814.6</ele>
      </trkpt>
      <trkpt lat="44.16369" lon="5.64464">
        <ele>820.1</ele>
      </trkpt>
      <trkpt lat="44.16355" lon="5.64514">
        <ele>821.1</ele>
      </trkpt>
      <trkpt lat="44.16339" lon="5.64551">
        <ele>820.6</ele>
      </trkpt>
      <trkpt lat="44.16342" lon="5.64603">
        <ele>818.2</ele>
      </trkpt>
      <trkpt lat="44.16347" lon="5.64653">
        <ele>814.3</ele>
      </trkpt>
      <trkpt lat="44.16344" lon="5.64674">
        <ele>813.2</ele>
      </trkpt>
      <trkpt lat="44.16315" lon="5.64716">
        <ele>813.1</ele>
      </trkpt>
      <trkpt lat="44.16306" lon="5.64724">
        <ele>813.4</ele>
      </trkpt>
      <trkpt lat="44.16284" lon="5.64724">
        <ele>814.6</ele>
      </trkpt>
      <trkpt lat="44.16276" lon="5.64753">
        <ele>815.2</ele>
      </trkpt>
      <trkpt lat="44.16279" lon="5.64778">
        <ele>815.7</ele>
      </trkpt>
      <trkpt lat="44.16296" lon="5.64813">
        <ele>814.6</ele>
      </trkpt>
      <trkpt lat="44.16296" lon="5.64813">
        <ele>803.4</ele>
      </trkpt>
      <trkpt lat="44.16293" lon="5.64826">
        <ele>803.5</ele>
      </trkpt>
      <trkpt lat="44.16266" lon="5.64861">
        <ele>804.3</ele>
      </trkpt>
      <trkpt lat="44.16239" lon="5.64887">
        <ele>805.3</ele>
      </trkpt>
      <trkpt lat="44.16203" lon="5.64949">
        <ele>806.9</ele>
      </trkpt>
      <trkpt lat="44.16181" lon="5.64968">
        <ele>807</ele>
      </trkpt>
      <trkpt lat="44.16157" lon="5.65021">
        <ele>807.5</ele>
      </trkpt>
      <trkpt lat="44.16114" lon="5.65099">
        <ele>812.4</ele>
      </trkpt>
      <trkpt lat="44.16092" lon="5.65167">
        <ele>815.2</ele>
      </trkpt>
      <trkpt lat="44.16079" lon="5.65253">
        <ele>817.8</ele>
      </trkpt>
      <trkpt lat="44.16076" lon="5.65309">
        <ele>818.4</ele>
      </trkpt>
      <trkpt lat="44.1608" lon="5.65348">
        <ele>816.5</ele>
      </trkpt>
      <trkpt lat="44.16068" lon="5.65371">
        <ele>817.6</ele>
      </trkpt>
      <trkpt lat="44.16065" lon="5.65393">
        <ele>818</ele>
      </trkpt>
      <trkpt lat="44.16092" lon="5.65453">
        <ele>822.5</ele>
      </trkpt>
      <trkpt lat="44.16104" lon="5.65476">
        <ele>822.3</ele>
      </trkpt>
      <trkpt lat="44.16104" lon="5.65544">
        <ele>829.5</ele>
      </trkpt>
      <trkpt lat="44.16135" lon="5.65657">
        <ele>824.7</ele>
      </trkpt>
      <trkpt lat="44.16135" lon="5.65686">
        <ele>824.9</ele>
      </trkpt>
      <trkpt lat="44.16135" lon="5.65688">
        <ele>824.9</ele>
      </trkpt>
      <trkpt lat="44.16119" lon="5.65731">
        <ele>827.4</ele>
      </trkpt>
      <trkpt lat="44.1612" lon="5.65764">
        <ele>826.4</ele>
      </trkpt>
      <trkpt lat="44.1611" lon="5.65815">
        <ele>826</ele>
      </trkpt>
      <trkpt lat="44.16106" lon="5.65872">
        <ele>827.9</ele>
      </trkpt>
      <trkpt lat="44.16093" lon="5.65902">
        <ele>829.3</ele>
      </trkpt>
      <trkpt lat="44.16044" lon="5.65958">
        <ele>832.9</ele>
      </trkpt>
      <trkpt lat="44.16037" lon="5.65976">
        <ele>832.9</ele>
      </trkpt>
      <trkpt lat="44.16045" lon="5.66059">
        <ele>832.5</ele>
      </trkpt>
      <trkpt lat="44.16057" lon="5.66173">
        <ele>833.5</ele>
      </trkpt>
      <trkpt lat="44.16048" lon="5.66225">
        <ele>835.1</ele>
      </trkpt>
      <trkpt lat="44.16051" lon="5.66263">
        <ele>836.5</ele>
      </trkpt>
      <trkpt lat="44.16071" lon="5.66313">
        <ele>839.5</ele>
      </trkpt>
      <trkpt lat="44.16068" lon="5.66345">
        <ele>840.2</ele>
      </trkpt>
      <trkpt lat="44.16051" lon="5.66398">
        <ele>840.5</ele>
      </trkpt>
      <trkpt lat="44.16049" lon="5.66427">
        <ele>841.4</ele>
      </trkpt>
      <trkpt lat="44.16066" lon="5.66475">
        <ele>843.6</ele>
      </trkpt>
      <trkpt lat="44.16057" lon="5.66585">
        <ele>846.2</ele>
      </trkpt>
      <trkpt lat="44.16059" lon="5.66632">
        <ele>847.2</ele>
      </trkpt>
      <trkpt lat="44.1606" lon="5.66641">
        <ele>869.1</ele>
      </trkpt>
      <trkpt lat="44.1606" lon="5.66649">
        <ele>868.3</ele>
      </trkpt>
      <trkpt lat="44.16059" lon="5.6666">
        <ele>867.3</ele>
      </trkpt>
      <trkpt lat="44.16057" lon="5.66671">
        <ele>866.7</ele>
      </trkpt>
      <trkpt lat="44.1605" lon="5.66692">
        <ele>866.8</ele>
      </trkpt>
      <trkpt lat="44.16039" lon="5.66708">
        <ele>867.6</ele>
      </trkpt>
      <trkpt lat="44.16037" lon="5.66735">
        <ele>867</ele>
      </trkpt>
      <trkpt lat="44.16048" lon="5.66777">
        <ele>870.9</ele>
      </trkpt>
      <trkpt lat="44.16094" lon="5.66876">
        <ele>883.3</ele>
      </trkpt>
      <trkpt lat="44.16107" lon="5.66905">
        <ele>888</ele>
      </trkpt>
      <trkpt lat="44.16121" lon="5.66956">
        <ele>894.3</ele>
      </trkpt>
      <trkpt lat="44.16137" lon="5.66977">
        <ele>894.5</ele>
      </trkpt>
      <trkpt lat="44.16146" lon="5.67005">
        <ele>895.5</ele>
      </trkpt>
      <trkpt lat="44.16154" lon="5.67046">
        <ele>889.8</ele>
      </trkpt>
      <trkpt lat="44.16167" lon="5.67074">
        <ele>884.9</ele>
      </trkpt>
      <trkpt lat="44.16157" lon="5.67099">
        <ele>886</ele>
      </trkpt>
      <trkpt lat="44.16165" lon="5.67142">
        <ele>886.3</ele>
      </trkpt>
      <trkpt lat="44.1616" lon="5.67232">
        <ele>895</ele>
      </trkpt>
      <trkpt lat="44.16159" lon="5.67245">
        <ele>896.6</ele>
      </trkpt>
      <trkpt lat="44.16167" lon="5.67296">
        <ele>893.7</ele>
      </trkpt>
      <trkpt lat="44.16162" lon="5.67325">
        <ele>892.2</ele>
      </trkpt>
      <trkpt lat="44.16151" lon="5.67395">
        <ele>892</ele>
      </trkpt>
      <trkpt lat="44.16147" lon="5.67506">
        <ele>902.8</ele>
      </trkpt>
      <trkpt lat="44.16111" lon="5.67613">
        <ele>906.1</ele>
      </trkpt>
      <trkpt lat="44.1609" lon="5.67712">
        <ele>911</ele>
      </trkpt>
      <trkpt lat="44.16085" lon="5.67856">
        <ele>920.3</ele>
      </trkpt>
      <trkpt lat="44.1606" lon="5.67946">
        <ele>928.3</ele>
      </trkpt>
      <trkpt lat="44.16029" lon="5.68012">
        <ele>938.4</ele>
      </trkpt>
      <trkpt lat="44.15999" lon="5.68053">
        <ele>947.3</ele>
      </trkpt>
      <trkpt lat="44.15936" lon="5.68217">
        <ele>958.1</ele>
      </trkpt>
      <trkpt lat="44.15903" lon="5.68357">
        <ele>962.8</ele>
      </trkpt>
      <trkpt lat="44.1583" lon="5.68547">
        <ele>963.9</ele>
      </trkpt>
      <trkpt lat="44.15804" lon="5.68639">
        <ele>953.1</ele>
      </trkpt>
      <trkpt lat="44.15767" lon="5.68754">
        <ele>944.2</ele>
      </trkpt>
      <trkpt lat="44.15741" lon="5.68869">
        <ele>943.6</ele>
      </trkpt>
      <trkpt lat="44.15744" lon="5.68901">
        <ele>944</ele>
      </trkpt>
      <trkpt lat="44.15759" lon="5.68938">
        <ele>945.9</ele>
      </trkpt>
      <trkpt lat="44.15761" lon="5.68973">
        <ele>941.1</ele>
      </trkpt>
      <trkpt lat="44.15749" lon="5.69022">
        <ele>932.2</ele>
      </trkpt>
      <trkpt lat="44.15747" lon="5.69062">
        <ele>932.4</ele>
      </trkpt>
      <trkpt lat="44.15733" lon="5.69095">
        <ele>928.6</ele>
      </trkpt>
      <trkpt lat="44.15692" lon="5.69175">
        <ele>917</ele>
      </trkpt>
      <trkpt lat="44.15658" lon="5.69285">
        <ele>911.5</ele>
      </trkpt>
      <trkpt lat="44.15641" lon="5.69355">
        <ele>908.7</ele>
      </trkpt>
      <trkpt lat="44.15638" lon="5.69443">
        <ele>911.5</ele>
      </trkpt>
      <trkpt lat="44.15649" lon="5.69516">
        <ele>920.1</ele>
      </trkpt>
      <trkpt lat="44.15686" lon="5.69594">
        <ele>931.3</ele>
      </trkpt>
      <trkpt lat="44.15743" lon="5.69684">
        <ele>937.7</ele>
      </trkpt>
      <trkpt lat="44.15797" lon="5.69749">
        <ele>929</ele>
      </trkpt>
      <trkpt lat="44.15849" lon="5.69783">
        <ele>907.6</ele>
      </trkpt>
      <trkpt lat="44.15906" lon="5.69847">
        <ele>869.6</ele>
      </trkpt>
      <trkpt lat="44.15943" lon="5.69855">
        <ele>864.1</ele>
      </trkpt>
      <trkpt lat="44.15987" lon="5.69857">
        <ele>863.7</ele>
      </trkpt>
      <trkpt lat="44.1603" lon="5.69875">
        <ele>856.4</ele>
      </trkpt>
      <trkpt lat="44.16066" lon="5.69888">
        <ele>849.9</ele>
      </trkpt>
      <trkpt lat="44.1611" lon="5.69876">
        <ele>852</ele>
      </trkpt>
      <trkpt lat="44.16145" lon="5.69872">
        <ele>850.9</ele>
      </trkpt>
      <trkpt lat="44.16234" lon="5.69928">
        <ele>821</ele>
      </trkpt>
      <trkpt lat="44.16268" lon="5.69945">
        <ele>812.4</ele>
      </trkpt>
      <trkpt lat="44.16303" lon="5.69979">
        <ele>798.9</ele>
      </trkpt>
      <trkpt lat="44.1633" lon="5.69991">
        <ele>793.8</ele>
      </trkpt>
      <trkpt lat="44.1641" lon="5.69977">
        <ele>792.3</ele>
      </trkpt>
      <trkpt lat="44.16473" lon="5.69975">
        <ele>783.9</ele>
      </trkpt>
      <trkpt lat="44.16508" lon="5.69965">
        <ele>779.8</ele>
      </trkpt>
      <trkpt lat="44.16531" lon="5.69943">
        <ele>777.6</ele>
      </trkpt>
      <trkpt lat="44.16544" lon="5.69908">
        <ele>779</ele>
      </trkpt>
      <trkpt lat="44.16558" lon="5.69909">
        <ele>775.1</ele>
      </trkpt>
      <trkpt lat="44.16568" lon="5.69932">
        <ele>769.9</ele>
      </trkpt>
      <trkpt lat="44.16587" lon="5.69964">
        <ele>763.6</ele>
      </trkpt>
      <trkpt lat="44.16614" lon="5.69968">
        <ele>759.1</ele>
      </trkpt>
      <trkpt lat="44.16638" lon="5.69957">
        <ele>756.4</ele>
      </trkpt>
      <trkpt lat="44.16668" lon="5.69935">
        <ele>754.6</ele>
      </trkpt>
      <trkpt lat="44.16706" lon="5.69919">
        <ele>750.6</ele>
      </trkpt>
      <trkpt lat="44.16736" lon="5.69917">
        <ele>746.2</ele>
      </trkpt>
      <trkpt lat="44.16754" lon="5.69925">
        <ele>742.8</ele>
      </trkpt>
      <trkpt lat="44.1678" lon="5.69926">
        <ele>739</ele>
      </trkpt>
      <trkpt lat="44.16788" lon="5.69926">
        <ele>737.9</ele>
      </trkpt>
      <trkpt lat="44.16797" lon="5.69935">
        <ele>735.9</ele>
      </trkpt>
      <trkpt lat="44.16801" lon="5.69946">
        <ele>734.5</ele>
      </trkpt>
      <trkpt lat="44.16815" lon="5.6996">
        <ele>731.5</ele>
      </trkpt>
      <trkpt lat="44.1682" lon="5.69966">
        <ele>730.4</ele>
      </trkpt>
      <trkpt lat="44.16821" lon="5.69975">
        <ele>729.6</ele>
      </trkpt>
      <trkpt lat="44.16818" lon="5.70002">
        <ele>728</ele>
      </trkpt>
      <trkpt lat="44.1681" lon="5.70016">
        <ele>728</ele>
      </trkpt>
      <trkpt lat="44.16808" lon="5.7002">
        <ele>727.9</ele>
      </trkpt>
      <trkpt lat="44.16804" lon="5.70027">
        <ele>727.8</ele>
      </trkpt>
      <trkpt lat="44.16799" lon="5.70034">
        <ele>727.8</ele>
      </trkpt>
      <trkpt lat="44.16793" lon="5.70048">
        <ele>727.2</ele>
      </trkpt>
      <trkpt lat="44.16786" lon="5.70058">
        <ele>727.1</ele>
      </trkpt>
      <trkpt lat="44.16775" lon="5.70072">
        <ele>726.8</ele>
      </trkpt>
      <trkpt lat="44.16771" lon="5.70082">
        <ele>726.1</ele>
      </trkpt>
      <trkpt lat="44.16763" lon="5.70094">
        <ele>726</ele>
      </trkpt>
      <trkpt lat="44.16718" lon="5.70137">
        <ele>729</ele>
      </trkpt>
      <trkpt lat="44.16698" lon="5.70151">
        <ele>731.4</ele>
      </trkpt>
      <trkpt lat="44.16659" lon="5.70168">
        <ele>737.7</ele>
      </trkpt>
      <trkpt lat="44.16611" lon="5.7026">
        <ele>738.4</ele>
      </trkpt>
      <trkpt lat="44.16592" lon="5.70283">
        <ele>738.2</ele>
      </trkpt>
      <trkpt lat="44.16582" lon="5.70292">
        <ele>737.9</ele>
      </trkpt>
      <trkpt lat="44.16488" lon="5.70309">
        <ele>732</ele>
      </trkpt>
      <trkpt lat="44.16476" lon="5.70313">
        <ele>731.7</ele>
      </trkpt>
      <trkpt lat="44.16468" lon="5.70322">
        <ele>730.5</ele>
      </trkpt>
      <trkpt lat="44.16454" lon="5.70329">
        <ele>729.8</ele>
      </trkpt>
      <trkpt lat="44.16393" lon="5.70338">
        <ele>729.5</ele>
      </trkpt>
      <trkpt lat="44.16351" lon="5.70359">
        <ele>727.5</ele>
      </trkpt>
      <trkpt lat="44.16325" lon="5.70368">
        <ele>726.7</ele>
      </trkpt>
      <trkpt lat="44.16291" lon="5.70364">
        <ele>727</ele>
      </trkpt>
      <trkpt lat="44.16269" lon="5.70364">
        <ele>726.9</ele>
      </trkpt>
      <trkpt lat="44.16191" lon="5.70387">
        <ele>729.8</ele>
      </trkpt>
      <trkpt lat="44.16103" lon="5.70437">
        <ele>733.8</ele>
      </trkpt>
      <trkpt lat="44.16088" lon="5.70441">
        <ele>734.6</ele>
      </trkpt>
      <trkpt lat="44.15997" lon="5.70486">
        <ele>736</ele>
      </trkpt>
      <trkpt lat="44.15975" lon="5.70487">
        <ele>736.8</ele>
      </trkpt>
      <trkpt lat="44.15949" lon="5.70484">
        <ele>738</ele>
      </trkpt>
      <trkpt lat="44.1588" lon="5.70465">
        <ele>741.9</ele>
      </trkpt>
      <trkpt lat="44.15858" lon="5.70455">
        <ele>743.7</ele>
      </trkpt>
      <trkpt lat="44.1579" lon="5.70442">
        <ele>745.3</ele>
      </trkpt>
      <trkpt lat="44.15773" lon="5.70432">
        <ele>746</ele>
      </trkpt>
      <trkpt lat="44.15703" lon="5.70434">
        <ele>746.7</ele>
      </trkpt>
      <trkpt lat="44.15678" lon="5.70425">
        <ele>747.2</ele>
      </trkpt>
      <trkpt lat="44.15661" lon="5.70412">
        <ele>748.1</ele>
      </trkpt>
      <trkpt lat="44.15651" lon="5.70396">
        <ele>750.5</ele>
      </trkpt>
      <trkpt lat="44.15638" lon="5.70387">
        <ele>752</ele>
      </trkpt>
      <trkpt lat="44.15572" lon="5.7036">
        <ele>754.9</ele>
      </trkpt>
      <trkpt lat="44.1555" lon="5.70338">
        <ele>756.4</ele>
      </trkpt>
      <trkpt lat="44.15531" lon="5.70334">
        <ele>757.8</ele>
      </trkpt>
      <trkpt lat="44.15514" lon="5.70327">
        <ele>759.3</ele>
      </trkpt>
      <trkpt lat="44.15494" lon="5.70294">
        <ele>764.3</ele>
      </trkpt>
      <trkpt lat="44.15483" lon="5.70286">
        <ele>769.3</ele>
      </trkpt>
      <trkpt lat="44.15462" lon="5.70299">
        <ele>776.8</ele>
      </trkpt>
      <trkpt lat="44.15455" lon="5.70314">
        <ele>777.8</ele>
      </trkpt>
      <trkpt lat="44.15446" lon="5.70327">
        <ele>779.6</ele>
      </trkpt>
      <trkpt lat="44.15434" lon="5.70352">
        <ele>781.4</ele>
      </trkpt>
      <trkpt lat="44.15432" lon="5.70369">
        <ele>780.6</ele>
      </trkpt>
      <trkpt lat="44.15439" lon="5.70387">
        <ele>777.2</ele>
      </trkpt>
      <trkpt lat="44.15445" lon="5.70397">
        <ele>774.9</ele>
      </trkpt>
      <trkpt lat="44.15449" lon="5.704">
        <ele>773.7</ele>
      </trkpt>
      <trkpt lat="44.15445" lon="5.70397">
        <ele>774.9</ele>
      </trkpt>
      <trkpt lat="44.15426" lon="5.70396">
        <ele>779.8</ele>
      </trkpt>
      <trkpt lat="44.15408" lon="5.70399">
        <ele>787.1</ele>
      </trkpt>
      <trkpt lat="44.15396" lon="5.70412">
        <ele>793.5</ele>
      </trkpt>
      <trkpt lat="44.1538" lon="5.70453">
        <ele>802.9</ele>
      </trkpt>
      <trkpt lat="44.15366" lon="5.70464">
        <ele>811.7</ele>
      </trkpt>
      <trkpt lat="44.15355" lon="5.70466">
        <ele>818.6</ele>
      </trkpt>
      <trkpt lat="44.15345" lon="5.7047">
        <ele>824.9</ele>
      </trkpt>
      <trkpt lat="44.15335" lon="5.70482">
        <ele>831.2</ele>
      </trkpt>
      <trkpt lat="44.1533" lon="5.70508">
        <ele>833</ele>
      </trkpt>
      <trkpt lat="44.15332" lon="5.70578">
        <ele>815.2</ele>
      </trkpt>
      <trkpt lat="44.15326" lon="5.70592">
        <ele>817.8</ele>
      </trkpt>
      <trkpt lat="44.15292" lon="5.70604">
        <ele>839.2</ele>
      </trkpt>
      <trkpt lat="44.15258" lon="5.70611">
        <ele>858.7</ele>
      </trkpt>
      <trkpt lat="44.15251" lon="5.70628">
        <ele>855.6</ele>
      </trkpt>
      <trkpt lat="44.15242" lon="5.7068">
        <ele>839.1</ele>
      </trkpt>
      <trkpt lat="44.15222" lon="5.70716">
        <ele>837.4</ele>
      </trkpt>
      <trkpt lat="44.15207" lon="5.70732">
        <ele>837.1</ele>
      </trkpt>
      <trkpt lat="44.15191" lon="5.70724">
        <ele>842.2</ele>
      </trkpt>
      <trkpt lat="44.15177" lon="5.70728">
        <ele>844</ele>
      </trkpt>
      <trkpt lat="44.15161" lon="5.70747">
        <ele>844.3</ele>
      </trkpt>
      <trkpt lat="44.1515" lon="5.70747">
        <ele>850.9</ele>
      </trkpt>
      <trkpt lat="44.15132" lon="5.70738">
        <ele>863.7</ele>
      </trkpt>
      <trkpt lat="44.15109" lon="5.70734">
        <ele>878</ele>
      </trkpt>
      <trkpt lat="44.151" lon="5.70744">
        <ele>881.7</ele>
      </trkpt>
      <trkpt lat="44.15096" lon="5.70763">
        <ele>881.4</ele>
      </trkpt>
      <trkpt lat="44.151" lon="5.70788">
        <ele>875.7</ele>
      </trkpt>
      <trkpt lat="44.15107" lon="5.70811">
        <ele>869.5</ele>
      </trkpt>
      <trkpt lat="44.15104" lon="5.70837">
        <ele>867.6</ele>
      </trkpt>
      <trkpt lat="44.15095" lon="5.70868">
        <ele>866</ele>
      </trkpt>
      <trkpt lat="44.15083" lon="5.70875">
        <ele>867.1</ele>
      </trkpt>
      <trkpt lat="44.1505" lon="5.70905">
        <ele>864.3</ele>
      </trkpt>
      <trkpt lat="44.15013" lon="5.70921">
        <ele>865.3</ele>
      </trkpt>
      <trkpt lat="44.14937" lon="5.70932">
        <ele>881.5</ele>
      </trkpt>
      <trkpt lat="44.14901" lon="5.7094">
        <ele>891.8</ele>
      </trkpt>
      <trkpt lat="44.14888" lon="5.70968">
        <ele>892.2</ele>
      </trkpt>
      <trkpt lat="44.14883" lon="5.7099">
        <ele>889.9</ele>
      </trkpt>
      <trkpt lat="44.14865" lon="5.71002">
        <ele>893.5</ele>
      </trkpt>
      <trkpt lat="44.14846" lon="5.71028">
        <ele>895.7</ele>
      </trkpt>
      <trkpt lat="44.14842" lon="5.71049">
        <ele>893.4</ele>
      </trkpt>
      <trkpt lat="44.14839" lon="5.71087">
        <ele>888.7</ele>
      </trkpt>
      <trkpt lat="44.14829" lon="5.71102">
        <ele>891.9</ele>
      </trkpt>
      <trkpt lat="44.14807" lon="5.71124">
        <ele>899.2</ele>
      </trkpt>
      <trkpt lat="44.14788" lon="5.71158">
        <ele>906.6</ele>
      </trkpt>
      <trkpt lat="44.14782" lon="5.71186">
        <ele>911.6</ele>
      </trkpt>
      <trkpt lat="44.14787" lon="5.71209">
        <ele>913.5</ele>
      </trkpt>
      <trkpt lat="44.14789" lon="5.71233">
        <ele>916.2</ele>
      </trkpt>
      <trkpt lat="44.1478" lon="5.71262">
        <ele>922</ele>
      </trkpt>
      <trkpt lat="44.14768" lon="5.71298">
        <ele>926.8</ele>
      </trkpt>
      <trkpt lat="44.14751" lon="5.71331">
        <ele>932.7</ele>
      </trkpt>
      <trkpt lat="44.14728" lon="5.71362">
        <ele>942.4</ele>
      </trkpt>
      <trkpt lat="44.14725" lon="5.71387">
        <ele>944.5</ele>
      </trkpt>
      <trkpt lat="44.14734" lon="5.71442">
        <ele>944.2</ele>
      </trkpt>
      <trkpt lat="44.14732" lon="5.71476">
        <ele>948.4</ele>
      </trkpt>
      <trkpt lat="44.14737" lon="5.71494">
        <ele>948</ele>
      </trkpt>
      <trkpt lat="44.14755" lon="5.71488">
        <ele>940.5</ele>
      </trkpt>
      <trkpt lat="44.14759" lon="5.71423">
        <ele>933.4</ele>
      </trkpt>
      <trkpt lat="44.14765" lon="5.71398">
        <ele>930.7</ele>
      </trkpt>
      <trkpt lat="44.14773" lon="5.71376">
        <ele>927.6</ele>
      </trkpt>
      <trkpt lat="44.14782" lon="5.71375">
        <ele>925</ele>
      </trkpt>
      <trkpt lat="44.14789" lon="5.71386">
        <ele>923.7</ele>
      </trkpt>
      <trkpt lat="44.14788" lon="5.71429">
        <ele>926.9</ele>
      </trkpt>
      <trkpt lat="44.14779" lon="5.71493">
        <ele>934.7</ele>
      </trkpt>
      <trkpt lat="44.14776" lon="5.71539">
        <ele>940.6</ele>
      </trkpt>
      <trkpt lat="44.14774" lon="5.71626">
        <ele>949.7</ele>
      </trkpt>
      <trkpt lat="44.1479" lon="5.7171">
        <ele>950.7</ele>
      </trkpt>
      <trkpt lat="44.14835" lon="5.71764">
        <ele>940.8</ele>
      </trkpt>
      <trkpt lat="44.14868" lon="5.71856">
        <ele>949</ele>
      </trkpt>
      <trkpt lat="44.14896" lon="5.71913">
        <ele>954.8</ele>
      </trkpt>
      <trkpt lat="44.14927" lon="5.71935">
        <ele>959.2</ele>
      </trkpt>
      <trkpt lat="44.14936" lon="5.71966">
        <ele>964</ele>
      </trkpt>
      <trkpt lat="44.14949" lon="5.71997">
        <ele>967.2</ele>
      </trkpt>
      <trkpt lat="44.14951" lon="5.72012">
        <ele>968.9</ele>
      </trkpt>
      <trkpt lat="44.14949" lon="5.72034">
        <ele>971.8</ele>
      </trkpt>
      <trkpt lat="44.14936" lon="5.72036">
        <ele>973.1</ele>
      </trkpt>
      <trkpt lat="44.14926" lon="5.72051">
        <ele>976.1</ele>
      </trkpt>
      <trkpt lat="44.14905" lon="5.72129">
        <ele>984.8</ele>
      </trkpt>
      <trkpt lat="44.14873" lon="5.7218">
        <ele>991.4</ele>
      </trkpt>
      <trkpt lat="44.14862" lon="5.72216">
        <ele>990.1</ele>
      </trkpt>
      <trkpt lat="44.14838" lon="5.72254">
        <ele>989.6</ele>
      </trkpt>
      <trkpt lat="44.1483" lon="5.72287">
        <ele>991.3</ele>
      </trkpt>
      <trkpt lat="44.14835" lon="5.72313">
        <ele>991.4</ele>
      </trkpt>
      <trkpt lat="44.14833" lon="5.72333">
        <ele>992</ele>
      </trkpt>
      <trkpt lat="44.14769" lon="5.72416">
        <ele>1006.7</ele>
      </trkpt>
      <trkpt lat="44.14752" lon="5.72419">
        <ele>1008.8</ele>
      </trkpt>
      <trkpt lat="44.1474" lon="5.72404">
        <ele>1009.3</ele>
      </trkpt>
      <trkpt lat="44.14732" lon="5.72384">
        <ele>1008.3</ele>
      </trkpt>
      <trkpt lat="44.14717" lon="5.72384">
        <ele>1010.6</ele>
      </trkpt>
      <trkpt lat="44.14704" lon="5.72399">
        <ele>1014.8</ele>
      </trkpt>
      <trkpt lat="44.1468" lon="5.72445">
        <ele>1022.3</ele>
      </trkpt>
      <trkpt lat="44.14649" lon="5.72482">
        <ele>1028.9</ele>
      </trkpt>
      <trkpt lat="44.14522" lon="5.72646">
        <ele>1034.9</ele>
      </trkpt>
      <trkpt lat="44.14492" lon="5.72671">
        <ele>1031.2</ele>
      </trkpt>
      <trkpt lat="44.14465" lon="5.72673">
        <ele>1034.1</ele>
      </trkpt>
      <trkpt lat="44.14459" lon="5.7269">
        <ele>1032</ele>
      </trkpt>
      <trkpt lat="44.14468" lon="5.72725">
        <ele>1025</ele>
      </trkpt>
      <trkpt lat="44.14475" lon="5.72773">
        <ele>1018.2</ele>
      </trkpt>
      <trkpt lat="44.14472" lon="5.7291">
        <ele>1002.9</ele>
      </trkpt>
      <trkpt lat="44.14475" lon="5.72952">
        <ele>996.6</ele>
      </trkpt>
      <trkpt lat="44.14504" lon="5.7304">
        <ele>986.5</ele>
      </trkpt>
      <trkpt lat="44.14519" lon="5.73097">
        <ele>981.8</ele>
      </trkpt>
      <trkpt lat="44.14518" lon="5.73121">
        <ele>977.6</ele>
      </trkpt>
      <trkpt lat="44.14509" lon="5.73126">
        <ele>974.1</ele>
      </trkpt>
      <trkpt lat="44.14494" lon="5.73115">
        <ele>972.8</ele>
      </trkpt>
      <trkpt lat="44.14465" lon="5.73079">
        <ele>976.1</ele>
      </trkpt>
      <trkpt lat="44.14422" lon="5.73048">
        <ele>977.1</ele>
      </trkpt>
      <trkpt lat="44.14409" lon="5.73013">
        <ele>981.9</ele>
      </trkpt>
      <trkpt lat="44.14409" lon="5.72973">
        <ele>990.4</ele>
      </trkpt>
      <trkpt lat="44.14404" lon="5.7295">
        <ele>996.5</ele>
      </trkpt>
      <trkpt lat="44.14388" lon="5.72946">
        <ele>998.7</ele>
      </trkpt>
      <trkpt lat="44.14373" lon="5.72968">
        <ele>994.2</ele>
      </trkpt>
      <trkpt lat="44.1436" lon="5.72994">
        <ele>988.6</ele>
      </trkpt>
      <trkpt lat="44.14331" lon="5.73012">
        <ele>988.2</ele>
      </trkpt>
      <trkpt lat="44.14309" lon="5.73054">
        <ele>987.8</ele>
      </trkpt>
      <trkpt lat="44.14304" lon="5.73087">
        <ele>984.2</ele>
      </trkpt>
      <trkpt lat="44.14307" lon="5.73121">
        <ele>979.3</ele>
      </trkpt>
      <trkpt lat="44.14292" lon="5.73152">
        <ele>977.9</ele>
      </trkpt>
      <trkpt lat="44.14263" lon="5.73166">
        <ele>980.9</ele>
      </trkpt>
      <trkpt lat="44.14232" lon="5.73186">
        <ele>990.2</ele>
      </trkpt>
      <trkpt lat="44.1422" lon="5.73198">
        <ele>994.8</ele>
      </trkpt>
      <trkpt lat="44.14219" lon="5.73233">
        <ele>997.5</ele>
      </trkpt>
      <trkpt lat="44.14233" lon="5.73253">
        <ele>994.9</ele>
      </trkpt>
      <trkpt lat="44.14295" lon="5.73307">
        <ele>990.7</ele>
      </trkpt>
      <trkpt lat="44.14311" lon="5.73332">
        <ele>992.5</ele>
      </trkpt>
      <trkpt lat="44.14315" lon="5.73364">
        <ele>994.8</ele>
      </trkpt>
      <trkpt lat="44.14309" lon="5.73391">
        <ele>998.2</ele>
      </trkpt>
      <trkpt lat="44.14283" lon="5.73464">
        <ele>992.7</ele>
      </trkpt>
      <trkpt lat="44.14262" lon="5.73483">
        <ele>991.1</ele>
      </trkpt>
      <trkpt lat="44.14244" lon="5.73519">
        <ele>988</ele>
      </trkpt>
      <trkpt lat="44.14237" lon="5.73558">
        <ele>985.7</ele>
      </trkpt>
      <trkpt lat="44.14229" lon="5.73602">
        <ele>985.8</ele>
      </trkpt>
      <trkpt lat="44.14228" lon="5.73647">
        <ele>987.4</ele>
      </trkpt>
      <trkpt lat="44.14224" lon="5.73671">
        <ele>989.2</ele>
      </trkpt>
      <trkpt lat="44.14223" lon="5.73725">
        <ele>992.4</ele>
      </trkpt>
      <trkpt lat="44.14232" lon="5.7375">
        <ele>991.9</ele>
      </trkpt>
      <trkpt lat="44.14243" lon="5.73807">
        <ele>989.9</ele>
      </trkpt>
      <trkpt lat="44.14238" lon="5.73864">
        <ele>989.3</ele>
      </trkpt>
      <trkpt lat="44.14226" lon="5.73893">
        <ele>989.1</ele>
      </trkpt>
      <trkpt lat="44.14219" lon="5.73899">
        <ele>989.3</ele>
      </trkpt>
      <trkpt lat="44.14218" lon="5.73906">
        <ele>989</ele>
      </trkpt>
      <trkpt lat="44.14245" lon="5.73916">
        <ele>986.4</ele>
      </trkpt>
      <trkpt lat="44.14257" lon="5.73916">
        <ele>985.4</ele>
      </trkpt>
      <trkpt lat="44.14275" lon="5.7391">
        <ele>984.2</ele>
      </trkpt>
      <trkpt lat="44.14297" lon="5.73921">
        <ele>982.2</ele>
      </trkpt>
      <trkpt lat="44.14325" lon="5.7394">
        <ele>980.5</ele>
      </trkpt>
      <trkpt lat="44.14337" lon="5.7396">
        <ele>980.3</ele>
      </trkpt>
      <trkpt lat="44.14357" lon="5.7398">
        <ele>979.7</ele>
      </trkpt>
      <trkpt lat="44.14369" lon="5.74001">
        <ele>979.5</ele>
      </trkpt>
      <trkpt lat="44.14388" lon="5.74019">
        <ele>979.2</ele>
      </trkpt>
      <trkpt lat="44.14398" lon="5.74034">
        <ele>979.5</ele>
      </trkpt>
      <trkpt lat="44.14396" lon="5.74048">
        <ele>980.5</ele>
      </trkpt>
      <trkpt lat="44.14368" lon="5.74079">
        <ele>983.5</ele>
      </trkpt>
      <trkpt lat="44.14361" lon="5.74102">
        <ele>985.2</ele>
      </trkpt>
      <trkpt lat="44.14356" lon="5.74152">
        <ele>988.5</ele>
      </trkpt>
      <trkpt lat="44.14349" lon="5.74182">
        <ele>991.4</ele>
      </trkpt>
      <trkpt lat="44.1435" lon="5.74201">
        <ele>993.5</ele>
      </trkpt>
      <trkpt lat="44.14347" lon="5.74215">
        <ele>995.2</ele>
      </trkpt>
      <trkpt lat="44.14355" lon="5.7423">
        <ele>996.5</ele>
      </trkpt>
      <trkpt lat="44.14365" lon="5.74258">
        <ele>999</ele>
      </trkpt>
      <trkpt lat="44.14367" lon="5.74286">
        <ele>1001.9</ele>
      </trkpt>
      <trkpt lat="44.14369" lon="5.743">
        <ele>1003.3</ele>
      </trkpt>
      <trkpt lat="44.14375" lon="5.74307">
        <ele>1003.3</ele>
      </trkpt>
      <trkpt lat="44.14373" lon="5.74326">
        <ele>1005.5</ele>
      </trkpt>
      <trkpt lat="44.1436" lon="5.74352">
        <ele>1009.7</ele>
      </trkpt>
      <trkpt lat="44.14369" lon="5.74417">
        <ele>1013.5</ele>
      </trkpt>
      <trkpt lat="44.14361" lon="5.74448">
        <ele>1016.7</ele>
      </trkpt>
      <trkpt lat="44.14363" lon="5.74506">
        <ele>1020</ele>
      </trkpt>
      <trkpt lat="44.1437" lon="5.74552">
        <ele>1020.9</ele>
      </trkpt>
      <trkpt lat="44.14375" lon="5.74608">
        <ele>1021.4</ele>
      </trkpt>
      <trkpt lat="44.14369" lon="5.74736">
        <ele>1026.4</ele>
      </trkpt>
      <trkpt lat="44.14379" lon="5.74803">
        <ele>1029.2</ele>
      </trkpt>
      <trkpt lat="44.14401" lon="5.74836">
        <ele>1026.7</ele>
      </trkpt>
      <trkpt lat="44.14429" lon="5.74891">
        <ele>1025.5</ele>
      </trkpt>
      <trkpt lat="44.14436" lon="5.7492">
        <ele>1026.5</ele>
      </trkpt>
      <trkpt lat="44.14441" lon="5.74943">
        <ele>1026.6</ele>
      </trkpt>
      <trkpt lat="44.14441" lon="5.75">
        <ele>1028</ele>
      </trkpt>
      <trkpt lat="44.14437" lon="5.75038">
        <ele>1030.2</ele>
      </trkpt>
      <trkpt lat="44.1444" lon="5.75065">
        <ele>1031.3</ele>
      </trkpt>
      <trkpt lat="44.14447" lon="5.75076">
        <ele>1031</ele>
      </trkpt>
      <trkpt lat="44.14458" lon="5.75086">
        <ele>1030.2</ele>
      </trkpt>
      <trkpt lat="44.14465" lon="5.75103">
        <ele>1030.5</ele>
      </trkpt>
      <trkpt lat="44.14488" lon="5.75196">
        <ele>1033.2</ele>
      </trkpt>
      <trkpt lat="44.14491" lon="5.75236">
        <ele>1033.9</ele>
      </trkpt>
      <trkpt lat="44.14485" lon="5.75254">
        <ele>1035.1</ele>
      </trkpt>
      <trkpt lat="44.14483" lon="5.75337">
        <ele>1034.7</ele>
      </trkpt>
      <trkpt lat="44.14476" lon="5.75347">
        <ele>1035.9</ele>
      </trkpt>
      <trkpt lat="44.14456" lon="5.75363">
        <ele>1038.2</ele>
      </trkpt>
      <trkpt lat="44.14436" lon="5.7537">
        <ele>1039.8</ele>
      </trkpt>
      <trkpt lat="44.14414" lon="5.75389">
        <ele>1041.7</ele>
      </trkpt>
      <trkpt lat="44.14379" lon="5.75393">
        <ele>1046.1</ele>
      </trkpt>
      <trkpt lat="44.1433" lon="5.7539">
        <ele>1052</ele>
      </trkpt>
      <trkpt lat="44.14287" lon="5.75394">
        <ele>1056.3</ele>
      </trkpt>
      <trkpt lat="44.14247" lon="5.75411">
        <ele>1060.5</ele>
      </trkpt>
      <trkpt lat="44.14226" lon="5.7545">
        <ele>1064.9</ele>
      </trkpt>
      <trkpt lat="44.1421" lon="5.75468">
        <ele>1068.2</ele>
      </trkpt>
      <trkpt lat="44.14206" lon="5.75479">
        <ele>1069.3</ele>
      </trkpt>
      <trkpt lat="44.14205" lon="5.75502">
        <ele>1070</ele>
      </trkpt>
      <trkpt lat="44.142" lon="5.75522">
        <ele>1061</ele>
      </trkpt>
      <trkpt lat="44.14199" lon="5.75525">
        <ele>1061.1</ele>
      </trkpt>
      <trkpt lat="44.14192" lon="5.75548">
        <ele>1060.4</ele>
      </trkpt>
      <trkpt lat="44.14182" lon="5.75579">
        <ele>1057.9</ele>
      </trkpt>
      <trkpt lat="44.14151" lon="5.75672">
        <ele>1053.6</ele>
      </trkpt>
      <trkpt lat="44.14132" lon="5.75717">
        <ele>1053.9</ele>
      </trkpt>
      <trkpt lat="44.14102" lon="5.75778">
        <ele>1050.3</ele>
      </trkpt>
      <trkpt lat="44.14096" lon="5.75816">
        <ele>1047.2</ele>
      </trkpt>
      <trkpt lat="44.14057" lon="5.75903">
        <ele>1046.8</ele>
      </trkpt>
      <trkpt lat="44.14017" lon="5.75987">
        <ele>1046.9</ele>
      </trkpt>
      <trkpt lat="44.13996" lon="5.76022">
        <ele>1045.8</ele>
      </trkpt>
      <trkpt lat="44.13981" lon="5.76031">
        <ele>1045.4</ele>
      </trkpt>
      <trkpt lat="44.13965" lon="5.7607">
        <ele>1042.3</ele>
      </trkpt>
      <trkpt lat="44.13947" lon="5.7611">
        <ele>1038.5</ele>
      </trkpt>
      <trkpt lat="44.13931" lon="5.76139">
        <ele>1034</ele>
      </trkpt>
      <trkpt lat="44.13908" lon="5.76211">
        <ele>1025.2</ele>
      </trkpt>
      <trkpt lat="44.13909" lon="5.7627">
        <ele>1020.9</ele>
      </trkpt>
      <trkpt lat="44.13899" lon="5.76326">
        <ele>1021.1</ele>
      </trkpt>
      <trkpt lat="44.13894" lon="5.76415">
        <ele>1018.1</ele>
      </trkpt>
      <trkpt lat="44.13883" lon="5.76449">
        <ele>1016.3</ele>
      </trkpt>
      <trkpt lat="44.13851" lon="5.76542">
        <ele>1010.7</ele>
      </trkpt>
      <trkpt lat="44.13846" lon="5.7656">
        <ele>1010.8</ele>
      </trkpt>
      <trkpt lat="44.1383" lon="5.76586">
        <ele>1016.3</ele>
      </trkpt>
      <trkpt lat="44.13833" lon="5.76607">
        <ele>1016.8</ele>
      </trkpt>
      <trkpt lat="44.13847" lon="5.76645">
        <ele>1015.4</ele>
      </trkpt>
      <trkpt lat="44.13846" lon="5.76693">
        <ele>1021.3</ele>
      </trkpt>
      <trkpt lat="44.13849" lon="5.76744">
        <ele>1024.9</ele>
      </trkpt>
      <trkpt lat="44.13847" lon="5.76774">
        <ele>1026.9</ele>
      </trkpt>
      <trkpt lat="44.13849" lon="5.76803">
        <ele>1027</ele>
      </trkpt>
      <trkpt lat="44.13856" lon="5.76831">
        <ele>1024.6</ele>
      </trkpt>
      <trkpt lat="44.13865" lon="5.76836">
        <ele>1024</ele>
      </trkpt>
      <trkpt lat="44.13882" lon="5.76837">
        <ele>1024.3</ele>
      </trkpt>
      <trkpt lat="44.13892" lon="5.76831">
        <ele>1024.2</ele>
      </trkpt>
      <trkpt lat="44.13909" lon="5.76802">
        <ele>1023.1</ele>
      </trkpt>
      <trkpt lat="44.13917" lon="5.76782">
        <ele>1021.5</ele>
      </trkpt>
      <trkpt lat="44.13924" lon="5.76772">
        <ele>1021</ele>
      </trkpt>
      <trkpt lat="44.13933" lon="5.76763">
        <ele>1020.4</ele>
      </trkpt>
      <trkpt lat="44.1399" lon="5.76729">
        <ele>1022.2</ele>
      </trkpt>
      <trkpt lat="44.1405" lon="5.76703">
        <ele>1016.4</ele>
      </trkpt>
      <trkpt lat="44.14053" lon="5.76701">
        <ele>1015.6</ele>
      </trkpt>
      <trkpt lat="44.14122" lon="5.76678">
        <ele>1002.5</ele>
      </trkpt>
      <trkpt lat="44.14137" lon="5.76668">
        <ele>1001.8</ele>
      </trkpt>
      <trkpt lat="44.14156" lon="5.76661">
        <ele>998.7</ele>
      </trkpt>
      <trkpt lat="44.14158" lon="5.76662">
        <ele>998.6</ele>
      </trkpt>
      <trkpt lat="44.14158" lon="5.76666">
        <ele>999.2</ele>
      </trkpt>
      <trkpt lat="44.14135" lon="5.76703">
        <ele>993.3</ele>
      </trkpt>
      <trkpt lat="44.14125" lon="5.76731">
        <ele>991.2</ele>
      </trkpt>
      <trkpt lat="44.14122" lon="5.76759">
        <ele>992.8</ele>
      </trkpt>
      <trkpt lat="44.14124" lon="5.76761">
        <ele>991.5</ele>
      </trkpt>
      <trkpt lat="44.14127" lon="5.7676">
        <ele>988.8</ele>
      </trkpt>
      <trkpt lat="44.14143" lon="5.76739">
        <ele>976.4</ele>
      </trkpt>
      <trkpt lat="44.14148" lon="5.76734">
        <ele>974.2</ele>
      </trkpt>
      <trkpt lat="44.14154" lon="5.76734">
        <ele>970.1</ele>
      </trkpt>
      <trkpt lat="44.14155" lon="5.76736">
        <ele>968.7</ele>
      </trkpt>
      <trkpt lat="44.14156" lon="5.7674">
        <ele>966.5</ele>
      </trkpt>
      <trkpt lat="44.14149" lon="5.76751">
        <ele>968.7</ele>
      </trkpt>
      <trkpt lat="44.14149" lon="5.76764">
        <ele>970</ele>
      </trkpt>
      <trkpt lat="44.14154" lon="5.76774">
        <ele>966</ele>
      </trkpt>
      <trkpt lat="44.14164" lon="5.76789">
        <ele>958.1</ele>
      </trkpt>
      <trkpt lat="44.14177" lon="5.76804">
        <ele>943.8</ele>
      </trkpt>
      <trkpt lat="44.14179" lon="5.7681">
        <ele>941.2</ele>
      </trkpt>
      <trkpt lat="44.1418" lon="5.76822">
        <ele>940.1</ele>
      </trkpt>
      <trkpt lat="44.14175" lon="5.76853">
        <ele>942.9</ele>
      </trkpt>
      <trkpt lat="44.14164" lon="5.76889">
        <ele>947.4</ele>
      </trkpt>
      <trkpt lat="44.14162" lon="5.76909">
        <ele>950.2</ele>
      </trkpt>
      <trkpt lat="44.14163" lon="5.76912">
        <ele>948.8</ele>
      </trkpt>
      <trkpt lat="44.14166" lon="5.76913">
        <ele>944.8</ele>
      </trkpt>
      <trkpt lat="44.14168" lon="5.76911">
        <ele>942.5</ele>
      </trkpt>
      <trkpt lat="44.14183" lon="5.76891">
        <ele>927.2</ele>
      </trkpt>
      <trkpt lat="44.14191" lon="5.7687">
        <ele>921.2</ele>
      </trkpt>
      <trkpt lat="44.14197" lon="5.76862">
        <ele>915.7</ele>
      </trkpt>
      <trkpt lat="44.14199" lon="5.76864">
        <ele>913.9</ele>
      </trkpt>
      <trkpt lat="44.14205" lon="5.76886">
        <ele>907.8</ele>
      </trkpt>
      <trkpt lat="44.14203" lon="5.76909">
        <ele>909</ele>
      </trkpt>
      <trkpt lat="44.14205" lon="5.76916">
        <ele>907.3</ele>
      </trkpt>
      <trkpt lat="44.14207" lon="5.76918">
        <ele>905.5</ele>
      </trkpt>
      <trkpt lat="44.14212" lon="5.76914">
        <ele>901.5</ele>
      </trkpt>
      <trkpt lat="44.14217" lon="5.76898">
        <ele>897.9</ele>
      </trkpt>
      <trkpt lat="44.14219" lon="5.76895">
        <ele>896.4</ele>
      </trkpt>
      <trkpt lat="44.14221" lon="5.76894">
        <ele>894.8</ele>
      </trkpt>
      <trkpt lat="44.14226" lon="5.76899">
        <ele>890.8</ele>
      </trkpt>
      <trkpt lat="44.14233" lon="5.7692">
        <ele>884.6</ele>
      </trkpt>
      <trkpt lat="44.14234" lon="5.76922">
        <ele>883.6</ele>
      </trkpt>
      <trkpt lat="44.14237" lon="5.76922">
        <ele>881.3</ele>
      </trkpt>
      <trkpt lat="44.14242" lon="5.76913">
        <ele>878.2</ele>
      </trkpt>
      <trkpt lat="44.14251" lon="5.76854">
        <ele>872.4</ele>
      </trkpt>
      <trkpt lat="44.14265" lon="5.76811">
        <ele>866.5</ele>
      </trkpt>
      <trkpt lat="44.14268" lon="5.76805">
        <ele>865.7</ele>
      </trkpt>
      <trkpt lat="44.14273" lon="5.76801">
        <ele>864.2</ele>
      </trkpt>
      <trkpt lat="44.14275" lon="5.76803">
        <ele>862.9</ele>
      </trkpt>
      <trkpt lat="44.14276" lon="5.76814">
        <ele>860.7</ele>
      </trkpt>
      <trkpt lat="44.14275" lon="5.7683">
        <ele>859</ele>
      </trkpt>
      <trkpt lat="44.14295" lon="5.76868">
        <ele>848.8</ele>
      </trkpt>
      <trkpt lat="44.14308" lon="5.76865">
        <ele>846.1</ele>
      </trkpt>
      <trkpt lat="44.14346" lon="5.76906">
        <ele>831.5</ele>
      </trkpt>
      <trkpt lat="44.1435" lon="5.76911">
        <ele>829.7</ele>
      </trkpt>
      <trkpt lat="44.14353" lon="5.76914">
        <ele>828.6</ele>
      </trkpt>
      <trkpt lat="44.14357" lon="5.7691">
        <ele>830.8</ele>
      </trkpt>
      <trkpt lat="44.14362" lon="5.7691">
        <ele>831.3</ele>
      </trkpt>
      <trkpt lat="44.14377" lon="5.76919">
        <ele>831</ele>
      </trkpt>
      <trkpt lat="44.14388" lon="5.76917">
        <ele>834.6</ele>
      </trkpt>
      <trkpt lat="44.14392" lon="5.76913">
        <ele>836.5</ele>
      </trkpt>
      <trkpt lat="44.14395" lon="5.76906">
        <ele>839.1</ele>
      </trkpt>
      <trkpt lat="44.14409" lon="5.76896">
        <ele>842.8</ele>
      </trkpt>
      <trkpt lat="44.14435" lon="5.76883">
        <ele>844.9</ele>
      </trkpt>
      <trkpt lat="44.14458" lon="5.76859">
        <ele>850.5</ele>
      </trkpt>
      <trkpt lat="44.14478" lon="5.76846">
        <ele>855.5</ele>
      </trkpt>
      <trkpt lat="44.14511" lon="5.7684">
        <ele>860.3</ele>
      </trkpt>
      <trkpt lat="44.14521" lon="5.76845">
        <ele>860.4</ele>
      </trkpt>
      <trkpt lat="44.14542" lon="5.76847">
        <ele>861.8</ele>
      </trkpt>
      <trkpt lat="44.14554" lon="5.76846">
        <ele>862.6</ele>
      </trkpt>
      <trkpt lat="44.14578" lon="5.76832">
        <ele>864.5</ele>
      </trkpt>
      <trkpt lat="44.1461" lon="5.76821">
        <ele>865.2</ele>
      </trkpt>
      <trkpt lat="44.14661" lon="5.76815">
        <ele>864.2</ele>
      </trkpt>
      <trkpt lat="44.147" lon="5.7682">
        <ele>858.5</ele>
      </trkpt>
      <trkpt lat="44.14718" lon="5.7682">
        <ele>854.3</ele>
      </trkpt>
      <trkpt lat="44.14728" lon="5.76816">
        <ele>852.1</ele>
      </trkpt>
      <trkpt lat="44.14746" lon="5.76804">
        <ele>847.4</ele>
      </trkpt>
      <trkpt lat="44.14752" lon="5.76793">
        <ele>848.3</ele>
      </trkpt>
      <trkpt lat="44.148" lon="5.76744">
        <ele>847.5</ele>
      </trkpt>
      <trkpt lat="44.14802" lon="5.76744">
        <ele>846.9</ele>
      </trkpt>
      <trkpt lat="44.14816" lon="5.76743">
        <ele>843.6</ele>
      </trkpt>
      <trkpt lat="44.14842" lon="5.76732">
        <ele>840.9</ele>
      </trkpt>
      <trkpt lat="44.14873" lon="5.76736">
        <ele>833.6</ele>
      </trkpt>
      <trkpt lat="44.14896" lon="5.7673">
        <ele>831.6</ele>
      </trkpt>
      <trkpt lat="44.14901" lon="5.76732">
        <ele>830.6</ele>
      </trkpt>
      <trkpt lat="44.14925" lon="5.76752">
        <ele>824.3</ele>
      </trkpt>
      <trkpt lat="44.14935" lon="5.76756">
        <ele>823.1</ele>
      </trkpt>
      <trkpt lat="44.14977" lon="5.76755">
        <ele>822.4</ele>
      </trkpt>
      <trkpt lat="44.15019" lon="5.76738">
        <ele>825.7</ele>
      </trkpt>
      <trkpt lat="44.15036" lon="5.76734">
        <ele>824.7</ele>
      </trkpt>
      <trkpt lat="44.1505" lon="5.76724">
        <ele>824.7</ele>
      </trkpt>
      <trkpt lat="44.1507" lon="5.76716">
        <ele>822.2</ele>
      </trkpt>
      <trkpt lat="44.15084" lon="5.76705">
        <ele>820.9</ele>
      </trkpt>
      <trkpt lat="44.15102" lon="5.76681">
        <ele>818.9</ele>
      </trkpt>
      <trkpt lat="44.15111" lon="5.76662">
        <ele>817.2</ele>
      </trkpt>
      <trkpt lat="44.15114" lon="5.76648">
        <ele>816.6</ele>
      </trkpt>
      <trkpt lat="44.15115" lon="5.76633">
        <ele>816.9</ele>
      </trkpt>
      <trkpt lat="44.15118" lon="5.76625">
        <ele>816.5</ele>
      </trkpt>
      <trkpt lat="44.15131" lon="5.76614">
        <ele>813.2</ele>
      </trkpt>
      <trkpt lat="44.1515" lon="5.76607">
        <ele>809.9</ele>
      </trkpt>
      <trkpt lat="44.15189" lon="5.76582">
        <ele>808.8</ele>
      </trkpt>
      <trkpt lat="44.15194" lon="5.76578">
        <ele>808.7</ele>
      </trkpt>
      <trkpt lat="44.15213" lon="5.76552">
        <ele>812.2</ele>
      </trkpt>
      <trkpt lat="44.15233" lon="5.76537">
        <ele>813.3</ele>
      </trkpt>
      <trkpt lat="44.15262" lon="5.76529">
        <ele>810.1</ele>
      </trkpt>
      <trkpt lat="44.15286" lon="5.76524">
        <ele>807.1</ele>
      </trkpt>
      <trkpt lat="44.15308" lon="5.76524">
        <ele>802.8</ele>
      </trkpt>
      <trkpt lat="44.15338" lon="5.76497">
        <ele>797.8</ele>
      </trkpt>
      <trkpt lat="44.1536" lon="5.76488">
        <ele>795.2</ele>
      </trkpt>
      <trkpt lat="44.15419" lon="5.76484">
        <ele>787.7</ele>
      </trkpt>
      <trkpt lat="44.15441" lon="5.76487">
        <ele>784.2</ele>
      </trkpt>
      <trkpt lat="44.15445" lon="5.76489">
        <ele>783.3</ele>
      </trkpt>
      <trkpt lat="44.15451" lon="5.76492">
        <ele>782</ele>
      </trkpt>
      <trkpt lat="44.15458" lon="5.76496">
        <ele>780.4</ele>
      </trkpt>
      <trkpt lat="44.15475" lon="5.765">
        <ele>777.7</ele>
      </trkpt>
      <trkpt lat="44.15501" lon="5.76496">
        <ele>775.8</ele>
      </trkpt>
      <trkpt lat="44.15535" lon="5.76485">
        <ele>774.2</ele>
      </trkpt>
      <trkpt lat="44.15546" lon="5.76486">
        <ele>772.4</ele>
      </trkpt>
      <trkpt lat="44.15556" lon="5.76492">
        <ele>769.7</ele>
      </trkpt>
      <trkpt lat="44.15574" lon="5.76492">
        <ele>768</ele>
      </trkpt>
      <trkpt lat="44.15598" lon="5.76486">
        <ele>766.2</ele>
      </trkpt>
      <trkpt lat="44.15663" lon="5.76449">
        <ele>765.8</ele>
      </trkpt>
      <trkpt lat="44.15691" lon="5.76423">
        <ele>764.2</ele>
      </trkpt>
      <trkpt lat="44.15701" lon="5.7642">
        <ele>762.3</ele>
      </trkpt>
      <trkpt lat="44.15707" lon="5.76408">
        <ele>760.7</ele>
      </trkpt>
      <trkpt lat="44.15709" lon="5.764">
        <ele>760</ele>
      </trkpt>
      <trkpt lat="44.15709" lon="5.76392">
        <ele>759.9</ele>
      </trkpt>
      <trkpt lat="44.15708" lon="5.76382">
        <ele>760</ele>
      </trkpt>
      <trkpt lat="44.15702" lon="5.76361">
        <ele>761.5</ele>
      </trkpt>
      <trkpt lat="44.15702" lon="5.76345">
        <ele>760.8</ele>
      </trkpt>
      <trkpt lat="44.15699" lon="5.76316">
        <ele>760.1</ele>
      </trkpt>
      <trkpt lat="44.15698" lon="5.76284">
        <ele>757.4</ele>
      </trkpt>
      <trkpt lat="44.15688" lon="5.76266">
        <ele>759.3</ele>
      </trkpt>
      <trkpt lat="44.15687" lon="5.76259">
        <ele>758.9</ele>
      </trkpt>
      <trkpt lat="44.15688" lon="5.7625">
        <ele>757.6</ele>
      </trkpt>
      <trkpt lat="44.15695" lon="5.7624">
        <ele>753.3</ele>
      </trkpt>
      <trkpt lat="44.15694" lon="5.76232">
        <ele>752.6</ele>
      </trkpt>
      <trkpt lat="44.15668" lon="5.76168">
        <ele>753.7</ele>
      </trkpt>
      <trkpt lat="44.15652" lon="5.76111">
        <ele>751.8</ele>
      </trkpt>
      <trkpt lat="44.15653" lon="5.76072">
        <ele>750.5</ele>
      </trkpt>
      <trkpt lat="44.15667" lon="5.76031">
        <ele>748.7</ele>
      </trkpt>
      <trkpt lat="44.15672" lon="5.76001">
        <ele>751.1</ele>
      </trkpt>
      <trkpt lat="44.15675" lon="5.75971">
        <ele>756.3</ele>
      </trkpt>
      <trkpt lat="44.15678" lon="5.75965">
        <ele>756.4</ele>
      </trkpt>
      <trkpt lat="44.1569" lon="5.75951">
        <ele>754.5</ele>
      </trkpt>
      <trkpt lat="44.15707" lon="5.75948">
        <ele>748.8</ele>
      </trkpt>
      <trkpt lat="44.15717" lon="5.75941">
        <ele>746.4</ele>
      </trkpt>
      <trkpt lat="44.1572" lon="5.75935">
        <ele>746.2</ele>
      </trkpt>
      <trkpt lat="44.15753" lon="5.75863">
        <ele>743.4</ele>
      </trkpt>
      <trkpt lat="44.15771" lon="5.75839">
        <ele>738.5</ele>
      </trkpt>
      <trkpt lat="44.1577" lon="5.75809">
        <ele>741.4</ele>
      </trkpt>
      <trkpt lat="44.15772" lon="5.75795">
        <ele>741.7</ele>
      </trkpt>
      <trkpt lat="44.15796" lon="5.7575">
        <ele>737.4</ele>
      </trkpt>
      <trkpt lat="44.15809" lon="5.75736">
        <ele>735.1</ele>
      </trkpt>
      <trkpt lat="44.15819" lon="5.7571">
        <ele>735.7</ele>
      </trkpt>
      <trkpt lat="44.15841" lon="5.75694">
        <ele>730.6</ele>
      </trkpt>
      <trkpt lat="44.15849" lon="5.75683">
        <ele>729.2</ele>
      </trkpt>
      <trkpt lat="44.15855" lon="5.75671">
        <ele>728.5</ele>
      </trkpt>
      <trkpt lat="44.1589" lon="5.75648">
        <ele>721.4</ele>
      </trkpt>
      <trkpt lat="44.15894" lon="5.75642">
        <ele>721.4</ele>
      </trkpt>
      <trkpt lat="44.15897" lon="5.75635">
        <ele>721.8</ele>
      </trkpt>
      <trkpt lat="44.159" lon="5.7562">
        <ele>723.3</ele>
      </trkpt>
      <trkpt lat="44.15903" lon="5.75607">
        <ele>724.4</ele>
      </trkpt>
      <trkpt lat="44.15911" lon="5.75595">
        <ele>723.6</ele>
      </trkpt>
      <trkpt lat="44.15918" lon="5.7556">
        <ele>722</ele>
      </trkpt>
      <trkpt lat="44.15923" lon="5.75539">
        <ele>721.4</ele>
      </trkpt>
      <trkpt lat="44.15926" lon="5.75517">
        <ele>721.9</ele>
      </trkpt>
      <trkpt lat="44.15928" lon="5.75511">
        <ele>722.2</ele>
      </trkpt>
      <trkpt lat="44.15933" lon="5.75509">
        <ele>721.3</ele>
      </trkpt>
      <trkpt lat="44.15939" lon="5.7551">
        <ele>719.8</ele>
      </trkpt>
      <trkpt lat="44.15991" lon="5.75522">
        <ele>710.4</ele>
      </trkpt>
      <trkpt lat="44.16005" lon="5.75515">
        <ele>710.4</ele>
      </trkpt>
      <trkpt lat="44.16034" lon="5.75512">
        <ele>706.7</ele>
      </trkpt>
      <trkpt lat="44.16049" lon="5.75504">
        <ele>706.1</ele>
      </trkpt>
      <trkpt lat="44.16054" lon="5.75507">
        <ele>705.9</ele>
      </trkpt>
      <trkpt lat="44.16107" lon="5.75518">
        <ele>699.9</ele>
      </trkpt>
      <trkpt lat="44.1611" lon="5.75522">
        <ele>699.8</ele>
      </trkpt>
      <trkpt lat="44.1611" lon="5.75522">
        <ele>699.8</ele>
      </trkpt>
      <trkpt lat="44.16111" lon="5.75523">
        <ele>699.7</ele>
      </trkpt>
      <trkpt lat="44.16121" lon="5.7555">
        <ele>698.5</ele>
      </trkpt>
      <trkpt lat="44.16126" lon="5.75554">
        <ele>697.3</ele>
      </trkpt>
      <trkpt lat="44.16131" lon="5.75551">
        <ele>696.1</ele>
      </trkpt>
      <trkpt lat="44.16134" lon="5.75545">
        <ele>695.5</ele>
      </trkpt>
      <trkpt lat="44.16139" lon="5.75524">
        <ele>694.7</ele>
      </trkpt>
      <trkpt lat="44.16137" lon="5.75511">
        <ele>694.1</ele>
      </trkpt>
      <trkpt lat="44.16132" lon="5.75496">
        <ele>694.2</ele>
      </trkpt>
      <trkpt lat="44.16128" lon="5.75491">
        <ele>695</ele>
      </trkpt>
      <trkpt lat="44.16128" lon="5.75483">
        <ele>695</ele>
      </trkpt>
      <trkpt lat="44.16132" lon="5.75478">
        <ele>694.2</ele>
      </trkpt>
      <trkpt lat="44.16147" lon="5.75473">
        <ele>691.8</ele>
      </trkpt>
      <trkpt lat="44.16156" lon="5.75466">
        <ele>690.6</ele>
      </trkpt>
      <trkpt lat="44.16164" lon="5.75456">
        <ele>689.4</ele>
      </trkpt>
      <trkpt lat="44.16179" lon="5.75454">
        <ele>687.2</ele>
      </trkpt>
      <trkpt lat="44.16185" lon="5.75456">
        <ele>686.4</ele>
      </trkpt>
      <trkpt lat="44.16196" lon="5.75448">
        <ele>684.9</ele>
      </trkpt>
      <trkpt lat="44.16205" lon="5.75445">
        <ele>684.2</ele>
      </trkpt>
      <trkpt lat="44.16242" lon="5.75446">
        <ele>682.2</ele>
      </trkpt>
      <trkpt lat="44.16247" lon="5.75442">
        <ele>682.1</ele>
      </trkpt>
      <trkpt lat="44.16251" lon="5.75434">
        <ele>682.1</ele>
      </trkpt>
      <trkpt lat="44.16271" lon="5.75357">
        <ele>681</ele>
      </trkpt>
      <trkpt lat="44.16276" lon="5.75302">
        <ele>677.7</ele>
      </trkpt>
      <trkpt lat="44.16285" lon="5.75268">
        <ele>676.9</ele>
      </trkpt>
      <trkpt lat="44.16288" lon="5.75234">
        <ele>676.2</ele>
      </trkpt>
      <trkpt lat="44.16303" lon="5.75179">
        <ele>669.6</ele>
      </trkpt>
      <trkpt lat="44.16317" lon="5.75154">
        <ele>666.5</ele>
      </trkpt>
      <trkpt lat="44.16339" lon="5.75127">
        <ele>663.2</ele>
      </trkpt>
      <trkpt lat="44.164" lon="5.75093">
        <ele>662.5</ele>
      </trkpt>
      <trkpt lat="44.16426" lon="5.75082">
        <ele>659.5</ele>
      </trkpt>
      <trkpt lat="44.16439" lon="5.75084">
        <ele>660.3</ele>
      </trkpt>
      <trkpt lat="44.16455" lon="5.7509">
        <ele>662</ele>
      </trkpt>
      <trkpt lat="44.16467" lon="5.75088">
        <ele>660.3</ele>
      </trkpt>
      <trkpt lat="44.1648" lon="5.75089">
        <ele>658.7</ele>
      </trkpt>
      <trkpt lat="44.16502" lon="5.75101">
        <ele>658.2</ele>
      </trkpt>
      <trkpt lat="44.16506" lon="5.75098">
        <ele>656.2</ele>
      </trkpt>
      <trkpt lat="44.16506" lon="5.75091">
        <ele>654.1</ele>
      </trkpt>
      <trkpt lat="44.16501" lon="5.75086">
        <ele>653.6</ele>
      </trkpt>
      <trkpt lat="44.16468" lon="5.75072">
        <ele>654.2</ele>
      </trkpt>
      <trkpt lat="44.16438" lon="5.75051">
        <ele>648</ele>
      </trkpt>
      <trkpt lat="44.16414" lon="5.75039">
        <ele>646.9</ele>
      </trkpt>
      <trkpt lat="44.16411" lon="5.75032">
        <ele>646.4</ele>
      </trkpt>
      <trkpt lat="44.16415" lon="5.75022">
        <ele>646.8</ele>
      </trkpt>
      <trkpt lat="44.16435" lon="5.75011">
        <ele>646.1</ele>
      </trkpt>
      <trkpt lat="44.16474" lon="5.74995">
        <ele>643</ele>
      </trkpt>
      <trkpt lat="44.165" lon="5.7498">
        <ele>641.6</ele>
      </trkpt>
      <trkpt lat="44.16509" lon="5.74968">
        <ele>641.9</ele>
      </trkpt>
      <trkpt lat="44.16526" lon="5.7494">
        <ele>642.2</ele>
      </trkpt>
      <trkpt lat="44.16544" lon="5.74875">
        <ele>641.5</ele>
      </trkpt>
      <trkpt lat="44.16568" lon="5.74767">
        <ele>636.2</ele>
      </trkpt>
      <trkpt lat="44.16568" lon="5.74749">
        <ele>634.5</ele>
      </trkpt>
      <trkpt lat="44.16567" lon="5.74736">
        <ele>632.3</ele>
      </trkpt>
      <trkpt lat="44.1657" lon="5.74727">
        <ele>629.2</ele>
      </trkpt>
      <trkpt lat="44.16578" lon="5.74724">
        <ele>625.4</ele>
      </trkpt>
      <trkpt lat="44.16597" lon="5.74724">
        <ele>622.1</ele>
      </trkpt>
      <trkpt lat="44.16611" lon="5.74717">
        <ele>621.2</ele>
      </trkpt>
      <trkpt lat="44.16625" lon="5.74703">
        <ele>620.7</ele>
      </trkpt>
      <trkpt lat="44.16637" lon="5.74671">
        <ele>621</ele>
      </trkpt>
      <trkpt lat="44.16642" lon="5.74664">
        <ele>621.1</ele>
      </trkpt>
      <trkpt lat="44.16644" lon="5.74672">
        <ele>620.6</ele>
      </trkpt>
      <trkpt lat="44.16647" lon="5.74677">
        <ele>620.3</ele>
      </trkpt>
      <trkpt lat="44.16656" lon="5.74685">
        <ele>619.7</ele>
      </trkpt>
      <trkpt lat="44.16669" lon="5.74689">
        <ele>619.3</ele>
      </trkpt>
      <trkpt lat="44.16682" lon="5.74693">
        <ele>619.6</ele>
      </trkpt>
      <trkpt lat="44.16736" lon="5.74697">
        <ele>623</ele>
      </trkpt>
      <trkpt lat="44.168" lon="5.74704">
        <ele>627.7</ele>
      </trkpt>
      <trkpt lat="44.168" lon="5.74704">
        <ele>627.7</ele>
      </trkpt>
      <trkpt lat="44.168" lon="5.74666">
        <ele>628.2</ele>
      </trkpt>
      <trkpt lat="44.16801" lon="5.74652">
        <ele>628.9</ele>
      </trkpt>
      <trkpt lat="44.16816" lon="5.74671">
        <ele>630.3</ele>
      </trkpt>
      <trkpt lat="44.1683" lon="5.74679">
        <ele>631.7</ele>
      </trkpt>
      <trkpt lat="44.16886" lon="5.74703">
        <ele>635.5</ele>
      </trkpt>
      <trkpt lat="44.16916" lon="5.74721">
        <ele>638</ele>
      </trkpt>
      <trkpt lat="44.16993" lon="5.7475">
        <ele>644.3</ele>
      </trkpt>
      <trkpt lat="44.17033" lon="5.74758">
        <ele>645.1</ele>
      </trkpt>
      <trkpt lat="44.17056" lon="5.74759">
        <ele>645.7</ele>
      </trkpt>
      <trkpt lat="44.17085" lon="5.74751">
        <ele>646.9</ele>
      </trkpt>
      <trkpt lat="44.17092" lon="5.74764">
        <ele>646</ele>
      </trkpt>
      <trkpt lat="44.17107" lon="5.74801">
        <ele>643.5</ele>
      </trkpt>
      <trkpt lat="44.17119" lon="5.74851">
        <ele>641.8</ele>
      </trkpt>
      <trkpt lat="44.17114" lon="5.74897">
        <ele>640.6</ele>
      </trkpt>
      <trkpt lat="44.17111" lon="5.74923">
        <ele>639.8</ele>
      </trkpt>
      <trkpt lat="44.17218" lon="5.74867">
        <ele>646.4</ele>
      </trkpt>
      <trkpt lat="44.17262" lon="5.7479">
        <ele>653.9</ele>
      </trkpt>
      <trkpt lat="44.17277" lon="5.74749">
        <ele>657.9</ele>
      </trkpt>
      <trkpt lat="44.17283" lon="5.74742">
        <ele>659.4</ele>
      </trkpt>
      <trkpt lat="44.17284" lon="5.74793">
        <ele>658.7</ele>
      </trkpt>
      <trkpt lat="44.17263" lon="5.74869">
        <ele>656.9</ele>
      </trkpt>
      <trkpt lat="44.17262" lon="5.74888">
        <ele>656.9</ele>
      </trkpt>
      <trkpt lat="44.17269" lon="5.74924">
        <ele>657.6</ele>
      </trkpt>
      <trkpt lat="44.17274" lon="5.74957">
        <ele>654.8</ele>
      </trkpt>
      <trkpt lat="44.17285" lon="5.74982">
        <ele>653.4</ele>
      </trkpt>
      <trkpt lat="44.17312" lon="5.75001">
        <ele>652.1</ele>
      </trkpt>
      <trkpt lat="44.1732" lon="5.7501">
        <ele>651.4</ele>
      </trkpt>
      <trkpt lat="44.17325" lon="5.75032">
        <ele>649.2</ele>
      </trkpt>
      <trkpt lat="44.17383" lon="5.75128">
        <ele>642.7</ele>
      </trkpt>
      <trkpt lat="44.1741" lon="5.75177">
        <ele>640.4</ele>
      </trkpt>
      <trkpt lat="44.17423" lon="5.75185">
        <ele>640.9</ele>
      </trkpt>
      <trkpt lat="44.1743" lon="5.75193">
        <ele>641.4</ele>
      </trkpt>
      <trkpt lat="44.1743" lon="5.75203">
        <ele>642.2</ele>
      </trkpt>
      <trkpt lat="44.17412" lon="5.75247">
        <ele>644</ele>
      </trkpt>
      <trkpt lat="44.17409" lon="5.75273">
        <ele>646.2</ele>
      </trkpt>
      <trkpt lat="44.17412" lon="5.753">
        <ele>648.6</ele>
      </trkpt>
      <trkpt lat="44.17421" lon="5.75341">
        <ele>650.4</ele>
      </trkpt>
      <trkpt lat="44.17435" lon="5.75374">
        <ele>651.5</ele>
      </trkpt>
      <trkpt lat="44.17448" lon="5.75388">
        <ele>652.5</ele>
      </trkpt>
      <trkpt lat="44.17464" lon="5.75396">
        <ele>653.2</ele>
      </trkpt>
      <trkpt lat="44.17487" lon="5.754">
        <ele>654.7</ele>
      </trkpt>
      <trkpt lat="44.17507" lon="5.75411">
        <ele>655.4</ele>
      </trkpt>
      <trkpt lat="44.17517" lon="5.75429">
        <ele>655.2</ele>
      </trkpt>
      <trkpt lat="44.17527" lon="5.75456">
        <ele>655.5</ele>
      </trkpt>
      <trkpt lat="44.17532" lon="5.75487">
        <ele>654.5</ele>
      </trkpt>
      <trkpt lat="44.17541" lon="5.75502">
        <ele>654.2</ele>
      </trkpt>
      <trkpt lat="44.1756" lon="5.75514">
        <ele>655</ele>
      </trkpt>
      <trkpt lat="44.17611" lon="5.75533">
        <ele>659.4</ele>
      </trkpt>
      <trkpt lat="44.17642" lon="5.75556">
        <ele>664.8</ele>
      </trkpt>
      <trkpt lat="44.17653" lon="5.75571">
        <ele>668.1</ele>
      </trkpt>
      <trkpt lat="44.17658" lon="5.75586">
        <ele>669.4</ele>
      </trkpt>
      <trkpt lat="44.17669" lon="5.75614">
        <ele>675.1</ele>
      </trkpt>
      <trkpt lat="44.17663" lon="5.7564">
        <ele>679.5</ele>
      </trkpt>
      <trkpt lat="44.17698" lon="5.75673">
        <ele>690.4</ele>
      </trkpt>
      <trkpt lat="44.17705" lon="5.75691">
        <ele>698.4</ele>
      </trkpt>
      <trkpt lat="44.17699" lon="5.75704">
        <ele>700.9</ele>
      </trkpt>
      <trkpt lat="44.17685" lon="5.7572">
        <ele>702.2</ele>
      </trkpt>
      <trkpt lat="44.17683" lon="5.75759">
        <ele>710.8</ele>
      </trkpt>
      <trkpt lat="44.17678" lon="5.7577">
        <ele>711.9</ele>
      </trkpt>
      <trkpt lat="44.17666" lon="5.75853">
        <ele>722.9</ele>
      </trkpt>
      <trkpt lat="44.17721" lon="5.75909">
        <ele>740.3</ele>
      </trkpt>
      <trkpt lat="44.17737" lon="5.7589">
        <ele>745.3</ele>
      </trkpt>
      <trkpt lat="44.17757" lon="5.7597">
        <ele>749.7</ele>
      </trkpt>
      <trkpt lat="44.17788" lon="5.7604">
        <ele>755.6</ele>
      </trkpt>
      <trkpt lat="44.178" lon="5.76035">
        <ele>760.3</ele>
      </trkpt>
      <trkpt lat="44.17872" lon="5.76093">
        <ele>772.1</ele>
      </trkpt>
      <trkpt lat="44.17869" lon="5.76107">
        <ele>771.3</ele>
      </trkpt>
      <trkpt lat="44.17856" lon="5.76123">
        <ele>766.2</ele>
      </trkpt>
      <trkpt lat="44.17875" lon="5.76155">
        <ele>777.6</ele>
      </trkpt>
      <trkpt lat="44.17872" lon="5.76174">
        <ele>775.3</ele>
      </trkpt>
      <trkpt lat="44.17884" lon="5.76205">
        <ele>785.2</ele>
      </trkpt>
      <trkpt lat="44.17885" lon="5.76255">
        <ele>792.9</ele>
      </trkpt>
      <trkpt lat="44.17877" lon="5.76305">
        <ele>795.2</ele>
      </trkpt>
      <trkpt lat="44.17878" lon="5.7633">
        <ele>801</ele>
      </trkpt>
      <trkpt lat="44.1786" lon="5.7637">
        <ele>798</ele>
      </trkpt>
      <trkpt lat="44.17864" lon="5.76388">
        <ele>799.9</ele>
      </trkpt>
      <trkpt lat="44.17899" lon="5.76429">
        <ele>813</ele>
      </trkpt>
      <trkpt lat="44.17911" lon="5.7645">
        <ele>819</ele>
      </trkpt>
      <trkpt lat="44.17909" lon="5.76466">
        <ele>818.9</ele>
      </trkpt>
      <trkpt lat="44.17923" lon="5.76497">
        <ele>828.6</ele>
      </trkpt>
      <trkpt lat="44.17919" lon="5.7651">
        <ele>826.2</ele>
      </trkpt>
      <trkpt lat="44.17924" lon="5.76518">
        <ele>828.2</ele>
      </trkpt>
      <trkpt lat="44.17924" lon="5.76518">
        <ele>828.2</ele>
      </trkpt>
      <trkpt lat="44.17924" lon="5.7652">
        <ele>828.1</ele>
      </trkpt>
      <trkpt lat="44.1793" lon="5.76531">
        <ele>829.1</ele>
      </trkpt>
      <trkpt lat="44.1795" lon="5.76551">
        <ele>830.6</ele>
      </trkpt>
      <trkpt lat="44.17978" lon="5.76561">
        <ele>838.9</ele>
      </trkpt>
      <trkpt lat="44.18011" lon="5.76593">
        <ele>844.5</ele>
      </trkpt>
      <trkpt lat="44.1804" lon="5.76637">
        <ele>848.6</ele>
      </trkpt>
      <trkpt lat="44.18059" lon="5.76652">
        <ele>854.7</ele>
      </trkpt>
      <trkpt lat="44.18081" lon="5.76676">
        <ele>859</ele>
      </trkpt>
      <trkpt lat="44.18092" lon="5.76705">
        <ele>857.6</ele>
      </trkpt>
      <trkpt lat="44.181" lon="5.76717">
        <ele>858.6</ele>
      </trkpt>
      <trkpt lat="44.18108" lon="5.76725">
        <ele>859.7</ele>
      </trkpt>
      <trkpt lat="44.18135" lon="5.76733">
        <ele>863.3</ele>
      </trkpt>
      <trkpt lat="44.18182" lon="5.7674">
        <ele>867.9</ele>
      </trkpt>
      <trkpt lat="44.18192" lon="5.7674">
        <ele>868.9</ele>
      </trkpt>
      <trkpt lat="44.18197" lon="5.76734">
        <ele>871.1</ele>
      </trkpt>
      <trkpt lat="44.18198" lon="5.76727">
        <ele>872.8</ele>
      </trkpt>
      <trkpt lat="44.18194" lon="5.76722">
        <ele>873</ele>
      </trkpt>
      <trkpt lat="44.18169" lon="5.7672">
        <ele>872.9</ele>
      </trkpt>
      <trkpt lat="44.18152" lon="5.76715">
        <ele>872.6</ele>
      </trkpt>
      <trkpt lat="44.18117" lon="5.76689">
        <ele>874</ele>
      </trkpt>
      <trkpt lat="44.18114" lon="5.76678">
        <ele>875.6</ele>
      </trkpt>
      <trkpt lat="44.18116" lon="5.76669">
        <ele>878.4</ele>
      </trkpt>
      <trkpt lat="44.1812" lon="5.76667">
        <ele>880.4</ele>
      </trkpt>
      <trkpt lat="44.18129" lon="5.76672">
        <ele>882.6</ele>
      </trkpt>
      <trkpt lat="44.18134" lon="5.76684">
        <ele>880.8</ele>
      </trkpt>
      <trkpt lat="44.18145" lon="5.76696">
        <ele>879.1</ele>
      </trkpt>
      <trkpt lat="44.18157" lon="5.76698">
        <ele>879.6</ele>
      </trkpt>
      <trkpt lat="44.18168" lon="5.76693">
        <ele>882.4</ele>
      </trkpt>
      <trkpt lat="44.1818" lon="5.76679">
        <ele>885.5</ele>
      </trkpt>
      <trkpt lat="44.18193" lon="5.76653">
        <ele>889.2</ele>
      </trkpt>
      <trkpt lat="44.1821" lon="5.76628">
        <ele>891.9</ele>
      </trkpt>
      <trkpt lat="44.18222" lon="5.7662">
        <ele>891.7</ele>
      </trkpt>
      <trkpt lat="44.18238" lon="5.76615">
        <ele>892</ele>
      </trkpt>
      <trkpt lat="44.1826" lon="5.76615">
        <ele>892.1</ele>
      </trkpt>
      <trkpt lat="44.18351" lon="5.76635">
        <ele>899.2</ele>
      </trkpt>
      <trkpt lat="44.18367" lon="5.76637">
        <ele>901.6</ele>
      </trkpt>
      <trkpt lat="44.18378" lon="5.76636">
        <ele>902.9</ele>
      </trkpt>
      <trkpt lat="44.18412" lon="5.76627">
        <ele>905.9</ele>
      </trkpt>
      <trkpt lat="44.18425" lon="5.76627">
        <ele>907.6</ele>
      </trkpt>
      <trkpt lat="44.18436" lon="5.7663">
        <ele>909.8</ele>
      </trkpt>
      <trkpt lat="44.18445" lon="5.76627">
        <ele>910.2</ele>
      </trkpt>
      <trkpt lat="44.18467" lon="5.76605">
        <ele>911</ele>
      </trkpt>
      <trkpt lat="44.18479" lon="5.76601">
        <ele>912.6</ele>
      </trkpt>
      <trkpt lat="44.18509" lon="5.76596">
        <ele>916.6</ele>
      </trkpt>
      <trkpt lat="44.18547" lon="5.76597">
        <ele>919.4</ele>
      </trkpt>
      <trkpt lat="44.18587" lon="5.76614">
        <ele>923.5</ele>
      </trkpt>
      <trkpt lat="44.18596" lon="5.76621">
        <ele>924.7</ele>
      </trkpt>
      <trkpt lat="44.18599" lon="5.7663">
        <ele>927</ele>
      </trkpt>
      <trkpt lat="44.186" lon="5.76637">
        <ele>928.9</ele>
      </trkpt>
      <trkpt lat="44.18598" lon="5.76645">
        <ele>930.9</ele>
      </trkpt>
      <trkpt lat="44.1859" lon="5.76655">
        <ele>933.1</ele>
      </trkpt>
      <trkpt lat="44.18584" lon="5.76657">
        <ele>933.3</ele>
      </trkpt>
      <trkpt lat="44.18579" lon="5.76656">
        <ele>933.6</ele>
      </trkpt>
      <trkpt lat="44.18573" lon="5.7665">
        <ele>933</ele>
      </trkpt>
      <trkpt lat="44.18558" lon="5.76629">
        <ele>929.3</ele>
      </trkpt>
      <trkpt lat="44.18551" lon="5.76627">
        <ele>929.4</ele>
      </trkpt>
      <trkpt lat="44.18545" lon="5.7663">
        <ele>930.9</ele>
      </trkpt>
      <trkpt lat="44.18543" lon="5.76635">
        <ele>932.6</ele>
      </trkpt>
      <trkpt lat="44.18544" lon="5.76642">
        <ele>934.5</ele>
      </trkpt>
      <trkpt lat="44.18561" lon="5.76655">
        <ele>935.4</ele>
      </trkpt>
      <trkpt lat="44.1857" lon="5.76671">
        <ele>938.2</ele>
      </trkpt>
      <trkpt lat="44.18582" lon="5.76675">
        <ele>937.9</ele>
      </trkpt>
      <trkpt lat="44.18593" lon="5.76675">
        <ele>938.3</ele>
      </trkpt>
      <trkpt lat="44.18606" lon="5.76672">
        <ele>938.2</ele>
      </trkpt>
      <trkpt lat="44.18621" lon="5.76675">
        <ele>938.9</ele>
      </trkpt>
      <trkpt lat="44.18643" lon="5.76694">
        <ele>943</ele>
      </trkpt>
      <trkpt lat="44.18651" lon="5.76697">
        <ele>944.1</ele>
      </trkpt>
      <trkpt lat="44.1866" lon="5.76693">
        <ele>943.5</ele>
      </trkpt>
      <trkpt lat="44.18671" lon="5.76682">
        <ele>943.1</ele>
      </trkpt>
      <trkpt lat="44.18692" lon="5.76675">
        <ele>946</ele>
      </trkpt>
      <trkpt lat="44.18701" lon="5.76665">
        <ele>946.2</ele>
      </trkpt>
      <trkpt lat="44.18707" lon="5.76649">
        <ele>945.7</ele>
      </trkpt>
      <trkpt lat="44.18712" lon="5.7664">
        <ele>946.2</ele>
      </trkpt>
      <trkpt lat="44.18719" lon="5.76638">
        <ele>947.9</ele>
      </trkpt>
      <trkpt lat="44.18725" lon="5.76642">
        <ele>950</ele>
      </trkpt>
      <trkpt lat="44.18726" lon="5.76657">
        <ele>951.6</ele>
      </trkpt>
      <trkpt lat="44.18723" lon="5.76667">
        <ele>951.3</ele>
      </trkpt>
      <trkpt lat="44.18712" lon="5.76696">
        <ele>953.5</ele>
      </trkpt>
      <trkpt lat="44.18704" lon="5.76708">
        <ele>954.5</ele>
      </trkpt>
      <trkpt lat="44.18693" lon="5.76718">
        <ele>954.8</ele>
      </trkpt>
      <trkpt lat="44.18689" lon="5.76726">
        <ele>955.3</ele>
      </trkpt>
      <trkpt lat="44.18688" lon="5.76731">
        <ele>955.6</ele>
      </trkpt>
      <trkpt lat="44.18696" lon="5.76783">
        <ele>961.8</ele>
      </trkpt>
      <trkpt lat="44.18696" lon="5.76797">
        <ele>962.8</ele>
      </trkpt>
      <trkpt lat="44.1869" lon="5.76807">
        <ele>963</ele>
      </trkpt>
      <trkpt lat="44.18683" lon="5.76815">
        <ele>963.7</ele>
      </trkpt>
      <trkpt lat="44.18678" lon="5.76826">
        <ele>965.1</ele>
      </trkpt>
      <trkpt lat="44.18676" lon="5.76836">
        <ele>966.2</ele>
      </trkpt>
      <trkpt lat="44.18679" lon="5.76843">
        <ele>966.8</ele>
      </trkpt>
      <trkpt lat="44.18687" lon="5.76845">
        <ele>967.3</ele>
      </trkpt>
      <trkpt lat="44.18712" lon="5.76814">
        <ele>968.5</ele>
      </trkpt>
      <trkpt lat="44.18722" lon="5.76796">
        <ele>969.3</ele>
      </trkpt>
      <trkpt lat="44.18733" lon="5.7678">
        <ele>971.3</ele>
      </trkpt>
      <trkpt lat="44.18752" lon="5.76762">
        <ele>974.2</ele>
      </trkpt>
      <trkpt lat="44.18759" lon="5.76749">
        <ele>974.2</ele>
      </trkpt>
      <trkpt lat="44.18766" lon="5.76731">
        <ele>974</ele>
      </trkpt>
      <trkpt lat="44.18773" lon="5.76727">
        <ele>975.3</ele>
      </trkpt>
      <trkpt lat="44.18779" lon="5.76731">
        <ele>977.3</ele>
      </trkpt>
      <trkpt lat="44.18781" lon="5.76742">
        <ele>979.1</ele>
      </trkpt>
      <trkpt lat="44.18761" lon="5.76775">
        <ele>978.4</ele>
      </trkpt>
      <trkpt lat="44.18756" lon="5.76791">
        <ele>979.5</ele>
      </trkpt>
      <trkpt lat="44.18754" lon="5.76832">
        <ele>983.9</ele>
      </trkpt>
      <trkpt lat="44.18755" lon="5.76848">
        <ele>985.1</ele>
      </trkpt>
      <trkpt lat="44.18761" lon="5.76874">
        <ele>989.2</ele>
      </trkpt>
      <trkpt lat="44.18761" lon="5.76884">
        <ele>990.1</ele>
      </trkpt>
      <trkpt lat="44.18753" lon="5.76906">
        <ele>989.9</ele>
      </trkpt>
      <trkpt lat="44.18746" lon="5.76951">
        <ele>992.2</ele>
      </trkpt>
      <trkpt lat="44.18744" lon="5.76982">
        <ele>996.2</ele>
      </trkpt>
      <trkpt lat="44.18739" lon="5.76998">
        <ele>997.1</ele>
      </trkpt>
      <trkpt lat="44.187" lon="5.7708">
        <ele>1003.2</ele>
      </trkpt>
      <trkpt lat="44.1869" lon="5.77111">
        <ele>1004.5</ele>
      </trkpt>
      <trkpt lat="44.18686" lon="5.77189">
        <ele>1010.9</ele>
      </trkpt>
      <trkpt lat="44.18682" lon="5.77221">
        <ele>1013.8</ele>
      </trkpt>
      <trkpt lat="44.18678" lon="5.7724">
        <ele>1016.1</ele>
      </trkpt>
      <trkpt lat="44.18667" lon="5.77249">
        <ele>1015.8</ele>
      </trkpt>
      <trkpt lat="44.1862" lon="5.77265">
        <ele>1019.5</ele>
      </trkpt>
      <trkpt lat="44.18616" lon="5.77281">
        <ele>1021.3</ele>
      </trkpt>
      <trkpt lat="44.18616" lon="5.77315">
        <ele>1024.4</ele>
      </trkpt>
      <trkpt lat="44.18611" lon="5.77337">
        <ele>1024.2</ele>
      </trkpt>
      <trkpt lat="44.18597" lon="5.77354">
        <ele>1022.5</ele>
      </trkpt>
      <trkpt lat="44.18593" lon="5.7737">
        <ele>1021.6</ele>
      </trkpt>
      <trkpt lat="44.18597" lon="5.7739">
        <ele>1023.4</ele>
      </trkpt>
      <trkpt lat="44.18613" lon="5.77433">
        <ele>1028.8</ele>
      </trkpt>
      <trkpt lat="44.18619" lon="5.77453">
        <ele>1030.9</ele>
      </trkpt>
      <trkpt lat="44.18634" lon="5.77561">
        <ele>1037.1</ele>
      </trkpt>
      <trkpt lat="44.18632" lon="5.77617">
        <ele>1039.7</ele>
      </trkpt>
      <trkpt lat="44.18625" lon="5.7767">
        <ele>1042.9</ele>
      </trkpt>
      <trkpt lat="44.18626" lon="5.77711">
        <ele>1049.1</ele>
      </trkpt>
      <trkpt lat="44.18612" lon="5.77753">
        <ele>1048.8</ele>
      </trkpt>
      <trkpt lat="44.18612" lon="5.77772">
        <ele>1050.8</ele>
      </trkpt>
      <trkpt lat="44.18605" lon="5.77834">
        <ele>1053.1</ele>
      </trkpt>
      <trkpt lat="44.18606" lon="5.77845">
        <ele>1054.1</ele>
      </trkpt>
      <trkpt lat="44.18611" lon="5.77849">
        <ele>1056.1</ele>
      </trkpt>
      <trkpt lat="44.18604" lon="5.77868">
        <ele>1055.7</ele>
      </trkpt>
      <trkpt lat="44.18565" lon="5.77911">
        <ele>1048.5</ele>
      </trkpt>
      <trkpt lat="44.18546" lon="5.77968">
        <ele>1046.3</ele>
      </trkpt>
      <trkpt lat="44.18527" lon="5.77957">
        <ele>1035.4</ele>
      </trkpt>
      <trkpt lat="44.18476" lon="5.77982">
        <ele>1022.5</ele>
      </trkpt>
      <trkpt lat="44.18456" lon="5.78">
        <ele>1021.1</ele>
      </trkpt>
      <trkpt lat="44.1844" lon="5.78">
        <ele>1018.2</ele>
      </trkpt>
      <trkpt lat="44.18407" lon="5.78032">
        <ele>1014.4</ele>
      </trkpt>
      <trkpt lat="44.18381" lon="5.78058">
        <ele>1010.4</ele>
      </trkpt>
      <trkpt lat="44.1835" lon="5.78112">
        <ele>1001.8</ele>
      </trkpt>
      <trkpt lat="44.18325" lon="5.78139">
        <ele>995.2</ele>
      </trkpt>
      <trkpt lat="44.18301" lon="5.78225">
        <ele>985.9</ele>
      </trkpt>
      <trkpt lat="44.18295" lon="5.78241">
        <ele>983.3</ele>
      </trkpt>
      <trkpt lat="44.18296" lon="5.78267">
        <ele>980.4</ele>
      </trkpt>
      <trkpt lat="44.18304" lon="5.78288">
        <ele>978.4</ele>
      </trkpt>
      <trkpt lat="44.18319" lon="5.78349">
        <ele>972.1</ele>
      </trkpt>
      <trkpt lat="44.18326" lon="5.78391">
        <ele>966.5</ele>
      </trkpt>
      <trkpt lat="44.18307" lon="5.78415">
        <ele>959.5</ele>
      </trkpt>
      <trkpt lat="44.18332" lon="5.78513">
        <ele>948.5</ele>
      </trkpt>
      <trkpt lat="44.18349" lon="5.78531">
        <ele>946</ele>
      </trkpt>
      <trkpt lat="44.18342" lon="5.78576">
        <ele>938.6</ele>
      </trkpt>
      <trkpt lat="44.18322" lon="5.78631">
        <ele>933.1</ele>
      </trkpt>
      <trkpt lat="44.18329" lon="5.78651">
        <ele>931.3</ele>
      </trkpt>
      <trkpt lat="44.18331" lon="5.78677">
        <ele>929.3</ele>
      </trkpt>
      <trkpt lat="44.18322" lon="5.78711">
        <ele>925.9</ele>
      </trkpt>
      <trkpt lat="44.18304" lon="5.7874">
        <ele>923</ele>
      </trkpt>
      <trkpt lat="44.18309" lon="5.78754">
        <ele>921.3</ele>
      </trkpt>
      <trkpt lat="44.1833" lon="5.78745">
        <ele>920.9</ele>
      </trkpt>
      <trkpt lat="44.18365" lon="5.78725">
        <ele>917.8</ele>
      </trkpt>
      <trkpt lat="44.18403" lon="5.78716">
        <ele>911.9</ele>
      </trkpt>
      <trkpt lat="44.18491" lon="5.78741">
        <ele>904.9</ele>
      </trkpt>
      <trkpt lat="44.18505" lon="5.78749">
        <ele>905.4</ele>
      </trkpt>
      <trkpt lat="44.18557" lon="5.7878">
        <ele>901.4</ele>
      </trkpt>
      <trkpt lat="44.18578" lon="5.78805">
        <ele>896.1</ele>
      </trkpt>
      <trkpt lat="44.18602" lon="5.78839">
        <ele>891.6</ele>
      </trkpt>
      <trkpt lat="44.18615" lon="5.78868">
        <ele>888.5</ele>
      </trkpt>
      <trkpt lat="44.18626" lon="5.78875">
        <ele>889.1</ele>
      </trkpt>
      <trkpt lat="44.18651" lon="5.78947">
        <ele>883.8</ele>
      </trkpt>
      <trkpt lat="44.18653" lon="5.78974">
        <ele>881.4</ele>
      </trkpt>
      <trkpt lat="44.18648" lon="5.79015">
        <ele>877.6</ele>
      </trkpt>
      <trkpt lat="44.18649" lon="5.79046">
        <ele>875.5</ele>
      </trkpt>
      <trkpt lat="44.18688" lon="5.79068">
        <ele>877.1</ele>
      </trkpt>
      <trkpt lat="44.1871" lon="5.79097">
        <ele>875.6</ele>
      </trkpt>
      <trkpt lat="44.18722" lon="5.79141">
        <ele>871.7</ele>
      </trkpt>
      <trkpt lat="44.18753" lon="5.79164">
        <ele>868.4</ele>
      </trkpt>
      <trkpt lat="44.1878" lon="5.7916">
        <ele>868.8</ele>
      </trkpt>
      <trkpt lat="44.18783" lon="5.79168">
        <ele>868.4</ele>
      </trkpt>
      <trkpt lat="44.18778" lon="5.79177">
        <ele>868.6</ele>
      </trkpt>
      <trkpt lat="44.18753" lon="5.79194">
        <ele>865.7</ele>
      </trkpt>
      <trkpt lat="44.18721" lon="5.7924">
        <ele>861.8</ele>
      </trkpt>
      <trkpt lat="44.18697" lon="5.79281">
        <ele>856.4</ele>
      </trkpt>
      <trkpt lat="44.18688" lon="5.79295">
        <ele>853.7</ele>
      </trkpt>
      <trkpt lat="44.18682" lon="5.79309">
        <ele>851.5</ele>
      </trkpt>
      <trkpt lat="44.18662" lon="5.7934">
        <ele>845.1</ele>
      </trkpt>
      <trkpt lat="44.18643" lon="5.79376">
        <ele>839.5</ele>
      </trkpt>
      <trkpt lat="44.18632" lon="5.79386">
        <ele>836.6</ele>
      </trkpt>
      <trkpt lat="44.18624" lon="5.79396">
        <ele>834.6</ele>
      </trkpt>
      <trkpt lat="44.18621" lon="5.79407">
        <ele>833.7</ele>
      </trkpt>
      <trkpt lat="44.18617" lon="5.79482">
        <ele>828.4</ele>
      </trkpt>
      <trkpt lat="44.1857" lon="5.79529">
        <ele>820.5</ele>
      </trkpt>
      <trkpt lat="44.18564" lon="5.7953">
        <ele>819.8</ele>
      </trkpt>
      <trkpt lat="44.18555" lon="5.79519">
        <ele>819.3</ele>
      </trkpt>
      <trkpt lat="44.18552" lon="5.79501">
        <ele>819.8</ele>
      </trkpt>
      <trkpt lat="44.18545" lon="5.79494">
        <ele>820.2</ele>
      </trkpt>
      <trkpt lat="44.18533" lon="5.79505">
        <ele>818.9</ele>
      </trkpt>
      <trkpt lat="44.18526" lon="5.79531">
        <ele>816.9</ele>
      </trkpt>
      <trkpt lat="44.18525" lon="5.7955">
        <ele>816.8</ele>
      </trkpt>
      <trkpt lat="44.18532" lon="5.79703">
        <ele>816.6</ele>
      </trkpt>
      <trkpt lat="44.18537" lon="5.7974">
        <ele>817.7</ele>
      </trkpt>
      <trkpt lat="44.18546" lon="5.79773">
        <ele>815.9</ele>
      </trkpt>
      <trkpt lat="44.18548" lon="5.79787">
        <ele>815.1</ele>
      </trkpt>
      <trkpt lat="44.18548" lon="5.79814">
        <ele>813.5</ele>
      </trkpt>
      <trkpt lat="44.18545" lon="5.79842">
        <ele>812.1</ele>
      </trkpt>
      <trkpt lat="44.18538" lon="5.79882">
        <ele>811.3</ele>
      </trkpt>
      <trkpt lat="44.18525" lon="5.79914">
        <ele>810.7</ele>
      </trkpt>
      <trkpt lat="44.18516" lon="5.79923">
        <ele>810.7</ele>
      </trkpt>
      <trkpt lat="44.18509" lon="5.79928">
        <ele>810.7</ele>
      </trkpt>
      <trkpt lat="44.18507" lon="5.7993">
        <ele>810.8</ele>
      </trkpt>
      <trkpt lat="44.185" lon="5.79934">
        <ele>810.9</ele>
      </trkpt>
      <trkpt lat="44.18492" lon="5.79946">
        <ele>811.3</ele>
      </trkpt>
      <trkpt lat="44.18499" lon="5.79998">
        <ele>817.6</ele>
      </trkpt>
      <trkpt lat="44.18511" lon="5.80059">
        <ele>822.6</ele>
      </trkpt>
      <trkpt lat="44.18511" lon="5.80087">
        <ele>822.5</ele>
      </trkpt>
      <trkpt lat="44.18515" lon="5.80106">
        <ele>824.1</ele>
      </trkpt>
      <trkpt lat="44.18521" lon="5.8012">
        <ele>826.3</ele>
      </trkpt>
      <trkpt lat="44.18531" lon="5.80137">
        <ele>829.2</ele>
      </trkpt>
      <trkpt lat="44.18541" lon="5.8016">
        <ele>831.1</ele>
      </trkpt>
      <trkpt lat="44.18549" lon="5.80195">
        <ele>834.1</ele>
      </trkpt>
      <trkpt lat="44.18559" lon="5.80208">
        <ele>836</ele>
      </trkpt>
      <trkpt lat="44.18573" lon="5.8022">
        <ele>836.8</ele>
      </trkpt>
      <trkpt lat="44.18591" lon="5.80242">
        <ele>839.3</ele>
      </trkpt>
      <trkpt lat="44.18599" lon="5.80252">
        <ele>840.1</ele>
      </trkpt>
      <trkpt lat="44.18605" lon="5.80265">
        <ele>841.1</ele>
      </trkpt>
      <trkpt lat="44.18617" lon="5.80281">
        <ele>842.9</ele>
      </trkpt>
      <trkpt lat="44.18638" lon="5.80299">
        <ele>845.9</ele>
      </trkpt>
      <trkpt lat="44.18653" lon="5.80316">
        <ele>848.5</ele>
      </trkpt>
      <trkpt lat="44.18664" lon="5.80336">
        <ele>850.6</ele>
      </trkpt>
      <trkpt lat="44.1867" lon="5.80389">
        <ele>853.6</ele>
      </trkpt>
      <trkpt lat="44.18668" lon="5.8041">
        <ele>854</ele>
      </trkpt>
      <trkpt lat="44.1867" lon="5.80428">
        <ele>855</ele>
      </trkpt>
      <trkpt lat="44.18696" lon="5.80492">
        <ele>861</ele>
      </trkpt>
      <trkpt lat="44.18704" lon="5.80502">
        <ele>863.3</ele>
      </trkpt>
      <trkpt lat="44.187" lon="5.80506">
        <ele>862.8</ele>
      </trkpt>
      <trkpt lat="44.18698" lon="5.80511">
        <ele>863</ele>
      </trkpt>
      <trkpt lat="44.18699" lon="5.80519">
        <ele>864</ele>
      </trkpt>
      <trkpt lat="44.18712" lon="5.80536">
        <ele>869</ele>
      </trkpt>
      <trkpt lat="44.18713" lon="5.80546">
        <ele>870.6</ele>
      </trkpt>
      <trkpt lat="44.18711" lon="5.80571">
        <ele>874.1</ele>
      </trkpt>
      <trkpt lat="44.18711" lon="5.80583">
        <ele>876.1</ele>
      </trkpt>
      <trkpt lat="44.18716" lon="5.80605">
        <ele>880.2</ele>
      </trkpt>
      <trkpt lat="44.18719" lon="5.80617">
        <ele>882</ele>
      </trkpt>
      <trkpt lat="44.18727" lon="5.80623">
        <ele>884.4</ele>
      </trkpt>
      <trkpt lat="44.18733" lon="5.80637">
        <ele>886.4</ele>
      </trkpt>
      <trkpt lat="44.18745" lon="5.80655">
        <ele>891</ele>
      </trkpt>
      <trkpt lat="44.18754" lon="5.8068">
        <ele>894.8</ele>
      </trkpt>
      <trkpt lat="44.18755" lon="5.80699">
        <ele>895.9</ele>
      </trkpt>
      <trkpt lat="44.18758" lon="5.80715">
        <ele>897.6</ele>
      </trkpt>
      <trkpt lat="44.18763" lon="5.80729">
        <ele>900.2</ele>
      </trkpt>
      <trkpt lat="44.18763" lon="5.80741">
        <ele>901.8</ele>
      </trkpt>
      <trkpt lat="44.18752" lon="5.80749">
        <ele>901.9</ele>
      </trkpt>
      <trkpt lat="44.18722" lon="5.80761">
        <ele>905</ele>
      </trkpt>
      <trkpt lat="44.18692" lon="5.80779">
        <ele>911.3</ele>
      </trkpt>
      <trkpt lat="44.18668" lon="5.80798">
        <ele>915.9</ele>
      </trkpt>
      <trkpt lat="44.18658" lon="5.80805">
        <ele>917.5</ele>
      </trkpt>
      <trkpt lat="44.18647" lon="5.80809">
        <ele>917.9</ele>
      </trkpt>
      <trkpt lat="44.18636" lon="5.80818">
        <ele>919.3</ele>
      </trkpt>
      <trkpt lat="44.18623" lon="5.80835">
        <ele>922.6</ele>
      </trkpt>
      <trkpt lat="44.18627" lon="5.80845">
        <ele>922.4</ele>
      </trkpt>
      <trkpt lat="44.18636" lon="5.80853">
        <ele>922.1</ele>
      </trkpt>
      <trkpt lat="44.18648" lon="5.80871">
        <ele>921.9</ele>
      </trkpt>
      <trkpt lat="44.18655" lon="5.80885">
        <ele>921.4</ele>
      </trkpt>
      <trkpt lat="44.18658" lon="5.80925">
        <ele>918.8</ele>
      </trkpt>
      <trkpt lat="44.18662" lon="5.80955">
        <ele>916.9</ele>
      </trkpt>
      <trkpt lat="44.18663" lon="5.80994">
        <ele>914.2</ele>
      </trkpt>
      <trkpt lat="44.18671" lon="5.81035">
        <ele>911.8</ele>
      </trkpt>
      <trkpt lat="44.18693" lon="5.81083">
        <ele>909.9</ele>
      </trkpt>
      <trkpt lat="44.18709" lon="5.81097">
        <ele>910.9</ele>
      </trkpt>
      <trkpt lat="44.18722" lon="5.81117">
        <ele>910.6</ele>
      </trkpt>
      <trkpt lat="44.18727" lon="5.81141">
        <ele>909.5</ele>
      </trkpt>
      <trkpt lat="44.18726" lon="5.81177">
        <ele>906.8</ele>
      </trkpt>
      <trkpt lat="44.18732" lon="5.81209">
        <ele>905</ele>
      </trkpt>
      <trkpt lat="44.18743" lon="5.81239">
        <ele>903.6</ele>
      </trkpt>
      <trkpt lat="44.18744" lon="5.81258">
        <ele>901.8</ele>
      </trkpt>
      <trkpt lat="44.18743" lon="5.81321">
        <ele>895.5</ele>
      </trkpt>
      <trkpt lat="44.18752" lon="5.81354">
        <ele>893.4</ele>
      </trkpt>
      <trkpt lat="44.18759" lon="5.81392">
        <ele>888.7</ele>
      </trkpt>
      <trkpt lat="44.18763" lon="5.81422">
        <ele>884.1</ele>
      </trkpt>
      <trkpt lat="44.18769" lon="5.81447">
        <ele>880.3</ele>
      </trkpt>
      <trkpt lat="44.18783" lon="5.81476">
        <ele>878.2</ele>
      </trkpt>
      <trkpt lat="44.18791" lon="5.81499">
        <ele>875.5</ele>
      </trkpt>
      <trkpt lat="44.1879" lon="5.81521">
        <ele>872.1</ele>
      </trkpt>
      <trkpt lat="44.18791" lon="5.81551">
        <ele>868.8</ele>
      </trkpt>
      <trkpt lat="44.18786" lon="5.81569">
        <ele>865.6</ele>
      </trkpt>
      <trkpt lat="44.18777" lon="5.81586">
        <ele>861.5</ele>
      </trkpt>
      <trkpt lat="44.18769" lon="5.81599">
        <ele>858.4</ele>
      </trkpt>
      <trkpt lat="44.18763" lon="5.81623">
        <ele>854.3</ele>
      </trkpt>
      <trkpt lat="44.18772" lon="5.81666">
        <ele>850.1</ele>
      </trkpt>
      <trkpt lat="44.18787" lon="5.81698">
        <ele>846.7</ele>
      </trkpt>
      <trkpt lat="44.18786" lon="5.81718">
        <ele>843.2</ele>
      </trkpt>
      <trkpt lat="44.18788" lon="5.8175">
        <ele>838.1</ele>
      </trkpt>
      <trkpt lat="44.18793" lon="5.81779">
        <ele>834.1</ele>
      </trkpt>
      <trkpt lat="44.18799" lon="5.81789">
        <ele>834.6</ele>
      </trkpt>
      <trkpt lat="44.18791" lon="5.81843">
        <ele>832.8</ele>
      </trkpt>
      <trkpt lat="44.18789" lon="5.81876">
        <ele>831.5</ele>
      </trkpt>
      <trkpt lat="44.18795" lon="5.81923">
        <ele>830.9</ele>
      </trkpt>
      <trkpt lat="44.18799" lon="5.81999">
        <ele>828.7</ele>
      </trkpt>
      <trkpt lat="44.18809" lon="5.82057">
        <ele>829.4</ele>
      </trkpt>
      <trkpt lat="44.18819" lon="5.82134">
        <ele>834.5</ele>
      </trkpt>
      <trkpt lat="44.18825" lon="5.82162">
        <ele>835.4</ele>
      </trkpt>
      <trkpt lat="44.18829" lon="5.822">
        <ele>833.5</ele>
      </trkpt>
      <trkpt lat="44.18836" lon="5.8224">
        <ele>832.8</ele>
      </trkpt>
      <trkpt lat="44.18844" lon="5.82265">
        <ele>833.9</ele>
      </trkpt>
      <trkpt lat="44.18849" lon="5.82307">
        <ele>835.6</ele>
      </trkpt>
      <trkpt lat="44.18858" lon="5.82345">
        <ele>838</ele>
      </trkpt>
      <trkpt lat="44.1887" lon="5.8238">
        <ele>840.4</ele>
      </trkpt>
      <trkpt lat="44.18879" lon="5.82414">
        <ele>844</ele>
      </trkpt>
      <trkpt lat="44.18887" lon="5.82473">
        <ele>850.7</ele>
      </trkpt>
      <trkpt lat="44.18892" lon="5.82487">
        <ele>853.9</ele>
      </trkpt>
      <trkpt lat="44.18892" lon="5.82497">
        <ele>855.2</ele>
      </trkpt>
      <trkpt lat="44.18881" lon="5.82506">
        <ele>855.1</ele>
      </trkpt>
      <trkpt lat="44.18865" lon="5.82566">
        <ele>860.7</ele>
      </trkpt>
      <trkpt lat="44.18859" lon="5.826">
        <ele>864.8</ele>
      </trkpt>
      <trkpt lat="44.18848" lon="5.82633">
        <ele>868.8</ele>
      </trkpt>
      <trkpt lat="44.1884" lon="5.82648">
        <ele>870.4</ele>
      </trkpt>
      <trkpt lat="44.1881" lon="5.82677">
        <ele>874.5</ele>
      </trkpt>
      <trkpt lat="44.18797" lon="5.82684">
        <ele>874.5</ele>
      </trkpt>
      <trkpt lat="44.18776" lon="5.82698">
        <ele>876.1</ele>
      </trkpt>
      <trkpt lat="44.1876" lon="5.82699">
        <ele>874.1</ele>
      </trkpt>
      <trkpt lat="44.18732" lon="5.82696">
        <ele>868.4</ele>
      </trkpt>
      <trkpt lat="44.18705" lon="5.82704">
        <ele>865.2</ele>
      </trkpt>
      <trkpt lat="44.1866" lon="5.8273">
        <ele>860.2</ele>
      </trkpt>
      <trkpt lat="44.18636" lon="5.82736">
        <ele>855.9</ele>
      </trkpt>
      <trkpt lat="44.18621" lon="5.82751">
        <ele>855.3</ele>
      </trkpt>
      <trkpt lat="44.18605" lon="5.82758">
        <ele>853.2</ele>
      </trkpt>
      <trkpt lat="44.18609" lon="5.8276">
        <ele>854.1</ele>
      </trkpt>
      <trkpt lat="44.18609" lon="5.8276">
        <ele>854.1</ele>
      </trkpt>
      <trkpt lat="44.18605" lon="5.82758">
        <ele>853.2</ele>
      </trkpt>
      <trkpt lat="44.1857" lon="5.82751">
        <ele>847.2</ele>
      </trkpt>
      <trkpt lat="44.18462" lon="5.82789">
        <ele>832.3</ele>
      </trkpt>
      <trkpt lat="44.18454" lon="5.82784">
        <ele>830.9</ele>
      </trkpt>
      <trkpt lat="44.18317" lon="5.8277">
        <ele>806</ele>
      </trkpt>
      <trkpt lat="44.18264" lon="5.82765">
        <ele>795.7</ele>
      </trkpt>
      <trkpt lat="44.18173" lon="5.82766">
        <ele>778.9</ele>
      </trkpt>
      <trkpt lat="44.181" lon="5.82782">
        <ele>765.6</ele>
      </trkpt>
      <trkpt lat="44.1806" lon="5.82824">
        <ele>759.3</ele>
      </trkpt>
      <trkpt lat="44.18045" lon="5.82832">
        <ele>756.6</ele>
      </trkpt>
      <trkpt lat="44.17973" lon="5.82888">
        <ele>747</ele>
      </trkpt>
      <trkpt lat="44.17935" lon="5.82905">
        <ele>741.5</ele>
      </trkpt>
      <trkpt lat="44.1785" lon="5.82891">
        <ele>729.8</ele>
      </trkpt>
      <trkpt lat="44.17755" lon="5.82892">
        <ele>715.6</ele>
      </trkpt>
      <trkpt lat="44.17607" lon="5.82873">
        <ele>694.4</ele>
      </trkpt>
      <trkpt lat="44.17564" lon="5.82858">
        <ele>687.7</ele>
      </trkpt>
      <trkpt lat="44.17512" lon="5.82865">
        <ele>680.1</ele>
      </trkpt>
      <trkpt lat="44.17367" lon="5.82911">
        <ele>652.1</ele>
      </trkpt>
      <trkpt lat="44.17352" lon="5.82924">
        <ele>648.3</ele>
      </trkpt>
      <trkpt lat="44.1733" lon="5.82916">
        <ele>644.1</ele>
      </trkpt>
      <trkpt lat="44.1729" lon="5.82938">
        <ele>634.6</ele>
      </trkpt>
      <trkpt lat="44.1728" lon="5.82928">
        <ele>632.5</ele>
      </trkpt>
      <trkpt lat="44.17258" lon="5.82931">
        <ele>628.4</ele>
      </trkpt>
      <trkpt lat="44.17247" lon="5.82938">
        <ele>626.5</ele>
      </trkpt>
      <trkpt lat="44.1724" lon="5.82947">
        <ele>625.1</ele>
      </trkpt>
      <trkpt lat="44.17229" lon="5.82949">
        <ele>623.1</ele>
      </trkpt>
      <trkpt lat="44.17225" lon="5.8296">
        <ele>622.4</ele>
      </trkpt>
      <trkpt lat="44.17214" lon="5.82956">
        <ele>620.5</ele>
      </trkpt>
      <trkpt lat="44.1721" lon="5.82964">
        <ele>619.8</ele>
      </trkpt>
      <trkpt lat="44.17204" lon="5.82953">
        <ele>618.7</ele>
      </trkpt>
      <trkpt lat="44.17202" lon="5.82917">
        <ele>618.4</ele>
      </trkpt>
      <trkpt lat="44.17192" lon="5.82891">
        <ele>617.6</ele>
      </trkpt>
      <trkpt lat="44.17156" lon="5.82869">
        <ele>613.5</ele>
      </trkpt>
      <trkpt lat="44.17138" lon="5.8287">
        <ele>610.2</ele>
      </trkpt>
      <trkpt lat="44.17121" lon="5.82875">
        <ele>606.5</ele>
      </trkpt>
      <trkpt lat="44.17094" lon="5.82867">
        <ele>601.7</ele>
      </trkpt>
      <trkpt lat="44.17088" lon="5.82878">
        <ele>599.2</ele>
      </trkpt>
      <trkpt lat="44.17081" lon="5.82886">
        <ele>596.8</ele>
      </trkpt>
      <trkpt lat="44.17075" lon="5.82883">
        <ele>595.9</ele>
      </trkpt>
      <trkpt lat="44.17058" lon="5.8289">
        <ele>591.5</ele>
      </trkpt>
      <trkpt lat="44.17053" lon="5.82911">
        <ele>590.4</ele>
      </trkpt>
      <trkpt lat="44.17045" lon="5.82919">
        <ele>589</ele>
      </trkpt>
      <trkpt lat="44.17033" lon="5.82899">
        <ele>586.1</ele>
      </trkpt>
      <trkpt lat="44.17025" lon="5.82896">
        <ele>584.5</ele>
      </trkpt>
      <trkpt lat="44.17004" lon="5.82896">
        <ele>580.7</ele>
      </trkpt>
      <trkpt lat="44.16989" lon="5.82886">
        <ele>578.8</ele>
      </trkpt>
      <trkpt lat="44.16976" lon="5.8289">
        <ele>575.7</ele>
      </trkpt>
      <trkpt lat="44.16955" lon="5.82887">
        <ele>573</ele>
      </trkpt>
      <trkpt lat="44.16921" lon="5.82875">
        <ele>569</ele>
      </trkpt>
      <trkpt lat="44.16914" lon="5.82885">
        <ele>566.1</ele>
      </trkpt>
      <trkpt lat="44.16907" lon="5.82887">
        <ele>564.8</ele>
      </trkpt>
      <trkpt lat="44.16896" lon="5.82896">
        <ele>562.8</ele>
      </trkpt>
      <trkpt lat="44.16887" lon="5.82896">
        <ele>561.5</ele>
      </trkpt>
      <trkpt lat="44.16884" lon="5.82891">
        <ele>561.2</ele>
      </trkpt>
      <trkpt lat="44.16874" lon="5.82889">
        <ele>559.9</ele>
      </trkpt>
      <trkpt lat="44.1687" lon="5.82891">
        <ele>559.2</ele>
      </trkpt>
      <trkpt lat="44.16864" lon="5.829">
        <ele>558</ele>
      </trkpt>
      <trkpt lat="44.16851" lon="5.82917">
        <ele>555.9</ele>
      </trkpt>
      <trkpt lat="44.16845" lon="5.8292">
        <ele>555.3</ele>
      </trkpt>
      <trkpt lat="44.16844" lon="5.82914">
        <ele>555.2</ele>
      </trkpt>
      <trkpt lat="44.16843" lon="5.8291">
        <ele>555.1</ele>
      </trkpt>
      <trkpt lat="44.16843" lon="5.82906">
        <ele>555.2</ele>
      </trkpt>
      <trkpt lat="44.1684" lon="5.82888">
        <ele>555</ele>
      </trkpt>
      <trkpt lat="44.16819" lon="5.82886">
        <ele>552.4</ele>
      </trkpt>
      <trkpt lat="44.16814" lon="5.8288">
        <ele>551.7</ele>
      </trkpt>
      <trkpt lat="44.16778" lon="5.82843">
        <ele>548</ele>
      </trkpt>
      <trkpt lat="44.16748" lon="5.82807">
        <ele>545.9</ele>
      </trkpt>
      <trkpt lat="44.16744" lon="5.82802">
        <ele>545.8</ele>
      </trkpt>
      <trkpt lat="44.1674" lon="5.82799">
        <ele>545.6</ele>
      </trkpt>
      <trkpt lat="44.16725" lon="5.82799">
        <ele>545.1</ele>
      </trkpt>
      <trkpt lat="44.16708" lon="5.82805">
        <ele>544</ele>
      </trkpt>
      <trkpt lat="44.16699" lon="5.82808">
        <ele>543.3</ele>
      </trkpt>
      <trkpt lat="44.16682" lon="5.82813">
        <ele>542.6</ele>
      </trkpt>
      <trkpt lat="44.16651" lon="5.82826">
        <ele>541.4</ele>
      </trkpt>
      <trkpt lat="44.16618" lon="5.82865">
        <ele>541</ele>
      </trkpt>
      <trkpt lat="44.16615" lon="5.82862">
        <ele>541</ele>
      </trkpt>
      <trkpt lat="44.1659" lon="5.82849">
        <ele>542.1</ele>
      </trkpt>
      <trkpt lat="44.16563" lon="5.82833">
        <ele>545.2</ele>
      </trkpt>
      <trkpt lat="44.1655" lon="5.82828">
        <ele>547</ele>
      </trkpt>
      <trkpt lat="44.16502" lon="5.82847">
        <ele>553.7</ele>
      </trkpt>
      <trkpt lat="44.16495" lon="5.82872">
        <ele>554.8</ele>
      </trkpt>
      <trkpt lat="44.16494" lon="5.82962">
        <ele>556.4</ele>
      </trkpt>
      <trkpt lat="44.16486" lon="5.82972">
        <ele>555.5</ele>
      </trkpt>
      <trkpt lat="44.16473" lon="5.82971">
        <ele>556.1</ele>
      </trkpt>
      <trkpt lat="44.16434" lon="5.8292">
        <ele>563.6</ele>
      </trkpt>
      <trkpt lat="44.16419" lon="5.82912">
        <ele>565.1</ele>
      </trkpt>
      <trkpt lat="44.16409" lon="5.82915">
        <ele>566.5</ele>
      </trkpt>
      <trkpt lat="44.16404" lon="5.8292">
        <ele>567</ele>
      </trkpt>
      <trkpt lat="44.16404" lon="5.8292">
        <ele>567</ele>
      </trkpt>
      <trkpt lat="44.16388" lon="5.82934">
        <ele>568.3</ele>
      </trkpt>
      <trkpt lat="44.16341" lon="5.82958">
        <ele>573.7</ele>
      </trkpt>
      <trkpt lat="44.16302" lon="5.82989">
        <ele>573.8</ele>
      </trkpt>
      <trkpt lat="44.16235" lon="5.8304">
        <ele>575.6</ele>
      </trkpt>
      <trkpt lat="44.16231" lon="5.83045">
        <ele>575.7</ele>
      </trkpt>
      <trkpt lat="44.16229" lon="5.8306">
        <ele>575.6</ele>
      </trkpt>
      <trkpt lat="44.16244" lon="5.83106">
        <ele>575.6</ele>
      </trkpt>
      <trkpt lat="44.16247" lon="5.83134">
        <ele>576.3</ele>
      </trkpt>
      <trkpt lat="44.16257" lon="5.83183">
        <ele>577.3</ele>
      </trkpt>
      <trkpt lat="44.16265" lon="5.83234">
        <ele>578.2</ele>
      </trkpt>
      <trkpt lat="44.16264" lon="5.83276">
        <ele>578</ele>
      </trkpt>
      <trkpt lat="44.16257" lon="5.8333">
        <ele>574.7</ele>
      </trkpt>
      <trkpt lat="44.16238" lon="5.83361">
        <ele>573.2</ele>
      </trkpt>
      <trkpt lat="44.16208" lon="5.83395">
        <ele>573.4</ele>
      </trkpt>
      <trkpt lat="44.1618" lon="5.83442">
        <ele>570.9</ele>
      </trkpt>
      <trkpt lat="44.16147" lon="5.83469">
        <ele>570.7</ele>
      </trkpt>
      <trkpt lat="44.16111" lon="5.83509">
        <ele>571.4</ele>
      </trkpt>
      <trkpt lat="44.16083" lon="5.83531">
        <ele>572.7</ele>
      </trkpt>
      <trkpt lat="44.16068" lon="5.8355">
        <ele>572.7</ele>
      </trkpt>
      <trkpt lat="44.16056" lon="5.83571">
        <ele>572.8</ele>
      </trkpt>
      <trkpt lat="44.16012" lon="5.83641">
        <ele>575.1</ele>
      </trkpt>
      <trkpt lat="44.15981" lon="5.8369">
        <ele>574.8</ele>
      </trkpt>
      <trkpt lat="44.1597" lon="5.83704">
        <ele>574.4</ele>
      </trkpt>
      <trkpt lat="44.15968" lon="5.83729">
        <ele>572.7</ele>
      </trkpt>
      <trkpt lat="44.15977" lon="5.83773">
        <ele>570</ele>
      </trkpt>
      <trkpt lat="44.1599" lon="5.83808">
        <ele>568.7</ele>
      </trkpt>
      <trkpt lat="44.16016" lon="5.83868">
        <ele>567.2</ele>
      </trkpt>
      <trkpt lat="44.16017" lon="5.83876">
        <ele>566.9</ele>
      </trkpt>
      <trkpt lat="44.16016" lon="5.83881">
        <ele>566.7</ele>
      </trkpt>
      <trkpt lat="44.15914" lon="5.83847">
        <ele>570.6</ele>
      </trkpt>
      <trkpt lat="44.15875" lon="5.83836">
        <ele>572.5</ele>
      </trkpt>
      <trkpt lat="44.15835" lon="5.83801">
        <ele>575.1</ele>
      </trkpt>
      <trkpt lat="44.15808" lon="5.83783">
        <ele>577.6</ele>
      </trkpt>
      <trkpt lat="44.15779" lon="5.83752">
        <ele>579.8</ele>
      </trkpt>
      <trkpt lat="44.15752" lon="5.83731">
        <ele>581.7</ele>
      </trkpt>
      <trkpt lat="44.15707" lon="5.83723">
        <ele>584.1</ele>
      </trkpt>
      <trkpt lat="44.15619" lon="5.8366">
        <ele>592</ele>
      </trkpt>
      <trkpt lat="44.15568" lon="5.83648">
        <ele>595.8</ele>
      </trkpt>
      <trkpt lat="44.15508" lon="5.8365">
        <ele>600.3</ele>
      </trkpt>
      <trkpt lat="44.15459" lon="5.83637">
        <ele>605</ele>
      </trkpt>
      <trkpt lat="44.1541" lon="5.83614">
        <ele>611.4</ele>
      </trkpt>
      <trkpt lat="44.15363" lon="5.83603">
        <ele>615.7</ele>
      </trkpt>
      <trkpt lat="44.15304" lon="5.83596">
        <ele>623.9</ele>
      </trkpt>
      <trkpt lat="44.15269" lon="5.83614">
        <ele>627.2</ele>
      </trkpt>
      <trkpt lat="44.1518" lon="5.83667">
        <ele>640.1</ele>
      </trkpt>
      <trkpt lat="44.1517" lon="5.83691">
        <ele>642.6</ele>
      </trkpt>
      <trkpt lat="44.15168" lon="5.83729">
        <ele>648</ele>
      </trkpt>
      <trkpt lat="44.15162" lon="5.83753">
        <ele>652.4</ele>
      </trkpt>
      <trkpt lat="44.15154" lon="5.83748">
        <ele>653</ele>
      </trkpt>
      <trkpt lat="44.15144" lon="5.83716">
        <ele>651</ele>
      </trkpt>
      <trkpt lat="44.15127" lon="5.83684">
        <ele>651.8</ele>
      </trkpt>
      <trkpt lat="44.15094" lon="5.83653">
        <ele>657</ele>
      </trkpt>
      <trkpt lat="44.15049" lon="5.8363">
        <ele>664.4</ele>
      </trkpt>
      <trkpt lat="44.14987" lon="5.83623">
        <ele>677.1</ele>
      </trkpt>
      <trkpt lat="44.14977" lon="5.83606">
        <ele>676.7</ele>
      </trkpt>
      <trkpt lat="44.1498" lon="5.83594">
        <ele>677.6</ele>
      </trkpt>
      <trkpt lat="44.15004" lon="5.83585">
        <ele>675.2</ele>
      </trkpt>
      <trkpt lat="44.15027" lon="5.83582">
        <ele>672.7</ele>
      </trkpt>
      <trkpt lat="44.15042" lon="5.83576">
        <ele>673.2</ele>
      </trkpt>
      <trkpt lat="44.15041" lon="5.83564">
        <ele>677.9</ele>
      </trkpt>
      <trkpt lat="44.14973" lon="5.83564">
        <ele>688.9</ele>
      </trkpt>
      <trkpt lat="44.14918" lon="5.83577">
        <ele>694.2</ele>
      </trkpt>
      <trkpt lat="44.14863" lon="5.83603">
        <ele>702.8</ele>
      </trkpt>
      <trkpt lat="44.14858" lon="5.83623">
        <ele>703</ele>
      </trkpt>
      <trkpt lat="44.14862" lon="5.83649">
        <ele>706.4</ele>
      </trkpt>
      <trkpt lat="44.14882" lon="5.83669">
        <ele>708</ele>
      </trkpt>
      <trkpt lat="44.14948" lon="5.83682">
        <ele>705.4</ele>
      </trkpt>
      <trkpt lat="44.14972" lon="5.837">
        <ele>707.6</ele>
      </trkpt>
      <trkpt lat="44.14985" lon="5.83721">
        <ele>709.5</ele>
      </trkpt>
      <trkpt lat="44.14984" lon="5.83742">
        <ele>712.6</ele>
      </trkpt>
      <trkpt lat="44.14953" lon="5.83779">
        <ele>723.2</ele>
      </trkpt>
      <trkpt lat="44.14944" lon="5.83805">
        <ele>726.1</ele>
      </trkpt>
      <trkpt lat="44.14928" lon="5.83814">
        <ele>730.3</ele>
      </trkpt>
      <trkpt lat="44.14919" lon="5.83825">
        <ele>733.5</ele>
      </trkpt>
      <trkpt lat="44.1492" lon="5.83849">
        <ele>735.9</ele>
      </trkpt>
      <trkpt lat="44.14933" lon="5.83888">
        <ele>738.9</ele>
      </trkpt>
      <trkpt lat="44.1495" lon="5.83906">
        <ele>739.5</ele>
      </trkpt>
      <trkpt lat="44.14988" lon="5.83956">
        <ele>745.9</ele>
      </trkpt>
      <trkpt lat="44.15022" lon="5.84024">
        <ele>757.4</ele>
      </trkpt>
      <trkpt lat="44.15033" lon="5.84073">
        <ele>763.2</ele>
      </trkpt>
      <trkpt lat="44.15033" lon="5.84152">
        <ele>769</ele>
      </trkpt>
      <trkpt lat="44.15018" lon="5.84231">
        <ele>779.4</ele>
      </trkpt>
      <trkpt lat="44.15016" lon="5.84292">
        <ele>787.7</ele>
      </trkpt>
      <trkpt lat="44.15023" lon="5.84327">
        <ele>791.9</ele>
      </trkpt>
      <trkpt lat="44.15063" lon="5.84386">
        <ele>800.5</ele>
      </trkpt>
      <trkpt lat="44.15077" lon="5.84428">
        <ele>806.4</ele>
      </trkpt>
      <trkpt lat="44.15077" lon="5.84482">
        <ele>812.5</ele>
      </trkpt>
      <trkpt lat="44.15089" lon="5.84554">
        <ele>817</ele>
      </trkpt>
      <trkpt lat="44.15077" lon="5.84587">
        <ele>816.4</ele>
      </trkpt>
      <trkpt lat="44.15036" lon="5.8463">
        <ele>821.9</ele>
      </trkpt>
      <trkpt lat="44.15002" lon="5.84685">
        <ele>827</ele>
      </trkpt>
      <trkpt lat="44.14984" lon="5.84739">
        <ele>826</ele>
      </trkpt>
      <trkpt lat="44.14982" lon="5.84792">
        <ele>826.7</ele>
      </trkpt>
      <trkpt lat="44.14962" lon="5.84713">
        <ele>836.4</ele>
      </trkpt>
      <trkpt lat="44.14951" lon="5.84651">
        <ele>849.5</ele>
      </trkpt>
      <trkpt lat="44.1492" lon="5.84622">
        <ele>860.4</ele>
      </trkpt>
      <trkpt lat="44.14831" lon="5.84547">
        <ele>879.3</ele>
      </trkpt>
      <trkpt lat="44.14786" lon="5.84519">
        <ele>888.1</ele>
      </trkpt>
      <trkpt lat="44.14714" lon="5.84467">
        <ele>898.2</ele>
      </trkpt>
      <trkpt lat="44.14656" lon="5.84399">
        <ele>903.5</ele>
      </trkpt>
      <trkpt lat="44.14615" lon="5.84353">
        <ele>908.5</ele>
      </trkpt>
      <trkpt lat="44.14563" lon="5.84328">
        <ele>919.2</ele>
      </trkpt>
      <trkpt lat="44.14448" lon="5.84311">
        <ele>961.7</ele>
      </trkpt>
      <trkpt lat="44.14388" lon="5.84331">
        <ele>989.5</ele>
      </trkpt>
      <trkpt lat="44.14313" lon="5.84329">
        <ele>1001.7</ele>
      </trkpt>
      <trkpt lat="44.1415" lon="5.84227">
        <ele>1033.6</ele>
      </trkpt>
      <trkpt lat="44.14025" lon="5.84123">
        <ele>1029.8</ele>
      </trkpt>
      <trkpt lat="44.13948" lon="5.84046">
        <ele>1035.3</ele>
      </trkpt>
      <trkpt lat="44.13889" lon="5.84006">
        <ele>1062.9</ele>
      </trkpt>
      <trkpt lat="44.13842" lon="5.83945">
        <ele>1078.1</ele>
      </trkpt>
      <trkpt lat="44.13821" lon="5.83924">
        <ele>1092.8</ele>
      </trkpt>
      <trkpt lat="44.13818" lon="5.83871">
        <ele>1084.9</ele>
      </trkpt>
      <trkpt lat="44.13822" lon="5.83849">
        <ele>1078.2</ele>
      </trkpt>
      <trkpt lat="44.13829" lon="5.83819">
        <ele>1077.9</ele>
      </trkpt>
      <trkpt lat="44.13832" lon="5.83775">
        <ele>1081.6</ele>
      </trkpt>
      <trkpt lat="44.13823" lon="5.83672">
        <ele>1073.9</ele>
      </trkpt>
      <trkpt lat="44.13773" lon="5.83574">
        <ele>1095.7</ele>
      </trkpt>
      <trkpt lat="44.13737" lon="5.8353">
        <ele>1098.6</ele>
      </trkpt>
      <trkpt lat="44.13705" lon="5.83508">
        <ele>1103.9</ele>
      </trkpt>
      <trkpt lat="44.13685" lon="5.83471">
        <ele>1103.2</ele>
      </trkpt>
      <trkpt lat="44.13675" lon="5.83443">
        <ele>1102.1</ele>
      </trkpt>
      <trkpt lat="44.1367" lon="5.834">
        <ele>1101.1</ele>
      </trkpt>
      <trkpt lat="44.1366" lon="5.8338">
        <ele>1101.4</ele>
      </trkpt>
      <trkpt lat="44.13603" lon="5.8334">
        <ele>1104.9</ele>
      </trkpt>
      <trkpt lat="44.13571" lon="5.83307">
        <ele>1107.4</ele>
      </trkpt>
      <trkpt lat="44.1352" lon="5.8326">
        <ele>1110.9</ele>
      </trkpt>
      <trkpt lat="44.13488" lon="5.83209">
        <ele>1112.6</ele>
      </trkpt>
      <trkpt lat="44.13465" lon="5.83179">
        <ele>1113</ele>
      </trkpt>
      <trkpt lat="44.13438" lon="5.83159">
        <ele>1113.5</ele>
      </trkpt>
      <trkpt lat="44.13395" lon="5.83151">
        <ele>1116.1</ele>
      </trkpt>
      <trkpt lat="44.13375" lon="5.83147">
        <ele>1118.2</ele>
      </trkpt>
      <trkpt lat="44.13359" lon="5.83162">
        <ele>1119.3</ele>
      </trkpt>
      <trkpt lat="44.13349" lon="5.83171">
        <ele>1119</ele>
      </trkpt>
      <trkpt lat="44.13346" lon="5.83138">
        <ele>1121.1</ele>
      </trkpt>
      <trkpt lat="44.13342" lon="5.83097">
        <ele>1122.7</ele>
      </trkpt>
      <trkpt lat="44.13338" lon="5.83046">
        <ele>1124.1</ele>
      </trkpt>
      <trkpt lat="44.13319" lon="5.82967">
        <ele>1127</ele>
      </trkpt>
      <trkpt lat="44.13306" lon="5.82859">
        <ele>1128.1</ele>
      </trkpt>
      <trkpt lat="44.13309" lon="5.82817">
        <ele>1128.9</ele>
      </trkpt>
      <trkpt lat="44.13318" lon="5.82798">
        <ele>1129</ele>
      </trkpt>
      <trkpt lat="44.13315" lon="5.82762">
        <ele>1129.2</ele>
      </trkpt>
      <trkpt lat="44.13305" lon="5.82732">
        <ele>1129</ele>
      </trkpt>
      <trkpt lat="44.13302" lon="5.82699">
        <ele>1128.5</ele>
      </trkpt>
      <trkpt lat="44.13311" lon="5.82624">
        <ele>1134.9</ele>
      </trkpt>
      <trkpt lat="44.13305" lon="5.82576">
        <ele>1136.4</ele>
      </trkpt>
      <trkpt lat="44.13304" lon="5.82532">
        <ele>1138.6</ele>
      </trkpt>
      <trkpt lat="44.13313" lon="5.82504">
        <ele>1141.8</ele>
      </trkpt>
      <trkpt lat="44.13327" lon="5.82476">
        <ele>1144.1</ele>
      </trkpt>
      <trkpt lat="44.13344" lon="5.82412">
        <ele>1145.6</ele>
      </trkpt>
      <trkpt lat="44.13365" lon="5.82352">
        <ele>1145.1</ele>
      </trkpt>
      <trkpt lat="44.1338" lon="5.82276">
        <ele>1145.3</ele>
      </trkpt>
      <trkpt lat="44.1339" lon="5.82251">
        <ele>1146</ele>
      </trkpt>
      <trkpt lat="44.13418" lon="5.8221">
        <ele>1147.7</ele>
      </trkpt>
      <trkpt lat="44.13433" lon="5.82185">
        <ele>1148.6</ele>
      </trkpt>
      <trkpt lat="44.13462" lon="5.82085">
        <ele>1153.4</ele>
      </trkpt>
      <trkpt lat="44.13468" lon="5.82036">
        <ele>1153.5</ele>
      </trkpt>
      <trkpt lat="44.1347" lon="5.81995">
        <ele>1153.5</ele>
      </trkpt>
      <trkpt lat="44.13463" lon="5.81892">
        <ele>1151.4</ele>
      </trkpt>
      <trkpt lat="44.13463" lon="5.81859">
        <ele>1150.3</ele>
      </trkpt>
      <trkpt lat="44.13456" lon="5.81795">
        <ele>1145.8</ele>
      </trkpt>
      <trkpt lat="44.13437" lon="5.81741">
        <ele>1138.1</ele>
      </trkpt>
      <trkpt lat="44.13431" lon="5.81704">
        <ele>1135.3</ele>
      </trkpt>
      <trkpt lat="44.13419" lon="5.81665">
        <ele>1131.7</ele>
      </trkpt>
      <trkpt lat="44.13386" lon="5.81573">
        <ele>1125.9</ele>
      </trkpt>
      <trkpt lat="44.13358" lon="5.81504">
        <ele>1122.1</ele>
      </trkpt>
      <trkpt lat="44.13336" lon="5.81466">
        <ele>1123.9</ele>
      </trkpt>
      <trkpt lat="44.13409" lon="5.81376">
        <ele>1118</ele>
      </trkpt>
      <trkpt lat="44.13447" lon="5.81291">
        <ele>1115.3</ele>
      </trkpt>
      <trkpt lat="44.13489" lon="5.81155">
        <ele>1111.5</ele>
      </trkpt>
      <trkpt lat="44.13522" lon="5.81074">
        <ele>1108.6</ele>
      </trkpt>
      <trkpt lat="44.13556" lon="5.81016">
        <ele>1104</ele>
      </trkpt>
      <trkpt lat="44.13572" lon="5.80985">
        <ele>1102.8</ele>
      </trkpt>
      <trkpt lat="44.13568" lon="5.8095">
        <ele>1101.9</ele>
      </trkpt>
      <trkpt lat="44.13538" lon="5.80894">
        <ele>1102.9</ele>
      </trkpt>
      <trkpt lat="44.13487" lon="5.80784">
        <ele>1101.1</ele>
      </trkpt>
      <trkpt lat="44.1349" lon="5.80752">
        <ele>1099.8</ele>
      </trkpt>
      <trkpt lat="44.13513" lon="5.80745">
        <ele>1096.5</ele>
      </trkpt>
      <trkpt lat="44.13538" lon="5.8071">
        <ele>1093.5</ele>
      </trkpt>
      <trkpt lat="44.13553" lon="5.80679">
        <ele>1091.1</ele>
      </trkpt>
      <trkpt lat="44.13558" lon="5.80528">
        <ele>1090.5</ele>
      </trkpt>
      <trkpt lat="44.1357" lon="5.80463">
        <ele>1088.4</ele>
      </trkpt>
      <trkpt lat="44.13575" lon="5.80389">
        <ele>1086.2</ele>
      </trkpt>
      <trkpt lat="44.13573" lon="5.80242">
        <ele>1089.1</ele>
      </trkpt>
      <trkpt lat="44.13595" lon="5.8019">
        <ele>1089.2</ele>
      </trkpt>
      <trkpt lat="44.13595" lon="5.80139">
        <ele>1087.6</ele>
      </trkpt>
      <trkpt lat="44.13578" lon="5.80074">
        <ele>1084.1</ele>
      </trkpt>
      <trkpt lat="44.13551" lon="5.80026">
        <ele>1090.4</ele>
      </trkpt>
      <trkpt lat="44.13549" lon="5.80002">
        <ele>1092.1</ele>
      </trkpt>
      <trkpt lat="44.13562" lon="5.7999">
        <ele>1092.3</ele>
      </trkpt>
      <trkpt lat="44.13566" lon="5.79987">
        <ele>1092.5</ele>
      </trkpt>
      <trkpt lat="44.13606" lon="5.79998">
        <ele>1085.8</ele>
      </trkpt>
      <trkpt lat="44.13632" lon="5.79997">
        <ele>1080.8</ele>
      </trkpt>
      <trkpt lat="44.13642" lon="5.79982">
        <ele>1078.7</ele>
      </trkpt>
      <trkpt lat="44.1363" lon="5.79929">
        <ele>1087.9</ele>
      </trkpt>
      <trkpt lat="44.13638" lon="5.79853">
        <ele>1086.2</ele>
      </trkpt>
      <trkpt lat="44.13662" lon="5.79787">
        <ele>1081.3</ele>
      </trkpt>
      <trkpt lat="44.13662" lon="5.79727">
        <ele>1092.5</ele>
      </trkpt>
      <trkpt lat="44.13683" lon="5.79657">
        <ele>1095</ele>
      </trkpt>
      <trkpt lat="44.13691" lon="5.79619">
        <ele>1090.3</ele>
      </trkpt>
      <trkpt lat="44.13683" lon="5.79579">
        <ele>1084.3</ele>
      </trkpt>
      <trkpt lat="44.13583" lon="5.79527">
        <ele>1099</ele>
      </trkpt>
      <trkpt lat="44.13561" lon="5.79513">
        <ele>1107.5</ele>
      </trkpt>
      <trkpt lat="44.13567" lon="5.79466">
        <ele>1099.9</ele>
      </trkpt>
      <trkpt lat="44.13577" lon="5.79441">
        <ele>1095.4</ele>
      </trkpt>
      <trkpt lat="44.13583" lon="5.79352">
        <ele>1092.4</ele>
      </trkpt>
      <trkpt lat="44.13579" lon="5.79338">
        <ele>1092.2</ele>
      </trkpt>
      <trkpt lat="44.13594" lon="5.79326">
        <ele>1088.6</ele>
      </trkpt>
      <trkpt lat="44.1361" lon="5.79294">
        <ele>1086</ele>
      </trkpt>
      <trkpt lat="44.13634" lon="5.79232">
        <ele>1091.5</ele>
      </trkpt>
      <trkpt lat="44.13683" lon="5.79134">
        <ele>1104.7</ele>
      </trkpt>
      <trkpt lat="44.13698" lon="5.7908">
        <ele>1107</ele>
      </trkpt>
      <trkpt lat="44.137" lon="5.79049">
        <ele>1105.8</ele>
      </trkpt>
      <trkpt lat="44.13692" lon="5.79022">
        <ele>1103.1</ele>
      </trkpt>
      <trkpt lat="44.13695" lon="5.78951">
        <ele>1098.7</ele>
      </trkpt>
      <trkpt lat="44.13692" lon="5.78891">
        <ele>1093.6</ele>
      </trkpt>
      <trkpt lat="44.13691" lon="5.78739">
        <ele>1088.5</ele>
      </trkpt>
      <trkpt lat="44.13693" lon="5.78701">
        <ele>1092.3</ele>
      </trkpt>
      <trkpt lat="44.13695" lon="5.78686">
        <ele>1093.3</ele>
      </trkpt>
      <trkpt lat="44.13695" lon="5.78625">
        <ele>1093.5</ele>
      </trkpt>
      <trkpt lat="44.13697" lon="5.78609">
        <ele>1091.8</ele>
      </trkpt>
      <trkpt lat="44.137" lon="5.78594">
        <ele>1090.6</ele>
      </trkpt>
      <trkpt lat="44.1371" lon="5.78568">
        <ele>1089.6</ele>
      </trkpt>
      <trkpt lat="44.13744" lon="5.78462">
        <ele>1085.3</ele>
      </trkpt>
      <trkpt lat="44.13746" lon="5.78448">
        <ele>1083.5</ele>
      </trkpt>
      <trkpt lat="44.13744" lon="5.78441">
        <ele>1081.8</ele>
      </trkpt>
      <trkpt lat="44.13739" lon="5.78438">
        <ele>1079.9</ele>
      </trkpt>
      <trkpt lat="44.13735" lon="5.78441">
        <ele>1079.5</ele>
      </trkpt>
      <trkpt lat="44.13716" lon="5.78445">
        <ele>1075.8</ele>
      </trkpt>
      <trkpt lat="44.13689" lon="5.78421">
        <ele>1065</ele>
      </trkpt>
      <trkpt lat="44.13683" lon="5.78408">
        <ele>1061</ele>
      </trkpt>
      <trkpt lat="44.13678" lon="5.7838">
        <ele>1055.9</ele>
      </trkpt>
      <trkpt lat="44.13669" lon="5.78326">
        <ele>1049.3</ele>
      </trkpt>
      <trkpt lat="44.13665" lon="5.7832">
        <ele>1048</ele>
      </trkpt>
      <trkpt lat="44.1366" lon="5.7832">
        <ele>1046.2</ele>
      </trkpt>
      <trkpt lat="44.13656" lon="5.78325">
        <ele>1045.1</ele>
      </trkpt>
      <trkpt lat="44.13651" lon="5.78337">
        <ele>1044.2</ele>
      </trkpt>
      <trkpt lat="44.13643" lon="5.78348">
        <ele>1042.4</ele>
      </trkpt>
      <trkpt lat="44.13619" lon="5.78403">
        <ele>1036.4</ele>
      </trkpt>
      <trkpt lat="44.13599" lon="5.78456">
        <ele>1030.2</ele>
      </trkpt>
      <trkpt lat="44.13592" lon="5.78467">
        <ele>1027.7</ele>
      </trkpt>
      <trkpt lat="44.13588" lon="5.7848">
        <ele>1027.2</ele>
      </trkpt>
      <trkpt lat="44.13585" lon="5.78487">
        <ele>1026.8</ele>
      </trkpt>
      <trkpt lat="44.13568" lon="5.78478">
        <ele>1018.3</ele>
      </trkpt>
      <trkpt lat="44.13564" lon="5.78474">
        <ele>1015.9</ele>
      </trkpt>
      <trkpt lat="44.13563" lon="5.78465">
        <ele>1014.5</ele>
      </trkpt>
      <trkpt lat="44.13565" lon="5.78443">
        <ele>1013.3</ele>
      </trkpt>
      <trkpt lat="44.13564" lon="5.78436">
        <ele>1012.3</ele>
      </trkpt>
      <trkpt lat="44.1355" lon="5.78409">
        <ele>1003.8</ele>
      </trkpt>
      <trkpt lat="44.13541" lon="5.78379">
        <ele>997.5</ele>
      </trkpt>
      <trkpt lat="44.13539" lon="5.78373">
        <ele>996.1</ele>
      </trkpt>
      <trkpt lat="44.13535" lon="5.78368">
        <ele>993.9</ele>
      </trkpt>
      <trkpt lat="44.13524" lon="5.78367">
        <ele>988.8</ele>
      </trkpt>
      <trkpt lat="44.13508" lon="5.78386">
        <ele>983.9</ele>
      </trkpt>
      <trkpt lat="44.13503" lon="5.78388">
        <ele>982.1</ele>
      </trkpt>
      <trkpt lat="44.13474" lon="5.78381">
        <ele>970.5</ele>
      </trkpt>
      <trkpt lat="44.13465" lon="5.78371">
        <ele>966.2</ele>
      </trkpt>
      <trkpt lat="44.1346" lon="5.78371">
        <ele>964.6</ele>
      </trkpt>
      <trkpt lat="44.13452" lon="5.7838">
        <ele>963.7</ele>
      </trkpt>
      <trkpt lat="44.13449" lon="5.78386">
        <ele>963.8</ele>
      </trkpt>
      <trkpt lat="44.13441" lon="5.78416">
        <ele>966.8</ele>
      </trkpt>
      <trkpt lat="44.13437" lon="5.78423">
        <ele>967.6</ele>
      </trkpt>
      <trkpt lat="44.13433" lon="5.78427">
        <ele>967.9</ele>
      </trkpt>
      <trkpt lat="44.13423" lon="5.78429">
        <ele>967.7</ele>
      </trkpt>
      <trkpt lat="44.13412" lon="5.78426">
        <ele>968.7</ele>
      </trkpt>
      <trkpt lat="44.13401" lon="5.78418">
        <ele>972.3</ele>
      </trkpt>
      <trkpt lat="44.13392" lon="5.78407">
        <ele>974.4</ele>
      </trkpt>
      <trkpt lat="44.13388" lon="5.78393">
        <ele>974.2</ele>
      </trkpt>
      <trkpt lat="44.13378" lon="5.7835">
        <ele>973.7</ele>
      </trkpt>
      <trkpt lat="44.13377" lon="5.78319">
        <ele>967.1</ele>
      </trkpt>
      <trkpt lat="44.13367" lon="5.78293">
        <ele>965.3</ele>
      </trkpt>
      <trkpt lat="44.13363" lon="5.78288">
        <ele>965.8</ele>
      </trkpt>
      <trkpt lat="44.13346" lon="5.78277">
        <ele>969.8</ele>
      </trkpt>
      <trkpt lat="44.13333" lon="5.78263">
        <ele>971.3</ele>
      </trkpt>
      <trkpt lat="44.13318" lon="5.78241">
        <ele>968.5</ele>
      </trkpt>
      <trkpt lat="44.13311" lon="5.78235">
        <ele>968.2</ele>
      </trkpt>
      <trkpt lat="44.13295" lon="5.78221">
        <ele>966.1</ele>
      </trkpt>
      <trkpt lat="44.1329" lon="5.78209">
        <ele>964</ele>
      </trkpt>
      <trkpt lat="44.13289" lon="5.78201">
        <ele>962.5</ele>
      </trkpt>
      <trkpt lat="44.13292" lon="5.78191">
        <ele>960.4</ele>
      </trkpt>
      <trkpt lat="44.13304" lon="5.78167">
        <ele>954.3</ele>
      </trkpt>
      <trkpt lat="44.13304" lon="5.78147">
        <ele>950.7</ele>
      </trkpt>
      <trkpt lat="44.13303" lon="5.7814">
        <ele>949.7</ele>
      </trkpt>
      <trkpt lat="44.13286" lon="5.78102">
        <ele>949.7</ele>
      </trkpt>
      <trkpt lat="44.13284" lon="5.78094">
        <ele>950.2</ele>
      </trkpt>
      <trkpt lat="44.13284" lon="5.78041">
        <ele>954.4</ele>
      </trkpt>
      <trkpt lat="44.13284" lon="5.7804">
        <ele>954.6</ele>
      </trkpt>
      <trkpt lat="44.13291" lon="5.78023">
        <ele>954.2</ele>
      </trkpt>
      <trkpt lat="44.133" lon="5.78014">
        <ele>951</ele>
      </trkpt>
      <trkpt lat="44.13303" lon="5.78007">
        <ele>950.4</ele>
      </trkpt>
      <trkpt lat="44.13304" lon="5.77985">
        <ele>949</ele>
      </trkpt>
      <trkpt lat="44.133" lon="5.77979">
        <ele>949.7</ele>
      </trkpt>
      <trkpt lat="44.13281" lon="5.77958">
        <ele>950.5</ele>
      </trkpt>
      <trkpt lat="44.13276" lon="5.77953">
        <ele>950.2</ele>
      </trkpt>
      <trkpt lat="44.13269" lon="5.77941">
        <ele>948.6</ele>
      </trkpt>
      <trkpt lat="44.13268" lon="5.77933">
        <ele>948</ele>
      </trkpt>
      <trkpt lat="44.13268" lon="5.77925">
        <ele>947.3</ele>
      </trkpt>
      <trkpt lat="44.13282" lon="5.77912">
        <ele>942.2</ele>
      </trkpt>
      <trkpt lat="44.13289" lon="5.779">
        <ele>939.5</ele>
      </trkpt>
      <trkpt lat="44.13291" lon="5.77885">
        <ele>938.9</ele>
      </trkpt>
      <trkpt lat="44.1329" lon="5.77814">
        <ele>941.7</ele>
      </trkpt>
      <trkpt lat="44.1329" lon="5.77814">
        <ele>941.7</ele>
      </trkpt>
      <trkpt lat="44.13313" lon="5.77763">
        <ele>937.2</ele>
      </trkpt>
      <trkpt lat="44.13333" lon="5.77726">
        <ele>925.7</ele>
      </trkpt>
      <trkpt lat="44.13342" lon="5.777">
        <ele>916</ele>
      </trkpt>
      <trkpt lat="44.13355" lon="5.77676">
        <ele>910.8</ele>
      </trkpt>
      <trkpt lat="44.13371" lon="5.77656">
        <ele>909.3</ele>
      </trkpt>
      <trkpt lat="44.13422" lon="5.77611">
        <ele>909.7</ele>
      </trkpt>
      <trkpt lat="44.13432" lon="5.77606">
        <ele>909.5</ele>
      </trkpt>
      <trkpt lat="44.13461" lon="5.77587">
        <ele>911.6</ele>
      </trkpt>
      <trkpt lat="44.13466" lon="5.77586">
        <ele>911</ele>
      </trkpt>
      <trkpt lat="44.13472" lon="5.77584">
        <ele>910.7</ele>
      </trkpt>
      <trkpt lat="44.13494" lon="5.77585">
        <ele>906.2</ele>
      </trkpt>
      <trkpt lat="44.13503" lon="5.77595">
        <ele>899.3</ele>
      </trkpt>
      <trkpt lat="44.13505" lon="5.77596">
        <ele>898.4</ele>
      </trkpt>
      <trkpt lat="44.13525" lon="5.77605">
        <ele>891.2</ele>
      </trkpt>
      <trkpt lat="44.13532" lon="5.77617">
        <ele>884.1</ele>
      </trkpt>
      <trkpt lat="44.13535" lon="5.77623">
        <ele>880.3</ele>
      </trkpt>
      <trkpt lat="44.13539" lon="5.77627">
        <ele>877.7</ele>
      </trkpt>
      <trkpt lat="44.13569" lon="5.77611">
        <ele>880.2</ele>
      </trkpt>
      <trkpt lat="44.1358" lon="5.77593">
        <ele>881.8</ele>
      </trkpt>
      <trkpt lat="44.13585" lon="5.77588">
        <ele>880.9</ele>
      </trkpt>
      <trkpt lat="44.13598" lon="5.77576">
        <ele>873.9</ele>
      </trkpt>
      <trkpt lat="44.13602" lon="5.77569">
        <ele>870.3</ele>
      </trkpt>
      <trkpt lat="44.13603" lon="5.77555">
        <ele>867.2</ele>
      </trkpt>
      <trkpt lat="44.13596" lon="5.77544">
        <ele>869.4</ele>
      </trkpt>
      <trkpt lat="44.13581" lon="5.77532">
        <ele>874.7</ele>
      </trkpt>
      <trkpt lat="44.13572" lon="5.77518">
        <ele>876.7</ele>
      </trkpt>
      <trkpt lat="44.13568" lon="5.77513">
        <ele>877.6</ele>
      </trkpt>
      <trkpt lat="44.13563" lon="5.77485">
        <ele>872.8</ele>
      </trkpt>
      <trkpt lat="44.13557" lon="5.77466">
        <ele>870.5</ele>
      </trkpt>
      <trkpt lat="44.13554" lon="5.77459">
        <ele>871</ele>
      </trkpt>
      <trkpt lat="44.13553" lon="5.7742">
        <ele>872.1</ele>
      </trkpt>
      <trkpt lat="44.13565" lon="5.77395">
        <ele>878.7</ele>
      </trkpt>
      <trkpt lat="44.13585" lon="5.77394">
        <ele>888.2</ele>
      </trkpt>
      <trkpt lat="44.13606" lon="5.77417">
        <ele>896.2</ele>
      </trkpt>
      <trkpt lat="44.13622" lon="5.77429">
        <ele>901.6</ele>
      </trkpt>
      <trkpt lat="44.13655" lon="5.77433">
        <ele>916.6</ele>
      </trkpt>
      <trkpt lat="44.13659" lon="5.77432">
        <ele>918.7</ele>
      </trkpt>
      <trkpt lat="44.13669" lon="5.7743">
        <ele>923.2</ele>
      </trkpt>
      <trkpt lat="44.13672" lon="5.77413">
        <ele>927.8</ele>
      </trkpt>
      <trkpt lat="44.13671" lon="5.77364">
        <ele>935.3</ele>
      </trkpt>
      <trkpt lat="44.13688" lon="5.77331">
        <ele>946.2</ele>
      </trkpt>
      <trkpt lat="44.13718" lon="5.77217">
        <ele>963.5</ele>
      </trkpt>
      <trkpt lat="44.13752" lon="5.77188">
        <ele>976.3</ele>
      </trkpt>
      <trkpt lat="44.13764" lon="5.77164">
        <ele>979.8</ele>
      </trkpt>
      <trkpt lat="44.13775" lon="5.77141">
        <ele>982.8</ele>
      </trkpt>
      <trkpt lat="44.13808" lon="5.77051">
        <ele>993.1</ele>
      </trkpt>
      <trkpt lat="44.13828" lon="5.77014">
        <ele>1003.1</ele>
      </trkpt>
      <trkpt lat="44.13831" lon="5.76988">
        <ele>1005.9</ele>
      </trkpt>
      <trkpt lat="44.13826" lon="5.76951">
        <ele>1007.4</ele>
      </trkpt>
      <trkpt lat="44.13817" lon="5.76925">
        <ele>1007.2</ele>
      </trkpt>
      <trkpt lat="44.13814" lon="5.76907">
        <ele>1008.7</ele>
      </trkpt>
      <trkpt lat="44.13845" lon="5.7684">
        <ele>1024.8</ele>
      </trkpt>
      <trkpt lat="44.13847" lon="5.76839">
        <ele>1024.8</ele>
      </trkpt>
      <trkpt lat="44.13856" lon="5.76831">
        <ele>1024.6</ele>
      </trkpt>
      <trkpt lat="44.13849" lon="5.76803">
        <ele>1027</ele>
      </trkpt>
      <trkpt lat="44.13847" lon="5.76774">
        <ele>1026.9</ele>
      </trkpt>
      <trkpt lat="44.13849" lon="5.76744">
        <ele>1024.9</ele>
      </trkpt>
      <trkpt lat="44.13846" lon="5.76693">
        <ele>1021.3</ele>
      </trkpt>
      <trkpt lat="44.13847" lon="5.76645">
        <ele>1015.4</ele>
      </trkpt>
      <trkpt lat="44.13833" lon="5.76607">
        <ele>1016.8</ele>
      </trkpt>
      <trkpt lat="44.1383" lon="5.76586">
        <ele>1016.3</ele>
      </trkpt>
      <trkpt lat="44.13846" lon="5.7656">
        <ele>1010.8</ele>
      </trkpt>
      <trkpt lat="44.13851" lon="5.76542">
        <ele>1010.7</ele>
      </trkpt>
      <trkpt lat="44.13883" lon="5.76449">
        <ele>1016.3</ele>
      </trkpt>
      <trkpt lat="44.13894" lon="5.76415">
        <ele>1018.1</ele>
      </trkpt>
      <trkpt lat="44.13899" lon="5.76326">
        <ele>1021.1</ele>
      </trkpt>
      <trkpt lat="44.13909" lon="5.7627">
        <ele>1020.9</ele>
      </trkpt>
      <trkpt lat="44.13908" lon="5.76211">
        <ele>1025.2</ele>
      </trkpt>
      <trkpt lat="44.13931" lon="5.76139">
        <ele>1034</ele>
      </trkpt>
      <trkpt lat="44.13947" lon="5.7611">
        <ele>1038.5</ele>
      </trkpt>
      <trkpt lat="44.13965" lon="5.7607">
        <ele>1042.3</ele>
      </trkpt>
      <trkpt lat="44.13981" lon="5.76031">
        <ele>1045.4</ele>
      </trkpt>
      <trkpt lat="44.13996" lon="5.76022">
        <ele>1045.8</ele>
      </trkpt>
      <trkpt lat="44.14017" lon="5.75987">
        <ele>1046.9</ele>
      </trkpt>
      <trkpt lat="44.14057" lon="5.75903">
        <ele>1046.8</ele>
      </trkpt>
      <trkpt lat="44.14096" lon="5.75816">
        <ele>1047.2</ele>
      </trkpt>
      <trkpt lat="44.14102" lon="5.75778">
        <ele>1050.3</ele>
      </trkpt>
      <trkpt lat="44.14132" lon="5.75717">
        <ele>1053.9</ele>
      </trkpt>
      <trkpt lat="44.14151" lon="5.75672">
        <ele>1053.6</ele>
      </trkpt>
      <trkpt lat="44.14182" lon="5.75579">
        <ele>1057.9</ele>
      </trkpt>
      <trkpt lat="44.14192" lon="5.75548">
        <ele>1060.4</ele>
      </trkpt>
      <trkpt lat="44.14199" lon="5.75525">
        <ele>1061.1</ele>
      </trkpt>
      <trkpt lat="44.14173" lon="5.75515">
        <ele>1062.4</ele>
      </trkpt>
      <trkpt lat="44.14173" lon="5.75515">
        <ele>1062.4</ele>
      </trkpt>
      <trkpt lat="44.1416" lon="5.75499">
        <ele>1063.9</ele>
      </trkpt>
      <trkpt lat="44.14133" lon="5.75439">
        <ele>1067.2</ele>
      </trkpt>
      <trkpt lat="44.14116" lon="5.75396">
        <ele>1067.9</ele>
      </trkpt>
      <trkpt lat="44.1409" lon="5.75379">
        <ele>1070.7</ele>
      </trkpt>
      <trkpt lat="44.14081" lon="5.75371">
        <ele>1071.5</ele>
      </trkpt>
      <trkpt lat="44.14079" lon="5.7535">
        <ele>1071.8</ele>
      </trkpt>
      <trkpt lat="44.14088" lon="5.75325">
        <ele>1073.2</ele>
      </trkpt>
      <trkpt lat="44.14131" lon="5.75264">
        <ele>1078.2</ele>
      </trkpt>
      <trkpt lat="44.14139" lon="5.75242">
        <ele>1079.5</ele>
      </trkpt>
      <trkpt lat="44.14133" lon="5.75223">
        <ele>1083.3</ele>
      </trkpt>
      <trkpt lat="44.14119" lon="5.75209">
        <ele>1087.4</ele>
      </trkpt>
      <trkpt lat="44.14065" lon="5.75149">
        <ele>1095.1</ele>
      </trkpt>
      <trkpt lat="44.14042" lon="5.75128">
        <ele>1099.1</ele>
      </trkpt>
      <trkpt lat="44.14044" lon="5.75092">
        <ele>1099.9</ele>
      </trkpt>
      <trkpt lat="44.1405" lon="5.75076">
        <ele>1100.4</ele>
      </trkpt>
      <trkpt lat="44.14073" lon="5.75058">
        <ele>1098</ele>
      </trkpt>
      <trkpt lat="44.14077" lon="5.75029">
        <ele>1103.8</ele>
      </trkpt>
      <trkpt lat="44.14063" lon="5.74964">
        <ele>1117.6</ele>
      </trkpt>
      <trkpt lat="44.14043" lon="5.74901">
        <ele>1126.2</ele>
      </trkpt>
      <trkpt lat="44.13999" lon="5.74837">
        <ele>1137.1</ele>
      </trkpt>
      <trkpt lat="44.13974" lon="5.74791">
        <ele>1140.5</ele>
      </trkpt>
      <trkpt lat="44.13951" lon="5.74723">
        <ele>1138.9</ele>
      </trkpt>
      <trkpt lat="44.13925" lon="5.74697">
        <ele>1143.4</ele>
      </trkpt>
      <trkpt lat="44.13902" lon="5.74679">
        <ele>1147.4</ele>
      </trkpt>
      <trkpt lat="44.13904" lon="5.74644">
        <ele>1139.4</ele>
      </trkpt>
      <trkpt lat="44.13883" lon="5.74631">
        <ele>1146.8</ele>
      </trkpt>
      <trkpt lat="44.13867" lon="5.74604">
        <ele>1150</ele>
      </trkpt>
      <trkpt lat="44.13826" lon="5.74585">
        <ele>1169</ele>
      </trkpt>
      <trkpt lat="44.13823" lon="5.74562">
        <ele>1167.6</ele>
      </trkpt>
      <trkpt lat="44.13805" lon="5.74492">
        <ele>1167.1</ele>
      </trkpt>
      <trkpt lat="44.13784" lon="5.74464">
        <ele>1171.5</ele>
      </trkpt>
      <trkpt lat="44.13743" lon="5.74436">
        <ele>1180.3</ele>
      </trkpt>
      <trkpt lat="44.13739" lon="5.74433">
        <ele>1180.8</ele>
      </trkpt>
      <trkpt lat="44.13694" lon="5.7442">
        <ele>1197.7</ele>
      </trkpt>
      <trkpt lat="44.13683" lon="5.74385">
        <ele>1192</ele>
      </trkpt>
      <trkpt lat="44.13656" lon="5.74373">
        <ele>1205.4</ele>
      </trkpt>
      <trkpt lat="44.13646" lon="5.74361">
        <ele>1208.6</ele>
      </trkpt>
      <trkpt lat="44.13645" lon="5.7432">
        <ele>1202.6</ele>
      </trkpt>
      <trkpt lat="44.13636" lon="5.74291">
        <ele>1201.5</ele>
      </trkpt>
      <trkpt lat="44.13561" lon="5.74238">
        <ele>1219.4</ele>
      </trkpt>
      <trkpt lat="44.13523" lon="5.74223">
        <ele>1226.9</ele>
      </trkpt>
      <trkpt lat="44.13491" lon="5.74246">
        <ele>1245.1</ele>
      </trkpt>
      <trkpt lat="44.13383" lon="5.7421">
        <ele>1265.3</ele>
      </trkpt>
      <trkpt lat="44.13302" lon="5.74158">
        <ele>1283.3</ele>
      </trkpt>
      <trkpt lat="44.13235" lon="5.741">
        <ele>1297.2</ele>
      </trkpt>
      <trkpt lat="44.13169" lon="5.74072">
        <ele>1316.5</ele>
      </trkpt>
      <trkpt lat="44.13093" lon="5.74014">
        <ele>1324</ele>
      </trkpt>
      <trkpt lat="44.12991" lon="5.73933">
        <ele>1344.5</ele>
      </trkpt>
      <trkpt lat="44.12964" lon="5.73919">
        <ele>1352.7</ele>
      </trkpt>
      <trkpt lat="44.12945" lon="5.73873">
        <ele>1354</ele>
      </trkpt>
      <trkpt lat="44.12938" lon="5.73826">
        <ele>1355.8</ele>
      </trkpt>
      <trkpt lat="44.12928" lon="5.73941">
        <ele>1366.1</ele>
      </trkpt>
      <trkpt lat="44.12912" lon="5.73941">
        <ele>1367.8</ele>
      </trkpt>
      <trkpt lat="44.12904" lon="5.73907">
        <ele>1368.2</ele>
      </trkpt>
      <trkpt lat="44.12896" lon="5.73884">
        <ele>1370.7</ele>
      </trkpt>
      <trkpt lat="44.12871" lon="5.73856">
        <ele>1376.7</ele>
      </trkpt>
      <trkpt lat="44.1285" lon="5.73829">
        <ele>1384.4</ele>
      </trkpt>
      <trkpt lat="44.12831" lon="5.73792">
        <ele>1397.5</ele>
      </trkpt>
      <trkpt lat="44.12813" lon="5.73722">
        <ele>1418.2</ele>
      </trkpt>
      <trkpt lat="44.12792" lon="5.73694">
        <ele>1426.6</ele>
      </trkpt>
      <trkpt lat="44.12773" lon="5.73656">
        <ele>1438.9</ele>
      </trkpt>
      <trkpt lat="44.12772" lon="5.7364">
        <ele>1443.7</ele>
      </trkpt>
      <trkpt lat="44.12782" lon="5.73603">
        <ele>1453.6</ele>
      </trkpt>
      <trkpt lat="44.12787" lon="5.73563">
        <ele>1463.7</ele>
      </trkpt>
      <trkpt lat="44.12778" lon="5.73512">
        <ele>1478.5</ele>
      </trkpt>
      <trkpt lat="44.12769" lon="5.735">
        <ele>1483.3</ele>
      </trkpt>
      <trkpt lat="44.12753" lon="5.73409">
        <ele>1507.1</ele>
      </trkpt>
      <trkpt lat="44.12721" lon="5.73306">
        <ele>1530.2</ele>
      </trkpt>
      <trkpt lat="44.12706" lon="5.73276">
        <ele>1538.2</ele>
      </trkpt>
      <trkpt lat="44.1265" lon="5.73136">
        <ele>1565</ele>
      </trkpt>
      <trkpt lat="44.12639" lon="5.73099">
        <ele>1569.9</ele>
      </trkpt>
      <trkpt lat="44.12634" lon="5.73057">
        <ele>1575.7</ele>
      </trkpt>
      <trkpt lat="44.12618" lon="5.73017">
        <ele>1581.1</ele>
      </trkpt>
      <trkpt lat="44.12608" lon="5.72976">
        <ele>1583.9</ele>
      </trkpt>
      <trkpt lat="44.12555" lon="5.72858">
        <ele>1592.2</ele>
      </trkpt>
      <trkpt lat="44.12485" lon="5.7278">
        <ele>1594.9</ele>
      </trkpt>
      <trkpt lat="44.12439" lon="5.72743">
        <ele>1594.8</ele>
      </trkpt>
      <trkpt lat="44.1241" lon="5.72731">
        <ele>1594</ele>
      </trkpt>
      <trkpt lat="44.12439" lon="5.72743">
        <ele>1594.8</ele>
      </trkpt>
      <trkpt lat="44.12514" lon="5.72779">
        <ele>1595.5</ele>
      </trkpt>
      <trkpt lat="44.12593" lon="5.72832">
        <ele>1595.4</ele>
      </trkpt>
      <trkpt lat="44.12682" lon="5.72877">
        <ele>1602</ele>
      </trkpt>
      <trkpt lat="44.12753" lon="5.72894">
        <ele>1610.3</ele>
      </trkpt>
      <trkpt lat="44.12835" lon="5.72882">
        <ele>1617.6</ele>
      </trkpt>
      <trkpt lat="44.1286" lon="5.72884">
        <ele>1618.6</ele>
      </trkpt>
      <trkpt lat="44.12907" lon="5.72882">
        <ele>1618.5</ele>
      </trkpt>
      <trkpt lat="44.12962" lon="5.72856">
        <ele>1615.5</ele>
      </trkpt>
      <trkpt lat="44.13071" lon="5.72784">
        <ele>1600</ele>
      </trkpt>
      <trkpt lat="44.13107" lon="5.72767">
        <ele>1600.8</ele>
      </trkpt>
      <trkpt lat="44.13125" lon="5.72747">
        <ele>1601.8</ele>
      </trkpt>
      <trkpt lat="44.13165" lon="5.72697">
        <ele>1603.6</ele>
      </trkpt>
      <trkpt lat="44.13176" lon="5.72686">
        <ele>1604.4</ele>
      </trkpt>
      <trkpt lat="44.13189" lon="5.72658">
        <ele>1608.2</ele>
      </trkpt>
      <trkpt lat="44.132" lon="5.72603">
        <ele>1614.3</ele>
      </trkpt>
      <trkpt lat="44.13216" lon="5.72542">
        <ele>1622.7</ele>
      </trkpt>
      <trkpt lat="44.13237" lon="5.72506">
        <ele>1625.2</ele>
      </trkpt>
      <trkpt lat="44.13253" lon="5.72487">
        <ele>1625.3</ele>
      </trkpt>
      <trkpt lat="44.13267" lon="5.72476">
        <ele>1623.6</ele>
      </trkpt>
      <trkpt lat="44.13283" lon="5.72436">
        <ele>1619.7</ele>
      </trkpt>
      <trkpt lat="44.13306" lon="5.72388">
        <ele>1612.7</ele>
      </trkpt>
      <trkpt lat="44.13328" lon="5.72354">
        <ele>1605.5</ele>
      </trkpt>
      <trkpt lat="44.13363" lon="5.72314">
        <ele>1596</ele>
      </trkpt>
      <trkpt lat="44.13383" lon="5.72302">
        <ele>1593.2</ele>
      </trkpt>
      <trkpt lat="44.13396" lon="5.7229">
        <ele>1590.7</ele>
      </trkpt>
      <trkpt lat="44.13421" lon="5.72258">
        <ele>1586.2</ele>
      </trkpt>
      <trkpt lat="44.13442" lon="5.72236">
        <ele>1581</ele>
      </trkpt>
      <trkpt lat="44.13477" lon="5.72222">
        <ele>1575.1</ele>
      </trkpt>
      <trkpt lat="44.13509" lon="5.72167">
        <ele>1559.4</ele>
      </trkpt>
      <trkpt lat="44.13532" lon="5.72141">
        <ele>1548.7</ele>
      </trkpt>
      <trkpt lat="44.13543" lon="5.72129">
        <ele>1543.3</ele>
      </trkpt>
      <trkpt lat="44.13576" lon="5.72108">
        <ele>1532</ele>
      </trkpt>
      <trkpt lat="44.13593" lon="5.72081">
        <ele>1521.1</ele>
      </trkpt>
      <trkpt lat="44.13612" lon="5.72077">
        <ele>1517.8</ele>
      </trkpt>
      <trkpt lat="44.13634" lon="5.72052">
        <ele>1508.6</ele>
      </trkpt>
      <trkpt lat="44.13638" lon="5.72034">
        <ele>1504.4</ele>
      </trkpt>
      <trkpt lat="44.13658" lon="5.72012">
        <ele>1497.1</ele>
      </trkpt>
      <trkpt lat="44.13678" lon="5.72015">
        <ele>1493.1</ele>
      </trkpt>
      <trkpt lat="44.13717" lon="5.71946">
        <ele>1480.7</ele>
      </trkpt>
      <trkpt lat="44.13742" lon="5.71912">
        <ele>1479.5</ele>
      </trkpt>
      <trkpt lat="44.13758" lon="5.71868">
        <ele>1486.6</ele>
      </trkpt>
      <trkpt lat="44.13772" lon="5.71848">
        <ele>1488.5</ele>
      </trkpt>
      <trkpt lat="44.13775" lon="5.71818">
        <ele>1491.5</ele>
      </trkpt>
      <trkpt lat="44.13772" lon="5.71804">
        <ele>1493.1</ele>
      </trkpt>
      <trkpt lat="44.13746" lon="5.7175">
        <ele>1502.4</ele>
      </trkpt>
      <trkpt lat="44.13743" lon="5.71732">
        <ele>1504.4</ele>
      </trkpt>
      <trkpt lat="44.13732" lon="5.71716">
        <ele>1508</ele>
      </trkpt>
      <trkpt lat="44.13726" lon="5.71674">
        <ele>1514.7</ele>
      </trkpt>
      <trkpt lat="44.13716" lon="5.71664">
        <ele>1517.4</ele>
      </trkpt>
      <trkpt lat="44.13716" lon="5.71636">
        <ele>1518.7</ele>
      </trkpt>
      <trkpt lat="44.13702" lon="5.71626">
        <ele>1520.5</ele>
      </trkpt>
      <trkpt lat="44.13696" lon="5.7161">
        <ele>1521.8</ele>
      </trkpt>
      <trkpt lat="44.13681" lon="5.71594">
        <ele>1522.6</ele>
      </trkpt>
      <trkpt lat="44.13668" lon="5.71561">
        <ele>1524.6</ele>
      </trkpt>
      <trkpt lat="44.13655" lon="5.71556">
        <ele>1525.4</ele>
      </trkpt>
      <trkpt lat="44.13649" lon="5.71542">
        <ele>1525.6</ele>
      </trkpt>
      <trkpt lat="44.13645" lon="5.71494">
        <ele>1525.6</ele>
      </trkpt>
      <trkpt lat="44.13646" lon="5.7144">
        <ele>1523.8</ele>
      </trkpt>
      <trkpt lat="44.13626" lon="5.71393">
        <ele>1524.7</ele>
      </trkpt>
      <trkpt lat="44.13613" lon="5.71372">
        <ele>1524.8</ele>
      </trkpt>
      <trkpt lat="44.13612" lon="5.71361">
        <ele>1523.8</ele>
      </trkpt>
      <trkpt lat="44.136" lon="5.71356">
        <ele>1524.8</ele>
      </trkpt>
      <trkpt lat="44.13586" lon="5.7134">
        <ele>1525.8</ele>
      </trkpt>
      <trkpt lat="44.13579" lon="5.71338">
        <ele>1526.5</ele>
      </trkpt>
      <trkpt lat="44.13569" lon="5.7133">
        <ele>1526.9</ele>
      </trkpt>
      <trkpt lat="44.13565" lon="5.71316">
        <ele>1526.5</ele>
      </trkpt>
      <trkpt lat="44.13578" lon="5.71291">
        <ele>1523</ele>
      </trkpt>
      <trkpt lat="44.13578" lon="5.71279">
        <ele>1521.7</ele>
      </trkpt>
      <trkpt lat="44.13583" lon="5.71264">
        <ele>1519.1</ele>
      </trkpt>
      <trkpt lat="44.13575" lon="5.71238">
        <ele>1514.9</ele>
      </trkpt>
      <trkpt lat="44.13569" lon="5.71186">
        <ele>1501</ele>
      </trkpt>
      <trkpt lat="44.13559" lon="5.7116">
        <ele>1494.6</ele>
      </trkpt>
      <trkpt lat="44.13552" lon="5.71153">
        <ele>1493.3</ele>
      </trkpt>
      <trkpt lat="44.13555" lon="5.71134">
        <ele>1487.6</ele>
      </trkpt>
      <trkpt lat="44.13548" lon="5.71115">
        <ele>1482.7</ele>
      </trkpt>
      <trkpt lat="44.13548" lon="5.71096">
        <ele>1477.2</ele>
      </trkpt>
      <trkpt lat="44.13543" lon="5.71075">
        <ele>1471.4</ele>
      </trkpt>
      <trkpt lat="44.13565" lon="5.71051">
        <ele>1462.1</ele>
      </trkpt>
      <trkpt lat="44.13549" lon="5.71025">
        <ele>1454.2</ele>
      </trkpt>
      <trkpt lat="44.13562" lon="5.7101">
        <ele>1448.1</ele>
      </trkpt>
      <trkpt lat="44.13584" lon="5.71005">
        <ele>1444.5</ele>
      </trkpt>
      <trkpt lat="44.13595" lon="5.70992">
        <ele>1437.9</ele>
      </trkpt>
      <trkpt lat="44.13608" lon="5.70989">
        <ele>1434.6</ele>
      </trkpt>
      <trkpt lat="44.13618" lon="5.70965">
        <ele>1422.7</ele>
      </trkpt>
      <trkpt lat="44.13618" lon="5.70955">
        <ele>1418.5</ele>
      </trkpt>
      <trkpt lat="44.13624" lon="5.70935">
        <ele>1408.7</ele>
      </trkpt>
      <trkpt lat="44.13621" lon="5.70918">
        <ele>1403</ele>
      </trkpt>
      <trkpt lat="44.13621" lon="5.70897">
        <ele>1394.3</ele>
      </trkpt>
      <trkpt lat="44.13604" lon="5.70866">
        <ele>1385</ele>
      </trkpt>
      <trkpt lat="44.13607" lon="5.7083">
        <ele>1371.2</ele>
      </trkpt>
      <trkpt lat="44.13614" lon="5.70802">
        <ele>1360.3</ele>
      </trkpt>
      <trkpt lat="44.1361" lon="5.7079">
        <ele>1357.1</ele>
      </trkpt>
      <trkpt lat="44.1361" lon="5.70775">
        <ele>1352.1</ele>
      </trkpt>
      <trkpt lat="44.13622" lon="5.70761">
        <ele>1344.8</ele>
      </trkpt>
      <trkpt lat="44.13611" lon="5.70744">
        <ele>1340.8</ele>
      </trkpt>
      <trkpt lat="44.13614" lon="5.70723">
        <ele>1333</ele>
      </trkpt>
      <trkpt lat="44.13609" lon="5.70714">
        <ele>1330.4</ele>
      </trkpt>
      <trkpt lat="44.13606" lon="5.70697">
        <ele>1324.8</ele>
      </trkpt>
      <trkpt lat="44.13633" lon="5.7066">
        <ele>1312.1</ele>
      </trkpt>
      <trkpt lat="44.13664" lon="5.70622">
        <ele>1301.6</ele>
      </trkpt>
      <trkpt lat="44.13673" lon="5.70617">
        <ele>1299.9</ele>
      </trkpt>
      <trkpt lat="44.13699" lon="5.70589">
        <ele>1293.5</ele>
      </trkpt>
      <trkpt lat="44.13707" lon="5.70556">
        <ele>1291.6</ele>
      </trkpt>
      <trkpt lat="44.13692" lon="5.7055">
        <ele>1293.3</ele>
      </trkpt>
      <trkpt lat="44.13697" lon="5.7053">
        <ele>1293.8</ele>
      </trkpt>
      <trkpt lat="44.13692" lon="5.7055">
        <ele>1293.3</ele>
      </trkpt>
      <trkpt lat="44.13654" lon="5.70537">
        <ele>1292.9</ele>
      </trkpt>
      <trkpt lat="44.1362" lon="5.70541">
        <ele>1289.6</ele>
      </trkpt>
      <trkpt lat="44.13566" lon="5.70558">
        <ele>1280.6</ele>
      </trkpt>
      <trkpt lat="44.1355" lon="5.70561">
        <ele>1277.8</ele>
      </trkpt>
      <trkpt lat="44.13487" lon="5.70541">
        <ele>1264.5</ele>
      </trkpt>
      <trkpt lat="44.13457" lon="5.70534">
        <ele>1257.8</ele>
      </trkpt>
      <trkpt lat="44.13435" lon="5.70527">
        <ele>1253.5</ele>
      </trkpt>
      <trkpt lat="44.13407" lon="5.70524">
        <ele>1248.8</ele>
      </trkpt>
      <trkpt lat="44.13129" lon="5.70484">
        <ele>1203.4</ele>
      </trkpt>
      <trkpt lat="44.13104" lon="5.70473">
        <ele>1197.4</ele>
      </trkpt>
      <trkpt lat="44.1307" lon="5.70448">
        <ele>1193.6</ele>
      </trkpt>
      <trkpt lat="44.12989" lon="5.7045">
        <ele>1179.5</ele>
      </trkpt>
      <trkpt lat="44.12936" lon="5.70445">
        <ele>1171.2</ele>
      </trkpt>
      <trkpt lat="44.12925" lon="5.70441">
        <ele>1170</ele>
      </trkpt>
      <trkpt lat="44.12907" lon="5.70429">
        <ele>1167.8</ele>
      </trkpt>
      <trkpt lat="44.12845" lon="5.70413">
        <ele>1157.9</ele>
      </trkpt>
      <trkpt lat="44.12805" lon="5.7041">
        <ele>1154</ele>
      </trkpt>
      <trkpt lat="44.12783" lon="5.70397">
        <ele>1151.2</ele>
      </trkpt>
      <trkpt lat="44.12755" lon="5.70387">
        <ele>1146.9</ele>
      </trkpt>
      <trkpt lat="44.12722" lon="5.70362">
        <ele>1144</ele>
      </trkpt>
      <trkpt lat="44.12603" lon="5.70327">
        <ele>1133.4</ele>
      </trkpt>
      <trkpt lat="44.12546" lon="5.70333">
        <ele>1125.1</ele>
      </trkpt>
      <trkpt lat="44.125" lon="5.70345">
        <ele>1123.4</ele>
      </trkpt>
      <trkpt lat="44.12446" lon="5.7035">
        <ele>1117.6</ele>
      </trkpt>
      <trkpt lat="44.12412" lon="5.70334">
        <ele>1111.2</ele>
      </trkpt>
      <trkpt lat="44.1239" lon="5.70333">
        <ele>1107.3</ele>
      </trkpt>
      <trkpt lat="44.12358" lon="5.70316">
        <ele>1107</ele>
      </trkpt>
      <trkpt lat="44.12341" lon="5.70314">
        <ele>1103.9</ele>
      </trkpt>
      <trkpt lat="44.12309" lon="5.70316">
        <ele>1096.9</ele>
      </trkpt>
      <trkpt lat="44.12295" lon="5.70312">
        <ele>1094.5</ele>
      </trkpt>
      <trkpt lat="44.12265" lon="5.70307">
        <ele>1087.9</ele>
      </trkpt>
      <trkpt lat="44.12245" lon="5.70315">
        <ele>1084.1</ele>
      </trkpt>
      <trkpt lat="44.12227" lon="5.70317">
        <ele>1081</ele>
      </trkpt>
      <trkpt lat="44.12206" lon="5.70309">
        <ele>1075.4</ele>
      </trkpt>
      <trkpt lat="44.12157" lon="5.70306">
        <ele>1068.5</ele>
      </trkpt>
      <trkpt lat="44.12123" lon="5.70297">
        <ele>1064.9</ele>
      </trkpt>
      <trkpt lat="44.12077" lon="5.70272">
        <ele>1053</ele>
      </trkpt>
      <trkpt lat="44.12058" lon="5.70267">
        <ele>1049.6</ele>
      </trkpt>
      <trkpt lat="44.1204" lon="5.70264">
        <ele>1047.6</ele>
      </trkpt>
      <trkpt lat="44.12029" lon="5.70266">
        <ele>1046.7</ele>
      </trkpt>
      <trkpt lat="44.12011" lon="5.70274">
        <ele>1045.3</ele>
      </trkpt>
      <trkpt lat="44.11989" lon="5.70275">
        <ele>1043.1</ele>
      </trkpt>
      <trkpt lat="44.11988" lon="5.70275">
        <ele>1043</ele>
      </trkpt>
      <trkpt lat="44.11975" lon="5.70279">
        <ele>1041.7</ele>
      </trkpt>
      <trkpt lat="44.11964" lon="5.7028">
        <ele>1041.1</ele>
      </trkpt>
      <trkpt lat="44.11956" lon="5.70277">
        <ele>1039.9</ele>
      </trkpt>
      <trkpt lat="44.11942" lon="5.70269">
        <ele>1040.3</ele>
      </trkpt>
      <trkpt lat="44.11957" lon="5.70267">
        <ele>1041.5</ele>
      </trkpt>
      <trkpt lat="44.11973" lon="5.70259">
        <ele>1043.8</ele>
      </trkpt>
      <trkpt lat="44.1202" lon="5.70249">
        <ele>1046.3</ele>
      </trkpt>
      <trkpt lat="44.1203" lon="5.70245">
        <ele>1047.3</ele>
      </trkpt>
      <trkpt lat="44.12052" lon="5.70228">
        <ele>1049.8</ele>
      </trkpt>
      <trkpt lat="44.12075" lon="5.70215">
        <ele>1053.1</ele>
      </trkpt>
      <trkpt lat="44.12091" lon="5.702">
        <ele>1055.7</ele>
      </trkpt>
      <trkpt lat="44.12102" lon="5.70185">
        <ele>1058.2</ele>
      </trkpt>
      <trkpt lat="44.12118" lon="5.70144">
        <ele>1060</ele>
      </trkpt>
      <trkpt lat="44.12144" lon="5.70109">
        <ele>1061.1</ele>
      </trkpt>
      <trkpt lat="44.12156" lon="5.70081">
        <ele>1063.4</ele>
      </trkpt>
      <trkpt lat="44.12187" lon="5.70031">
        <ele>1069.4</ele>
      </trkpt>
      <trkpt lat="44.12196" lon="5.70007">
        <ele>1069.2</ele>
      </trkpt>
      <trkpt lat="44.122" lon="5.69975">
        <ele>1070.4</ele>
      </trkpt>
      <trkpt lat="44.12207" lon="5.69941">
        <ele>1073.4</ele>
      </trkpt>
      <trkpt lat="44.12246" lon="5.69845">
        <ele>1079.8</ele>
      </trkpt>
      <trkpt lat="44.1226" lon="5.69821">
        <ele>1080.4</ele>
      </trkpt>
      <trkpt lat="44.12291" lon="5.69794">
        <ele>1083.1</ele>
      </trkpt>
      <trkpt lat="44.12314" lon="5.69783">
        <ele>1085.6</ele>
      </trkpt>
      <trkpt lat="44.12377" lon="5.69766">
        <ele>1095</ele>
      </trkpt>
      <trkpt lat="44.12396" lon="5.69762">
        <ele>1097.9</ele>
      </trkpt>
      <trkpt lat="44.12441" lon="5.69728">
        <ele>1099.1</ele>
      </trkpt>
      <trkpt lat="44.12479" lon="5.69712">
        <ele>1102.8</ele>
      </trkpt>
      <trkpt lat="44.12517" lon="5.69704">
        <ele>1105.7</ele>
      </trkpt>
      <trkpt lat="44.12566" lon="5.69724">
        <ele>1108.1</ele>
      </trkpt>
      <trkpt lat="44.12591" lon="5.69708">
        <ele>1109.2</ele>
      </trkpt>
      <trkpt lat="44.12643" lon="5.69714">
        <ele>1111.6</ele>
      </trkpt>
      <trkpt lat="44.12736" lon="5.69687">
        <ele>1118.7</ele>
      </trkpt>
      <trkpt lat="44.12773" lon="5.69661">
        <ele>1121.9</ele>
      </trkpt>
      <trkpt lat="44.12813" lon="5.69617">
        <ele>1124.6</ele>
      </trkpt>
      <trkpt lat="44.12827" lon="5.69523">
        <ele>1129.2</ele>
      </trkpt>
      <trkpt lat="44.12833" lon="5.69431">
        <ele>1136.6</ele>
      </trkpt>
      <trkpt lat="44.12856" lon="5.69335">
        <ele>1144.1</ele>
      </trkpt>
      <trkpt lat="44.12892" lon="5.69261">
        <ele>1149.3</ele>
      </trkpt>
      <trkpt lat="44.12933" lon="5.69151">
        <ele>1157.7</ele>
      </trkpt>
      <trkpt lat="44.13011" lon="5.68977">
        <ele>1169.5</ele>
      </trkpt>
      <trkpt lat="44.13031" lon="5.6886">
        <ele>1177.3</ele>
      </trkpt>
      <trkpt lat="44.13061" lon="5.68785">
        <ele>1183.2</ele>
      </trkpt>
      <trkpt lat="44.13091" lon="5.68767">
        <ele>1186.1</ele>
      </trkpt>
      <trkpt lat="44.13109" lon="5.68752">
        <ele>1188</ele>
      </trkpt>
      <trkpt lat="44.13118" lon="5.68728">
        <ele>1190.6</ele>
      </trkpt>
      <trkpt lat="44.13062" lon="5.68764">
        <ele>1186.6</ele>
      </trkpt>
      <trkpt lat="44.13003" lon="5.68804">
        <ele>1187.7</ele>
      </trkpt>
      <trkpt lat="44.12974" lon="5.68815">
        <ele>1192.9</ele>
      </trkpt>
      <trkpt lat="44.12931" lon="5.68844">
        <ele>1196.3</ele>
      </trkpt>
      <trkpt lat="44.12898" lon="5.68835">
        <ele>1202.5</ele>
      </trkpt>
      <trkpt lat="44.1288" lon="5.68818">
        <ele>1205.9</ele>
      </trkpt>
      <trkpt lat="44.12871" lon="5.68804">
        <ele>1207.4</ele>
      </trkpt>
      <trkpt lat="44.12865" lon="5.68789">
        <ele>1209</ele>
      </trkpt>
      <trkpt lat="44.12901" lon="5.6875">
        <ele>1211.6</ele>
      </trkpt>
      <trkpt lat="44.12955" lon="5.68716">
        <ele>1214.8</ele>
      </trkpt>
      <trkpt lat="44.13014" lon="5.68671">
        <ele>1220.7</ele>
      </trkpt>
      <trkpt lat="44.13035" lon="5.68646">
        <ele>1224.2</ele>
      </trkpt>
      <trkpt lat="44.13042" lon="5.68635">
        <ele>1225.7</ele>
      </trkpt>
      <trkpt lat="44.13083" lon="5.68556">
        <ele>1232</ele>
      </trkpt>
      <trkpt lat="44.13085" lon="5.6851">
        <ele>1236.6</ele>
      </trkpt>
      <trkpt lat="44.13076" lon="5.68473">
        <ele>1241.3</ele>
      </trkpt>
      <trkpt lat="44.13057" lon="5.68414">
        <ele>1247.8</ele>
      </trkpt>
      <trkpt lat="44.13058" lon="5.68398">
        <ele>1247.1</ele>
      </trkpt>
      <trkpt lat="44.13061" lon="5.68392">
        <ele>1246.7</ele>
      </trkpt>
      <trkpt lat="44.13067" lon="5.68389">
        <ele>1246.2</ele>
      </trkpt>
      <trkpt lat="44.13116" lon="5.68313">
        <ele>1244.1</ele>
      </trkpt>
      <trkpt lat="44.13124" lon="5.68303">
        <ele>1244.7</ele>
      </trkpt>
      <trkpt lat="44.13136" lon="5.68285">
        <ele>1245.8</ele>
      </trkpt>
      <trkpt lat="44.1314" lon="5.68263">
        <ele>1245.7</ele>
      </trkpt>
      <trkpt lat="44.1314" lon="5.68211">
        <ele>1245.8</ele>
      </trkpt>
      <trkpt lat="44.13132" lon="5.68188">
        <ele>1243.5</ele>
      </trkpt>
      <trkpt lat="44.13072" lon="5.68116">
        <ele>1230.5</ele>
      </trkpt>
      <trkpt lat="44.13066" lon="5.68104">
        <ele>1229.3</ele>
      </trkpt>
      <trkpt lat="44.13063" lon="5.68092">
        <ele>1228.7</ele>
      </trkpt>
      <trkpt lat="44.13074" lon="5.68087">
        <ele>1229.5</ele>
      </trkpt>
      <trkpt lat="44.13063" lon="5.68092">
        <ele>1228.7</ele>
      </trkpt>
      <trkpt lat="44.13052" lon="5.68078">
        <ele>1227.7</ele>
      </trkpt>
      <trkpt lat="44.13042" lon="5.68074">
        <ele>1227.3</ele>
      </trkpt>
      <trkpt lat="44.13031" lon="5.68076">
        <ele>1227.1</ele>
      </trkpt>
      <trkpt lat="44.13012" lon="5.68092">
        <ele>1226.9</ele>
      </trkpt>
      <trkpt lat="44.12983" lon="5.68107">
        <ele>1226.1</ele>
      </trkpt>
      <trkpt lat="44.1287" lon="5.68135">
        <ele>1236.5</ele>
      </trkpt>
      <trkpt lat="44.12794" lon="5.68141">
        <ele>1242</ele>
      </trkpt>
      <trkpt lat="44.12757" lon="5.6817">
        <ele>1241.8</ele>
      </trkpt>
      <trkpt lat="44.12717" lon="5.68196">
        <ele>1241.6</ele>
      </trkpt>
      <trkpt lat="44.12603" lon="5.68232">
        <ele>1234.7</ele>
      </trkpt>
      <trkpt lat="44.12593" lon="5.68238">
        <ele>1234.6</ele>
      </trkpt>
      <trkpt lat="44.12575" lon="5.68255">
        <ele>1234</ele>
      </trkpt>
      <trkpt lat="44.12537" lon="5.68272">
        <ele>1231.1</ele>
      </trkpt>
      <trkpt lat="44.12526" lon="5.68281">
        <ele>1230.6</ele>
      </trkpt>
      <trkpt lat="44.12509" lon="5.68302">
        <ele>1228.6</ele>
      </trkpt>
      <trkpt lat="44.12455" lon="5.68325">
        <ele>1227.9</ele>
      </trkpt>
      <trkpt lat="44.12444" lon="5.68324">
        <ele>1229.1</ele>
      </trkpt>
      <trkpt lat="44.12344" lon="5.68268">
        <ele>1227</ele>
      </trkpt>
      <trkpt lat="44.1228" lon="5.6824">
        <ele>1226.4</ele>
      </trkpt>
      <trkpt lat="44.12242" lon="5.68241">
        <ele>1226.8</ele>
      </trkpt>
      <trkpt lat="44.12232" lon="5.68245">
        <ele>1226.9</ele>
      </trkpt>
      <trkpt lat="44.12213" lon="5.68266">
        <ele>1226.8</ele>
      </trkpt>
      <trkpt lat="44.12203" lon="5.68259">
        <ele>1224.9</ele>
      </trkpt>
      <trkpt lat="44.12193" lon="5.68258">
        <ele>1223.4</ele>
      </trkpt>
      <trkpt lat="44.12177" lon="5.68261">
        <ele>1221</ele>
      </trkpt>
      <trkpt lat="44.12172" lon="5.68258">
        <ele>1220.1</ele>
      </trkpt>
      <trkpt lat="44.12159" lon="5.68226">
        <ele>1217.6</ele>
      </trkpt>
      <trkpt lat="44.12153" lon="5.68196">
        <ele>1216.1</ele>
      </trkpt>
      <trkpt lat="44.12151" lon="5.68132">
        <ele>1212.4</ele>
      </trkpt>
      <trkpt lat="44.12149" lon="5.68126">
        <ele>1211.8</ele>
      </trkpt>
      <trkpt lat="44.1214" lon="5.68117">
        <ele>1210.5</ele>
      </trkpt>
      <trkpt lat="44.1213" lon="5.68111">
        <ele>1209</ele>
      </trkpt>
      <trkpt lat="44.12108" lon="5.68111">
        <ele>1206.7</ele>
      </trkpt>
      <trkpt lat="44.12104" lon="5.68107">
        <ele>1205.9</ele>
      </trkpt>
      <trkpt lat="44.12094" lon="5.68079">
        <ele>1202.7</ele>
      </trkpt>
      <trkpt lat="44.12086" lon="5.68069">
        <ele>1200.7</ele>
      </trkpt>
      <trkpt lat="44.12081" lon="5.68066">
        <ele>1199.8</ele>
      </trkpt>
      <trkpt lat="44.1205" lon="5.68065">
        <ele>1195.8</ele>
      </trkpt>
      <trkpt lat="44.12045" lon="5.6806">
        <ele>1194.7</ele>
      </trkpt>
      <trkpt lat="44.1201" lon="5.68051">
        <ele>1189.5</ele>
      </trkpt>
      <trkpt lat="44.11974" lon="5.68029">
        <ele>1186.1</ele>
      </trkpt>
      <trkpt lat="44.11956" lon="5.68023">
        <ele>1185</ele>
      </trkpt>
      <trkpt lat="44.11944" lon="5.67996">
        <ele>1185</ele>
      </trkpt>
      <trkpt lat="44.11925" lon="5.67981">
        <ele>1185.5</ele>
      </trkpt>
      <trkpt lat="44.11869" lon="5.67952">
        <ele>1188.2</ele>
      </trkpt>
      <trkpt lat="44.11841" lon="5.67939">
        <ele>1189.9</ele>
      </trkpt>
      <trkpt lat="44.11813" lon="5.67937">
        <ele>1190.3</ele>
      </trkpt>
      <trkpt lat="44.11793" lon="5.67926">
        <ele>1190.2</ele>
      </trkpt>
      <trkpt lat="44.11782" lon="5.67924">
        <ele>1189.9</ele>
      </trkpt>
      <trkpt lat="44.1175" lon="5.67898">
        <ele>1188</ele>
      </trkpt>
      <trkpt lat="44.1174" lon="5.67904">
        <ele>1187.3</ele>
      </trkpt>
      <trkpt lat="44.11734" lon="5.67904">
        <ele>1186.8</ele>
      </trkpt>
      <trkpt lat="44.11724" lon="5.67899">
        <ele>1186.1</ele>
      </trkpt>
      <trkpt lat="44.11719" lon="5.67898">
        <ele>1185.8</ele>
      </trkpt>
      <trkpt lat="44.11693" lon="5.67899">
        <ele>1183.9</ele>
      </trkpt>
      <trkpt lat="44.11674" lon="5.67885">
        <ele>1183.1</ele>
      </trkpt>
      <trkpt lat="44.11643" lon="5.67871">
        <ele>1180.7</ele>
      </trkpt>
      <trkpt lat="44.11599" lon="5.67861">
        <ele>1177.1</ele>
      </trkpt>
      <trkpt lat="44.1159" lon="5.67856">
        <ele>1176.3</ele>
      </trkpt>
      <trkpt lat="44.11571" lon="5.6784">
        <ele>1173.9</ele>
      </trkpt>
      <trkpt lat="44.11518" lon="5.6781">
        <ele>1167</ele>
      </trkpt>
      <trkpt lat="44.11501" lon="5.67793">
        <ele>1164.6</ele>
      </trkpt>
      <trkpt lat="44.11491" lon="5.67786">
        <ele>1163.6</ele>
      </trkpt>
      <trkpt lat="44.11439" lon="5.67776">
        <ele>1158.6</ele>
      </trkpt>
      <trkpt lat="44.11393" lon="5.6776">
        <ele>1155.5</ele>
      </trkpt>
      <trkpt lat="44.11331" lon="5.67722">
        <ele>1152.8</ele>
      </trkpt>
      <trkpt lat="44.11271" lon="5.67696">
        <ele>1150.4</ele>
      </trkpt>
      <trkpt lat="44.11187" lon="5.67645">
        <ele>1144.4</ele>
      </trkpt>
      <trkpt lat="44.11172" lon="5.67603">
        <ele>1142</ele>
      </trkpt>
      <trkpt lat="44.11168" lon="5.67599">
        <ele>1141.6</ele>
      </trkpt>
      <trkpt lat="44.11147" lon="5.67595">
        <ele>1140.4</ele>
      </trkpt>
      <trkpt lat="44.11137" lon="5.67587">
        <ele>1139.8</ele>
      </trkpt>
      <trkpt lat="44.11117" lon="5.67562">
        <ele>1138.1</ele>
      </trkpt>
      <trkpt lat="44.11088" lon="5.67563">
        <ele>1136.7</ele>
      </trkpt>
      <trkpt lat="44.11061" lon="5.6756">
        <ele>1137.9</ele>
      </trkpt>
      <trkpt lat="44.11059" lon="5.67546">
        <ele>1139.1</ele>
      </trkpt>
      <trkpt lat="44.11055" lon="5.67541">
        <ele>1139.5</ele>
      </trkpt>
      <trkpt lat="44.11011" lon="5.67527">
        <ele>1142.6</ele>
      </trkpt>
      <trkpt lat="44.10974" lon="5.67506">
        <ele>1144.8</ele>
      </trkpt>
      <trkpt lat="44.10953" lon="5.67506">
        <ele>1147.8</ele>
      </trkpt>
      <trkpt lat="44.10932" lon="5.67517">
        <ele>1151.7</ele>
      </trkpt>
      <trkpt lat="44.10819" lon="5.67626">
        <ele>1161.1</ele>
      </trkpt>
      <trkpt lat="44.108" lon="5.67639">
        <ele>1161.8</ele>
      </trkpt>
      <trkpt lat="44.10789" lon="5.67642">
        <ele>1162.4</ele>
      </trkpt>
      <trkpt lat="44.10778" lon="5.67642">
        <ele>1164</ele>
      </trkpt>
      <trkpt lat="44.1067" lon="5.67622">
        <ele>1170.1</ele>
      </trkpt>
      <trkpt lat="44.1066" lon="5.67615">
        <ele>1171.3</ele>
      </trkpt>
      <trkpt lat="44.10652" lon="5.67605">
        <ele>1172.9</ele>
      </trkpt>
      <trkpt lat="44.10618" lon="5.67602">
        <ele>1172.6</ele>
      </trkpt>
      <trkpt lat="44.1054" lon="5.6758">
        <ele>1173.8</ele>
      </trkpt>
      <trkpt lat="44.10527" lon="5.67578">
        <ele>1173.6</ele>
      </trkpt>
      <trkpt lat="44.10484" lon="5.6757">
        <ele>1175</ele>
      </trkpt>
      <trkpt lat="44.10449" lon="5.67583">
        <ele>1175</ele>
      </trkpt>
      <trkpt lat="44.10358" lon="5.67632">
        <ele>1172.9</ele>
      </trkpt>
      <trkpt lat="44.10264" lon="5.67663">
        <ele>1172.2</ele>
      </trkpt>
      <trkpt lat="44.10165" lon="5.67687">
        <ele>1179.1</ele>
      </trkpt>
      <trkpt lat="44.10154" lon="5.67688">
        <ele>1179.7</ele>
      </trkpt>
      <trkpt lat="44.10135" lon="5.67701">
        <ele>1180.6</ele>
      </trkpt>
      <trkpt lat="44.10128" lon="5.67713">
        <ele>1179.9</ele>
      </trkpt>
      <trkpt lat="44.10118" lon="5.67717">
        <ele>1180</ele>
      </trkpt>
      <trkpt lat="44.10105" lon="5.67717">
        <ele>1180.1</ele>
      </trkpt>
      <trkpt lat="44.10067" lon="5.67707">
        <ele>1178.5</ele>
      </trkpt>
      <trkpt lat="44.10003" lon="5.67675">
        <ele>1168.4</ele>
      </trkpt>
      <trkpt lat="44.09994" lon="5.67668">
        <ele>1167.1</ele>
      </trkpt>
      <trkpt lat="44.0994" lon="5.67647">
        <ele>1159.6</ele>
      </trkpt>
      <trkpt lat="44.09925" lon="5.67647">
        <ele>1158.4</ele>
      </trkpt>
      <trkpt lat="44.0986" lon="5.67649">
        <ele>1154</ele>
      </trkpt>
      <trkpt lat="44.09693" lon="5.67687">
        <ele>1150.7</ele>
      </trkpt>
      <trkpt lat="44.0967" lon="5.6769">
        <ele>1150.7</ele>
      </trkpt>
      <trkpt lat="44.0966" lon="5.67695">
        <ele>1150.8</ele>
      </trkpt>
      <trkpt lat="44.09643" lon="5.67714">
        <ele>1150.7</ele>
      </trkpt>
      <trkpt lat="44.09632" lon="5.67712">
        <ele>1150.5</ele>
      </trkpt>
      <trkpt lat="44.09622" lon="5.67707">
        <ele>1150.2</ele>
      </trkpt>
      <trkpt lat="44.09603" lon="5.67722">
        <ele>1149.7</ele>
      </trkpt>
      <trkpt lat="44.09581" lon="5.67718">
        <ele>1148.9</ele>
      </trkpt>
      <trkpt lat="44.09569" lon="5.67718">
        <ele>1148.4</ele>
      </trkpt>
      <trkpt lat="44.09558" lon="5.67723">
        <ele>1148</ele>
      </trkpt>
      <trkpt lat="44.09548" lon="5.67732">
        <ele>1146.8</ele>
      </trkpt>
      <trkpt lat="44.09514" lon="5.67725">
        <ele>1144.8</ele>
      </trkpt>
      <trkpt lat="44.09492" lon="5.67726">
        <ele>1142.9</ele>
      </trkpt>
      <trkpt lat="44.09487" lon="5.67722">
        <ele>1142.6</ele>
      </trkpt>
      <trkpt lat="44.09473" lon="5.677">
        <ele>1141.9</ele>
      </trkpt>
      <trkpt lat="44.09462" lon="5.6769">
        <ele>1140.9</ele>
      </trkpt>
      <trkpt lat="44.0944" lon="5.67683">
        <ele>1138.7</ele>
      </trkpt>
      <trkpt lat="44.09424" lon="5.67673">
        <ele>1136.6</ele>
      </trkpt>
      <trkpt lat="44.0938" lon="5.6767">
        <ele>1132.3</ele>
      </trkpt>
      <trkpt lat="44.09372" lon="5.6766">
        <ele>1131.7</ele>
      </trkpt>
      <trkpt lat="44.09353" lon="5.6763">
        <ele>1129.5</ele>
      </trkpt>
      <trkpt lat="44.09342" lon="5.67623">
        <ele>1128.3</ele>
      </trkpt>
      <trkpt lat="44.09312" lon="5.67612">
        <ele>1126.2</ele>
      </trkpt>
      <trkpt lat="44.09295" lon="5.67611">
        <ele>1125.6</ele>
      </trkpt>
      <trkpt lat="44.09264" lon="5.67596">
        <ele>1123.7</ele>
      </trkpt>
      <trkpt lat="44.09227" lon="5.67571">
        <ele>1122</ele>
      </trkpt>
      <trkpt lat="44.09195" lon="5.67564">
        <ele>1121.7</ele>
      </trkpt>
      <trkpt lat="44.0919" lon="5.67547">
        <ele>1121.4</ele>
      </trkpt>
      <trkpt lat="44.0918" lon="5.67536">
        <ele>1121</ele>
      </trkpt>
      <trkpt lat="44.09147" lon="5.67531">
        <ele>1121</ele>
      </trkpt>
      <trkpt lat="44.09128" lon="5.67532">
        <ele>1120</ele>
      </trkpt>
      <trkpt lat="44.09104" lon="5.67582">
        <ele>1112.2</ele>
      </trkpt>
      <trkpt lat="44.09075" lon="5.67626">
        <ele>1097.9</ele>
      </trkpt>
      <trkpt lat="44.09058" lon="5.67644">
        <ele>1091.1</ele>
      </trkpt>
      <trkpt lat="44.09045" lon="5.67648">
        <ele>1087.8</ele>
      </trkpt>
      <trkpt lat="44.09021" lon="5.67659">
        <ele>1080.4</ele>
      </trkpt>
      <trkpt lat="44.08963" lon="5.6767">
        <ele>1064.7</ele>
      </trkpt>
      <trkpt lat="44.08905" lon="5.67681">
        <ele>1044.6</ele>
      </trkpt>
      <trkpt lat="44.08898" lon="5.67642">
        <ele>1049.1</ele>
      </trkpt>
      <trkpt lat="44.08894" lon="5.67601">
        <ele>1057</ele>
      </trkpt>
      <trkpt lat="44.08888" lon="5.67568">
        <ele>1062.7</ele>
      </trkpt>
      <trkpt lat="44.08882" lon="5.67556">
        <ele>1064.4</ele>
      </trkpt>
      <trkpt lat="44.08873" lon="5.67554">
        <ele>1064.2</ele>
      </trkpt>
      <trkpt lat="44.08854" lon="5.67555">
        <ele>1062.4</ele>
      </trkpt>
      <trkpt lat="44.08843" lon="5.67553">
        <ele>1061.7</ele>
      </trkpt>
      <trkpt lat="44.08824" lon="5.67544">
        <ele>1061.6</ele>
      </trkpt>
      <trkpt lat="44.08708" lon="5.67476">
        <ele>1053.6</ele>
      </trkpt>
      <trkpt lat="44.08642" lon="5.67387">
        <ele>1044.1</ele>
      </trkpt>
      <trkpt lat="44.08639" lon="5.67375">
        <ele>1042.5</ele>
      </trkpt>
      <trkpt lat="44.08635" lon="5.67344">
        <ele>1039.9</ele>
      </trkpt>
      <trkpt lat="44.08634" lon="5.67299">
        <ele>1036.2</ele>
      </trkpt>
      <trkpt lat="44.08646" lon="5.67224">
        <ele>1029.3</ele>
      </trkpt>
      <trkpt lat="44.08662" lon="5.67182">
        <ele>1026.4</ele>
      </trkpt>
      <trkpt lat="44.08671" lon="5.67163">
        <ele>1025.3</ele>
      </trkpt>
      <trkpt lat="44.08674" lon="5.67157">
        <ele>1024.8</ele>
      </trkpt>
      <trkpt lat="44.08664" lon="5.67138">
        <ele>1018</ele>
      </trkpt>
      <trkpt lat="44.08654" lon="5.6713">
        <ele>1013.4</ele>
      </trkpt>
      <trkpt lat="44.08646" lon="5.67113">
        <ele>1007.5</ele>
      </trkpt>
      <trkpt lat="44.08618" lon="5.67079">
        <ele>992.1</ele>
      </trkpt>
      <trkpt lat="44.08599" lon="5.67053">
        <ele>983</ele>
      </trkpt>
      <trkpt lat="44.08596" lon="5.67042">
        <ele>980.6</ele>
      </trkpt>
      <trkpt lat="44.08561" lon="5.66999">
        <ele>965.8</ele>
      </trkpt>
      <trkpt lat="44.08536" lon="5.66949">
        <ele>957.1</ele>
      </trkpt>
      <trkpt lat="44.08521" lon="5.66933">
        <ele>955</ele>
      </trkpt>
      <trkpt lat="44.08479" lon="5.66979">
        <ele>954.4</ele>
      </trkpt>
      <trkpt lat="44.08437" lon="5.67036">
        <ele>947.1</ele>
      </trkpt>
      <trkpt lat="44.08396" lon="5.67101">
        <ele>934.7</ele>
      </trkpt>
      <trkpt lat="44.08388" lon="5.67149">
        <ele>926.8</ele>
      </trkpt>
      <trkpt lat="44.0836" lon="5.67277">
        <ele>911.4</ele>
      </trkpt>
      <trkpt lat="44.08334" lon="5.67332">
        <ele>902.2</ele>
      </trkpt>
      <trkpt lat="44.08318" lon="5.67405">
        <ele>894</ele>
      </trkpt>
      <trkpt lat="44.08337" lon="5.67534">
        <ele>881.2</ele>
      </trkpt>
      <trkpt lat="44.08328" lon="5.67582">
        <ele>876.8</ele>
      </trkpt>
      <trkpt lat="44.08314" lon="5.67649">
        <ele>872</ele>
      </trkpt>
      <trkpt lat="44.08314" lon="5.67692">
        <ele>868.1</ele>
      </trkpt>
      <trkpt lat="44.08324" lon="5.67748">
        <ele>865.2</ele>
      </trkpt>
      <trkpt lat="44.08343" lon="5.67791">
        <ele>863</ele>
      </trkpt>
      <trkpt lat="44.08393" lon="5.67866">
        <ele>855</ele>
      </trkpt>
      <trkpt lat="44.08431" lon="5.67972">
        <ele>845.1</ele>
      </trkpt>
      <trkpt lat="44.0847" lon="5.68052">
        <ele>840.9</ele>
      </trkpt>
      <trkpt lat="44.08482" lon="5.68089">
        <ele>837.1</ele>
      </trkpt>
      <trkpt lat="44.08487" lon="5.68116">
        <ele>835.3</ele>
      </trkpt>
      <trkpt lat="44.08509" lon="5.68147">
        <ele>836</ele>
      </trkpt>
      <trkpt lat="44.08495" lon="5.68252">
        <ele>834.3</ele>
      </trkpt>
      <trkpt lat="44.08497" lon="5.68338">
        <ele>834.6</ele>
      </trkpt>
      <trkpt lat="44.08505" lon="5.6836">
        <ele>835.4</ele>
      </trkpt>
      <trkpt lat="44.08516" lon="5.68436">
        <ele>835</ele>
      </trkpt>
      <trkpt lat="44.08512" lon="5.68458">
        <ele>836.3</ele>
      </trkpt>
      <trkpt lat="44.08483" lon="5.68491">
        <ele>838.7</ele>
      </trkpt>
      <trkpt lat="44.08481" lon="5.68487">
        <ele>838.5</ele>
      </trkpt>
      <trkpt lat="44.08468" lon="5.68468">
        <ele>838</ele>
      </trkpt>
      <trkpt lat="44.08467" lon="5.68467">
        <ele>838</ele>
      </trkpt>
      <trkpt lat="44.08468" lon="5.68468">
        <ele>838</ele>
      </trkpt>
      <trkpt lat="44.08481" lon="5.68487">
        <ele>838.5</ele>
      </trkpt>
      <trkpt lat="44.08483" lon="5.68491">
        <ele>838.7</ele>
      </trkpt>
      <trkpt lat="44.08514" lon="5.68548">
        <ele>841.6</ele>
      </trkpt>
      <trkpt lat="44.0853" lon="5.6858">
        <ele>843.1</ele>
      </trkpt>
      <trkpt lat="44.08541" lon="5.68599">
        <ele>843.7</ele>
      </trkpt>
      <trkpt lat="44.08565" lon="5.68638">
        <ele>845.3</ele>
      </trkpt>
      <trkpt lat="44.0858" lon="5.6868">
        <ele>847.3</ele>
      </trkpt>
      <trkpt lat="44.08585" lon="5.687">
        <ele>848.3</ele>
      </trkpt>
      <trkpt lat="44.08606" lon="5.68821">
        <ele>850.6</ele>
      </trkpt>
      <trkpt lat="44.08607" lon="5.68842">
        <ele>850.7</ele>
      </trkpt>
      <trkpt lat="44.08606" lon="5.68881">
        <ele>850.6</ele>
      </trkpt>
      <trkpt lat="44.08599" lon="5.68919">
        <ele>851.2</ele>
      </trkpt>
      <trkpt lat="44.0859" lon="5.68959">
        <ele>853.3</ele>
      </trkpt>
      <trkpt lat="44.08597" lon="5.68962">
        <ele>853.8</ele>
      </trkpt>
      <trkpt lat="44.08666" lon="5.68994">
        <ele>857.8</ele>
      </trkpt>
      <trkpt lat="44.08783" lon="5.69056">
        <ele>863.2</ele>
      </trkpt>
      <trkpt lat="44.08789" lon="5.69059">
        <ele>863.5</ele>
      </trkpt>
      <trkpt lat="44.08886" lon="5.69085">
        <ele>870</ele>
      </trkpt>
      <trkpt lat="44.08941" lon="5.69111">
        <ele>872.9</ele>
      </trkpt>
      <trkpt lat="44.08946" lon="5.69112">
        <ele>873.1</ele>
      </trkpt>
      <trkpt lat="44.08956" lon="5.69113">
        <ele>873.5</ele>
      </trkpt>
      <trkpt lat="44.08998" lon="5.69096">
        <ele>874.9</ele>
      </trkpt>
      <trkpt lat="44.09005" lon="5.69093">
        <ele>875.2</ele>
      </trkpt>
      <trkpt lat="44.09015" lon="5.69094">
        <ele>875.7</ele>
      </trkpt>
      <trkpt lat="44.09033" lon="5.69092">
        <ele>876.3</ele>
      </trkpt>
      <trkpt lat="44.0905" lon="5.69085">
        <ele>876.1</ele>
      </trkpt>
      <trkpt lat="44.09086" lon="5.69064">
        <ele>874.6</ele>
      </trkpt>
      <trkpt lat="44.09093" lon="5.69062">
        <ele>873.4</ele>
      </trkpt>
      <trkpt lat="44.09142" lon="5.6906">
        <ele>874.4</ele>
      </trkpt>
      <trkpt lat="44.09151" lon="5.69056">
        <ele>874.9</ele>
      </trkpt>
    </trkseg>
  </trk>
</gpx>